<?xml version="1.0" encoding="UTF-8" standalone="no" ?>
<gpx xmlns="http://www.topografix.com/GPX/1/1" xmlns:xsi="http://www.w3.org/2001/XMLSchema-instance" xsi:schemaLocation="http://www.topografix.com/GPX/1/1 http://www.topografix.com/GPX/1/1/gpx.xsd" version="1.1" creator="VisuGPX - https://www.visugpx.com">
  <metadata>
    <name>LaLouvesc-Plus</name>
    <desc><![CDATA[LaLouvesc-Plus]]></desc>
  </metadata>
  <trk>
    <name><![CDATA[La Louvesc]]></name>
    <cmt><![CDATA[Gilles, Jacques, Edouard, Thierry, Philippe2, Jean-Pierre, Martine, Laurent]]></cmt>
    <trkseg>
      <trkpt lat="45.1157" lon="4.96429">
        <ele>202.24099731445</ele>
        <time>2010-07-24T11:21:48Z</time>
      </trkpt>
      <trkpt lat="45.11574" lon="4.96429">
        <ele>204.64799499512</ele>
        <time>2010-07-24T11:22:00Z</time>
      </trkpt>
      <trkpt lat="45.11573" lon="4.9643">
        <ele>204.86399841309</ele>
        <time>2010-07-24T11:22:05Z</time>
      </trkpt>
      <trkpt lat="45.11573" lon="4.9643">
        <ele>204.73899841309</ele>
        <time>2010-07-24T11:22:07Z</time>
      </trkpt>
      <trkpt lat="45.11572" lon="4.96431">
        <ele>204.43800354004</ele>
        <time>2010-07-24T11:22:11Z</time>
      </trkpt>
      <trkpt lat="45.1157" lon="4.96431">
        <ele>204.64799499512</ele>
        <time>2010-07-24T11:22:14Z</time>
      </trkpt>
      <trkpt lat="45.11568" lon="4.9643">
        <ele>204.43299865723</ele>
        <time>2010-07-24T11:22:18Z</time>
      </trkpt>
      <trkpt lat="45.1157" lon="4.9643">
        <ele>204.59899902344</ele>
        <time>2010-07-24T11:22:23Z</time>
      </trkpt>
      <trkpt lat="45.11571" lon="4.9643">
        <ele>204.89100646973</ele>
        <time>2010-07-24T11:22:25Z</time>
      </trkpt>
      <trkpt lat="45.11571" lon="4.96429">
        <ele>204.89799499512</ele>
        <time>2010-07-24T11:22:26Z</time>
      </trkpt>
      <trkpt lat="45.1157" lon="4.96432">
        <ele>204.83799743652</ele>
        <time>2010-07-24T11:23:10Z</time>
      </trkpt>
      <trkpt lat="45.11569" lon="4.96431">
        <ele>204.77699279785</ele>
        <time>2010-07-24T11:23:11Z</time>
      </trkpt>
      <trkpt lat="45.11568" lon="4.96431">
        <ele>204.6130065918</ele>
        <time>2010-07-24T11:23:13Z</time>
      </trkpt>
      <trkpt lat="45.11562" lon="4.96442">
        <ele>204.60200500488</ele>
        <time>2010-07-24T11:23:19Z</time>
      </trkpt>
      <trkpt lat="45.11567" lon="4.96453">
        <ele>203.32200622559</ele>
        <time>2010-07-24T11:23:22Z</time>
      </trkpt>
      <trkpt lat="45.11574" lon="4.96454">
        <ele>204.46200561523</ele>
        <time>2010-07-24T11:23:25Z</time>
      </trkpt>
      <trkpt lat="45.11576" lon="4.96449">
        <ele>204.86799621582</ele>
        <time>2010-07-24T11:23:30Z</time>
      </trkpt>
      <trkpt lat="45.11573" lon="4.96448">
        <ele>204.48599243164</ele>
        <time>2010-07-24T11:23:39Z</time>
      </trkpt>
      <trkpt lat="45.11573" lon="4.9645">
        <ele>203.63800048828</ele>
        <time>2010-07-24T11:23:44Z</time>
      </trkpt>
      <trkpt lat="45.11578" lon="4.96459">
        <ele>203.86000061035</ele>
        <time>2010-07-24T11:23:49Z</time>
      </trkpt>
      <trkpt lat="45.11578" lon="4.96479">
        <ele>203.55700683594</ele>
        <time>2010-07-24T11:23:53Z</time>
      </trkpt>
      <trkpt lat="45.11578" lon="4.96505">
        <ele>202.30999755859</ele>
        <time>2010-07-24T11:23:57Z</time>
      </trkpt>
      <trkpt lat="45.11581" lon="4.96522">
        <ele>201.04600524902</ele>
        <time>2010-07-24T11:23:59Z</time>
      </trkpt>
      <trkpt lat="45.11601" lon="4.96574">
        <ele>201.01699829102</ele>
        <time>2010-07-24T11:24:06Z</time>
      </trkpt>
      <trkpt lat="45.11617" lon="4.96615">
        <ele>202.40899658203</ele>
        <time>2010-07-24T11:24:11Z</time>
      </trkpt>
      <trkpt lat="45.11642" lon="4.96679">
        <ele>201.10099792481</ele>
        <time>2010-07-24T11:24:19Z</time>
      </trkpt>
      <trkpt lat="45.11674" lon="4.96753">
        <ele>203.41600036621</ele>
        <time>2010-07-24T11:24:29Z</time>
      </trkpt>
      <trkpt lat="45.1171" lon="4.96812">
        <ele>202.79899597168</ele>
        <time>2010-07-24T11:24:38Z</time>
      </trkpt>
      <trkpt lat="45.11721" lon="4.96832">
        <ele>202.63900756836</ele>
        <time>2010-07-24T11:24:41Z</time>
      </trkpt>
      <trkpt lat="45.11729" lon="4.96855">
        <ele>202.66999816894</ele>
        <time>2010-07-24T11:24:44Z</time>
      </trkpt>
      <trkpt lat="45.11746" lon="4.96879">
        <ele>203.99899291992</ele>
        <time>2010-07-24T11:24:48Z</time>
      </trkpt>
      <trkpt lat="45.11773" lon="4.96914">
        <ele>203.52400207519</ele>
        <time>2010-07-24T11:24:54Z</time>
      </trkpt>
      <trkpt lat="45.11805" lon="4.96965">
        <ele>203.78199768066</ele>
        <time>2010-07-24T11:25:02Z</time>
      </trkpt>
      <trkpt lat="45.11846" lon="4.97022">
        <ele>204.33200073242</ele>
        <time>2010-07-24T11:25:11Z</time>
      </trkpt>
      <trkpt lat="45.11866" lon="4.97049">
        <ele>203.89199829102</ele>
        <time>2010-07-24T11:25:15Z</time>
      </trkpt>
      <trkpt lat="45.11876" lon="4.97082">
        <ele>203.71099853516</ele>
        <time>2010-07-24T11:25:19Z</time>
      </trkpt>
      <trkpt lat="45.11871" lon="4.97126">
        <ele>203.85499572754</ele>
        <time>2010-07-24T11:25:23Z</time>
      </trkpt>
      <trkpt lat="45.11872" lon="4.97174">
        <ele>202.3690032959</ele>
        <time>2010-07-24T11:25:27Z</time>
      </trkpt>
      <trkpt lat="45.1189" lon="4.97279">
        <ele>200.08200073242</ele>
        <time>2010-07-24T11:25:36Z</time>
      </trkpt>
      <trkpt lat="45.11908" lon="4.97379">
        <ele>201.00799560547</ele>
        <time>2010-07-24T11:25:45Z</time>
      </trkpt>
      <trkpt lat="45.11928" lon="4.97492">
        <ele>203.3450012207</ele>
        <time>2010-07-24T11:25:56Z</time>
      </trkpt>
      <trkpt lat="45.11941" lon="4.97571">
        <ele>203.07499694824</ele>
        <time>2010-07-24T11:26:04Z</time>
      </trkpt>
      <trkpt lat="45.11945" lon="4.97599">
        <ele>204.85499572754</ele>
        <time>2010-07-24T11:26:07Z</time>
      </trkpt>
      <trkpt lat="45.1196" lon="4.97678">
        <ele>204.90699768066</ele>
        <time>2010-07-24T11:26:15Z</time>
      </trkpt>
      <trkpt lat="45.11976" lon="4.9777">
        <ele>204.29499816894</ele>
        <time>2010-07-24T11:26:24Z</time>
      </trkpt>
      <trkpt lat="45.11991" lon="4.97856">
        <ele>203.93200683594</ele>
        <time>2010-07-24T11:26:33Z</time>
      </trkpt>
      <trkpt lat="45.12006" lon="4.97939">
        <ele>206.31799316406</ele>
        <time>2010-07-24T11:26:42Z</time>
      </trkpt>
      <trkpt lat="45.12028" lon="4.9802">
        <ele>208.08799743652</ele>
        <time>2010-07-24T11:26:51Z</time>
      </trkpt>
      <trkpt lat="45.12053" lon="4.98118">
        <ele>208.07000732422</ele>
        <time>2010-07-24T11:27:02Z</time>
      </trkpt>
      <trkpt lat="45.12064" lon="4.98202">
        <ele>209.12800598144</ele>
        <time>2010-07-24T11:27:11Z</time>
      </trkpt>
      <trkpt lat="45.12061" lon="4.98277">
        <ele>209.7200012207</ele>
        <time>2010-07-24T11:27:19Z</time>
      </trkpt>
      <trkpt lat="45.12053" lon="4.98332">
        <ele>210.24899291992</ele>
        <time>2010-07-24T11:27:25Z</time>
      </trkpt>
      <trkpt lat="45.1204" lon="4.98384">
        <ele>211.41000366211</ele>
        <time>2010-07-24T11:27:31Z</time>
      </trkpt>
      <trkpt lat="45.1203" lon="4.98403">
        <ele>212.72500610352</ele>
        <time>2010-07-24T11:27:34Z</time>
      </trkpt>
      <trkpt lat="45.12012" lon="4.98405">
        <ele>212.06399536133</ele>
        <time>2010-07-24T11:27:37Z</time>
      </trkpt>
      <trkpt lat="45.12006" lon="4.98403">
        <ele>211.3809967041</ele>
        <time>2010-07-24T11:27:38Z</time>
      </trkpt>
      <trkpt lat="45.11993" lon="4.98396">
        <ele>210.74800109863</ele>
        <time>2010-07-24T11:27:40Z</time>
      </trkpt>
      <trkpt lat="45.11973" lon="4.984">
        <ele>210.19500732422</ele>
        <time>2010-07-24T11:27:43Z</time>
      </trkpt>
      <trkpt lat="45.11966" lon="4.98414">
        <ele>210.06700134277</ele>
        <time>2010-07-24T11:27:45Z</time>
      </trkpt>
      <trkpt lat="45.11966" lon="4.98423">
        <ele>210.24899291992</ele>
        <time>2010-07-24T11:27:46Z</time>
      </trkpt>
      <trkpt lat="45.11968" lon="4.98448">
        <ele>211.04699707031</ele>
        <time>2010-07-24T11:27:51Z</time>
      </trkpt>
      <trkpt lat="45.11968" lon="4.98448">
        <ele>211.14799499512</ele>
        <time>2010-07-24T11:27:53Z</time>
      </trkpt>
      <trkpt lat="45.11976" lon="4.98444">
        <ele>209.47500610352</ele>
        <time>2010-07-24T11:33:52Z</time>
      </trkpt>
      <trkpt lat="45.11977" lon="4.98445">
        <ele>209.71600341797</ele>
        <time>2010-07-24T11:33:53Z</time>
      </trkpt>
      <trkpt lat="45.11979" lon="4.98444">
        <ele>210.33399963379</ele>
        <time>2010-07-24T11:33:57Z</time>
      </trkpt>
      <trkpt lat="45.11978" lon="4.98437">
        <ele>209.72700500488</ele>
        <time>2010-07-24T11:34:48Z</time>
      </trkpt>
      <trkpt lat="45.11978" lon="4.98436">
        <ele>209.79899597168</ele>
        <time>2010-07-24T11:34:49Z</time>
      </trkpt>
      <trkpt lat="45.11978" lon="4.98422">
        <ele>210.12100219727</ele>
        <time>2010-07-24T11:34:55Z</time>
      </trkpt>
      <trkpt lat="45.11975" lon="4.98409">
        <ele>210.16000366211</ele>
        <time>2010-07-24T11:35:00Z</time>
      </trkpt>
      <trkpt lat="45.11964" lon="4.98405">
        <ele>209.875</ele>
        <time>2010-07-24T11:35:05Z</time>
      </trkpt>
      <trkpt lat="45.11959" lon="4.98405">
        <ele>209.95100402832</ele>
        <time>2010-07-24T11:35:07Z</time>
      </trkpt>
      <trkpt lat="45.11958" lon="4.98417">
        <ele>209.87100219727</ele>
        <time>2010-07-24T11:35:12Z</time>
      </trkpt>
      <trkpt lat="45.11959" lon="4.98417">
        <ele>209.87899780273</ele>
        <time>2010-07-24T11:35:14Z</time>
      </trkpt>
      <trkpt lat="45.11956" lon="4.9841">
        <ele>207.9640045166</ele>
        <time>2010-07-24T11:41:07Z</time>
      </trkpt>
      <trkpt lat="45.11962" lon="4.98397">
        <ele>207.69999694824</ele>
        <time>2010-07-24T11:41:12Z</time>
      </trkpt>
      <trkpt lat="45.11975" lon="4.98394">
        <ele>207.19099426269</ele>
        <time>2010-07-24T11:41:16Z</time>
      </trkpt>
      <trkpt lat="45.11982" lon="4.9839">
        <ele>207.31599426269</ele>
        <time>2010-07-24T11:41:18Z</time>
      </trkpt>
      <trkpt lat="45.12001" lon="4.98396">
        <ele>207.46099853516</ele>
        <time>2010-07-24T11:41:23Z</time>
      </trkpt>
      <trkpt lat="45.12005" lon="4.98398">
        <ele>207.6609954834</ele>
        <time>2010-07-24T11:41:24Z</time>
      </trkpt>
      <trkpt lat="45.12013" lon="4.98402">
        <ele>207.76699829102</ele>
        <time>2010-07-24T11:41:26Z</time>
      </trkpt>
      <trkpt lat="45.12029" lon="4.9842">
        <ele>208.7619934082</ele>
        <time>2010-07-24T11:41:31Z</time>
      </trkpt>
      <trkpt lat="45.12031" lon="4.98425">
        <ele>208.93400573731</ele>
        <time>2010-07-24T11:41:32Z</time>
      </trkpt>
      <trkpt lat="45.12044" lon="4.98433">
        <ele>208.75999450684</ele>
        <time>2010-07-24T11:41:35Z</time>
      </trkpt>
      <trkpt lat="45.12051" lon="4.98425">
        <ele>208.85600280762</ele>
        <time>2010-07-24T11:41:37Z</time>
      </trkpt>
      <trkpt lat="45.12055" lon="4.98411">
        <ele>208.73300170898</ele>
        <time>2010-07-24T11:41:39Z</time>
      </trkpt>
      <trkpt lat="45.12055" lon="4.98398">
        <ele>208.83200073242</ele>
        <time>2010-07-24T11:41:41Z</time>
      </trkpt>
      <trkpt lat="45.12053" lon="4.98384">
        <ele>208.8450012207</ele>
        <time>2010-07-24T11:41:43Z</time>
      </trkpt>
      <trkpt lat="45.12059" lon="4.98344">
        <ele>208.15299987793</ele>
        <time>2010-07-24T11:41:48Z</time>
      </trkpt>
      <trkpt lat="45.12069" lon="4.98276">
        <ele>207.31700134277</ele>
        <time>2010-07-24T11:41:56Z</time>
      </trkpt>
      <trkpt lat="45.12073" lon="4.9821">
        <ele>207.0359954834</ele>
        <time>2010-07-24T11:42:04Z</time>
      </trkpt>
      <trkpt lat="45.12069" lon="4.98144">
        <ele>206.13900756836</ele>
        <time>2010-07-24T11:42:12Z</time>
      </trkpt>
      <trkpt lat="45.12059" lon="4.98092">
        <ele>205.67599487305</ele>
        <time>2010-07-24T11:42:18Z</time>
      </trkpt>
      <trkpt lat="45.12042" lon="4.98031">
        <ele>205.64599609375</ele>
        <time>2010-07-24T11:42:25Z</time>
      </trkpt>
      <trkpt lat="45.12032" lon="4.97995">
        <ele>204.83599853516</ele>
        <time>2010-07-24T11:42:29Z</time>
      </trkpt>
      <trkpt lat="45.12022" lon="4.97956">
        <ele>204.61999511719</ele>
        <time>2010-07-24T11:42:34Z</time>
      </trkpt>
      <trkpt lat="45.12016" lon="4.97927">
        <ele>204.30499267578</ele>
        <time>2010-07-24T11:42:38Z</time>
      </trkpt>
      <trkpt lat="45.12009" lon="4.97896">
        <ele>204.08999633789</ele>
        <time>2010-07-24T11:42:42Z</time>
      </trkpt>
      <trkpt lat="45.11996" lon="4.97822">
        <ele>203.09700012207</ele>
        <time>2010-07-24T11:42:51Z</time>
      </trkpt>
      <trkpt lat="45.11982" lon="4.97743">
        <ele>202.56300354004</ele>
        <time>2010-07-24T11:43:00Z</time>
      </trkpt>
      <trkpt lat="45.11969" lon="4.97667">
        <ele>202.47399902344</ele>
        <time>2010-07-24T11:43:09Z</time>
      </trkpt>
      <trkpt lat="45.11958" lon="4.976">
        <ele>202.48100280762</ele>
        <time>2010-07-24T11:43:17Z</time>
      </trkpt>
      <trkpt lat="45.11957" lon="4.97592">
        <ele>202.40899658203</ele>
        <time>2010-07-24T11:43:18Z</time>
      </trkpt>
      <trkpt lat="45.1195" lon="4.97557">
        <ele>201.57499694824</ele>
        <time>2010-07-24T11:43:22Z</time>
      </trkpt>
      <trkpt lat="45.11941" lon="4.97507">
        <ele>200.91000366211</ele>
        <time>2010-07-24T11:43:27Z</time>
      </trkpt>
      <trkpt lat="45.11932" lon="4.97454">
        <ele>200.00300598144</ele>
        <time>2010-07-24T11:43:32Z</time>
      </trkpt>
      <trkpt lat="45.11913" lon="4.97341">
        <ele>199.56100463867</ele>
        <time>2010-07-24T11:43:42Z</time>
      </trkpt>
      <trkpt lat="45.119" lon="4.97266">
        <ele>199.21200561523</ele>
        <time>2010-07-24T11:43:49Z</time>
      </trkpt>
      <trkpt lat="45.11889" lon="4.97206">
        <ele>200.58799743652</ele>
        <time>2010-07-24T11:43:55Z</time>
      </trkpt>
      <trkpt lat="45.1188" lon="4.97154">
        <ele>200.84800720215</ele>
        <time>2010-07-24T11:44:01Z</time>
      </trkpt>
      <trkpt lat="45.11883" lon="4.97114">
        <ele>200.75999450684</ele>
        <time>2010-07-24T11:44:06Z</time>
      </trkpt>
      <trkpt lat="45.11891" lon="4.97094">
        <ele>201.2859954834</ele>
        <time>2010-07-24T11:44:09Z</time>
      </trkpt>
      <trkpt lat="45.119" lon="4.97065">
        <ele>202.77099609375</ele>
        <time>2010-07-24T11:44:14Z</time>
      </trkpt>
      <trkpt lat="45.11891" lon="4.97055">
        <ele>202.28199768066</ele>
        <time>2010-07-24T11:44:16Z</time>
      </trkpt>
      <trkpt lat="45.1185" lon="4.97009">
        <ele>202.00900268555</ele>
        <time>2010-07-24T11:44:24Z</time>
      </trkpt>
      <trkpt lat="45.11805" lon="4.96945">
        <ele>201.89900207519</ele>
        <time>2010-07-24T11:44:33Z</time>
      </trkpt>
      <trkpt lat="45.11783" lon="4.96911">
        <ele>202.51499938965</ele>
        <time>2010-07-24T11:44:38Z</time>
      </trkpt>
      <trkpt lat="45.11766" lon="4.96882">
        <ele>202.19299316406</ele>
        <time>2010-07-24T11:44:43Z</time>
      </trkpt>
      <trkpt lat="45.11761" lon="4.96852">
        <ele>201.77200317383</ele>
        <time>2010-07-24T11:44:47Z</time>
      </trkpt>
      <trkpt lat="45.11757" lon="4.96828">
        <ele>202.07099914551</ele>
        <time>2010-07-24T11:44:50Z</time>
      </trkpt>
      <trkpt lat="45.11753" lon="4.96797">
        <ele>201.56799316406</ele>
        <time>2010-07-24T11:44:54Z</time>
      </trkpt>
      <trkpt lat="45.11766" lon="4.96781">
        <ele>201.78900146484</ele>
        <time>2010-07-24T11:44:57Z</time>
      </trkpt>
      <trkpt lat="45.11771" lon="4.96778">
        <ele>201.97999572754</ele>
        <time>2010-07-24T11:44:58Z</time>
      </trkpt>
      <trkpt lat="45.11792" lon="4.96767">
        <ele>202.03700256348</ele>
        <time>2010-07-24T11:45:02Z</time>
      </trkpt>
      <trkpt lat="45.11819" lon="4.96738">
        <ele>202.88200378418</ele>
        <time>2010-07-24T11:45:08Z</time>
      </trkpt>
      <trkpt lat="45.11846" lon="4.96679">
        <ele>203.57099914551</ele>
        <time>2010-07-24T11:45:17Z</time>
      </trkpt>
      <trkpt lat="45.11862" lon="4.96629">
        <ele>204.61099243164</ele>
        <time>2010-07-24T11:45:25Z</time>
      </trkpt>
      <trkpt lat="45.11872" lon="4.96595">
        <ele>205.48500061035</ele>
        <time>2010-07-24T11:45:31Z</time>
      </trkpt>
      <trkpt lat="45.11876" lon="4.96563">
        <ele>206.38800048828</ele>
        <time>2010-07-24T11:45:36Z</time>
      </trkpt>
      <trkpt lat="45.11885" lon="4.96512">
        <ele>206.26499938965</ele>
        <time>2010-07-24T11:45:43Z</time>
      </trkpt>
      <trkpt lat="45.1188" lon="4.96469">
        <ele>206.65299987793</ele>
        <time>2010-07-24T11:45:49Z</time>
      </trkpt>
      <trkpt lat="45.11877" lon="4.96463">
        <ele>206.57099914551</ele>
        <time>2010-07-24T11:45:50Z</time>
      </trkpt>
      <trkpt lat="45.11853" lon="4.96418">
        <ele>207.77600097656</ele>
        <time>2010-07-24T11:45:58Z</time>
      </trkpt>
      <trkpt lat="45.11847" lon="4.96406">
        <ele>207.77099609375</ele>
        <time>2010-07-24T11:46:00Z</time>
      </trkpt>
      <trkpt lat="45.11837" lon="4.96368">
        <ele>210.59399414062</ele>
        <time>2010-07-24T11:46:06Z</time>
      </trkpt>
      <trkpt lat="45.11832" lon="4.96322">
        <ele>213.11599731445</ele>
        <time>2010-07-24T11:46:14Z</time>
      </trkpt>
      <trkpt lat="45.11823" lon="4.96279">
        <ele>215.19500732422</ele>
        <time>2010-07-24T11:46:22Z</time>
      </trkpt>
      <trkpt lat="45.11813" lon="4.96245">
        <ele>216.68099975586</ele>
        <time>2010-07-24T11:46:28Z</time>
      </trkpt>
      <trkpt lat="45.11808" lon="4.96192">
        <ele>219.27799987793</ele>
        <time>2010-07-24T11:46:37Z</time>
      </trkpt>
      <trkpt lat="45.11804" lon="4.96144">
        <ele>220.86500549316</ele>
        <time>2010-07-24T11:46:46Z</time>
      </trkpt>
      <trkpt lat="45.11801" lon="4.96103">
        <ele>222.81100463867</ele>
        <time>2010-07-24T11:46:54Z</time>
      </trkpt>
      <trkpt lat="45.11797" lon="4.96068">
        <ele>225.05099487305</ele>
        <time>2010-07-24T11:47:01Z</time>
      </trkpt>
      <trkpt lat="45.11792" lon="4.96039">
        <ele>225.47700500488</ele>
        <time>2010-07-24T11:47:07Z</time>
      </trkpt>
      <trkpt lat="45.11783" lon="4.95983">
        <ele>228.41900634766</ele>
        <time>2010-07-24T11:47:18Z</time>
      </trkpt>
      <trkpt lat="45.11775" lon="4.95937">
        <ele>231.06399536133</ele>
        <time>2010-07-24T11:47:27Z</time>
      </trkpt>
      <trkpt lat="45.11769" lon="4.95907">
        <ele>232.34599304199</ele>
        <time>2010-07-24T11:47:33Z</time>
      </trkpt>
      <trkpt lat="45.11757" lon="4.95858">
        <ele>234.43400573731</ele>
        <time>2010-07-24T11:47:43Z</time>
      </trkpt>
      <trkpt lat="45.11748" lon="4.9582">
        <ele>235.73100280762</ele>
        <time>2010-07-24T11:47:51Z</time>
      </trkpt>
      <trkpt lat="45.11741" lon="4.95779">
        <ele>236.56500244141</ele>
        <time>2010-07-24T11:47:59Z</time>
      </trkpt>
      <trkpt lat="45.1174" lon="4.95773">
        <ele>236.45599365234</ele>
        <time>2010-07-24T11:48:00Z</time>
      </trkpt>
      <trkpt lat="45.1174" lon="4.95732">
        <ele>234.65400695801</ele>
        <time>2010-07-24T11:48:06Z</time>
      </trkpt>
      <trkpt lat="45.11742" lon="4.95694">
        <ele>232.02699279785</ele>
        <time>2010-07-24T11:48:10Z</time>
      </trkpt>
      <trkpt lat="45.11743" lon="4.95672">
        <ele>231.17300415039</ele>
        <time>2010-07-24T11:48:12Z</time>
      </trkpt>
      <trkpt lat="45.11744" lon="4.95661">
        <ele>230.85499572754</ele>
        <time>2010-07-24T11:48:13Z</time>
      </trkpt>
      <trkpt lat="45.1176" lon="4.95628">
        <ele>228.49000549316</ele>
        <time>2010-07-24T11:48:17Z</time>
      </trkpt>
      <trkpt lat="45.11776" lon="4.95624">
        <ele>227.42300415039</ele>
        <time>2010-07-24T11:48:19Z</time>
      </trkpt>
      <trkpt lat="45.11802" lon="4.95606">
        <ele>225.06599426269</ele>
        <time>2010-07-24T11:48:23Z</time>
      </trkpt>
      <trkpt lat="45.11802" lon="4.95584">
        <ele>223.42199707031</ele>
        <time>2010-07-24T11:48:25Z</time>
      </trkpt>
      <trkpt lat="45.11802" lon="4.95536">
        <ele>221.10699462891</ele>
        <time>2010-07-24T11:48:29Z</time>
      </trkpt>
      <trkpt lat="45.11814" lon="4.95518">
        <ele>219.74099731445</ele>
        <time>2010-07-24T11:48:31Z</time>
      </trkpt>
      <trkpt lat="45.11829" lon="4.95487">
        <ele>217.20500183106</ele>
        <time>2010-07-24T11:48:34Z</time>
      </trkpt>
      <trkpt lat="45.11829" lon="4.95474">
        <ele>216.95300292969</ele>
        <time>2010-07-24T11:48:35Z</time>
      </trkpt>
      <trkpt lat="45.11818" lon="4.95443">
        <ele>217.43099975586</ele>
        <time>2010-07-24T11:48:38Z</time>
      </trkpt>
      <trkpt lat="45.11797" lon="4.95428">
        <ele>218.75500488281</ele>
        <time>2010-07-24T11:48:41Z</time>
      </trkpt>
      <trkpt lat="45.11782" lon="4.95423">
        <ele>219.47099304199</ele>
        <time>2010-07-24T11:48:43Z</time>
      </trkpt>
      <trkpt lat="45.11768" lon="4.95421">
        <ele>220.45500183106</ele>
        <time>2010-07-24T11:48:45Z</time>
      </trkpt>
      <trkpt lat="45.11756" lon="4.95419">
        <ele>221.79699707031</ele>
        <time>2010-07-24T11:48:47Z</time>
      </trkpt>
      <trkpt lat="45.11738" lon="4.95411">
        <ele>223.65100097656</ele>
        <time>2010-07-24T11:48:50Z</time>
      </trkpt>
      <trkpt lat="45.11728" lon="4.95403">
        <ele>224.73699951172</ele>
        <time>2010-07-24T11:48:52Z</time>
      </trkpt>
      <trkpt lat="45.11723" lon="4.95397">
        <ele>224.93099975586</ele>
        <time>2010-07-24T11:48:53Z</time>
      </trkpt>
      <trkpt lat="45.11715" lon="4.95375">
        <ele>226.34399414062</ele>
        <time>2010-07-24T11:48:56Z</time>
      </trkpt>
      <trkpt lat="45.11717" lon="4.9535">
        <ele>227.21499633789</ele>
        <time>2010-07-24T11:48:59Z</time>
      </trkpt>
      <trkpt lat="45.11718" lon="4.95342">
        <ele>227.7619934082</ele>
        <time>2010-07-24T11:49:00Z</time>
      </trkpt>
      <trkpt lat="45.11722" lon="4.95318">
        <ele>229.22399902344</ele>
        <time>2010-07-24T11:49:03Z</time>
      </trkpt>
      <trkpt lat="45.11719" lon="4.95276">
        <ele>231.13200378418</ele>
        <time>2010-07-24T11:49:08Z</time>
      </trkpt>
      <trkpt lat="45.11713" lon="4.95261">
        <ele>231.68899536133</ele>
        <time>2010-07-24T11:49:10Z</time>
      </trkpt>
      <trkpt lat="45.11692" lon="4.95205">
        <ele>233.43400573731</ele>
        <time>2010-07-24T11:49:18Z</time>
      </trkpt>
      <trkpt lat="45.11675" lon="4.95142">
        <ele>234.52299499512</ele>
        <time>2010-07-24T11:49:27Z</time>
      </trkpt>
      <trkpt lat="45.11657" lon="4.95086">
        <ele>235.13400268555</ele>
        <time>2010-07-24T11:49:36Z</time>
      </trkpt>
      <trkpt lat="45.11639" lon="4.95045">
        <ele>236.52099609375</ele>
        <time>2010-07-24T11:49:43Z</time>
      </trkpt>
      <trkpt lat="45.11621" lon="4.95006">
        <ele>237.69599914551</ele>
        <time>2010-07-24T11:49:50Z</time>
      </trkpt>
      <trkpt lat="45.11597" lon="4.94948">
        <ele>237.14599609375</ele>
        <time>2010-07-24T11:50:00Z</time>
      </trkpt>
      <trkpt lat="45.11584" lon="4.94902">
        <ele>237.7619934082</ele>
        <time>2010-07-24T11:50:07Z</time>
      </trkpt>
      <trkpt lat="45.1158" lon="4.94881">
        <ele>237.99200439453</ele>
        <time>2010-07-24T11:50:10Z</time>
      </trkpt>
      <trkpt lat="45.11575" lon="4.9486">
        <ele>237.50399780273</ele>
        <time>2010-07-24T11:50:13Z</time>
      </trkpt>
      <trkpt lat="45.11571" lon="4.94837">
        <ele>237.09899902344</ele>
        <time>2010-07-24T11:50:16Z</time>
      </trkpt>
      <trkpt lat="45.11562" lon="4.94775">
        <ele>234.93099975586</ele>
        <time>2010-07-24T11:50:24Z</time>
      </trkpt>
      <trkpt lat="45.11556" lon="4.94706">
        <ele>233.66000366211</ele>
        <time>2010-07-24T11:50:32Z</time>
      </trkpt>
      <trkpt lat="45.11557" lon="4.94643">
        <ele>232.80499267578</ele>
        <time>2010-07-24T11:50:39Z</time>
      </trkpt>
      <trkpt lat="45.11557" lon="4.94618">
        <ele>233.38200378418</ele>
        <time>2010-07-24T11:50:42Z</time>
      </trkpt>
      <trkpt lat="45.1156" lon="4.94553">
        <ele>231.21699523926</ele>
        <time>2010-07-24T11:50:50Z</time>
      </trkpt>
      <trkpt lat="45.1157" lon="4.94515">
        <ele>230.68600463867</ele>
        <time>2010-07-24T11:50:55Z</time>
      </trkpt>
      <trkpt lat="45.11599" lon="4.94476">
        <ele>228.09800720215</ele>
        <time>2010-07-24T11:51:01Z</time>
      </trkpt>
      <trkpt lat="45.11604" lon="4.9447">
        <ele>227.70399475098</ele>
        <time>2010-07-24T11:51:02Z</time>
      </trkpt>
      <trkpt lat="45.11629" lon="4.9445">
        <ele>225.28399658203</ele>
        <time>2010-07-24T11:51:06Z</time>
      </trkpt>
      <trkpt lat="45.11664" lon="4.94431">
        <ele>222.13299560547</ele>
        <time>2010-07-24T11:51:11Z</time>
      </trkpt>
      <trkpt lat="45.11671" lon="4.94428">
        <ele>222.07600402832</ele>
        <time>2010-07-24T11:51:12Z</time>
      </trkpt>
      <trkpt lat="45.11693" lon="4.94425">
        <ele>221.52900695801</ele>
        <time>2010-07-24T11:51:15Z</time>
      </trkpt>
      <trkpt lat="45.11722" lon="4.94413">
        <ele>219.37699890137</ele>
        <time>2010-07-24T11:51:19Z</time>
      </trkpt>
      <trkpt lat="45.11755" lon="4.94376">
        <ele>217.00700378418</ele>
        <time>2010-07-24T11:51:24Z</time>
      </trkpt>
      <trkpt lat="45.1176" lon="4.94368">
        <ele>216.93299865723</ele>
        <time>2010-07-24T11:51:25Z</time>
      </trkpt>
      <trkpt lat="45.11781" lon="4.94327">
        <ele>216.82299804688</ele>
        <time>2010-07-24T11:51:30Z</time>
      </trkpt>
      <trkpt lat="45.11787" lon="4.94282">
        <ele>217.03500366211</ele>
        <time>2010-07-24T11:51:35Z</time>
      </trkpt>
      <trkpt lat="45.11788" lon="4.94223">
        <ele>215.92100524902</ele>
        <time>2010-07-24T11:51:42Z</time>
      </trkpt>
      <trkpt lat="45.11789" lon="4.94191">
        <ele>217.42199707031</ele>
        <time>2010-07-24T11:51:46Z</time>
      </trkpt>
      <trkpt lat="45.11794" lon="4.9416">
        <ele>218.3869934082</ele>
        <time>2010-07-24T11:51:50Z</time>
      </trkpt>
      <trkpt lat="45.11795" lon="4.94152">
        <ele>218.57899475098</ele>
        <time>2010-07-24T11:51:51Z</time>
      </trkpt>
      <trkpt lat="45.1181" lon="4.94092">
        <ele>218.46600341797</ele>
        <time>2010-07-24T11:51:59Z</time>
      </trkpt>
      <trkpt lat="45.11821" lon="4.94036">
        <ele>218.88800048828</ele>
        <time>2010-07-24T11:52:06Z</time>
      </trkpt>
      <trkpt lat="45.11817" lon="4.94016">
        <ele>219.0359954834</ele>
        <time>2010-07-24T11:52:09Z</time>
      </trkpt>
      <trkpt lat="45.11806" lon="4.94013">
        <ele>219.02499389648</ele>
        <time>2010-07-24T11:52:11Z</time>
      </trkpt>
      <trkpt lat="45.11756" lon="4.9401">
        <ele>218.63900756836</ele>
        <time>2010-07-24T11:52:19Z</time>
      </trkpt>
      <trkpt lat="45.11685" lon="4.93999">
        <ele>218.32299804688</ele>
        <time>2010-07-24T11:52:30Z</time>
      </trkpt>
      <trkpt lat="45.11631" lon="4.9399">
        <ele>217.92799377441</ele>
        <time>2010-07-24T11:52:38Z</time>
      </trkpt>
      <trkpt lat="45.11581" lon="4.93979">
        <ele>217.46000671387</ele>
        <time>2010-07-24T11:52:45Z</time>
      </trkpt>
      <trkpt lat="45.11547" lon="4.9396">
        <ele>217.11399841309</ele>
        <time>2010-07-24T11:52:50Z</time>
      </trkpt>
      <trkpt lat="45.11512" lon="4.93927">
        <ele>217.63200378418</ele>
        <time>2010-07-24T11:52:56Z</time>
      </trkpt>
      <trkpt lat="45.11473" lon="4.93883">
        <ele>217.70399475098</ele>
        <time>2010-07-24T11:53:03Z</time>
      </trkpt>
      <trkpt lat="45.11445" lon="4.93845">
        <ele>219.11500549316</ele>
        <time>2010-07-24T11:53:09Z</time>
      </trkpt>
      <trkpt lat="45.11425" lon="4.93804">
        <ele>222.93200683594</ele>
        <time>2010-07-24T11:53:15Z</time>
      </trkpt>
      <trkpt lat="45.11414" lon="4.93778">
        <ele>224.88200378418</ele>
        <time>2010-07-24T11:53:19Z</time>
      </trkpt>
      <trkpt lat="45.11403" lon="4.93744">
        <ele>226.01699829102</ele>
        <time>2010-07-24T11:53:24Z</time>
      </trkpt>
      <trkpt lat="45.11378" lon="4.93672">
        <ele>227.19099426269</ele>
        <time>2010-07-24T11:53:34Z</time>
      </trkpt>
      <trkpt lat="45.11351" lon="4.93591">
        <ele>225.42799377441</ele>
        <time>2010-07-24T11:53:44Z</time>
      </trkpt>
      <trkpt lat="45.11327" lon="4.93538">
        <ele>222.73699951172</ele>
        <time>2010-07-24T11:53:50Z</time>
      </trkpt>
      <trkpt lat="45.11318" lon="4.93522">
        <ele>221.94299316406</ele>
        <time>2010-07-24T11:53:52Z</time>
      </trkpt>
      <trkpt lat="45.11288" lon="4.93477">
        <ele>219.17500305176</ele>
        <time>2010-07-24T11:53:57Z</time>
      </trkpt>
      <trkpt lat="45.11251" lon="4.93426">
        <ele>216.0119934082</ele>
        <time>2010-07-24T11:54:02Z</time>
      </trkpt>
      <trkpt lat="45.1122" lon="4.93378">
        <ele>212.99600219727</ele>
        <time>2010-07-24T11:54:06Z</time>
      </trkpt>
      <trkpt lat="45.11205" lon="4.93353">
        <ele>211.0890045166</ele>
        <time>2010-07-24T11:54:08Z</time>
      </trkpt>
      <trkpt lat="45.11191" lon="4.93326">
        <ele>210.39700317383</ele>
        <time>2010-07-24T11:54:10Z</time>
      </trkpt>
      <trkpt lat="45.11134" lon="4.93201">
        <ele>207.11799621582</ele>
        <time>2010-07-24T11:54:19Z</time>
      </trkpt>
      <trkpt lat="45.11124" lon="4.93173">
        <ele>206.45199584961</ele>
        <time>2010-07-24T11:54:21Z</time>
      </trkpt>
      <trkpt lat="45.11107" lon="4.93087">
        <ele>204.59899902344</ele>
        <time>2010-07-24T11:54:27Z</time>
      </trkpt>
      <trkpt lat="45.11092" lon="4.93012">
        <ele>204.67500305176</ele>
        <time>2010-07-24T11:54:33Z</time>
      </trkpt>
      <trkpt lat="45.11077" lon="4.92943">
        <ele>203.85499572754</ele>
        <time>2010-07-24T11:54:39Z</time>
      </trkpt>
      <trkpt lat="45.11066" lon="4.92892">
        <ele>204.35800170898</ele>
        <time>2010-07-24T11:54:44Z</time>
      </trkpt>
      <trkpt lat="45.11053" lon="4.92827">
        <ele>204.30200195312</ele>
        <time>2010-07-24T11:54:51Z</time>
      </trkpt>
      <trkpt lat="45.11039" lon="4.92764">
        <ele>203.48399353027</ele>
        <time>2010-07-24T11:54:59Z</time>
      </trkpt>
      <trkpt lat="45.11021" lon="4.92692">
        <ele>203.01600646973</ele>
        <time>2010-07-24T11:55:09Z</time>
      </trkpt>
      <trkpt lat="45.11009" lon="4.92649">
        <ele>202.88900756836</ele>
        <time>2010-07-24T11:55:16Z</time>
      </trkpt>
      <trkpt lat="45.10993" lon="4.92602">
        <ele>201.53500366211</ele>
        <time>2010-07-24T11:55:23Z</time>
      </trkpt>
      <trkpt lat="45.10981" lon="4.92562">
        <ele>200.82099914551</ele>
        <time>2010-07-24T11:55:29Z</time>
      </trkpt>
      <trkpt lat="45.10972" lon="4.92515">
        <ele>199.95799255371</ele>
        <time>2010-07-24T11:55:36Z</time>
      </trkpt>
      <trkpt lat="45.10968" lon="4.92474">
        <ele>199.71899414062</ele>
        <time>2010-07-24T11:55:41Z</time>
      </trkpt>
      <trkpt lat="45.10963" lon="4.92411">
        <ele>200.89700317383</ele>
        <time>2010-07-24T11:55:48Z</time>
      </trkpt>
      <trkpt lat="45.10958" lon="4.92345">
        <ele>200.19900512695</ele>
        <time>2010-07-24T11:55:55Z</time>
      </trkpt>
      <trkpt lat="45.10952" lon="4.92278">
        <ele>200.39799499512</ele>
        <time>2010-07-24T11:56:02Z</time>
      </trkpt>
      <trkpt lat="45.10948" lon="4.92238">
        <ele>200.72700500488</ele>
        <time>2010-07-24T11:56:06Z</time>
      </trkpt>
      <trkpt lat="45.10944" lon="4.9219">
        <ele>201.39900207519</ele>
        <time>2010-07-24T11:56:11Z</time>
      </trkpt>
      <trkpt lat="45.10931" lon="4.92159">
        <ele>200.71600341797</ele>
        <time>2010-07-24T11:56:15Z</time>
      </trkpt>
      <trkpt lat="45.10917" lon="4.9215">
        <ele>200.07299804688</ele>
        <time>2010-07-24T11:56:17Z</time>
      </trkpt>
      <trkpt lat="45.10861" lon="4.92132">
        <ele>199.66700744629</ele>
        <time>2010-07-24T11:56:25Z</time>
      </trkpt>
      <trkpt lat="45.10855" lon="4.92129">
        <ele>199.72099304199</ele>
        <time>2010-07-24T11:56:26Z</time>
      </trkpt>
      <trkpt lat="45.10835" lon="4.92106">
        <ele>198.67599487305</ele>
        <time>2010-07-24T11:56:30Z</time>
      </trkpt>
      <trkpt lat="45.1083" lon="4.9209">
        <ele>198.79299926758</ele>
        <time>2010-07-24T11:56:32Z</time>
      </trkpt>
      <trkpt lat="45.10821" lon="4.92012">
        <ele>199.20199584961</ele>
        <time>2010-07-24T11:56:40Z</time>
      </trkpt>
      <trkpt lat="45.1082" lon="4.92002">
        <ele>199.24099731445</ele>
        <time>2010-07-24T11:56:41Z</time>
      </trkpt>
      <trkpt lat="45.10809" lon="4.91969">
        <ele>199.33399963379</ele>
        <time>2010-07-24T11:56:45Z</time>
      </trkpt>
      <trkpt lat="45.10775" lon="4.91923">
        <ele>201.91499328613</ele>
        <time>2010-07-24T11:56:52Z</time>
      </trkpt>
      <trkpt lat="45.1076" lon="4.91888">
        <ele>203.64500427246</ele>
        <time>2010-07-24T11:56:57Z</time>
      </trkpt>
      <trkpt lat="45.1076" lon="4.91858">
        <ele>204.70599365234</ele>
        <time>2010-07-24T11:57:01Z</time>
      </trkpt>
      <trkpt lat="45.10767" lon="4.91816">
        <ele>207.29899597168</ele>
        <time>2010-07-24T11:57:08Z</time>
      </trkpt>
      <trkpt lat="45.1077" lon="4.91769">
        <ele>207.51300048828</ele>
        <time>2010-07-24T11:57:15Z</time>
      </trkpt>
      <trkpt lat="45.10772" lon="4.91702">
        <ele>206.1309967041</ele>
        <time>2010-07-24T11:57:23Z</time>
      </trkpt>
      <trkpt lat="45.10773" lon="4.91635">
        <ele>205.02099609375</ele>
        <time>2010-07-24T11:57:31Z</time>
      </trkpt>
      <trkpt lat="45.10775" lon="4.91564">
        <ele>203.88299560547</ele>
        <time>2010-07-24T11:57:38Z</time>
      </trkpt>
      <trkpt lat="45.10776" lon="4.91483">
        <ele>203.22300720215</ele>
        <time>2010-07-24T11:57:45Z</time>
      </trkpt>
      <trkpt lat="45.10777" lon="4.91382">
        <ele>203.16799926758</ele>
        <time>2010-07-24T11:57:54Z</time>
      </trkpt>
      <trkpt lat="45.10777" lon="4.913">
        <ele>203.55599975586</ele>
        <time>2010-07-24T11:58:02Z</time>
      </trkpt>
      <trkpt lat="45.10777" lon="4.91281">
        <ele>204.13299560547</ele>
        <time>2010-07-24T11:58:04Z</time>
      </trkpt>
      <trkpt lat="45.10786" lon="4.91245">
        <ele>204.87399291992</ele>
        <time>2010-07-24T11:58:08Z</time>
      </trkpt>
      <trkpt lat="45.10802" lon="4.91229">
        <ele>204.93600463867</ele>
        <time>2010-07-24T11:58:11Z</time>
      </trkpt>
      <trkpt lat="45.10847" lon="4.91215">
        <ele>204.98100280762</ele>
        <time>2010-07-24T11:58:18Z</time>
      </trkpt>
      <trkpt lat="45.1091" lon="4.91201">
        <ele>205.26300048828</ele>
        <time>2010-07-24T11:58:28Z</time>
      </trkpt>
      <trkpt lat="45.10981" lon="4.91183">
        <ele>204.9700012207</ele>
        <time>2010-07-24T11:58:39Z</time>
      </trkpt>
      <trkpt lat="45.11035" lon="4.91156">
        <ele>205.69200134277</ele>
        <time>2010-07-24T11:58:48Z</time>
      </trkpt>
      <trkpt lat="45.11087" lon="4.91122">
        <ele>206.36000061035</ele>
        <time>2010-07-24T11:58:57Z</time>
      </trkpt>
      <trkpt lat="45.11158" lon="4.91074">
        <ele>205.24299621582</ele>
        <time>2010-07-24T11:59:09Z</time>
      </trkpt>
      <trkpt lat="45.11198" lon="4.91042">
        <ele>205.97799682617</ele>
        <time>2010-07-24T11:59:16Z</time>
      </trkpt>
      <trkpt lat="45.11251" lon="4.91003">
        <ele>206.97599792481</ele>
        <time>2010-07-24T11:59:25Z</time>
      </trkpt>
      <trkpt lat="45.11296" lon="4.90975">
        <ele>207.79400634766</ele>
        <time>2010-07-24T11:59:33Z</time>
      </trkpt>
      <trkpt lat="45.1134" lon="4.9095">
        <ele>208.61799621582</ele>
        <time>2010-07-24T11:59:41Z</time>
      </trkpt>
      <trkpt lat="45.11374" lon="4.90919">
        <ele>208.83500671387</ele>
        <time>2010-07-24T11:59:48Z</time>
      </trkpt>
      <trkpt lat="45.11429" lon="4.9086">
        <ele>209.42199707031</ele>
        <time>2010-07-24T11:59:59Z</time>
      </trkpt>
      <trkpt lat="45.1147" lon="4.9084">
        <ele>210.08599853516</ele>
        <time>2010-07-24T12:00:06Z</time>
      </trkpt>
      <trkpt lat="45.11527" lon="4.90819">
        <ele>209.92100524902</ele>
        <time>2010-07-24T12:00:15Z</time>
      </trkpt>
      <trkpt lat="45.11575" lon="4.90796">
        <ele>211.50500488281</ele>
        <time>2010-07-24T12:00:23Z</time>
      </trkpt>
      <trkpt lat="45.11618" lon="4.90759">
        <ele>211.96899414062</ele>
        <time>2010-07-24T12:00:31Z</time>
      </trkpt>
      <trkpt lat="45.11656" lon="4.90714">
        <ele>211.63600158691</ele>
        <time>2010-07-24T12:00:39Z</time>
      </trkpt>
      <trkpt lat="45.11675" lon="4.90673">
        <ele>212.17300415039</ele>
        <time>2010-07-24T12:00:45Z</time>
      </trkpt>
      <trkpt lat="45.11683" lon="4.90642">
        <ele>212.62300109863</ele>
        <time>2010-07-24T12:00:49Z</time>
      </trkpt>
      <trkpt lat="45.11694" lon="4.90555">
        <ele>210.78399658203</ele>
        <time>2010-07-24T12:00:59Z</time>
      </trkpt>
      <trkpt lat="45.11698" lon="4.90516">
        <ele>209.28700256348</ele>
        <time>2010-07-24T12:01:03Z</time>
      </trkpt>
      <trkpt lat="45.11697" lon="4.90467">
        <ele>209.94700622559</ele>
        <time>2010-07-24T12:01:08Z</time>
      </trkpt>
      <trkpt lat="45.11683" lon="4.90424">
        <ele>209.68099975586</ele>
        <time>2010-07-24T12:01:13Z</time>
      </trkpt>
      <trkpt lat="45.11673" lon="4.90412">
        <ele>208.95300292969</ele>
        <time>2010-07-24T12:01:15Z</time>
      </trkpt>
      <trkpt lat="45.11633" lon="4.90379">
        <ele>206.625</ele>
        <time>2010-07-24T12:01:21Z</time>
      </trkpt>
      <trkpt lat="45.11573" lon="4.90343">
        <ele>202.86099243164</ele>
        <time>2010-07-24T12:01:28Z</time>
      </trkpt>
      <trkpt lat="45.11563" lon="4.90337">
        <ele>202.57499694824</ele>
        <time>2010-07-24T12:01:29Z</time>
      </trkpt>
      <trkpt lat="45.11498" lon="4.90301">
        <ele>202.02699279785</ele>
        <time>2010-07-24T12:01:36Z</time>
      </trkpt>
      <trkpt lat="45.11472" lon="4.90287">
        <ele>202.19700622559</ele>
        <time>2010-07-24T12:01:39Z</time>
      </trkpt>
      <trkpt lat="45.11422" lon="4.90254">
        <ele>201.28300476074</ele>
        <time>2010-07-24T12:01:45Z</time>
      </trkpt>
      <trkpt lat="45.11415" lon="4.90247">
        <ele>201.0299987793</ele>
        <time>2010-07-24T12:01:46Z</time>
      </trkpt>
      <trkpt lat="45.11388" lon="4.902">
        <ele>200.60000610352</ele>
        <time>2010-07-24T12:01:51Z</time>
      </trkpt>
      <trkpt lat="45.11375" lon="4.90142">
        <ele>199.09399414062</ele>
        <time>2010-07-24T12:01:56Z</time>
      </trkpt>
      <trkpt lat="45.11353" lon="4.90101">
        <ele>199.1190032959</ele>
        <time>2010-07-24T12:02:01Z</time>
      </trkpt>
      <trkpt lat="45.11304" lon="4.90054">
        <ele>200.19500732422</ele>
        <time>2010-07-24T12:02:09Z</time>
      </trkpt>
      <trkpt lat="45.11264" lon="4.90007">
        <ele>198.96000671387</ele>
        <time>2010-07-24T12:02:16Z</time>
      </trkpt>
      <trkpt lat="45.11241" lon="4.8998">
        <ele>198.19400024414</ele>
        <time>2010-07-24T12:02:20Z</time>
      </trkpt>
      <trkpt lat="45.11224" lon="4.89937">
        <ele>197.86199951172</ele>
        <time>2010-07-24T12:02:25Z</time>
      </trkpt>
      <trkpt lat="45.11209" lon="4.89878">
        <ele>196.92999267578</ele>
        <time>2010-07-24T12:02:31Z</time>
      </trkpt>
      <trkpt lat="45.11198" lon="4.89848">
        <ele>196.38600158691</ele>
        <time>2010-07-24T12:02:34Z</time>
      </trkpt>
      <trkpt lat="45.11177" lon="4.89818">
        <ele>195.90899658203</ele>
        <time>2010-07-24T12:02:38Z</time>
      </trkpt>
      <trkpt lat="45.11171" lon="4.89813">
        <ele>195.80299377441</ele>
        <time>2010-07-24T12:02:39Z</time>
      </trkpt>
      <trkpt lat="45.11158" lon="4.89804">
        <ele>195.58999633789</ele>
        <time>2010-07-24T12:02:41Z</time>
      </trkpt>
      <trkpt lat="45.11126" lon="4.89782">
        <ele>195.87600708008</ele>
        <time>2010-07-24T12:02:46Z</time>
      </trkpt>
      <trkpt lat="45.11091" lon="4.89763">
        <ele>196.31500244141</ele>
        <time>2010-07-24T12:02:51Z</time>
      </trkpt>
      <trkpt lat="45.11068" lon="4.89737">
        <ele>195.79600524902</ele>
        <time>2010-07-24T12:02:55Z</time>
      </trkpt>
      <trkpt lat="45.11033" lon="4.89677">
        <ele>196.16799926758</ele>
        <time>2010-07-24T12:03:02Z</time>
      </trkpt>
      <trkpt lat="45.11016" lon="4.8964">
        <ele>195.35899353027</ele>
        <time>2010-07-24T12:03:06Z</time>
      </trkpt>
      <trkpt lat="45.11021" lon="4.89599">
        <ele>194.54699707031</ele>
        <time>2010-07-24T12:03:10Z</time>
      </trkpt>
      <trkpt lat="45.11026" lon="4.89587">
        <ele>193.90199279785</ele>
        <time>2010-07-24T12:03:11Z</time>
      </trkpt>
      <trkpt lat="45.11037" lon="4.89548">
        <ele>194.25500488281</ele>
        <time>2010-07-24T12:03:15Z</time>
      </trkpt>
      <trkpt lat="45.11033" lon="4.89502">
        <ele>194.24499511719</ele>
        <time>2010-07-24T12:03:19Z</time>
      </trkpt>
      <trkpt lat="45.11023" lon="4.89481">
        <ele>194.67399597168</ele>
        <time>2010-07-24T12:03:21Z</time>
      </trkpt>
      <trkpt lat="45.10998" lon="4.89446">
        <ele>194.64799499512</ele>
        <time>2010-07-24T12:03:25Z</time>
      </trkpt>
      <trkpt lat="45.10991" lon="4.89439">
        <ele>194.39700317383</ele>
        <time>2010-07-24T12:03:26Z</time>
      </trkpt>
      <trkpt lat="45.10982" lon="4.89411">
        <ele>193.5890045166</ele>
        <time>2010-07-24T12:03:29Z</time>
      </trkpt>
      <trkpt lat="45.10986" lon="4.89381">
        <ele>193.53900146484</ele>
        <time>2010-07-24T12:03:32Z</time>
      </trkpt>
      <trkpt lat="45.10974" lon="4.8937">
        <ele>193.78999328613</ele>
        <time>2010-07-24T12:03:34Z</time>
      </trkpt>
      <trkpt lat="45.10953" lon="4.89375">
        <ele>192.60000610352</ele>
        <time>2010-07-24T12:03:37Z</time>
      </trkpt>
      <trkpt lat="45.10929" lon="4.8937">
        <ele>192.57000732422</ele>
        <time>2010-07-24T12:03:40Z</time>
      </trkpt>
      <trkpt lat="45.10907" lon="4.89348">
        <ele>192.00100708008</ele>
        <time>2010-07-24T12:03:43Z</time>
      </trkpt>
      <trkpt lat="45.10844" lon="4.89262">
        <ele>189.55299377441</ele>
        <time>2010-07-24T12:03:52Z</time>
      </trkpt>
      <trkpt lat="45.10792" lon="4.89187">
        <ele>188.33700561523</ele>
        <time>2010-07-24T12:04:00Z</time>
      </trkpt>
      <trkpt lat="45.10785" lon="4.89178">
        <ele>188.04899597168</ele>
        <time>2010-07-24T12:04:01Z</time>
      </trkpt>
      <trkpt lat="45.10738" lon="4.89132">
        <ele>187.44900512695</ele>
        <time>2010-07-24T12:04:07Z</time>
      </trkpt>
      <trkpt lat="45.10666" lon="4.8906">
        <ele>187.08799743652</ele>
        <time>2010-07-24T12:04:17Z</time>
      </trkpt>
      <trkpt lat="45.10626" lon="4.89017">
        <ele>187.4700012207</ele>
        <time>2010-07-24T12:04:23Z</time>
      </trkpt>
      <trkpt lat="45.10571" lon="4.88945">
        <ele>187.10299682617</ele>
        <time>2010-07-24T12:04:32Z</time>
      </trkpt>
      <trkpt lat="45.10538" lon="4.88886">
        <ele>186.21899414062</ele>
        <time>2010-07-24T12:04:38Z</time>
      </trkpt>
      <trkpt lat="45.10497" lon="4.88791">
        <ele>186.24099731445</ele>
        <time>2010-07-24T12:04:47Z</time>
      </trkpt>
      <trkpt lat="45.10468" lon="4.88719">
        <ele>185.42799377441</ele>
        <time>2010-07-24T12:04:54Z</time>
      </trkpt>
      <trkpt lat="45.1042" lon="4.88604">
        <ele>186.39900207519</ele>
        <time>2010-07-24T12:05:05Z</time>
      </trkpt>
      <trkpt lat="45.10388" lon="4.88526">
        <ele>185.14799499512</ele>
        <time>2010-07-24T12:05:12Z</time>
      </trkpt>
      <trkpt lat="45.1036" lon="4.88473">
        <ele>183.76800537109</ele>
        <time>2010-07-24T12:05:17Z</time>
      </trkpt>
      <trkpt lat="45.10317" lon="4.88422">
        <ele>183.08299255371</ele>
        <time>2010-07-24T12:05:23Z</time>
      </trkpt>
      <trkpt lat="45.10269" lon="4.88367">
        <ele>182.61599731445</ele>
        <time>2010-07-24T12:05:30Z</time>
      </trkpt>
      <trkpt lat="45.10225" lon="4.88325">
        <ele>182.04100036621</ele>
        <time>2010-07-24T12:05:36Z</time>
      </trkpt>
      <trkpt lat="45.10164" lon="4.88293">
        <ele>180.72099304199</ele>
        <time>2010-07-24T12:05:43Z</time>
      </trkpt>
      <trkpt lat="45.10094" lon="4.88258">
        <ele>180.45399475098</ele>
        <time>2010-07-24T12:05:51Z</time>
      </trkpt>
      <trkpt lat="45.10051" lon="4.88236">
        <ele>179.83399963379</ele>
        <time>2010-07-24T12:05:56Z</time>
      </trkpt>
      <trkpt lat="45.09954" lon="4.88183">
        <ele>178.77900695801</ele>
        <time>2010-07-24T12:06:07Z</time>
      </trkpt>
      <trkpt lat="45.09901" lon="4.88152">
        <ele>178.39199829102</ele>
        <time>2010-07-24T12:06:13Z</time>
      </trkpt>
      <trkpt lat="45.0983" lon="4.88118">
        <ele>177.91999816894</ele>
        <time>2010-07-24T12:06:21Z</time>
      </trkpt>
      <trkpt lat="45.09759" lon="4.88093">
        <ele>177.1369934082</ele>
        <time>2010-07-24T12:06:29Z</time>
      </trkpt>
      <trkpt lat="45.09697" lon="4.88079">
        <ele>176.60899353027</ele>
        <time>2010-07-24T12:06:36Z</time>
      </trkpt>
      <trkpt lat="45.09652" lon="4.88086">
        <ele>176.68899536133</ele>
        <time>2010-07-24T12:06:41Z</time>
      </trkpt>
      <trkpt lat="45.09601" lon="4.88108">
        <ele>176.52099609375</ele>
        <time>2010-07-24T12:06:47Z</time>
      </trkpt>
      <trkpt lat="45.09548" lon="4.88122">
        <ele>176.4109954834</ele>
        <time>2010-07-24T12:06:53Z</time>
      </trkpt>
      <trkpt lat="45.09504" lon="4.8813">
        <ele>176.34599304199</ele>
        <time>2010-07-24T12:06:58Z</time>
      </trkpt>
      <trkpt lat="45.09437" lon="4.88143">
        <ele>175.89599609375</ele>
        <time>2010-07-24T12:07:06Z</time>
      </trkpt>
      <trkpt lat="45.09375" lon="4.88154">
        <ele>175.4700012207</ele>
        <time>2010-07-24T12:07:13Z</time>
      </trkpt>
      <trkpt lat="45.09317" lon="4.88171">
        <ele>173.16000366211</ele>
        <time>2010-07-24T12:07:19Z</time>
      </trkpt>
      <trkpt lat="45.09245" lon="4.88193">
        <ele>171.55400085449</ele>
        <time>2010-07-24T12:07:26Z</time>
      </trkpt>
      <trkpt lat="45.0919" lon="4.88191">
        <ele>171.27699279785</ele>
        <time>2010-07-24T12:07:31Z</time>
      </trkpt>
      <trkpt lat="45.09114" lon="4.88174">
        <ele>169.33700561523</ele>
        <time>2010-07-24T12:07:38Z</time>
      </trkpt>
      <trkpt lat="45.09037" lon="4.88156">
        <ele>167.00399780273</ele>
        <time>2010-07-24T12:07:45Z</time>
      </trkpt>
      <trkpt lat="45.08962" lon="4.88143">
        <ele>165.9700012207</ele>
        <time>2010-07-24T12:07:52Z</time>
      </trkpt>
      <trkpt lat="45.08898" lon="4.88146">
        <ele>166.07200622559</ele>
        <time>2010-07-24T12:07:58Z</time>
      </trkpt>
      <trkpt lat="45.08838" lon="4.88134">
        <ele>165.71099853516</ele>
        <time>2010-07-24T12:08:04Z</time>
      </trkpt>
      <trkpt lat="45.08779" lon="4.88128">
        <ele>165.62199401856</ele>
        <time>2010-07-24T12:08:10Z</time>
      </trkpt>
      <trkpt lat="45.08713" lon="4.88121">
        <ele>166.09700012207</ele>
        <time>2010-07-24T12:08:17Z</time>
      </trkpt>
      <trkpt lat="45.0866" lon="4.88099">
        <ele>165.89599609375</ele>
        <time>2010-07-24T12:08:23Z</time>
      </trkpt>
      <trkpt lat="45.08598" lon="4.88062">
        <ele>164.79299926758</ele>
        <time>2010-07-24T12:08:30Z</time>
      </trkpt>
      <trkpt lat="45.08515" lon="4.88">
        <ele>163.89100646973</ele>
        <time>2010-07-24T12:08:40Z</time>
      </trkpt>
      <trkpt lat="45.08492" lon="4.87979">
        <ele>163.59100341797</ele>
        <time>2010-07-24T12:08:43Z</time>
      </trkpt>
      <trkpt lat="45.08468" lon="4.87936">
        <ele>163.14700317383</ele>
        <time>2010-07-24T12:08:47Z</time>
      </trkpt>
      <trkpt lat="45.08461" lon="4.87908">
        <ele>163.00799560547</ele>
        <time>2010-07-24T12:08:49Z</time>
      </trkpt>
      <trkpt lat="45.08452" lon="4.87836">
        <ele>160.66299438477</ele>
        <time>2010-07-24T12:08:54Z</time>
      </trkpt>
      <trkpt lat="45.08439" lon="4.87724">
        <ele>160.96000671387</ele>
        <time>2010-07-24T12:09:02Z</time>
      </trkpt>
      <trkpt lat="45.08414" lon="4.87617">
        <ele>163.89199829102</ele>
        <time>2010-07-24T12:09:11Z</time>
      </trkpt>
      <trkpt lat="45.08397" lon="4.876">
        <ele>165.17100524902</ele>
        <time>2010-07-24T12:09:14Z</time>
      </trkpt>
      <trkpt lat="45.08391" lon="4.87596">
        <ele>165.64900207519</ele>
        <time>2010-07-24T12:09:15Z</time>
      </trkpt>
      <trkpt lat="45.08352" lon="4.87576">
        <ele>167.88999938965</ele>
        <time>2010-07-24T12:09:21Z</time>
      </trkpt>
      <trkpt lat="45.0831" lon="4.87553">
        <ele>167.88999938965</ele>
        <time>2010-07-24T12:09:27Z</time>
      </trkpt>
      <trkpt lat="45.08263" lon="4.8752">
        <ele>166.76699829102</ele>
        <time>2010-07-24T12:09:33Z</time>
      </trkpt>
      <trkpt lat="45.0821" lon="4.8747">
        <ele>165.32499694824</ele>
        <time>2010-07-24T12:09:40Z</time>
      </trkpt>
      <trkpt lat="45.08149" lon="4.874">
        <ele>162.65299987793</ele>
        <time>2010-07-24T12:09:48Z</time>
      </trkpt>
      <trkpt lat="45.08112" lon="4.87358">
        <ele>162.18800354004</ele>
        <time>2010-07-24T12:09:53Z</time>
      </trkpt>
      <trkpt lat="45.0809" lon="4.87322">
        <ele>162.12300109863</ele>
        <time>2010-07-24T12:09:57Z</time>
      </trkpt>
      <trkpt lat="45.08059" lon="4.8726">
        <ele>161.32800292969</ele>
        <time>2010-07-24T12:10:03Z</time>
      </trkpt>
      <trkpt lat="45.08009" lon="4.87189">
        <ele>158.81300354004</ele>
        <time>2010-07-24T12:10:10Z</time>
      </trkpt>
      <trkpt lat="45.07972" lon="4.87138">
        <ele>157.47999572754</ele>
        <time>2010-07-24T12:10:15Z</time>
      </trkpt>
      <trkpt lat="45.07941" lon="4.87099">
        <ele>155.77799987793</ele>
        <time>2010-07-24T12:10:19Z</time>
      </trkpt>
      <trkpt lat="45.07923" lon="4.87082">
        <ele>154.88900756836</ele>
        <time>2010-07-24T12:10:21Z</time>
      </trkpt>
      <trkpt lat="45.07884" lon="4.87054">
        <ele>153.36199951172</ele>
        <time>2010-07-24T12:10:25Z</time>
      </trkpt>
      <trkpt lat="45.07813" lon="4.87003">
        <ele>150.27299499512</ele>
        <time>2010-07-24T12:10:32Z</time>
      </trkpt>
      <trkpt lat="45.07793" lon="4.86988">
        <ele>150.16299438477</ele>
        <time>2010-07-24T12:10:34Z</time>
      </trkpt>
      <trkpt lat="45.07761" lon="4.86943">
        <ele>148.77400207519</ele>
        <time>2010-07-24T12:10:38Z</time>
      </trkpt>
      <trkpt lat="45.07701" lon="4.86805">
        <ele>147.12800598144</ele>
        <time>2010-07-24T12:10:48Z</time>
      </trkpt>
      <trkpt lat="45.07647" lon="4.86685">
        <ele>145.69900512695</ele>
        <time>2010-07-24T12:10:57Z</time>
      </trkpt>
      <trkpt lat="45.0764" lon="4.86673">
        <ele>145.77900695801</ele>
        <time>2010-07-24T12:10:58Z</time>
      </trkpt>
      <trkpt lat="45.07595" lon="4.86626">
        <ele>144.78500366211</ele>
        <time>2010-07-24T12:11:03Z</time>
      </trkpt>
      <trkpt lat="45.07531" lon="4.86566">
        <ele>142.2440032959</ele>
        <time>2010-07-24T12:11:10Z</time>
      </trkpt>
      <trkpt lat="45.07482" lon="4.86515">
        <ele>143.28900146484</ele>
        <time>2010-07-24T12:11:16Z</time>
      </trkpt>
      <trkpt lat="45.0745" lon="4.86464">
        <ele>143.21099853516</ele>
        <time>2010-07-24T12:11:21Z</time>
      </trkpt>
      <trkpt lat="45.07397" lon="4.86379">
        <ele>141.61700439453</ele>
        <time>2010-07-24T12:11:30Z</time>
      </trkpt>
      <trkpt lat="45.07365" lon="4.86316">
        <ele>140.59100341797</ele>
        <time>2010-07-24T12:11:36Z</time>
      </trkpt>
      <trkpt lat="45.07335" lon="4.86237">
        <ele>139.74099731445</ele>
        <time>2010-07-24T12:11:43Z</time>
      </trkpt>
      <trkpt lat="45.0732" lon="4.86164">
        <ele>138.72599792481</ele>
        <time>2010-07-24T12:11:49Z</time>
      </trkpt>
      <trkpt lat="45.07296" lon="4.86113">
        <ele>138.87600708008</ele>
        <time>2010-07-24T12:11:54Z</time>
      </trkpt>
      <trkpt lat="45.07286" lon="4.86093">
        <ele>138.90100097656</ele>
        <time>2010-07-24T12:11:56Z</time>
      </trkpt>
      <trkpt lat="45.07266" lon="4.86025">
        <ele>137.9109954834</ele>
        <time>2010-07-24T12:12:02Z</time>
      </trkpt>
      <trkpt lat="45.07256" lon="4.85993">
        <ele>137.22799682617</ele>
        <time>2010-07-24T12:12:05Z</time>
      </trkpt>
      <trkpt lat="45.07227" lon="4.85948">
        <ele>136.77799987793</ele>
        <time>2010-07-24T12:12:10Z</time>
      </trkpt>
      <trkpt lat="45.07173" lon="4.85882">
        <ele>136.15600585938</ele>
        <time>2010-07-24T12:12:18Z</time>
      </trkpt>
      <trkpt lat="45.07162" lon="4.85868">
        <ele>135.77299499512</ele>
        <time>2010-07-24T12:12:20Z</time>
      </trkpt>
      <trkpt lat="45.07151" lon="4.85836">
        <ele>135.1190032959</ele>
        <time>2010-07-24T12:12:24Z</time>
      </trkpt>
      <trkpt lat="45.07153" lon="4.85826">
        <ele>134.71200561523</ele>
        <time>2010-07-24T12:12:25Z</time>
      </trkpt>
      <trkpt lat="45.07167" lon="4.8574">
        <ele>132.57200622559</ele>
        <time>2010-07-24T12:12:32Z</time>
      </trkpt>
      <trkpt lat="45.07175" lon="4.85629">
        <ele>128.87600708008</ele>
        <time>2010-07-24T12:12:41Z</time>
      </trkpt>
      <trkpt lat="45.0718" lon="4.8558">
        <ele>129.85099792481</ele>
        <time>2010-07-24T12:12:45Z</time>
      </trkpt>
      <trkpt lat="45.07183" lon="4.85515">
        <ele>128.6369934082</ele>
        <time>2010-07-24T12:12:50Z</time>
      </trkpt>
      <trkpt lat="45.07196" lon="4.85415">
        <ele>128.52699279785</ele>
        <time>2010-07-24T12:12:58Z</time>
      </trkpt>
      <trkpt lat="45.07206" lon="4.85346">
        <ele>127.87000274658</ele>
        <time>2010-07-24T12:13:04Z</time>
      </trkpt>
      <trkpt lat="45.07217" lon="4.85255">
        <ele>127.41899871826</ele>
        <time>2010-07-24T12:13:12Z</time>
      </trkpt>
      <trkpt lat="45.07227" lon="4.85167">
        <ele>126.92199707031</ele>
        <time>2010-07-24T12:13:20Z</time>
      </trkpt>
      <trkpt lat="45.07239" lon="4.85068">
        <ele>126.49199676514</ele>
        <time>2010-07-24T12:13:29Z</time>
      </trkpt>
      <trkpt lat="45.07248" lon="4.85001">
        <ele>125.67600250244</ele>
        <time>2010-07-24T12:13:35Z</time>
      </trkpt>
      <trkpt lat="45.07253" lon="4.84941">
        <ele>126.59700012207</ele>
        <time>2010-07-24T12:13:41Z</time>
      </trkpt>
      <trkpt lat="45.07257" lon="4.84893">
        <ele>126.90899658203</ele>
        <time>2010-07-24T12:13:47Z</time>
      </trkpt>
      <trkpt lat="45.0726" lon="4.84852">
        <ele>127.11100006103</ele>
        <time>2010-07-24T12:13:52Z</time>
      </trkpt>
      <trkpt lat="45.07271" lon="4.84789">
        <ele>128.26600646973</ele>
        <time>2010-07-24T12:13:59Z</time>
      </trkpt>
      <trkpt lat="45.0728" lon="4.84728">
        <ele>129.93800354004</ele>
        <time>2010-07-24T12:14:06Z</time>
      </trkpt>
      <trkpt lat="45.07284" lon="4.84686">
        <ele>130.90699768066</ele>
        <time>2010-07-24T12:14:12Z</time>
      </trkpt>
      <trkpt lat="45.07287" lon="4.84669">
        <ele>131.81100463867</ele>
        <time>2010-07-24T12:14:17Z</time>
      </trkpt>
      <trkpt lat="45.07288" lon="4.8466">
        <ele>132.05000305176</ele>
        <time>2010-07-24T12:14:19Z</time>
      </trkpt>
      <trkpt lat="45.07287" lon="4.84641">
        <ele>131.60000610352</ele>
        <time>2010-07-24T12:14:22Z</time>
      </trkpt>
      <trkpt lat="45.07291" lon="4.84589">
        <ele>129.95899963379</ele>
        <time>2010-07-24T12:14:28Z</time>
      </trkpt>
      <trkpt lat="45.07293" lon="4.84558">
        <ele>128.17999267578</ele>
        <time>2010-07-24T12:14:31Z</time>
      </trkpt>
      <trkpt lat="45.07301" lon="4.84465">
        <ele>127.04399871826</ele>
        <time>2010-07-24T12:14:39Z</time>
      </trkpt>
      <trkpt lat="45.0731" lon="4.84356">
        <ele>125.74099731445</ele>
        <time>2010-07-24T12:14:48Z</time>
      </trkpt>
      <trkpt lat="45.07305" lon="4.84328">
        <ele>124.81300354004</ele>
        <time>2010-07-24T12:14:51Z</time>
      </trkpt>
      <trkpt lat="45.07293" lon="4.84322">
        <ele>125.14399719238</ele>
        <time>2010-07-24T12:14:53Z</time>
      </trkpt>
      <trkpt lat="45.07256" lon="4.84322">
        <ele>125.48999786377</ele>
        <time>2010-07-24T12:14:59Z</time>
      </trkpt>
      <trkpt lat="45.07235" lon="4.84325">
        <ele>125.47899627685</ele>
        <time>2010-07-24T12:15:03Z</time>
      </trkpt>
      <trkpt lat="45.07221" lon="4.84325">
        <ele>125.62000274658</ele>
        <time>2010-07-24T12:15:08Z</time>
      </trkpt>
      <trkpt lat="45.07218" lon="4.84326">
        <ele>126.02300262451</ele>
        <time>2010-07-24T12:15:12Z</time>
      </trkpt>
      <trkpt lat="45.07215" lon="4.84328">
        <ele>123.88899993897</ele>
        <time>2010-07-24T12:15:47Z</time>
      </trkpt>
      <trkpt lat="45.07214" lon="4.84329">
        <ele>123.87400054932</ele>
        <time>2010-07-24T12:15:48Z</time>
      </trkpt>
      <trkpt lat="45.07204" lon="4.8433">
        <ele>124.10399627685</ele>
        <time>2010-07-24T12:15:51Z</time>
      </trkpt>
      <trkpt lat="45.07192" lon="4.84331">
        <ele>123.79499816894</ele>
        <time>2010-07-24T12:15:54Z</time>
      </trkpt>
      <trkpt lat="45.07179" lon="4.8433">
        <ele>123.1549987793</ele>
        <time>2010-07-24T12:15:57Z</time>
      </trkpt>
      <trkpt lat="45.07163" lon="4.84338">
        <ele>124.15399932861</ele>
        <time>2010-07-24T12:16:01Z</time>
      </trkpt>
      <trkpt lat="45.0715" lon="4.84333">
        <ele>124.08799743652</ele>
        <time>2010-07-24T12:16:03Z</time>
      </trkpt>
      <trkpt lat="45.07131" lon="4.8433">
        <ele>124.452003479</ele>
        <time>2010-07-24T12:16:06Z</time>
      </trkpt>
      <trkpt lat="45.07106" lon="4.84321">
        <ele>125.1070022583</ele>
        <time>2010-07-24T12:16:11Z</time>
      </trkpt>
      <trkpt lat="45.07095" lon="4.84327">
        <ele>124.63999938965</ele>
        <time>2010-07-24T12:16:14Z</time>
      </trkpt>
      <trkpt lat="45.07085" lon="4.84329">
        <ele>124.88899993897</ele>
        <time>2010-07-24T12:16:16Z</time>
      </trkpt>
      <trkpt lat="45.07058" lon="4.84331">
        <ele>124.59899902344</ele>
        <time>2010-07-24T12:16:21Z</time>
      </trkpt>
      <trkpt lat="45.07041" lon="4.84318">
        <ele>124.72299957275</ele>
        <time>2010-07-24T12:16:25Z</time>
      </trkpt>
      <trkpt lat="45.0704" lon="4.84311">
        <ele>124.70899963379</ele>
        <time>2010-07-24T12:16:26Z</time>
      </trkpt>
      <trkpt lat="45.07039" lon="4.84295">
        <ele>123.56500244141</ele>
        <time>2010-07-24T12:16:28Z</time>
      </trkpt>
      <trkpt lat="45.07036" lon="4.8424">
        <ele>124.58499908447</ele>
        <time>2010-07-24T12:16:34Z</time>
      </trkpt>
      <trkpt lat="45.07033" lon="4.8416">
        <ele>123.53299713135</ele>
        <time>2010-07-24T12:16:42Z</time>
      </trkpt>
      <trkpt lat="45.07025" lon="4.8409">
        <ele>123.94000244141</ele>
        <time>2010-07-24T12:16:49Z</time>
      </trkpt>
      <trkpt lat="45.07022" lon="4.84017">
        <ele>122.93299865723</ele>
        <time>2010-07-24T12:16:56Z</time>
      </trkpt>
      <trkpt lat="45.07021" lon="4.83987">
        <ele>123.59999847412</ele>
        <time>2010-07-24T12:16:59Z</time>
      </trkpt>
      <trkpt lat="45.0701" lon="4.83953">
        <ele>123.547996521</ele>
        <time>2010-07-24T12:17:03Z</time>
      </trkpt>
      <trkpt lat="45.06993" lon="4.83938">
        <ele>124.33599853516</ele>
        <time>2010-07-24T12:17:07Z</time>
      </trkpt>
      <trkpt lat="45.06988" lon="4.83926">
        <ele>124.39800262451</ele>
        <time>2010-07-24T12:17:11Z</time>
      </trkpt>
      <trkpt lat="45.06989" lon="4.83921">
        <ele>124.23300170898</ele>
        <time>2010-07-24T12:17:12Z</time>
      </trkpt>
      <trkpt lat="45.07001" lon="4.8388">
        <ele>124.00900268555</ele>
        <time>2010-07-24T12:17:18Z</time>
      </trkpt>
      <trkpt lat="45.07021" lon="4.83817">
        <ele>123.71199798584</ele>
        <time>2010-07-24T12:17:25Z</time>
      </trkpt>
      <trkpt lat="45.07031" lon="4.83747">
        <ele>123.7200012207</ele>
        <time>2010-07-24T12:17:32Z</time>
      </trkpt>
      <trkpt lat="45.07043" lon="4.83663">
        <ele>123.85600280762</ele>
        <time>2010-07-24T12:17:40Z</time>
      </trkpt>
      <trkpt lat="45.07053" lon="4.83631">
        <ele>124.67600250244</ele>
        <time>2010-07-24T12:17:45Z</time>
      </trkpt>
      <trkpt lat="45.07043" lon="4.83623">
        <ele>125.90000152588</ele>
        <time>2010-07-24T12:17:49Z</time>
      </trkpt>
      <trkpt lat="45.0703" lon="4.83622">
        <ele>125.71499633789</ele>
        <time>2010-07-24T12:17:54Z</time>
      </trkpt>
      <trkpt lat="45.07019" lon="4.83613">
        <ele>126.05799865723</ele>
        <time>2010-07-24T12:17:58Z</time>
      </trkpt>
      <trkpt lat="45.07009" lon="4.83606">
        <ele>125.7799987793</ele>
        <time>2010-07-24T12:18:01Z</time>
      </trkpt>
      <trkpt lat="45.06993" lon="4.83597">
        <ele>126.52799987793</ele>
        <time>2010-07-24T12:18:05Z</time>
      </trkpt>
      <trkpt lat="45.06961" lon="4.83576">
        <ele>128.21899414062</ele>
        <time>2010-07-24T12:18:13Z</time>
      </trkpt>
      <trkpt lat="45.06958" lon="4.83574">
        <ele>128.44099426269</ele>
        <time>2010-07-24T12:18:14Z</time>
      </trkpt>
      <trkpt lat="45.06955" lon="4.8357">
        <ele>128.69000244141</ele>
        <time>2010-07-24T12:18:17Z</time>
      </trkpt>
      <trkpt lat="45.06947" lon="4.83569">
        <ele>128.33599853516</ele>
        <time>2010-07-24T12:18:37Z</time>
      </trkpt>
      <trkpt lat="45.06942" lon="4.83567">
        <ele>128.28399658203</ele>
        <time>2010-07-24T12:18:39Z</time>
      </trkpt>
      <trkpt lat="45.06918" lon="4.83551">
        <ele>128.48599243164</ele>
        <time>2010-07-24T12:18:45Z</time>
      </trkpt>
      <trkpt lat="45.06913" lon="4.83548">
        <ele>128.55799865723</ele>
        <time>2010-07-24T12:18:46Z</time>
      </trkpt>
      <trkpt lat="45.06879" lon="4.83527">
        <ele>129.02400207519</ele>
        <time>2010-07-24T12:18:53Z</time>
      </trkpt>
      <trkpt lat="45.06858" lon="4.83516">
        <ele>129.83599853516</ele>
        <time>2010-07-24T12:18:58Z</time>
      </trkpt>
      <trkpt lat="45.06849" lon="4.83506">
        <ele>130.24000549316</ele>
        <time>2010-07-24T12:19:01Z</time>
      </trkpt>
      <trkpt lat="45.06832" lon="4.83496">
        <ele>129.48699951172</ele>
        <time>2010-07-24T12:19:05Z</time>
      </trkpt>
      <trkpt lat="45.06823" lon="4.8349">
        <ele>129.1549987793</ele>
        <time>2010-07-24T12:19:07Z</time>
      </trkpt>
      <trkpt lat="45.06815" lon="4.83484">
        <ele>128.73599243164</ele>
        <time>2010-07-24T12:19:09Z</time>
      </trkpt>
      <trkpt lat="45.06792" lon="4.83471">
        <ele>128.11099243164</ele>
        <time>2010-07-24T12:19:15Z</time>
      </trkpt>
      <trkpt lat="45.06785" lon="4.83467">
        <ele>128.25</ele>
        <time>2010-07-24T12:19:18Z</time>
      </trkpt>
      <trkpt lat="45.06783" lon="4.83451">
        <ele>128.43499755859</ele>
        <time>2010-07-24T12:19:23Z</time>
      </trkpt>
      <trkpt lat="45.06787" lon="4.83442">
        <ele>127.52799987793</ele>
        <time>2010-07-24T12:19:25Z</time>
      </trkpt>
      <trkpt lat="45.06797" lon="4.83421">
        <ele>126.45700073242</ele>
        <time>2010-07-24T12:19:29Z</time>
      </trkpt>
      <trkpt lat="45.06807" lon="4.83405">
        <ele>125.87899780273</ele>
        <time>2010-07-24T12:19:32Z</time>
      </trkpt>
      <trkpt lat="45.06819" lon="4.83382">
        <ele>125.61699676514</ele>
        <time>2010-07-24T12:19:37Z</time>
      </trkpt>
      <trkpt lat="45.06828" lon="4.83366">
        <ele>125.32099914551</ele>
        <time>2010-07-24T12:19:42Z</time>
      </trkpt>
      <trkpt lat="45.06839" lon="4.83345">
        <ele>125.30400085449</ele>
        <time>2010-07-24T12:19:47Z</time>
      </trkpt>
      <trkpt lat="45.06851" lon="4.83321">
        <ele>125.20899963379</ele>
        <time>2010-07-24T12:19:51Z</time>
      </trkpt>
      <trkpt lat="45.06858" lon="4.83303">
        <ele>125.37200164795</ele>
        <time>2010-07-24T12:19:54Z</time>
      </trkpt>
      <trkpt lat="45.0686" lon="4.83297">
        <ele>125.35600280762</ele>
        <time>2010-07-24T12:19:55Z</time>
      </trkpt>
      <trkpt lat="45.06865" lon="4.83289">
        <ele>125.92099761963</ele>
        <time>2010-07-24T12:19:57Z</time>
      </trkpt>
      <trkpt lat="45.06874" lon="4.83255">
        <ele>124.33699798584</ele>
        <time>2010-07-24T12:20:02Z</time>
      </trkpt>
      <trkpt lat="45.06877" lon="4.83247">
        <ele>124.13800048828</ele>
        <time>2010-07-24T12:20:03Z</time>
      </trkpt>
      <trkpt lat="45.06883" lon="4.8323">
        <ele>123.52899932861</ele>
        <time>2010-07-24T12:20:05Z</time>
      </trkpt>
      <trkpt lat="45.06906" lon="4.83185">
        <ele>120.73500061035</ele>
        <time>2010-07-24T12:20:10Z</time>
      </trkpt>
      <trkpt lat="45.06925" lon="4.83146">
        <ele>120.11599731445</ele>
        <time>2010-07-24T12:20:14Z</time>
      </trkpt>
      <trkpt lat="45.06944" lon="4.83109">
        <ele>119.68399810791</ele>
        <time>2010-07-24T12:20:18Z</time>
      </trkpt>
      <trkpt lat="45.0696" lon="4.83085">
        <ele>120.28600311279</ele>
        <time>2010-07-24T12:20:21Z</time>
      </trkpt>
      <trkpt lat="45.06995" lon="4.83034">
        <ele>120.59799957275</ele>
        <time>2010-07-24T12:20:28Z</time>
      </trkpt>
      <trkpt lat="45.07031" lon="4.82987">
        <ele>120.07900238037</ele>
        <time>2010-07-24T12:20:35Z</time>
      </trkpt>
      <trkpt lat="45.07042" lon="4.82975">
        <ele>120.49500274658</ele>
        <time>2010-07-24T12:20:37Z</time>
      </trkpt>
      <trkpt lat="45.07055" lon="4.82943">
        <ele>121.90100097656</ele>
        <time>2010-07-24T12:20:41Z</time>
      </trkpt>
      <trkpt lat="45.07055" lon="4.82923">
        <ele>122.4820022583</ele>
        <time>2010-07-24T12:20:43Z</time>
      </trkpt>
      <trkpt lat="45.07055" lon="4.8287">
        <ele>123.64600372315</ele>
        <time>2010-07-24T12:20:49Z</time>
      </trkpt>
      <trkpt lat="45.07055" lon="4.82862">
        <ele>123.89399719238</ele>
        <time>2010-07-24T12:20:50Z</time>
      </trkpt>
      <trkpt lat="45.07045" lon="4.82842">
        <ele>124.33000183106</ele>
        <time>2010-07-24T12:20:53Z</time>
      </trkpt>
      <trkpt lat="45.07025" lon="4.82813">
        <ele>124.07499694824</ele>
        <time>2010-07-24T12:20:58Z</time>
      </trkpt>
      <trkpt lat="45.07022" lon="4.82803">
        <ele>124.55799865723</ele>
        <time>2010-07-24T12:21:01Z</time>
      </trkpt>
      <trkpt lat="45.07026" lon="4.82792">
        <ele>124.63400268555</ele>
        <time>2010-07-24T12:21:05Z</time>
      </trkpt>
      <trkpt lat="45.07039" lon="4.82771">
        <ele>124.59300231934</ele>
        <time>2010-07-24T12:21:10Z</time>
      </trkpt>
      <trkpt lat="45.07063" lon="4.82728">
        <ele>124.80400085449</ele>
        <time>2010-07-24T12:21:17Z</time>
      </trkpt>
      <trkpt lat="45.07081" lon="4.82678">
        <ele>124.44300079346</ele>
        <time>2010-07-24T12:21:23Z</time>
      </trkpt>
      <trkpt lat="45.07099" lon="4.82625">
        <ele>124.67400360107</ele>
        <time>2010-07-24T12:21:29Z</time>
      </trkpt>
      <trkpt lat="45.07118" lon="4.82567">
        <ele>124.00900268555</ele>
        <time>2010-07-24T12:21:35Z</time>
      </trkpt>
      <trkpt lat="45.07143" lon="4.82495">
        <ele>124.41999816894</ele>
        <time>2010-07-24T12:21:43Z</time>
      </trkpt>
      <trkpt lat="45.07162" lon="4.82437">
        <ele>124.95500183106</ele>
        <time>2010-07-24T12:21:50Z</time>
      </trkpt>
      <trkpt lat="45.0717" lon="4.82415">
        <ele>125.18199920654</ele>
        <time>2010-07-24T12:21:53Z</time>
      </trkpt>
      <trkpt lat="45.07189" lon="4.8236">
        <ele>125.13999938965</ele>
        <time>2010-07-24T12:22:00Z</time>
      </trkpt>
      <trkpt lat="45.07212" lon="4.82299">
        <ele>126.1370010376</ele>
        <time>2010-07-24T12:22:08Z</time>
      </trkpt>
      <trkpt lat="45.07229" lon="4.82247">
        <ele>127.53600311279</ele>
        <time>2010-07-24T12:22:15Z</time>
      </trkpt>
      <trkpt lat="45.07233" lon="4.82233">
        <ele>128.16600036621</ele>
        <time>2010-07-24T12:22:17Z</time>
      </trkpt>
      <trkpt lat="45.07235" lon="4.82226">
        <ele>128.28900146484</ele>
        <time>2010-07-24T12:22:18Z</time>
      </trkpt>
      <trkpt lat="45.07251" lon="4.82197">
        <ele>127.43399810791</ele>
        <time>2010-07-24T12:22:23Z</time>
      </trkpt>
      <trkpt lat="45.07249" lon="4.82177">
        <ele>127.45700073242</ele>
        <time>2010-07-24T12:22:26Z</time>
      </trkpt>
      <trkpt lat="45.07238" lon="4.82172">
        <ele>127.82599639893</ele>
        <time>2010-07-24T12:22:28Z</time>
      </trkpt>
      <trkpt lat="45.07207" lon="4.82152">
        <ele>127.12899780273</ele>
        <time>2010-07-24T12:22:33Z</time>
      </trkpt>
      <trkpt lat="45.07191" lon="4.82132">
        <ele>126.06199645996</ele>
        <time>2010-07-24T12:22:36Z</time>
      </trkpt>
      <trkpt lat="45.07151" lon="4.82093">
        <ele>126.70700073242</ele>
        <time>2010-07-24T12:22:42Z</time>
      </trkpt>
      <trkpt lat="45.07113" lon="4.8205">
        <ele>128.00999450684</ele>
        <time>2010-07-24T12:22:49Z</time>
      </trkpt>
      <trkpt lat="45.07093" lon="4.82031">
        <ele>128.29100036621</ele>
        <time>2010-07-24T12:22:52Z</time>
      </trkpt>
      <trkpt lat="45.0706" lon="4.81991">
        <ele>128.6609954834</ele>
        <time>2010-07-24T12:22:58Z</time>
      </trkpt>
      <trkpt lat="45.07029" lon="4.81951">
        <ele>129.14999389648</ele>
        <time>2010-07-24T12:23:04Z</time>
      </trkpt>
      <trkpt lat="45.07005" lon="4.81905">
        <ele>129.31500244141</ele>
        <time>2010-07-24T12:23:10Z</time>
      </trkpt>
      <trkpt lat="45.06998" lon="4.81888">
        <ele>129.68600463867</ele>
        <time>2010-07-24T12:23:12Z</time>
      </trkpt>
      <trkpt lat="45.06985" lon="4.81845">
        <ele>130.56599426269</ele>
        <time>2010-07-24T12:23:17Z</time>
      </trkpt>
      <trkpt lat="45.06989" lon="4.81835">
        <ele>131.10000610352</ele>
        <time>2010-07-24T12:23:20Z</time>
      </trkpt>
      <trkpt lat="45.07011" lon="4.81825">
        <ele>129.24200439453</ele>
        <time>2010-07-24T12:23:23Z</time>
      </trkpt>
      <trkpt lat="45.07038" lon="4.8182">
        <ele>128.07000732422</ele>
        <time>2010-07-24T12:23:26Z</time>
      </trkpt>
      <trkpt lat="45.07064" lon="4.81834">
        <ele>126.85099792481</ele>
        <time>2010-07-24T12:23:31Z</time>
      </trkpt>
      <trkpt lat="45.07071" lon="4.81847">
        <ele>126.74600219727</ele>
        <time>2010-07-24T12:23:34Z</time>
      </trkpt>
      <trkpt lat="45.07068" lon="4.81846">
        <ele>126.68699645996</ele>
        <time>2010-07-24T12:23:39Z</time>
      </trkpt>
      <trkpt lat="45.07067" lon="4.81843">
        <ele>126.72200012207</ele>
        <time>2010-07-24T12:23:40Z</time>
      </trkpt>
      <trkpt lat="45.07057" lon="4.8182">
        <ele>127.27400207519</ele>
        <time>2010-07-24T12:23:46Z</time>
      </trkpt>
      <trkpt lat="45.07048" lon="4.81816">
        <ele>127.32399749756</ele>
        <time>2010-07-24T12:23:48Z</time>
      </trkpt>
      <trkpt lat="45.07022" lon="4.8182">
        <ele>128.60299682617</ele>
        <time>2010-07-24T12:23:52Z</time>
      </trkpt>
      <trkpt lat="45.07001" lon="4.81828">
        <ele>129.68699645996</ele>
        <time>2010-07-24T12:23:55Z</time>
      </trkpt>
      <trkpt lat="45.0699" lon="4.81833">
        <ele>130.81300354004</ele>
        <time>2010-07-24T12:23:57Z</time>
      </trkpt>
      <trkpt lat="45.06977" lon="4.81816">
        <ele>131.38600158691</ele>
        <time>2010-07-24T12:24:01Z</time>
      </trkpt>
      <trkpt lat="45.06964" lon="4.81768">
        <ele>130.82000732422</ele>
        <time>2010-07-24T12:24:06Z</time>
      </trkpt>
      <trkpt lat="45.06945" lon="4.81706">
        <ele>130.56500244141</ele>
        <time>2010-07-24T12:24:12Z</time>
      </trkpt>
      <trkpt lat="45.06918" lon="4.81611">
        <ele>130.57099914551</ele>
        <time>2010-07-24T12:24:21Z</time>
      </trkpt>
      <trkpt lat="45.06894" lon="4.8153">
        <ele>130.37800598144</ele>
        <time>2010-07-24T12:24:29Z</time>
      </trkpt>
      <trkpt lat="45.06876" lon="4.8147">
        <ele>130.65800476074</ele>
        <time>2010-07-24T12:24:35Z</time>
      </trkpt>
      <trkpt lat="45.06858" lon="4.81413">
        <ele>131.14700317383</ele>
        <time>2010-07-24T12:24:41Z</time>
      </trkpt>
      <trkpt lat="45.06823" lon="4.81324">
        <ele>131.54899597168</ele>
        <time>2010-07-24T12:24:51Z</time>
      </trkpt>
      <trkpt lat="45.06804" lon="4.81281">
        <ele>133.05499267578</ele>
        <time>2010-07-24T12:24:56Z</time>
      </trkpt>
      <trkpt lat="45.06782" lon="4.81227">
        <ele>133.86099243164</ele>
        <time>2010-07-24T12:25:02Z</time>
      </trkpt>
      <trkpt lat="45.06778" lon="4.81218">
        <ele>134.2619934082</ele>
        <time>2010-07-24T12:25:03Z</time>
      </trkpt>
      <trkpt lat="45.06758" lon="4.81159">
        <ele>134.99899291992</ele>
        <time>2010-07-24T12:25:09Z</time>
      </trkpt>
      <trkpt lat="45.06733" lon="4.8109">
        <ele>135.97700500488</ele>
        <time>2010-07-24T12:25:16Z</time>
      </trkpt>
      <trkpt lat="45.0672" lon="4.81019">
        <ele>134.89300537109</ele>
        <time>2010-07-24T12:25:22Z</time>
      </trkpt>
      <trkpt lat="45.06712" lon="4.80933">
        <ele>132.29400634766</ele>
        <time>2010-07-24T12:25:28Z</time>
      </trkpt>
      <trkpt lat="45.0671" lon="4.80903">
        <ele>131.49000549316</ele>
        <time>2010-07-24T12:25:30Z</time>
      </trkpt>
      <trkpt lat="45.06711" lon="4.80857">
        <ele>132.08299255371</ele>
        <time>2010-07-24T12:25:33Z</time>
      </trkpt>
      <trkpt lat="45.06697" lon="4.80813">
        <ele>132.90299987793</ele>
        <time>2010-07-24T12:25:36Z</time>
      </trkpt>
      <trkpt lat="45.06692" lon="4.80783">
        <ele>132.40699768066</ele>
        <time>2010-07-24T12:25:38Z</time>
      </trkpt>
      <trkpt lat="45.06685" lon="4.80676">
        <ele>131.11700439453</ele>
        <time>2010-07-24T12:25:45Z</time>
      </trkpt>
      <trkpt lat="45.06686" lon="4.80554">
        <ele>129.25900268555</ele>
        <time>2010-07-24T12:25:53Z</time>
      </trkpt>
      <trkpt lat="45.06686" lon="4.80435">
        <ele>129.26899719238</ele>
        <time>2010-07-24T12:26:01Z</time>
      </trkpt>
      <trkpt lat="45.06687" lon="4.80324">
        <ele>129.75700378418</ele>
        <time>2010-07-24T12:26:09Z</time>
      </trkpt>
      <trkpt lat="45.06689" lon="4.80226">
        <ele>129.89999389648</ele>
        <time>2010-07-24T12:26:16Z</time>
      </trkpt>
      <trkpt lat="45.06691" lon="4.8009">
        <ele>130.57000732422</ele>
        <time>2010-07-24T12:26:26Z</time>
      </trkpt>
      <trkpt lat="45.06694" lon="4.79962">
        <ele>130.73599243164</ele>
        <time>2010-07-24T12:26:36Z</time>
      </trkpt>
      <trkpt lat="45.06694" lon="4.79865">
        <ele>130.8809967041</ele>
        <time>2010-07-24T12:26:44Z</time>
      </trkpt>
      <trkpt lat="45.0669" lon="4.79784">
        <ele>131.9880065918</ele>
        <time>2010-07-24T12:26:51Z</time>
      </trkpt>
      <trkpt lat="45.06674" lon="4.79734">
        <ele>132.99099731445</ele>
        <time>2010-07-24T12:26:56Z</time>
      </trkpt>
      <trkpt lat="45.06648" lon="4.79675">
        <ele>134.56799316406</ele>
        <time>2010-07-24T12:27:03Z</time>
      </trkpt>
      <trkpt lat="45.06644" lon="4.79667">
        <ele>134.74000549316</ele>
        <time>2010-07-24T12:27:04Z</time>
      </trkpt>
      <trkpt lat="45.06613" lon="4.79598">
        <ele>136.41299438477</ele>
        <time>2010-07-24T12:27:13Z</time>
      </trkpt>
      <trkpt lat="45.06589" lon="4.79536">
        <ele>135.11500549316</ele>
        <time>2010-07-24T12:27:20Z</time>
      </trkpt>
      <trkpt lat="45.06566" lon="4.79469">
        <ele>136.76899719238</ele>
        <time>2010-07-24T12:27:27Z</time>
      </trkpt>
      <trkpt lat="45.06551" lon="4.79423">
        <ele>137.51600646973</ele>
        <time>2010-07-24T12:27:32Z</time>
      </trkpt>
      <trkpt lat="45.06532" lon="4.7937">
        <ele>138.03300476074</ele>
        <time>2010-07-24T12:27:38Z</time>
      </trkpt>
      <trkpt lat="45.06518" lon="4.79348">
        <ele>138.41400146484</ele>
        <time>2010-07-24T12:27:41Z</time>
      </trkpt>
      <trkpt lat="45.06473" lon="4.79298">
        <ele>138.68099975586</ele>
        <time>2010-07-24T12:27:49Z</time>
      </trkpt>
      <trkpt lat="45.06462" lon="4.79284">
        <ele>138.60499572754</ele>
        <time>2010-07-24T12:27:51Z</time>
      </trkpt>
      <trkpt lat="45.06433" lon="4.79228">
        <ele>138.47500610352</ele>
        <time>2010-07-24T12:27:58Z</time>
      </trkpt>
      <trkpt lat="45.06423" lon="4.7918">
        <ele>138.43099975586</ele>
        <time>2010-07-24T12:28:03Z</time>
      </trkpt>
      <trkpt lat="45.06435" lon="4.79111">
        <ele>138.26800537109</ele>
        <time>2010-07-24T12:28:10Z</time>
      </trkpt>
      <trkpt lat="45.06459" lon="4.79054">
        <ele>138.98899841309</ele>
        <time>2010-07-24T12:28:16Z</time>
      </trkpt>
      <trkpt lat="45.06464" lon="4.79044">
        <ele>139.16499328613</ele>
        <time>2010-07-24T12:28:17Z</time>
      </trkpt>
      <trkpt lat="45.06484" lon="4.78963">
        <ele>139.54499816894</ele>
        <time>2010-07-24T12:28:25Z</time>
      </trkpt>
      <trkpt lat="45.06497" lon="4.789">
        <ele>139.72500610352</ele>
        <time>2010-07-24T12:28:31Z</time>
      </trkpt>
      <trkpt lat="45.06514" lon="4.7883">
        <ele>140.23599243164</ele>
        <time>2010-07-24T12:28:38Z</time>
      </trkpt>
      <trkpt lat="45.06529" lon="4.78774">
        <ele>140.80099487305</ele>
        <time>2010-07-24T12:28:44Z</time>
      </trkpt>
      <trkpt lat="45.06565" lon="4.78711">
        <ele>142.36199951172</ele>
        <time>2010-07-24T12:28:52Z</time>
      </trkpt>
      <trkpt lat="45.06592" lon="4.78662">
        <ele>143.50999450684</ele>
        <time>2010-07-24T12:28:58Z</time>
      </trkpt>
      <trkpt lat="45.06612" lon="4.78605">
        <ele>144.53300476074</ele>
        <time>2010-07-24T12:29:04Z</time>
      </trkpt>
      <trkpt lat="45.06633" lon="4.78515">
        <ele>145.78700256348</ele>
        <time>2010-07-24T12:29:13Z</time>
      </trkpt>
      <trkpt lat="45.06635" lon="4.78467">
        <ele>146.29699707031</ele>
        <time>2010-07-24T12:29:18Z</time>
      </trkpt>
      <trkpt lat="45.06628" lon="4.78413">
        <ele>146.59599304199</ele>
        <time>2010-07-24T12:29:24Z</time>
      </trkpt>
      <trkpt lat="45.06624" lon="4.7838">
        <ele>147.32699584961</ele>
        <time>2010-07-24T12:29:28Z</time>
      </trkpt>
      <trkpt lat="45.06625" lon="4.78323">
        <ele>148.375</ele>
        <time>2010-07-24T12:29:35Z</time>
      </trkpt>
      <trkpt lat="45.06628" lon="4.78241">
        <ele>149.7619934082</ele>
        <time>2010-07-24T12:29:45Z</time>
      </trkpt>
      <trkpt lat="45.06626" lon="4.78216">
        <ele>150.08799743652</ele>
        <time>2010-07-24T12:29:48Z</time>
      </trkpt>
      <trkpt lat="45.06617" lon="4.78184">
        <ele>150.11500549316</ele>
        <time>2010-07-24T12:29:52Z</time>
      </trkpt>
      <trkpt lat="45.06604" lon="4.78166">
        <ele>150.66799926758</ele>
        <time>2010-07-24T12:29:55Z</time>
      </trkpt>
      <trkpt lat="45.06569" lon="4.78141">
        <ele>151.67900085449</ele>
        <time>2010-07-24T12:30:01Z</time>
      </trkpt>
      <trkpt lat="45.06517" lon="4.78133">
        <ele>152.8690032959</ele>
        <time>2010-07-24T12:30:09Z</time>
      </trkpt>
      <trkpt lat="45.06464" lon="4.78131">
        <ele>154.45799255371</ele>
        <time>2010-07-24T12:30:17Z</time>
      </trkpt>
      <trkpt lat="45.06451" lon="4.78132">
        <ele>154.46600341797</ele>
        <time>2010-07-24T12:30:19Z</time>
      </trkpt>
      <trkpt lat="45.06428" lon="4.78149">
        <ele>154.90299987793</ele>
        <time>2010-07-24T12:30:23Z</time>
      </trkpt>
      <trkpt lat="45.06417" lon="4.78172">
        <ele>156.08099365234</ele>
        <time>2010-07-24T12:30:26Z</time>
      </trkpt>
      <trkpt lat="45.06411" lon="4.78189">
        <ele>156.37800598144</ele>
        <time>2010-07-24T12:30:28Z</time>
      </trkpt>
      <trkpt lat="45.06399" lon="4.7821">
        <ele>157.02699279785</ele>
        <time>2010-07-24T12:30:31Z</time>
      </trkpt>
      <trkpt lat="45.06386" lon="4.78241">
        <ele>157.4700012207</ele>
        <time>2010-07-24T12:30:35Z</time>
      </trkpt>
      <trkpt lat="45.06378" lon="4.78266">
        <ele>158.17399597168</ele>
        <time>2010-07-24T12:30:38Z</time>
      </trkpt>
      <trkpt lat="45.06354" lon="4.78321">
        <ele>160.00199890137</ele>
        <time>2010-07-24T12:30:45Z</time>
      </trkpt>
      <trkpt lat="45.06343" lon="4.78355">
        <ele>161.18299865723</ele>
        <time>2010-07-24T12:30:49Z</time>
      </trkpt>
      <trkpt lat="45.06339" lon="4.78404">
        <ele>162.92900085449</ele>
        <time>2010-07-24T12:30:54Z</time>
      </trkpt>
      <trkpt lat="45.06339" lon="4.78414">
        <ele>162.97500610352</ele>
        <time>2010-07-24T12:30:55Z</time>
      </trkpt>
      <trkpt lat="45.06333" lon="4.78453">
        <ele>164.33599853516</ele>
        <time>2010-07-24T12:30:59Z</time>
      </trkpt>
      <trkpt lat="45.06319" lon="4.78498">
        <ele>164.80499267578</ele>
        <time>2010-07-24T12:31:04Z</time>
      </trkpt>
      <trkpt lat="45.06294" lon="4.78538">
        <ele>165.12199401856</ele>
        <time>2010-07-24T12:31:10Z</time>
      </trkpt>
      <trkpt lat="45.06252" lon="4.78601">
        <ele>164.92999267578</ele>
        <time>2010-07-24T12:31:20Z</time>
      </trkpt>
      <trkpt lat="45.06247" lon="4.78607">
        <ele>165.04100036621</ele>
        <time>2010-07-24T12:31:21Z</time>
      </trkpt>
      <trkpt lat="45.06223" lon="4.78628">
        <ele>165.61999511719</ele>
        <time>2010-07-24T12:31:26Z</time>
      </trkpt>
      <trkpt lat="45.06169" lon="4.78661">
        <ele>167.07499694824</ele>
        <time>2010-07-24T12:31:36Z</time>
      </trkpt>
      <trkpt lat="45.0613" lon="4.78673">
        <ele>167.80999755859</ele>
        <time>2010-07-24T12:31:43Z</time>
      </trkpt>
      <trkpt lat="45.06083" lon="4.78672">
        <ele>169.00399780273</ele>
        <time>2010-07-24T12:31:51Z</time>
      </trkpt>
      <trkpt lat="45.06059" lon="4.78675">
        <ele>170.22599792481</ele>
        <time>2010-07-24T12:31:55Z</time>
      </trkpt>
      <trkpt lat="45.06037" lon="4.78671">
        <ele>171.4109954834</ele>
        <time>2010-07-24T12:31:59Z</time>
      </trkpt>
      <trkpt lat="45.05994" lon="4.78648">
        <ele>172.90699768066</ele>
        <time>2010-07-24T12:32:07Z</time>
      </trkpt>
      <trkpt lat="45.05989" lon="4.78646">
        <ele>173.2200012207</ele>
        <time>2010-07-24T12:32:08Z</time>
      </trkpt>
      <trkpt lat="45.0597" lon="4.78631">
        <ele>173.73399353027</ele>
        <time>2010-07-24T12:32:12Z</time>
      </trkpt>
      <trkpt lat="45.05947" lon="4.78597">
        <ele>174.6309967041</ele>
        <time>2010-07-24T12:32:18Z</time>
      </trkpt>
      <trkpt lat="45.05927" lon="4.7856">
        <ele>175.50999450684</ele>
        <time>2010-07-24T12:32:24Z</time>
      </trkpt>
      <trkpt lat="45.05901" lon="4.78512">
        <ele>176.28199768066</ele>
        <time>2010-07-24T12:32:32Z</time>
      </trkpt>
      <trkpt lat="45.0589" lon="4.78488">
        <ele>177.11599731445</ele>
        <time>2010-07-24T12:32:36Z</time>
      </trkpt>
      <trkpt lat="45.05867" lon="4.78472">
        <ele>178.15199279785</ele>
        <time>2010-07-24T12:32:41Z</time>
      </trkpt>
      <trkpt lat="45.05845" lon="4.78475">
        <ele>178.5299987793</ele>
        <time>2010-07-24T12:32:45Z</time>
      </trkpt>
      <trkpt lat="45.05835" lon="4.78479">
        <ele>179.04200744629</ele>
        <time>2010-07-24T12:32:47Z</time>
      </trkpt>
      <trkpt lat="45.05812" lon="4.78477">
        <ele>179.03700256348</ele>
        <time>2010-07-24T12:32:51Z</time>
      </trkpt>
      <trkpt lat="45.05789" lon="4.78468">
        <ele>179.73699951172</ele>
        <time>2010-07-24T12:32:55Z</time>
      </trkpt>
      <trkpt lat="45.05759" lon="4.78472">
        <ele>181.00799560547</ele>
        <time>2010-07-24T12:32:59Z</time>
      </trkpt>
      <trkpt lat="45.05752" lon="4.78477">
        <ele>181.28500366211</ele>
        <time>2010-07-24T12:33:00Z</time>
      </trkpt>
      <trkpt lat="45.0573" lon="4.78491">
        <ele>181.32899475098</ele>
        <time>2010-07-24T12:33:03Z</time>
      </trkpt>
      <trkpt lat="45.05699" lon="4.78493">
        <ele>181.68899536133</ele>
        <time>2010-07-24T12:33:07Z</time>
      </trkpt>
      <trkpt lat="45.05663" lon="4.78475">
        <ele>184.49800109863</ele>
        <time>2010-07-24T12:33:13Z</time>
      </trkpt>
      <trkpt lat="45.05644" lon="4.78445">
        <ele>185.2799987793</ele>
        <time>2010-07-24T12:33:18Z</time>
      </trkpt>
      <trkpt lat="45.05646" lon="4.78419">
        <ele>186.16600036621</ele>
        <time>2010-07-24T12:33:21Z</time>
      </trkpt>
      <trkpt lat="45.05666" lon="4.78344">
        <ele>189.14300537109</ele>
        <time>2010-07-24T12:33:30Z</time>
      </trkpt>
      <trkpt lat="45.05679" lon="4.78286">
        <ele>189.20199584961</ele>
        <time>2010-07-24T12:33:37Z</time>
      </trkpt>
      <trkpt lat="45.05689" lon="4.78244">
        <ele>188.59700012207</ele>
        <time>2010-07-24T12:33:43Z</time>
      </trkpt>
      <trkpt lat="45.05706" lon="4.78218">
        <ele>189.09199523926</ele>
        <time>2010-07-24T12:33:48Z</time>
      </trkpt>
      <trkpt lat="45.05718" lon="4.78211">
        <ele>189.00100708008</ele>
        <time>2010-07-24T12:33:51Z</time>
      </trkpt>
      <trkpt lat="45.05756" lon="4.78198">
        <ele>190.61399841309</ele>
        <time>2010-07-24T12:33:59Z</time>
      </trkpt>
      <trkpt lat="45.05765" lon="4.78195">
        <ele>189.93499755859</ele>
        <time>2010-07-24T12:34:01Z</time>
      </trkpt>
      <trkpt lat="45.0579" lon="4.78172">
        <ele>189.85600280762</ele>
        <time>2010-07-24T12:34:07Z</time>
      </trkpt>
      <trkpt lat="45.05799" lon="4.78145">
        <ele>190.27600097656</ele>
        <time>2010-07-24T12:34:11Z</time>
      </trkpt>
      <trkpt lat="45.05803" lon="4.78123">
        <ele>190.65299987793</ele>
        <time>2010-07-24T12:34:14Z</time>
      </trkpt>
      <trkpt lat="45.05807" lon="4.78043">
        <ele>192.82800292969</ele>
        <time>2010-07-24T12:34:25Z</time>
      </trkpt>
      <trkpt lat="45.05804" lon="4.77992">
        <ele>194.87600708008</ele>
        <time>2010-07-24T12:34:32Z</time>
      </trkpt>
      <trkpt lat="45.05798" lon="4.77963">
        <ele>195.62899780273</ele>
        <time>2010-07-24T12:34:36Z</time>
      </trkpt>
      <trkpt lat="45.05805" lon="4.77934">
        <ele>196.26100158691</ele>
        <time>2010-07-24T12:34:40Z</time>
      </trkpt>
      <trkpt lat="45.05813" lon="4.77923">
        <ele>196.32499694824</ele>
        <time>2010-07-24T12:34:42Z</time>
      </trkpt>
      <trkpt lat="45.05825" lon="4.77908">
        <ele>197.62300109863</ele>
        <time>2010-07-24T12:34:45Z</time>
      </trkpt>
      <trkpt lat="45.05833" lon="4.77888">
        <ele>197.8869934082</ele>
        <time>2010-07-24T12:34:48Z</time>
      </trkpt>
      <trkpt lat="45.05848" lon="4.77827">
        <ele>200.14100646973</ele>
        <time>2010-07-24T12:34:57Z</time>
      </trkpt>
      <trkpt lat="45.0585" lon="4.77819">
        <ele>200.63999938965</ele>
        <time>2010-07-24T12:34:58Z</time>
      </trkpt>
      <trkpt lat="45.05857" lon="4.77763">
        <ele>202.74800109863</ele>
        <time>2010-07-24T12:35:05Z</time>
      </trkpt>
      <trkpt lat="45.05866" lon="4.77705">
        <ele>205.41000366211</ele>
        <time>2010-07-24T12:35:12Z</time>
      </trkpt>
      <trkpt lat="45.05868" lon="4.77697">
        <ele>205.67199707031</ele>
        <time>2010-07-24T12:35:13Z</time>
      </trkpt>
      <trkpt lat="45.05867" lon="4.77654">
        <ele>208.20399475098</ele>
        <time>2010-07-24T12:35:18Z</time>
      </trkpt>
      <trkpt lat="45.05854" lon="4.77634">
        <ele>209.16000366211</ele>
        <time>2010-07-24T12:35:21Z</time>
      </trkpt>
      <trkpt lat="45.05843" lon="4.77625">
        <ele>209.53199768066</ele>
        <time>2010-07-24T12:35:23Z</time>
      </trkpt>
      <trkpt lat="45.05806" lon="4.77609">
        <ele>210.55400085449</ele>
        <time>2010-07-24T12:35:29Z</time>
      </trkpt>
      <trkpt lat="45.05788" lon="4.77606">
        <ele>211.02900695801</ele>
        <time>2010-07-24T12:35:32Z</time>
      </trkpt>
      <trkpt lat="45.05765" lon="4.77595">
        <ele>212.19599914551</ele>
        <time>2010-07-24T12:35:36Z</time>
      </trkpt>
      <trkpt lat="45.0573" lon="4.77556">
        <ele>213.82699584961</ele>
        <time>2010-07-24T12:35:43Z</time>
      </trkpt>
      <trkpt lat="45.05696" lon="4.77503">
        <ele>216.29600524902</ele>
        <time>2010-07-24T12:35:51Z</time>
      </trkpt>
      <trkpt lat="45.05677" lon="4.77469">
        <ele>217.84899902344</ele>
        <time>2010-07-24T12:35:56Z</time>
      </trkpt>
      <trkpt lat="45.05651" lon="4.77446">
        <ele>218.86000061035</ele>
        <time>2010-07-24T12:36:01Z</time>
      </trkpt>
      <trkpt lat="45.05635" lon="4.7742">
        <ele>218.60200500488</ele>
        <time>2010-07-24T12:36:05Z</time>
      </trkpt>
      <trkpt lat="45.05616" lon="4.77324">
        <ele>221.55299377441</ele>
        <time>2010-07-24T12:36:16Z</time>
      </trkpt>
      <trkpt lat="45.05608" lon="4.77271">
        <ele>224.11399841309</ele>
        <time>2010-07-24T12:36:22Z</time>
      </trkpt>
      <trkpt lat="45.05608" lon="4.77225">
        <ele>224.03399658203</ele>
        <time>2010-07-24T12:36:27Z</time>
      </trkpt>
      <trkpt lat="45.05614" lon="4.7719">
        <ele>225.95799255371</ele>
        <time>2010-07-24T12:36:31Z</time>
      </trkpt>
      <trkpt lat="45.05618" lon="4.77162">
        <ele>227.30700683594</ele>
        <time>2010-07-24T12:36:34Z</time>
      </trkpt>
      <trkpt lat="45.05619" lon="4.77118">
        <ele>228.50900268555</ele>
        <time>2010-07-24T12:36:39Z</time>
      </trkpt>
      <trkpt lat="45.05617" lon="4.77086">
        <ele>229.46699523926</ele>
        <time>2010-07-24T12:36:43Z</time>
      </trkpt>
      <trkpt lat="45.05618" lon="4.7707">
        <ele>229.90299987793</ele>
        <time>2010-07-24T12:36:45Z</time>
      </trkpt>
      <trkpt lat="45.05628" lon="4.77046">
        <ele>230.81599426269</ele>
        <time>2010-07-24T12:36:49Z</time>
      </trkpt>
      <trkpt lat="45.05632" lon="4.77043">
        <ele>230.82600402832</ele>
        <time>2010-07-24T12:36:50Z</time>
      </trkpt>
      <trkpt lat="45.05648" lon="4.77036">
        <ele>231.2799987793</ele>
        <time>2010-07-24T12:36:53Z</time>
      </trkpt>
      <trkpt lat="45.05664" lon="4.7702">
        <ele>232.25799560547</ele>
        <time>2010-07-24T12:36:57Z</time>
      </trkpt>
      <trkpt lat="45.05691" lon="4.76968">
        <ele>234.87300109863</ele>
        <time>2010-07-24T12:37:05Z</time>
      </trkpt>
      <trkpt lat="45.05724" lon="4.76927">
        <ele>235.07000732422</ele>
        <time>2010-07-24T12:37:12Z</time>
      </trkpt>
      <trkpt lat="45.05764" lon="4.76874">
        <ele>237.98399353027</ele>
        <time>2010-07-24T12:37:21Z</time>
      </trkpt>
      <trkpt lat="45.05788" lon="4.76834">
        <ele>238.49499511719</ele>
        <time>2010-07-24T12:37:27Z</time>
      </trkpt>
      <trkpt lat="45.05794" lon="4.76821">
        <ele>239.07699584961</ele>
        <time>2010-07-24T12:37:29Z</time>
      </trkpt>
      <trkpt lat="45.05796" lon="4.76785">
        <ele>239.00300598144</ele>
        <time>2010-07-24T12:37:34Z</time>
      </trkpt>
      <trkpt lat="45.05795" lon="4.76779">
        <ele>238.83200073242</ele>
        <time>2010-07-24T12:37:35Z</time>
      </trkpt>
      <trkpt lat="45.05792" lon="4.76765">
        <ele>237.19799804688</ele>
        <time>2010-07-24T12:37:37Z</time>
      </trkpt>
      <trkpt lat="45.05792" lon="4.76735">
        <ele>239.56799316406</ele>
        <time>2010-07-24T12:37:42Z</time>
      </trkpt>
      <trkpt lat="45.05797" lon="4.76728">
        <ele>240.47200012207</ele>
        <time>2010-07-24T12:37:44Z</time>
      </trkpt>
      <trkpt lat="45.05809" lon="4.76725">
        <ele>240.45599365234</ele>
        <time>2010-07-24T12:37:46Z</time>
      </trkpt>
      <trkpt lat="45.05862" lon="4.76715">
        <ele>241.32699584961</ele>
        <time>2010-07-24T12:37:52Z</time>
      </trkpt>
      <trkpt lat="45.05893" lon="4.76699">
        <ele>242.01499938965</ele>
        <time>2010-07-24T12:37:57Z</time>
      </trkpt>
      <trkpt lat="45.05921" lon="4.76679">
        <ele>245.04800415039</ele>
        <time>2010-07-24T12:38:03Z</time>
      </trkpt>
      <trkpt lat="45.05925" lon="4.76675">
        <ele>245.2440032959</ele>
        <time>2010-07-24T12:38:04Z</time>
      </trkpt>
      <trkpt lat="45.05942" lon="4.7664">
        <ele>248.18800354004</ele>
        <time>2010-07-24T12:38:10Z</time>
      </trkpt>
      <trkpt lat="45.05959" lon="4.76597">
        <ele>250.35800170898</ele>
        <time>2010-07-24T12:38:17Z</time>
      </trkpt>
      <trkpt lat="45.05975" lon="4.7657">
        <ele>252.69799804688</ele>
        <time>2010-07-24T12:38:22Z</time>
      </trkpt>
      <trkpt lat="45.06" lon="4.76549">
        <ele>253.02900695801</ele>
        <time>2010-07-24T12:38:28Z</time>
      </trkpt>
      <trkpt lat="45.0602" lon="4.7655">
        <ele>253.59800720215</ele>
        <time>2010-07-24T12:38:32Z</time>
      </trkpt>
      <trkpt lat="45.06024" lon="4.76552">
        <ele>254.13499450684</ele>
        <time>2010-07-24T12:38:33Z</time>
      </trkpt>
      <trkpt lat="45.06032" lon="4.76558">
        <ele>255.01899719238</ele>
        <time>2010-07-24T12:38:35Z</time>
      </trkpt>
      <trkpt lat="45.0606" lon="4.76576">
        <ele>257.92300415039</ele>
        <time>2010-07-24T12:38:43Z</time>
      </trkpt>
      <trkpt lat="45.06064" lon="4.76578">
        <ele>258.07000732422</ele>
        <time>2010-07-24T12:38:44Z</time>
      </trkpt>
      <trkpt lat="45.0609" lon="4.76582">
        <ele>257.54800415039</ele>
        <time>2010-07-24T12:38:51Z</time>
      </trkpt>
      <trkpt lat="45.0611" lon="4.76571">
        <ele>259.1130065918</ele>
        <time>2010-07-24T12:38:57Z</time>
      </trkpt>
      <trkpt lat="45.06115" lon="4.76562">
        <ele>259.64599609375</ele>
        <time>2010-07-24T12:38:59Z</time>
      </trkpt>
      <trkpt lat="45.06121" lon="4.76535">
        <ele>258.02499389648</ele>
        <time>2010-07-24T12:39:04Z</time>
      </trkpt>
      <trkpt lat="45.06121" lon="4.76529">
        <ele>258.09698486328</ele>
        <time>2010-07-24T12:39:05Z</time>
      </trkpt>
      <trkpt lat="45.06116" lon="4.76503">
        <ele>262.22198486328</ele>
        <time>2010-07-24T12:39:09Z</time>
      </trkpt>
      <trkpt lat="45.0611" lon="4.76452">
        <ele>256.52700805664</ele>
        <time>2010-07-24T12:39:17Z</time>
      </trkpt>
      <trkpt lat="45.0611" lon="4.76401">
        <ele>261.1960144043</ele>
        <time>2010-07-24T12:39:25Z</time>
      </trkpt>
      <trkpt lat="45.06116" lon="4.76349">
        <ele>263.45001220703</ele>
        <time>2010-07-24T12:39:32Z</time>
      </trkpt>
      <trkpt lat="45.06128" lon="4.76272">
        <ele>266.01998901367</ele>
        <time>2010-07-24T12:39:42Z</time>
      </trkpt>
      <trkpt lat="45.06135" lon="4.76241">
        <ele>265.96398925781</ele>
        <time>2010-07-24T12:39:46Z</time>
      </trkpt>
      <trkpt lat="45.0616" lon="4.76185">
        <ele>267.38500976562</ele>
        <time>2010-07-24T12:39:54Z</time>
      </trkpt>
      <trkpt lat="45.06191" lon="4.76129">
        <ele>271.47299194336</ele>
        <time>2010-07-24T12:40:02Z</time>
      </trkpt>
      <trkpt lat="45.062" lon="4.76114">
        <ele>272.25399780273</ele>
        <time>2010-07-24T12:40:04Z</time>
      </trkpt>
      <trkpt lat="45.06204" lon="4.76108">
        <ele>272.38299560547</ele>
        <time>2010-07-24T12:40:05Z</time>
      </trkpt>
      <trkpt lat="45.06252" lon="4.76063">
        <ele>276.33499145508</ele>
        <time>2010-07-24T12:40:14Z</time>
      </trkpt>
      <trkpt lat="45.06279" lon="4.76044">
        <ele>278.08200073242</ele>
        <time>2010-07-24T12:40:19Z</time>
      </trkpt>
      <trkpt lat="45.06324" lon="4.76012">
        <ele>279.39300537109</ele>
        <time>2010-07-24T12:40:28Z</time>
      </trkpt>
      <trkpt lat="45.06354" lon="4.75978">
        <ele>280.17300415039</ele>
        <time>2010-07-24T12:40:35Z</time>
      </trkpt>
      <trkpt lat="45.06384" lon="4.75945">
        <ele>283.24899291992</ele>
        <time>2010-07-24T12:40:42Z</time>
      </trkpt>
      <trkpt lat="45.06412" lon="4.75937">
        <ele>283.69299316406</ele>
        <time>2010-07-24T12:40:47Z</time>
      </trkpt>
      <trkpt lat="45.06432" lon="4.75948">
        <ele>284.36700439453</ele>
        <time>2010-07-24T12:40:51Z</time>
      </trkpt>
      <trkpt lat="45.06445" lon="4.75964">
        <ele>285.54400634766</ele>
        <time>2010-07-24T12:40:54Z</time>
      </trkpt>
      <trkpt lat="45.06451" lon="4.75976">
        <ele>286.04699707031</ele>
        <time>2010-07-24T12:40:56Z</time>
      </trkpt>
      <trkpt lat="45.0647" lon="4.7599">
        <ele>285.70498657227</ele>
        <time>2010-07-24T12:41:00Z</time>
      </trkpt>
      <trkpt lat="45.06484" lon="4.75988">
        <ele>287.12298583984</ele>
        <time>2010-07-24T12:41:03Z</time>
      </trkpt>
      <trkpt lat="45.06519" lon="4.75988">
        <ele>289.17999267578</ele>
        <time>2010-07-24T12:41:10Z</time>
      </trkpt>
      <trkpt lat="45.06553" lon="4.75994">
        <ele>292.46301269531</ele>
        <time>2010-07-24T12:41:18Z</time>
      </trkpt>
      <trkpt lat="45.06579" lon="4.75982">
        <ele>294.08401489258</ele>
        <time>2010-07-24T12:41:24Z</time>
      </trkpt>
      <trkpt lat="45.06583" lon="4.75978">
        <ele>294.4049987793</ele>
        <time>2010-07-24T12:41:25Z</time>
      </trkpt>
      <trkpt lat="45.06599" lon="4.75952">
        <ele>296.80999755859</ele>
        <time>2010-07-24T12:41:30Z</time>
      </trkpt>
      <trkpt lat="45.06604" lon="4.75934">
        <ele>298.73999023438</ele>
        <time>2010-07-24T12:41:33Z</time>
      </trkpt>
      <trkpt lat="45.06606" lon="4.75914">
        <ele>299.77301025391</ele>
        <time>2010-07-24T12:41:36Z</time>
      </trkpt>
      <trkpt lat="45.06604" lon="4.75894">
        <ele>300.3039855957</ele>
        <time>2010-07-24T12:41:39Z</time>
      </trkpt>
      <trkpt lat="45.06601" lon="4.75881">
        <ele>300.43899536133</ele>
        <time>2010-07-24T12:41:41Z</time>
      </trkpt>
      <trkpt lat="45.06588" lon="4.75841">
        <ele>300.80099487305</ele>
        <time>2010-07-24T12:41:47Z</time>
      </trkpt>
      <trkpt lat="45.06584" lon="4.75806">
        <ele>301.58999633789</ele>
        <time>2010-07-24T12:41:52Z</time>
      </trkpt>
      <trkpt lat="45.06582" lon="4.75785">
        <ele>302.15798950195</ele>
        <time>2010-07-24T12:41:55Z</time>
      </trkpt>
      <trkpt lat="45.0658" lon="4.75764">
        <ele>302.79800415039</ele>
        <time>2010-07-24T12:41:58Z</time>
      </trkpt>
      <trkpt lat="45.06579" lon="4.75712">
        <ele>302.5419921875</ele>
        <time>2010-07-24T12:42:05Z</time>
      </trkpt>
      <trkpt lat="45.06572" lon="4.75668">
        <ele>304.40701293945</ele>
        <time>2010-07-24T12:42:11Z</time>
      </trkpt>
      <trkpt lat="45.0657" lon="4.75661">
        <ele>304.56201171875</ele>
        <time>2010-07-24T12:42:12Z</time>
      </trkpt>
      <trkpt lat="45.06564" lon="4.75631">
        <ele>306.14099121094</ele>
        <time>2010-07-24T12:42:16Z</time>
      </trkpt>
      <trkpt lat="45.0657" lon="4.75593">
        <ele>308.2919921875</ele>
        <time>2010-07-24T12:42:21Z</time>
      </trkpt>
      <trkpt lat="45.06575" lon="4.75587">
        <ele>308.45199584961</ele>
        <time>2010-07-24T12:42:22Z</time>
      </trkpt>
      <trkpt lat="45.06608" lon="4.75549">
        <ele>309.96301269531</ele>
        <time>2010-07-24T12:42:29Z</time>
      </trkpt>
      <trkpt lat="45.06618" lon="4.75514">
        <ele>311.02801513672</ele>
        <time>2010-07-24T12:42:34Z</time>
      </trkpt>
      <trkpt lat="45.06618" lon="4.75499">
        <ele>311.50500488281</ele>
        <time>2010-07-24T12:42:36Z</time>
      </trkpt>
      <trkpt lat="45.06614" lon="4.7544">
        <ele>312.54501342773</ele>
        <time>2010-07-24T12:42:44Z</time>
      </trkpt>
      <trkpt lat="45.06625" lon="4.75412">
        <ele>312.02099609375</ele>
        <time>2010-07-24T12:42:49Z</time>
      </trkpt>
      <trkpt lat="45.06628" lon="4.75407">
        <ele>312.39199829102</ele>
        <time>2010-07-24T12:42:50Z</time>
      </trkpt>
      <trkpt lat="45.06635" lon="4.75398">
        <ele>313.49301147461</ele>
        <time>2010-07-24T12:42:52Z</time>
      </trkpt>
      <trkpt lat="45.06644" lon="4.75368">
        <ele>315.78900146484</ele>
        <time>2010-07-24T12:42:57Z</time>
      </trkpt>
      <trkpt lat="45.06646" lon="4.75354">
        <ele>316.29699707031</ele>
        <time>2010-07-24T12:42:59Z</time>
      </trkpt>
      <trkpt lat="45.06643" lon="4.75332">
        <ele>316.99600219727</ele>
        <time>2010-07-24T12:43:02Z</time>
      </trkpt>
      <trkpt lat="45.06639" lon="4.75319">
        <ele>317.13800048828</ele>
        <time>2010-07-24T12:43:04Z</time>
      </trkpt>
      <trkpt lat="45.06622" lon="4.75303">
        <ele>317.80899047852</ele>
        <time>2010-07-24T12:43:08Z</time>
      </trkpt>
      <trkpt lat="45.06617" lon="4.75302">
        <ele>318.09899902344</ele>
        <time>2010-07-24T12:43:09Z</time>
      </trkpt>
      <trkpt lat="45.06589" lon="4.75285">
        <ele>318.79598999023</ele>
        <time>2010-07-24T12:43:15Z</time>
      </trkpt>
      <trkpt lat="45.06583" lon="4.75262">
        <ele>319.68399047852</ele>
        <time>2010-07-24T12:43:18Z</time>
      </trkpt>
      <trkpt lat="45.06581" lon="4.75239">
        <ele>320.04299926758</ele>
        <time>2010-07-24T12:43:21Z</time>
      </trkpt>
      <trkpt lat="45.06575" lon="4.75207">
        <ele>321.48599243164</ele>
        <time>2010-07-24T12:43:25Z</time>
      </trkpt>
      <trkpt lat="45.06572" lon="4.75199">
        <ele>321.9469909668</ele>
        <time>2010-07-24T12:43:26Z</time>
      </trkpt>
      <trkpt lat="45.06535" lon="4.75136">
        <ele>325.21200561523</ele>
        <time>2010-07-24T12:43:35Z</time>
      </trkpt>
      <trkpt lat="45.06531" lon="4.7513">
        <ele>325.59201049805</ele>
        <time>2010-07-24T12:43:36Z</time>
      </trkpt>
      <trkpt lat="45.06508" lon="4.75112">
        <ele>326.86599731445</ele>
        <time>2010-07-24T12:43:40Z</time>
      </trkpt>
      <trkpt lat="45.06487" lon="4.75091">
        <ele>327.53799438477</ele>
        <time>2010-07-24T12:43:44Z</time>
      </trkpt>
      <trkpt lat="45.06482" lon="4.75074">
        <ele>327.35198974609</ele>
        <time>2010-07-24T12:43:46Z</time>
      </trkpt>
      <trkpt lat="45.06467" lon="4.75003">
        <ele>331.41299438477</ele>
        <time>2010-07-24T12:43:55Z</time>
      </trkpt>
      <trkpt lat="45.06448" lon="4.74974">
        <ele>333.48300170898</ele>
        <time>2010-07-24T12:44:00Z</time>
      </trkpt>
      <trkpt lat="45.06437" lon="4.74968">
        <ele>333.90899658203</ele>
        <time>2010-07-24T12:44:02Z</time>
      </trkpt>
      <trkpt lat="45.06406" lon="4.74952">
        <ele>335.0299987793</ele>
        <time>2010-07-24T12:44:08Z</time>
      </trkpt>
      <trkpt lat="45.06382" lon="4.74923">
        <ele>335.39001464844</ele>
        <time>2010-07-24T12:44:14Z</time>
      </trkpt>
      <trkpt lat="45.06374" lon="4.74906">
        <ele>336.5299987793</ele>
        <time>2010-07-24T12:44:17Z</time>
      </trkpt>
      <trkpt lat="45.06365" lon="4.74869">
        <ele>337.60998535156</ele>
        <time>2010-07-24T12:44:23Z</time>
      </trkpt>
      <trkpt lat="45.06356" lon="4.74847">
        <ele>339.0539855957</ele>
        <time>2010-07-24T12:44:27Z</time>
      </trkpt>
      <trkpt lat="45.06348" lon="4.74822">
        <ele>339.94400024414</ele>
        <time>2010-07-24T12:44:31Z</time>
      </trkpt>
      <trkpt lat="45.0634" lon="4.74774">
        <ele>341.82299804688</ele>
        <time>2010-07-24T12:44:38Z</time>
      </trkpt>
      <trkpt lat="45.06316" lon="4.74727">
        <ele>343.99600219727</ele>
        <time>2010-07-24T12:44:46Z</time>
      </trkpt>
      <trkpt lat="45.06312" lon="4.74722">
        <ele>344.26000976562</ele>
        <time>2010-07-24T12:44:47Z</time>
      </trkpt>
      <trkpt lat="45.063" lon="4.74707">
        <ele>346.28900146484</ele>
        <time>2010-07-24T12:44:51Z</time>
      </trkpt>
      <trkpt lat="45.06301" lon="4.74705">
        <ele>346.41198730469</ele>
        <time>2010-07-24T12:44:55Z</time>
      </trkpt>
      <trkpt lat="45.063" lon="4.74706">
        <ele>347.15399169922</ele>
        <time>2010-07-24T12:46:55Z</time>
      </trkpt>
      <trkpt lat="45.063" lon="4.74706">
        <ele>346.6130065918</ele>
        <time>2010-07-24T12:46:56Z</time>
      </trkpt>
      <trkpt lat="45.06301" lon="4.74716">
        <ele>344.65100097656</ele>
        <time>2010-07-24T12:49:06Z</time>
      </trkpt>
      <trkpt lat="45.0631" lon="4.7473">
        <ele>344.48098754883</ele>
        <time>2010-07-24T12:49:10Z</time>
      </trkpt>
      <trkpt lat="45.06322" lon="4.74751">
        <ele>342.91000366211</ele>
        <time>2010-07-24T12:49:14Z</time>
      </trkpt>
      <trkpt lat="45.06329" lon="4.74763">
        <ele>342.11599731445</ele>
        <time>2010-07-24T12:49:16Z</time>
      </trkpt>
      <trkpt lat="45.06341" lon="4.7479">
        <ele>341.78399658203</ele>
        <time>2010-07-24T12:49:20Z</time>
      </trkpt>
      <trkpt lat="45.06347" lon="4.74791">
        <ele>342.21099853516</ele>
        <time>2010-07-24T12:49:23Z</time>
      </trkpt>
      <trkpt lat="45.06346" lon="4.74786">
        <ele>342.8039855957</ele>
        <time>2010-07-24T12:49:25Z</time>
      </trkpt>
      <trkpt lat="45.06336" lon="4.74765">
        <ele>342.81698608398</ele>
        <time>2010-07-24T12:49:32Z</time>
      </trkpt>
      <trkpt lat="45.06329" lon="4.74751">
        <ele>343.46499633789</ele>
        <time>2010-07-24T12:49:37Z</time>
      </trkpt>
      <trkpt lat="45.06318" lon="4.74729">
        <ele>344.52801513672</ele>
        <time>2010-07-24T12:49:42Z</time>
      </trkpt>
      <trkpt lat="45.06313" lon="4.74715">
        <ele>346.07998657227</ele>
        <time>2010-07-24T12:49:46Z</time>
      </trkpt>
      <trkpt lat="45.06309" lon="4.74704">
        <ele>347.13800048828</ele>
        <time>2010-07-24T12:49:51Z</time>
      </trkpt>
      <trkpt lat="45.06305" lon="4.74697">
        <ele>348.11199951172</ele>
        <time>2010-07-24T12:49:55Z</time>
      </trkpt>
      <trkpt lat="45.06301" lon="4.74683">
        <ele>346.53799438477</ele>
        <time>2010-07-24T12:49:59Z</time>
      </trkpt>
      <trkpt lat="45.06284" lon="4.7468">
        <ele>345.0950012207</ele>
        <time>2010-07-24T12:50:03Z</time>
      </trkpt>
      <trkpt lat="45.06269" lon="4.74691">
        <ele>343.88000488281</ele>
        <time>2010-07-24T12:50:06Z</time>
      </trkpt>
      <trkpt lat="45.06265" lon="4.74699">
        <ele>342.98599243164</ele>
        <time>2010-07-24T12:50:07Z</time>
      </trkpt>
      <trkpt lat="45.06249" lon="4.7473">
        <ele>340.90701293945</ele>
        <time>2010-07-24T12:50:11Z</time>
      </trkpt>
      <trkpt lat="45.06233" lon="4.74748">
        <ele>339.78399658203</ele>
        <time>2010-07-24T12:50:14Z</time>
      </trkpt>
      <trkpt lat="45.0622" lon="4.74758">
        <ele>339.16400146484</ele>
        <time>2010-07-24T12:50:16Z</time>
      </trkpt>
      <trkpt lat="45.06184" lon="4.74771">
        <ele>337.64801025391</ele>
        <time>2010-07-24T12:50:21Z</time>
      </trkpt>
      <trkpt lat="45.06176" lon="4.74773">
        <ele>337.35299682617</ele>
        <time>2010-07-24T12:50:22Z</time>
      </trkpt>
      <trkpt lat="45.06133" lon="4.74799">
        <ele>334.40301513672</ele>
        <time>2010-07-24T12:50:28Z</time>
      </trkpt>
      <trkpt lat="45.06126" lon="4.74805">
        <ele>334.10299682617</ele>
        <time>2010-07-24T12:50:29Z</time>
      </trkpt>
      <trkpt lat="45.06098" lon="4.74823">
        <ele>332.94000244141</ele>
        <time>2010-07-24T12:50:33Z</time>
      </trkpt>
      <trkpt lat="45.06048" lon="4.74824">
        <ele>330.32501220703</ele>
        <time>2010-07-24T12:50:39Z</time>
      </trkpt>
      <trkpt lat="45.06031" lon="4.74823">
        <ele>329.39300537109</ele>
        <time>2010-07-24T12:50:41Z</time>
      </trkpt>
      <trkpt lat="45.05996" lon="4.74834">
        <ele>327.57501220703</ele>
        <time>2010-07-24T12:50:45Z</time>
      </trkpt>
      <trkpt lat="45.05979" lon="4.74841">
        <ele>327.5830078125</ele>
        <time>2010-07-24T12:50:47Z</time>
      </trkpt>
      <trkpt lat="45.05924" lon="4.74846">
        <ele>325.06201171875</ele>
        <time>2010-07-24T12:50:53Z</time>
      </trkpt>
      <trkpt lat="45.05886" lon="4.74847">
        <ele>323.2919921875</ele>
        <time>2010-07-24T12:50:57Z</time>
      </trkpt>
      <trkpt lat="45.05861" lon="4.74832">
        <ele>322.1960144043</ele>
        <time>2010-07-24T12:51:00Z</time>
      </trkpt>
      <trkpt lat="45.05853" lon="4.74802">
        <ele>320.40399169922</ele>
        <time>2010-07-24T12:51:02Z</time>
      </trkpt>
      <trkpt lat="45.05854" lon="4.74775">
        <ele>319.1130065918</ele>
        <time>2010-07-24T12:51:04Z</time>
      </trkpt>
      <trkpt lat="45.05865" lon="4.74748">
        <ele>317.93099975586</ele>
        <time>2010-07-24T12:51:06Z</time>
      </trkpt>
      <trkpt lat="45.05875" lon="4.74722">
        <ele>315.96701049805</ele>
        <time>2010-07-24T12:51:08Z</time>
      </trkpt>
      <trkpt lat="45.05876" lon="4.74683">
        <ele>314.36599731445</ele>
        <time>2010-07-24T12:51:11Z</time>
      </trkpt>
      <trkpt lat="45.05872" lon="4.74671">
        <ele>313.65200805664</ele>
        <time>2010-07-24T12:51:12Z</time>
      </trkpt>
      <trkpt lat="45.05864" lon="4.74648">
        <ele>312.23699951172</ele>
        <time>2010-07-24T12:51:14Z</time>
      </trkpt>
      <trkpt lat="45.0585" lon="4.7459">
        <ele>309.6130065918</ele>
        <time>2010-07-24T12:51:19Z</time>
      </trkpt>
      <trkpt lat="45.05835" lon="4.74559">
        <ele>308.32998657227</ele>
        <time>2010-07-24T12:51:22Z</time>
      </trkpt>
      <trkpt lat="45.05835" lon="4.74523">
        <ele>306.71301269531</ele>
        <time>2010-07-24T12:51:25Z</time>
      </trkpt>
      <trkpt lat="45.05833" lon="4.74485">
        <ele>305.24700927734</ele>
        <time>2010-07-24T12:51:28Z</time>
      </trkpt>
      <trkpt lat="45.05825" lon="4.74446">
        <ele>304.29000854492</ele>
        <time>2010-07-24T12:51:31Z</time>
      </trkpt>
      <trkpt lat="45.05822" lon="4.74417">
        <ele>303.48001098633</ele>
        <time>2010-07-24T12:51:33Z</time>
      </trkpt>
      <trkpt lat="45.0582" lon="4.74403">
        <ele>303.45498657227</ele>
        <time>2010-07-24T12:51:34Z</time>
      </trkpt>
      <trkpt lat="45.05819" lon="4.74326">
        <ele>300.49499511719</ele>
        <time>2010-07-24T12:51:39Z</time>
      </trkpt>
      <trkpt lat="45.05819" lon="4.74261">
        <ele>300.20700073242</ele>
        <time>2010-07-24T12:51:43Z</time>
      </trkpt>
      <trkpt lat="45.05806" lon="4.74199">
        <ele>298.88900756836</ele>
        <time>2010-07-24T12:51:47Z</time>
      </trkpt>
      <trkpt lat="45.05782" lon="4.7416">
        <ele>297.06201171875</ele>
        <time>2010-07-24T12:51:50Z</time>
      </trkpt>
      <trkpt lat="45.05751" lon="4.7413">
        <ele>294.64801025391</ele>
        <time>2010-07-24T12:51:53Z</time>
      </trkpt>
      <trkpt lat="45.05742" lon="4.74119">
        <ele>293.57299804688</ele>
        <time>2010-07-24T12:51:54Z</time>
      </trkpt>
      <trkpt lat="45.05716" lon="4.74084">
        <ele>291.625</ele>
        <time>2010-07-24T12:51:57Z</time>
      </trkpt>
      <trkpt lat="45.05682" lon="4.74041">
        <ele>290.62399291992</ele>
        <time>2010-07-24T12:52:01Z</time>
      </trkpt>
      <trkpt lat="45.05671" lon="4.7401">
        <ele>289.84899902344</ele>
        <time>2010-07-24T12:52:04Z</time>
      </trkpt>
      <trkpt lat="45.05689" lon="4.74">
        <ele>288.23098754883</ele>
        <time>2010-07-24T12:52:06Z</time>
      </trkpt>
      <trkpt lat="45.05709" lon="4.74004">
        <ele>287.46398925781</ele>
        <time>2010-07-24T12:52:08Z</time>
      </trkpt>
      <trkpt lat="45.05769" lon="4.74014">
        <ele>282.7619934082</ele>
        <time>2010-07-24T12:52:15Z</time>
      </trkpt>
      <trkpt lat="45.05804" lon="4.74015">
        <ele>282.56799316406</ele>
        <time>2010-07-24T12:52:19Z</time>
      </trkpt>
      <trkpt lat="45.05832" lon="4.74016">
        <ele>282.28799438477</ele>
        <time>2010-07-24T12:52:22Z</time>
      </trkpt>
      <trkpt lat="45.05857" lon="4.73997">
        <ele>282.28900146484</ele>
        <time>2010-07-24T12:52:25Z</time>
      </trkpt>
      <trkpt lat="45.05866" lon="4.7397">
        <ele>280.96499633789</ele>
        <time>2010-07-24T12:52:27Z</time>
      </trkpt>
      <trkpt lat="45.05889" lon="4.73853">
        <ele>276.21200561523</ele>
        <time>2010-07-24T12:52:35Z</time>
      </trkpt>
      <trkpt lat="45.05899" lon="4.73811">
        <ele>274.49499511719</ele>
        <time>2010-07-24T12:52:38Z</time>
      </trkpt>
      <trkpt lat="45.05902" lon="4.73797">
        <ele>274.15899658203</ele>
        <time>2010-07-24T12:52:39Z</time>
      </trkpt>
      <trkpt lat="45.05896" lon="4.73741">
        <ele>272.93301391602</ele>
        <time>2010-07-24T12:52:43Z</time>
      </trkpt>
      <trkpt lat="45.05883" lon="4.73718">
        <ele>272.05499267578</ele>
        <time>2010-07-24T12:52:45Z</time>
      </trkpt>
      <trkpt lat="45.05864" lon="4.73685">
        <ele>270.72601318359</ele>
        <time>2010-07-24T12:52:48Z</time>
      </trkpt>
      <trkpt lat="45.05834" lon="4.73626">
        <ele>268.28799438477</ele>
        <time>2010-07-24T12:52:53Z</time>
      </trkpt>
      <trkpt lat="45.05822" lon="4.73602">
        <ele>268.12100219727</ele>
        <time>2010-07-24T12:52:56Z</time>
      </trkpt>
      <trkpt lat="45.0582" lon="4.73595">
        <ele>267.96200561523</ele>
        <time>2010-07-24T12:52:57Z</time>
      </trkpt>
      <trkpt lat="45.0581" lon="4.73556">
        <ele>266.63198852539</ele>
        <time>2010-07-24T12:53:02Z</time>
      </trkpt>
      <trkpt lat="45.05813" lon="4.7352">
        <ele>266.28900146484</ele>
        <time>2010-07-24T12:53:06Z</time>
      </trkpt>
      <trkpt lat="45.05819" lon="4.73501">
        <ele>265.86099243164</ele>
        <time>2010-07-24T12:53:08Z</time>
      </trkpt>
      <trkpt lat="45.0583" lon="4.73438">
        <ele>263.66500854492</ele>
        <time>2010-07-24T12:53:14Z</time>
      </trkpt>
      <trkpt lat="45.05833" lon="4.73414">
        <ele>262.58499145508</ele>
        <time>2010-07-24T12:53:16Z</time>
      </trkpt>
      <trkpt lat="45.05832" lon="4.73352">
        <ele>260.45498657227</ele>
        <time>2010-07-24T12:53:21Z</time>
      </trkpt>
      <trkpt lat="45.05832" lon="4.73339">
        <ele>259.7919921875</ele>
        <time>2010-07-24T12:53:22Z</time>
      </trkpt>
      <trkpt lat="45.05825" lon="4.73302">
        <ele>258.41101074219</ele>
        <time>2010-07-24T12:53:25Z</time>
      </trkpt>
      <trkpt lat="45.05825" lon="4.73272">
        <ele>258.29998779297</ele>
        <time>2010-07-24T12:53:28Z</time>
      </trkpt>
      <trkpt lat="45.05836" lon="4.7326">
        <ele>258.40301513672</ele>
        <time>2010-07-24T12:53:31Z</time>
      </trkpt>
      <trkpt lat="45.05844" lon="4.73259">
        <ele>258.96798706055</ele>
        <time>2010-07-24T12:53:36Z</time>
      </trkpt>
      <trkpt lat="45.05848" lon="4.73258">
        <ele>258.77801513672</ele>
        <time>2010-07-24T12:53:42Z</time>
      </trkpt>
      <trkpt lat="45.05862" lon="4.7325">
        <ele>259.28100585938</ele>
        <time>2010-07-24T12:53:48Z</time>
      </trkpt>
      <trkpt lat="45.05869" lon="4.73247">
        <ele>259.13400268555</ele>
        <time>2010-07-24T12:53:50Z</time>
      </trkpt>
      <trkpt lat="45.05876" lon="4.73228">
        <ele>258.82800292969</ele>
        <time>2010-07-24T12:53:54Z</time>
      </trkpt>
      <trkpt lat="45.05878" lon="4.73204">
        <ele>259.70999145508</ele>
        <time>2010-07-24T12:53:58Z</time>
      </trkpt>
      <trkpt lat="45.05877" lon="4.73191">
        <ele>260.24200439453</ele>
        <time>2010-07-24T12:54:00Z</time>
      </trkpt>
      <trkpt lat="45.05875" lon="4.73166">
        <ele>260.98001098633</ele>
        <time>2010-07-24T12:54:04Z</time>
      </trkpt>
      <trkpt lat="45.05877" lon="4.7316">
        <ele>261.19198608398</ele>
        <time>2010-07-24T12:54:05Z</time>
      </trkpt>
      <trkpt lat="45.05887" lon="4.73137">
        <ele>262.22100830078</ele>
        <time>2010-07-24T12:54:09Z</time>
      </trkpt>
      <trkpt lat="45.05891" lon="4.73133">
        <ele>262.39300537109</ele>
        <time>2010-07-24T12:54:10Z</time>
      </trkpt>
      <trkpt lat="45.05923" lon="4.73106">
        <ele>263.63500976562</ele>
        <time>2010-07-24T12:54:18Z</time>
      </trkpt>
      <trkpt lat="45.05959" lon="4.73074">
        <ele>265.29800415039</ele>
        <time>2010-07-24T12:54:27Z</time>
      </trkpt>
      <trkpt lat="45.05986" lon="4.73046">
        <ele>266.60998535156</ele>
        <time>2010-07-24T12:54:34Z</time>
      </trkpt>
      <trkpt lat="45.05999" lon="4.73026">
        <ele>267.44799804688</ele>
        <time>2010-07-24T12:54:38Z</time>
      </trkpt>
      <trkpt lat="45.06014" lon="4.72989">
        <ele>268.63500976562</ele>
        <time>2010-07-24T12:54:44Z</time>
      </trkpt>
      <trkpt lat="45.06032" lon="4.72965">
        <ele>269.72399902344</ele>
        <time>2010-07-24T12:54:49Z</time>
      </trkpt>
      <trkpt lat="45.06054" lon="4.72953">
        <ele>271.08700561523</ele>
        <time>2010-07-24T12:54:54Z</time>
      </trkpt>
      <trkpt lat="45.06067" lon="4.72954">
        <ele>272.22601318359</ele>
        <time>2010-07-24T12:54:57Z</time>
      </trkpt>
      <trkpt lat="45.06088" lon="4.72944">
        <ele>272.5719909668</ele>
        <time>2010-07-24T12:55:02Z</time>
      </trkpt>
      <trkpt lat="45.06091" lon="4.72925">
        <ele>272.82699584961</ele>
        <time>2010-07-24T12:55:05Z</time>
      </trkpt>
      <trkpt lat="45.06083" lon="4.72903">
        <ele>273.77499389648</ele>
        <time>2010-07-24T12:55:09Z</time>
      </trkpt>
      <trkpt lat="45.06069" lon="4.72876">
        <ele>274.88800048828</ele>
        <time>2010-07-24T12:55:14Z</time>
      </trkpt>
      <trkpt lat="45.06062" lon="4.72858">
        <ele>275.40399169922</ele>
        <time>2010-07-24T12:55:17Z</time>
      </trkpt>
      <trkpt lat="45.06047" lon="4.72805">
        <ele>276.8030090332</ele>
        <time>2010-07-24T12:55:25Z</time>
      </trkpt>
      <trkpt lat="45.06043" lon="4.72785">
        <ele>277.47698974609</ele>
        <time>2010-07-24T12:55:28Z</time>
      </trkpt>
      <trkpt lat="45.06031" lon="4.72739">
        <ele>279.00799560547</ele>
        <time>2010-07-24T12:55:35Z</time>
      </trkpt>
      <trkpt lat="45.06007" lon="4.72672">
        <ele>280.34698486328</ele>
        <time>2010-07-24T12:55:45Z</time>
      </trkpt>
      <trkpt lat="45.06007" lon="4.72643">
        <ele>281.01000976562</ele>
        <time>2010-07-24T12:55:49Z</time>
      </trkpt>
      <trkpt lat="45.06021" lon="4.72628">
        <ele>281.18301391602</ele>
        <time>2010-07-24T12:55:52Z</time>
      </trkpt>
      <trkpt lat="45.06055" lon="4.72609">
        <ele>282.98300170898</ele>
        <time>2010-07-24T12:55:59Z</time>
      </trkpt>
      <trkpt lat="45.0606" lon="4.72608">
        <ele>283.15600585938</ele>
        <time>2010-07-24T12:56:00Z</time>
      </trkpt>
      <trkpt lat="45.06075" lon="4.72592">
        <ele>283.6789855957</ele>
        <time>2010-07-24T12:56:04Z</time>
      </trkpt>
      <trkpt lat="45.06074" lon="4.7257">
        <ele>284.13101196289</ele>
        <time>2010-07-24T12:56:07Z</time>
      </trkpt>
      <trkpt lat="45.0607" lon="4.72556">
        <ele>284.20300292969</ele>
        <time>2010-07-24T12:56:09Z</time>
      </trkpt>
      <trkpt lat="45.06053" lon="4.7253">
        <ele>285.02600097656</ele>
        <time>2010-07-24T12:56:14Z</time>
      </trkpt>
      <trkpt lat="45.06044" lon="4.72526">
        <ele>285.39401245117</ele>
        <time>2010-07-24T12:56:16Z</time>
      </trkpt>
      <trkpt lat="45.06" lon="4.72509">
        <ele>286.40200805664</ele>
        <time>2010-07-24T12:56:25Z</time>
      </trkpt>
      <trkpt lat="45.05971" lon="4.7249">
        <ele>287.04000854492</ele>
        <time>2010-07-24T12:56:31Z</time>
      </trkpt>
      <trkpt lat="45.05953" lon="4.72464">
        <ele>287.8630065918</ele>
        <time>2010-07-24T12:56:36Z</time>
      </trkpt>
      <trkpt lat="45.05947" lon="4.72437">
        <ele>288.4880065918</ele>
        <time>2010-07-24T12:56:40Z</time>
      </trkpt>
      <trkpt lat="45.05946" lon="4.72422">
        <ele>288.73098754883</ele>
        <time>2010-07-24T12:56:42Z</time>
      </trkpt>
      <trkpt lat="45.05939" lon="4.72384">
        <ele>289.98901367188</ele>
        <time>2010-07-24T12:56:48Z</time>
      </trkpt>
      <trkpt lat="45.05937" lon="4.72378">
        <ele>290.0419921875</ele>
        <time>2010-07-24T12:56:49Z</time>
      </trkpt>
      <trkpt lat="45.05926" lon="4.72356">
        <ele>290.47698974609</ele>
        <time>2010-07-24T12:56:53Z</time>
      </trkpt>
      <trkpt lat="45.05916" lon="4.72325">
        <ele>291.76098632812</ele>
        <time>2010-07-24T12:56:58Z</time>
      </trkpt>
      <trkpt lat="45.05914" lon="4.72311">
        <ele>292.23098754883</ele>
        <time>2010-07-24T12:57:00Z</time>
      </trkpt>
      <trkpt lat="45.05912" lon="4.72286">
        <ele>292.79098510742</ele>
        <time>2010-07-24T12:57:04Z</time>
      </trkpt>
      <trkpt lat="45.0591" lon="4.72273">
        <ele>293.02499389648</ele>
        <time>2010-07-24T12:57:06Z</time>
      </trkpt>
      <trkpt lat="45.0589" lon="4.72234">
        <ele>294.27700805664</ele>
        <time>2010-07-24T12:57:13Z</time>
      </trkpt>
      <trkpt lat="45.05885" lon="4.72222">
        <ele>294.90701293945</ele>
        <time>2010-07-24T12:57:15Z</time>
      </trkpt>
      <trkpt lat="45.05869" lon="4.72171">
        <ele>296.60998535156</ele>
        <time>2010-07-24T12:57:23Z</time>
      </trkpt>
      <trkpt lat="45.05861" lon="4.72146">
        <ele>297.07501220703</ele>
        <time>2010-07-24T12:57:27Z</time>
      </trkpt>
      <trkpt lat="45.05844" lon="4.7211">
        <ele>297.47100830078</ele>
        <time>2010-07-24T12:57:32Z</time>
      </trkpt>
      <trkpt lat="45.0583" lon="4.72079">
        <ele>299.14099121094</ele>
        <time>2010-07-24T12:57:37Z</time>
      </trkpt>
      <trkpt lat="45.05821" lon="4.72056">
        <ele>299.76599121094</ele>
        <time>2010-07-24T12:57:41Z</time>
      </trkpt>
      <trkpt lat="45.05814" lon="4.72025">
        <ele>300.37200927734</ele>
        <time>2010-07-24T12:57:46Z</time>
      </trkpt>
      <trkpt lat="45.0581" lon="4.71974">
        <ele>301.49301147461</ele>
        <time>2010-07-24T12:57:54Z</time>
      </trkpt>
      <trkpt lat="45.05807" lon="4.71954">
        <ele>301.92599487305</ele>
        <time>2010-07-24T12:57:57Z</time>
      </trkpt>
      <trkpt lat="45.05793" lon="4.71928">
        <ele>302.52301025391</ele>
        <time>2010-07-24T12:58:02Z</time>
      </trkpt>
      <trkpt lat="45.05775" lon="4.7192">
        <ele>303.56799316406</ele>
        <time>2010-07-24T12:58:06Z</time>
      </trkpt>
      <trkpt lat="45.05751" lon="4.71925">
        <ele>304.42999267578</ele>
        <time>2010-07-24T12:58:11Z</time>
      </trkpt>
      <trkpt lat="45.05736" lon="4.71918">
        <ele>305.17599487305</ele>
        <time>2010-07-24T12:58:14Z</time>
      </trkpt>
      <trkpt lat="45.05728" lon="4.71908">
        <ele>305.93798828125</ele>
        <time>2010-07-24T12:58:16Z</time>
      </trkpt>
      <trkpt lat="45.05713" lon="4.71888">
        <ele>307.10299682617</ele>
        <time>2010-07-24T12:58:20Z</time>
      </trkpt>
      <trkpt lat="45.05685" lon="4.71861">
        <ele>308.65899658203</ele>
        <time>2010-07-24T12:58:27Z</time>
      </trkpt>
      <trkpt lat="45.05653" lon="4.71823">
        <ele>310.17999267578</ele>
        <time>2010-07-24T12:58:35Z</time>
      </trkpt>
      <trkpt lat="45.05636" lon="4.71794">
        <ele>311.08401489258</ele>
        <time>2010-07-24T12:58:40Z</time>
      </trkpt>
      <trkpt lat="45.0562" lon="4.71746">
        <ele>312.74600219727</ele>
        <time>2010-07-24T12:58:47Z</time>
      </trkpt>
      <trkpt lat="45.05603" lon="4.71687">
        <ele>314.57901000977</ele>
        <time>2010-07-24T12:58:56Z</time>
      </trkpt>
      <trkpt lat="45.056" lon="4.71673">
        <ele>314.79598999023</ele>
        <time>2010-07-24T12:58:58Z</time>
      </trkpt>
      <trkpt lat="45.0559" lon="4.71643">
        <ele>315.75799560547</ele>
        <time>2010-07-24T12:59:02Z</time>
      </trkpt>
      <trkpt lat="45.05581" lon="4.71585">
        <ele>316.4460144043</ele>
        <time>2010-07-24T12:59:08Z</time>
      </trkpt>
      <trkpt lat="45.05579" lon="4.71521">
        <ele>317.39099121094</ele>
        <time>2010-07-24T12:59:14Z</time>
      </trkpt>
      <trkpt lat="45.05579" lon="4.7151">
        <ele>317.65899658203</ele>
        <time>2010-07-24T12:59:15Z</time>
      </trkpt>
      <trkpt lat="45.05563" lon="4.71476">
        <ele>318.92300415039</ele>
        <time>2010-07-24T12:59:19Z</time>
      </trkpt>
      <trkpt lat="45.05541" lon="4.71473">
        <ele>320.18399047852</ele>
        <time>2010-07-24T12:59:22Z</time>
      </trkpt>
      <trkpt lat="45.05519" lon="4.7147">
        <ele>322.29699707031</ele>
        <time>2010-07-24T12:59:25Z</time>
      </trkpt>
      <trkpt lat="45.055" lon="4.7145">
        <ele>323.72100830078</ele>
        <time>2010-07-24T12:59:28Z</time>
      </trkpt>
      <trkpt lat="45.05485" lon="4.71413">
        <ele>325.23098754883</ele>
        <time>2010-07-24T12:59:32Z</time>
      </trkpt>
      <trkpt lat="45.05482" lon="4.71393">
        <ele>325.82501220703</ele>
        <time>2010-07-24T12:59:34Z</time>
      </trkpt>
      <trkpt lat="45.05478" lon="4.71326">
        <ele>327.15301513672</ele>
        <time>2010-07-24T12:59:41Z</time>
      </trkpt>
      <trkpt lat="45.05488" lon="4.71283">
        <ele>328.17401123047</ele>
        <time>2010-07-24T12:59:46Z</time>
      </trkpt>
      <trkpt lat="45.05495" lon="4.71271">
        <ele>328.84399414062</ele>
        <time>2010-07-24T12:59:48Z</time>
      </trkpt>
      <trkpt lat="45.05505" lon="4.71257">
        <ele>330.41598510742</ele>
        <time>2010-07-24T12:59:51Z</time>
      </trkpt>
      <trkpt lat="45.05515" lon="4.71233">
        <ele>330.83801269531</ele>
        <time>2010-07-24T12:59:56Z</time>
      </trkpt>
      <trkpt lat="45.05517" lon="4.71207">
        <ele>331.93899536133</ele>
        <time>2010-07-24T13:00:02Z</time>
      </trkpt>
      <trkpt lat="45.05508" lon="4.71187">
        <ele>333.1969909668</ele>
        <time>2010-07-24T13:00:07Z</time>
      </trkpt>
      <trkpt lat="45.0549" lon="4.7117">
        <ele>334.01800537109</ele>
        <time>2010-07-24T13:00:14Z</time>
      </trkpt>
      <trkpt lat="45.05471" lon="4.71147">
        <ele>334.875</ele>
        <time>2010-07-24T13:00:21Z</time>
      </trkpt>
      <trkpt lat="45.05457" lon="4.71115">
        <ele>335.97799682617</ele>
        <time>2010-07-24T13:00:28Z</time>
      </trkpt>
      <trkpt lat="45.05446" lon="4.71071">
        <ele>337.4469909668</ele>
        <time>2010-07-24T13:00:37Z</time>
      </trkpt>
      <trkpt lat="45.05448" lon="4.7104">
        <ele>338.87899780273</ele>
        <time>2010-07-24T13:00:43Z</time>
      </trkpt>
      <trkpt lat="45.05458" lon="4.71018">
        <ele>339.68301391602</ele>
        <time>2010-07-24T13:00:48Z</time>
      </trkpt>
      <trkpt lat="45.05473" lon="4.70997">
        <ele>340.46200561523</ele>
        <time>2010-07-24T13:00:54Z</time>
      </trkpt>
      <trkpt lat="45.05477" lon="4.70966">
        <ele>341.0710144043</ele>
        <time>2010-07-24T13:01:00Z</time>
      </trkpt>
      <trkpt lat="45.05467" lon="4.70945">
        <ele>342.72399902344</ele>
        <time>2010-07-24T13:01:05Z</time>
      </trkpt>
      <trkpt lat="45.05449" lon="4.70928">
        <ele>343.43301391602</ele>
        <time>2010-07-24T13:01:11Z</time>
      </trkpt>
      <trkpt lat="45.05428" lon="4.70904">
        <ele>344.42599487305</ele>
        <time>2010-07-24T13:01:18Z</time>
      </trkpt>
      <trkpt lat="45.05413" lon="4.70871">
        <ele>345.66400146484</ele>
        <time>2010-07-24T13:01:25Z</time>
      </trkpt>
      <trkpt lat="45.05401" lon="4.7082">
        <ele>346.10000610352</ele>
        <time>2010-07-24T13:01:34Z</time>
      </trkpt>
      <trkpt lat="45.05396" lon="4.70779">
        <ele>347.78601074219</ele>
        <time>2010-07-24T13:01:41Z</time>
      </trkpt>
      <trkpt lat="45.05397" lon="4.70767">
        <ele>348.22500610352</ele>
        <time>2010-07-24T13:01:43Z</time>
      </trkpt>
      <trkpt lat="45.05402" lon="4.70739">
        <ele>348.75201416016</ele>
        <time>2010-07-24T13:01:48Z</time>
      </trkpt>
      <trkpt lat="45.05417" lon="4.70711">
        <ele>349.73498535156</ele>
        <time>2010-07-24T13:01:54Z</time>
      </trkpt>
      <trkpt lat="45.05428" lon="4.70705">
        <ele>350.22500610352</ele>
        <time>2010-07-24T13:01:57Z</time>
      </trkpt>
      <trkpt lat="45.0545" lon="4.70702">
        <ele>351.77899169922</ele>
        <time>2010-07-24T13:02:03Z</time>
      </trkpt>
      <trkpt lat="45.05471" lon="4.70681">
        <ele>353.00201416016</ele>
        <time>2010-07-24T13:02:09Z</time>
      </trkpt>
      <trkpt lat="45.05475" lon="4.70671">
        <ele>353.95098876953</ele>
        <time>2010-07-24T13:02:11Z</time>
      </trkpt>
      <trkpt lat="45.05486" lon="4.70629">
        <ele>354.78799438477</ele>
        <time>2010-07-24T13:02:18Z</time>
      </trkpt>
      <trkpt lat="45.05504" lon="4.70603">
        <ele>356.03698730469</ele>
        <time>2010-07-24T13:02:24Z</time>
      </trkpt>
      <trkpt lat="45.05534" lon="4.70589">
        <ele>357.67599487305</ele>
        <time>2010-07-24T13:02:31Z</time>
      </trkpt>
      <trkpt lat="45.05552" lon="4.70587">
        <ele>358.76000976562</ele>
        <time>2010-07-24T13:02:35Z</time>
      </trkpt>
      <trkpt lat="45.05581" lon="4.70594">
        <ele>359.64001464844</ele>
        <time>2010-07-24T13:02:42Z</time>
      </trkpt>
      <trkpt lat="45.05612" lon="4.70601">
        <ele>361.37899780273</ele>
        <time>2010-07-24T13:02:49Z</time>
      </trkpt>
      <trkpt lat="45.05639" lon="4.70606">
        <ele>362.30801391602</ele>
        <time>2010-07-24T13:02:55Z</time>
      </trkpt>
      <trkpt lat="45.05663" lon="4.70611">
        <ele>362.96701049805</ele>
        <time>2010-07-24T13:03:00Z</time>
      </trkpt>
      <trkpt lat="45.05701" lon="4.7062">
        <ele>364.76998901367</ele>
        <time>2010-07-24T13:03:08Z</time>
      </trkpt>
      <trkpt lat="45.0572" lon="4.70625">
        <ele>365.50799560547</ele>
        <time>2010-07-24T13:03:12Z</time>
      </trkpt>
      <trkpt lat="45.05746" lon="4.70635">
        <ele>365.99600219727</ele>
        <time>2010-07-24T13:03:18Z</time>
      </trkpt>
      <trkpt lat="45.05773" lon="4.70638">
        <ele>368.10101318359</ele>
        <time>2010-07-24T13:03:24Z</time>
      </trkpt>
      <trkpt lat="45.05803" lon="4.70633">
        <ele>369.17401123047</ele>
        <time>2010-07-24T13:03:31Z</time>
      </trkpt>
      <trkpt lat="45.05819" lon="4.70632">
        <ele>369.95901489258</ele>
        <time>2010-07-24T13:03:35Z</time>
      </trkpt>
      <trkpt lat="45.05841" lon="4.70635">
        <ele>370.82501220703</ele>
        <time>2010-07-24T13:03:40Z</time>
      </trkpt>
      <trkpt lat="45.05878" lon="4.70648">
        <ele>373.19900512695</ele>
        <time>2010-07-24T13:03:49Z</time>
      </trkpt>
      <trkpt lat="45.05891" lon="4.70651">
        <ele>373.31399536133</ele>
        <time>2010-07-24T13:03:52Z</time>
      </trkpt>
      <trkpt lat="45.05917" lon="4.70646">
        <ele>374.35501098633</ele>
        <time>2010-07-24T13:03:58Z</time>
      </trkpt>
      <trkpt lat="45.05946" lon="4.70651">
        <ele>375.91198730469</ele>
        <time>2010-07-24T13:04:05Z</time>
      </trkpt>
      <trkpt lat="45.05974" lon="4.70659">
        <ele>376.82299804688</ele>
        <time>2010-07-24T13:04:12Z</time>
      </trkpt>
      <trkpt lat="45.06007" lon="4.70666">
        <ele>376.71200561523</ele>
        <time>2010-07-24T13:04:20Z</time>
      </trkpt>
      <trkpt lat="45.06031" lon="4.70668">
        <ele>379.1369934082</ele>
        <time>2010-07-24T13:04:26Z</time>
      </trkpt>
      <trkpt lat="45.06047" lon="4.70661">
        <ele>380.72399902344</ele>
        <time>2010-07-24T13:04:30Z</time>
      </trkpt>
      <trkpt lat="45.0605" lon="4.70659">
        <ele>380.86499023438</ele>
        <time>2010-07-24T13:04:31Z</time>
      </trkpt>
      <trkpt lat="45.06064" lon="4.70646">
        <ele>382.10699462891</ele>
        <time>2010-07-24T13:04:35Z</time>
      </trkpt>
      <trkpt lat="45.06093" lon="4.7062">
        <ele>383.37701416016</ele>
        <time>2010-07-24T13:04:44Z</time>
      </trkpt>
      <trkpt lat="45.0612" lon="4.70617">
        <ele>385.08401489258</ele>
        <time>2010-07-24T13:04:51Z</time>
      </trkpt>
      <trkpt lat="45.06166" lon="4.70616">
        <ele>387.5299987793</ele>
        <time>2010-07-24T13:05:02Z</time>
      </trkpt>
      <trkpt lat="45.06202" lon="4.70618">
        <ele>389.17401123047</ele>
        <time>2010-07-24T13:05:10Z</time>
      </trkpt>
      <trkpt lat="45.06233" lon="4.7061">
        <ele>390.4169921875</ele>
        <time>2010-07-24T13:05:17Z</time>
      </trkpt>
      <trkpt lat="45.06253" lon="4.70595">
        <ele>391.60800170898</ele>
        <time>2010-07-24T13:05:22Z</time>
      </trkpt>
      <trkpt lat="45.06265" lon="4.70568">
        <ele>392.78698730469</ele>
        <time>2010-07-24T13:05:27Z</time>
      </trkpt>
      <trkpt lat="45.06264" lon="4.7054">
        <ele>393.74798583984</ele>
        <time>2010-07-24T13:05:31Z</time>
      </trkpt>
      <trkpt lat="45.06258" lon="4.70491">
        <ele>394.75299072266</ele>
        <time>2010-07-24T13:05:38Z</time>
      </trkpt>
      <trkpt lat="45.06267" lon="4.70441">
        <ele>395.35198974609</ele>
        <time>2010-07-24T13:05:45Z</time>
      </trkpt>
      <trkpt lat="45.06289" lon="4.70383">
        <ele>397.49499511719</ele>
        <time>2010-07-24T13:05:54Z</time>
      </trkpt>
      <trkpt lat="45.06313" lon="4.70321">
        <ele>399.80999755859</ele>
        <time>2010-07-24T13:06:04Z</time>
      </trkpt>
      <trkpt lat="45.06334" lon="4.70264">
        <ele>402.00399780273</ele>
        <time>2010-07-24T13:06:14Z</time>
      </trkpt>
      <trkpt lat="45.06339" lon="4.70238">
        <ele>402.84100341797</ele>
        <time>2010-07-24T13:06:18Z</time>
      </trkpt>
      <trkpt lat="45.06339" lon="4.70217">
        <ele>403.04098510742</ele>
        <time>2010-07-24T13:06:21Z</time>
      </trkpt>
      <trkpt lat="45.06329" lon="4.70147">
        <ele>404.29699707031</ele>
        <time>2010-07-24T13:06:31Z</time>
      </trkpt>
      <trkpt lat="45.06321" lon="4.70094">
        <ele>406.33200073242</ele>
        <time>2010-07-24T13:06:39Z</time>
      </trkpt>
      <trkpt lat="45.06317" lon="4.70044">
        <ele>407.51699829102</ele>
        <time>2010-07-24T13:06:46Z</time>
      </trkpt>
      <trkpt lat="45.06319" lon="4.70029">
        <ele>407.92999267578</ele>
        <time>2010-07-24T13:06:48Z</time>
      </trkpt>
      <trkpt lat="45.06328" lon="4.69988">
        <ele>409.58700561523</ele>
        <time>2010-07-24T13:06:54Z</time>
      </trkpt>
      <trkpt lat="45.06344" lon="4.6996">
        <ele>410.36099243164</ele>
        <time>2010-07-24T13:06:59Z</time>
      </trkpt>
      <trkpt lat="45.06387" lon="4.69915">
        <ele>412.06399536133</ele>
        <time>2010-07-24T13:07:09Z</time>
      </trkpt>
      <trkpt lat="45.0643" lon="4.69871">
        <ele>413.7619934082</ele>
        <time>2010-07-24T13:07:19Z</time>
      </trkpt>
      <trkpt lat="45.06467" lon="4.69832">
        <ele>415.82501220703</ele>
        <time>2010-07-24T13:07:28Z</time>
      </trkpt>
      <trkpt lat="45.06505" lon="4.69793">
        <ele>417.80599975586</ele>
        <time>2010-07-24T13:07:37Z</time>
      </trkpt>
      <trkpt lat="45.06536" lon="4.6976">
        <ele>419.01300048828</ele>
        <time>2010-07-24T13:07:45Z</time>
      </trkpt>
      <trkpt lat="45.0657" lon="4.69723">
        <ele>421.46798706055</ele>
        <time>2010-07-24T13:07:54Z</time>
      </trkpt>
      <trkpt lat="45.06583" lon="4.69705">
        <ele>422.05700683594</ele>
        <time>2010-07-24T13:07:58Z</time>
      </trkpt>
      <trkpt lat="45.06595" lon="4.69667">
        <ele>421.9169921875</ele>
        <time>2010-07-24T13:08:04Z</time>
      </trkpt>
      <trkpt lat="45.06599" lon="4.69639">
        <ele>421.95098876953</ele>
        <time>2010-07-24T13:08:08Z</time>
      </trkpt>
      <trkpt lat="45.066" lon="4.69598">
        <ele>421.54901123047</ele>
        <time>2010-07-24T13:08:14Z</time>
      </trkpt>
      <trkpt lat="45.06599" lon="4.69585">
        <ele>423.24398803711</ele>
        <time>2010-07-24T13:08:16Z</time>
      </trkpt>
      <trkpt lat="45.06594" lon="4.69549">
        <ele>422.99700927734</ele>
        <time>2010-07-24T13:08:21Z</time>
      </trkpt>
      <trkpt lat="45.06594" lon="4.69523">
        <ele>423.15100097656</ele>
        <time>2010-07-24T13:08:25Z</time>
      </trkpt>
      <trkpt lat="45.06606" lon="4.69515">
        <ele>422.83700561523</ele>
        <time>2010-07-24T13:08:29Z</time>
      </trkpt>
      <trkpt lat="45.06611" lon="4.69522">
        <ele>423.80200195312</ele>
        <time>2010-07-24T13:08:32Z</time>
      </trkpt>
      <trkpt lat="45.06618" lon="4.69522">
        <ele>424.72100830078</ele>
        <time>2010-07-24T13:08:35Z</time>
      </trkpt>
      <trkpt lat="45.06621" lon="4.69521">
        <ele>425.16400146484</ele>
        <time>2010-07-24T13:08:39Z</time>
      </trkpt>
      <trkpt lat="45.06614" lon="4.69528">
        <ele>424.90798950195</ele>
        <time>2010-07-24T13:09:23Z</time>
      </trkpt>
      <trkpt lat="45.06614" lon="4.69534">
        <ele>424.95700073242</ele>
        <time>2010-07-24T13:09:26Z</time>
      </trkpt>
      <trkpt lat="45.06616" lon="4.69536">
        <ele>425.07800292969</ele>
        <time>2010-07-24T13:09:29Z</time>
      </trkpt>
      <trkpt lat="45.06616" lon="4.69538">
        <ele>425.04400634766</ele>
        <time>2010-07-24T13:09:34Z</time>
      </trkpt>
      <trkpt lat="45.06607" lon="4.69532">
        <ele>424.52801513672</ele>
        <time>2010-07-24T13:09:40Z</time>
      </trkpt>
      <trkpt lat="45.06602" lon="4.69523">
        <ele>424.1130065918</ele>
        <time>2010-07-24T13:09:44Z</time>
      </trkpt>
      <trkpt lat="45.06607" lon="4.69521">
        <ele>424.25299072266</ele>
        <time>2010-07-24T13:09:47Z</time>
      </trkpt>
      <trkpt lat="45.06608" lon="4.69528">
        <ele>424.07998657227</ele>
        <time>2010-07-24T13:09:51Z</time>
      </trkpt>
      <trkpt lat="45.06606" lon="4.69534">
        <ele>423.98001098633</ele>
        <time>2010-07-24T13:09:55Z</time>
      </trkpt>
      <trkpt lat="45.06607" lon="4.69534">
        <ele>424.04400634766</ele>
        <time>2010-07-24T13:09:56Z</time>
      </trkpt>
      <trkpt lat="45.06613" lon="4.69533">
        <ele>424.16799926758</ele>
        <time>2010-07-24T13:10:00Z</time>
      </trkpt>
      <trkpt lat="45.06617" lon="4.69524">
        <ele>425.29501342773</ele>
        <time>2010-07-24T13:10:07Z</time>
      </trkpt>
      <trkpt lat="45.06617" lon="4.69523">
        <ele>424.8030090332</ele>
        <time>2010-07-24T13:10:09Z</time>
      </trkpt>
      <trkpt lat="45.06615" lon="4.69526">
        <ele>425.10900878906</ele>
        <time>2010-07-24T13:13:33Z</time>
      </trkpt>
      <trkpt lat="45.06604" lon="4.69526">
        <ele>424.81100463867</ele>
        <time>2010-07-24T13:13:39Z</time>
      </trkpt>
      <trkpt lat="45.06593" lon="4.69512">
        <ele>423.89999389648</ele>
        <time>2010-07-24T13:13:44Z</time>
      </trkpt>
      <trkpt lat="45.06588" lon="4.69493">
        <ele>423.32501220703</ele>
        <time>2010-07-24T13:13:48Z</time>
      </trkpt>
      <trkpt lat="45.0658" lon="4.6946">
        <ele>424.3630065918</ele>
        <time>2010-07-24T13:13:55Z</time>
      </trkpt>
      <trkpt lat="45.06576" lon="4.69441">
        <ele>424.18798828125</ele>
        <time>2010-07-24T13:13:59Z</time>
      </trkpt>
      <trkpt lat="45.0657" lon="4.69415">
        <ele>424.91299438477</ele>
        <time>2010-07-24T13:14:04Z</time>
      </trkpt>
      <trkpt lat="45.06561" lon="4.69377">
        <ele>426.90899658203</ele>
        <time>2010-07-24T13:14:11Z</time>
      </trkpt>
      <trkpt lat="45.06552" lon="4.6934">
        <ele>426.39801025391</ele>
        <time>2010-07-24T13:14:18Z</time>
      </trkpt>
      <trkpt lat="45.06533" lon="4.69315">
        <ele>427.65200805664</ele>
        <time>2010-07-24T13:14:25Z</time>
      </trkpt>
      <trkpt lat="45.06505" lon="4.69292">
        <ele>428.74099731445</ele>
        <time>2010-07-24T13:14:33Z</time>
      </trkpt>
      <trkpt lat="45.06473" lon="4.69265">
        <ele>429.52398681641</ele>
        <time>2010-07-24T13:14:41Z</time>
      </trkpt>
      <trkpt lat="45.06455" lon="4.69246">
        <ele>430.83099365234</ele>
        <time>2010-07-24T13:14:46Z</time>
      </trkpt>
      <trkpt lat="45.06426" lon="4.69232">
        <ele>431.37399291992</ele>
        <time>2010-07-24T13:14:53Z</time>
      </trkpt>
      <trkpt lat="45.06399" lon="4.69213">
        <ele>431.92498779297</ele>
        <time>2010-07-24T13:15:00Z</time>
      </trkpt>
      <trkpt lat="45.06372" lon="4.69198">
        <ele>431.96798706055</ele>
        <time>2010-07-24T13:15:07Z</time>
      </trkpt>
      <trkpt lat="45.06348" lon="4.69181">
        <ele>432.6960144043</ele>
        <time>2010-07-24T13:15:13Z</time>
      </trkpt>
      <trkpt lat="45.06317" lon="4.69153">
        <ele>432.9280090332</ele>
        <time>2010-07-24T13:15:21Z</time>
      </trkpt>
      <trkpt lat="45.06286" lon="4.69125">
        <ele>433.29901123047</ele>
        <time>2010-07-24T13:15:29Z</time>
      </trkpt>
      <trkpt lat="45.06244" lon="4.69092">
        <ele>433.78100585938</ele>
        <time>2010-07-24T13:15:39Z</time>
      </trkpt>
      <trkpt lat="45.06217" lon="4.69074">
        <ele>433.99301147461</ele>
        <time>2010-07-24T13:15:45Z</time>
      </trkpt>
      <trkpt lat="45.06174" lon="4.6905">
        <ele>434.41598510742</ele>
        <time>2010-07-24T13:15:54Z</time>
      </trkpt>
      <trkpt lat="45.06159" lon="4.69042">
        <ele>434.80499267578</ele>
        <time>2010-07-24T13:15:57Z</time>
      </trkpt>
      <trkpt lat="45.06142" lon="4.69026">
        <ele>434.59698486328</ele>
        <time>2010-07-24T13:16:01Z</time>
      </trkpt>
      <trkpt lat="45.06125" lon="4.68998">
        <ele>434.76300048828</ele>
        <time>2010-07-24T13:16:06Z</time>
      </trkpt>
      <trkpt lat="45.06117" lon="4.68962">
        <ele>435.05499267578</ele>
        <time>2010-07-24T13:16:11Z</time>
      </trkpt>
      <trkpt lat="45.06115" lon="4.68941">
        <ele>435.35101318359</ele>
        <time>2010-07-24T13:16:14Z</time>
      </trkpt>
      <trkpt lat="45.06112" lon="4.68884">
        <ele>435.60900878906</ele>
        <time>2010-07-24T13:16:22Z</time>
      </trkpt>
      <trkpt lat="45.06109" lon="4.6887">
        <ele>435.4049987793</ele>
        <time>2010-07-24T13:16:24Z</time>
      </trkpt>
      <trkpt lat="45.06095" lon="4.68815">
        <ele>435.64700317383</ele>
        <time>2010-07-24T13:16:32Z</time>
      </trkpt>
      <trkpt lat="45.06096" lon="4.68755">
        <ele>436.41000366211</ele>
        <time>2010-07-24T13:16:40Z</time>
      </trkpt>
      <trkpt lat="45.06102" lon="4.68702">
        <ele>435.83599853516</ele>
        <time>2010-07-24T13:16:47Z</time>
      </trkpt>
      <trkpt lat="45.06109" lon="4.68653">
        <ele>436.22900390625</ele>
        <time>2010-07-24T13:16:54Z</time>
      </trkpt>
      <trkpt lat="45.06118" lon="4.68578">
        <ele>437.24600219727</ele>
        <time>2010-07-24T13:17:04Z</time>
      </trkpt>
      <trkpt lat="45.06133" lon="4.68528">
        <ele>437.19299316406</ele>
        <time>2010-07-24T13:17:11Z</time>
      </trkpt>
      <trkpt lat="45.06142" lon="4.68488">
        <ele>437.68399047852</ele>
        <time>2010-07-24T13:17:17Z</time>
      </trkpt>
      <trkpt lat="45.06145" lon="4.68474">
        <ele>437.63500976562</ele>
        <time>2010-07-24T13:17:19Z</time>
      </trkpt>
      <trkpt lat="45.0614" lon="4.68437">
        <ele>437.09698486328</ele>
        <time>2010-07-24T13:17:24Z</time>
      </trkpt>
      <trkpt lat="45.06123" lon="4.68419">
        <ele>437.09600830078</ele>
        <time>2010-07-24T13:17:28Z</time>
      </trkpt>
      <trkpt lat="45.06112" lon="4.68415">
        <ele>437.28399658203</ele>
        <time>2010-07-24T13:17:30Z</time>
      </trkpt>
      <trkpt lat="45.06101" lon="4.68413">
        <ele>437.8219909668</ele>
        <time>2010-07-24T13:17:32Z</time>
      </trkpt>
      <trkpt lat="45.06078" lon="4.68395">
        <ele>438.34201049805</ele>
        <time>2010-07-24T13:17:37Z</time>
      </trkpt>
      <trkpt lat="45.06068" lon="4.6837">
        <ele>439.05099487305</ele>
        <time>2010-07-24T13:17:41Z</time>
      </trkpt>
      <trkpt lat="45.06067" lon="4.68363">
        <ele>439.30801391602</ele>
        <time>2010-07-24T13:17:42Z</time>
      </trkpt>
      <trkpt lat="45.0606" lon="4.68277">
        <ele>441.01000976562</ele>
        <time>2010-07-24T13:17:54Z</time>
      </trkpt>
      <trkpt lat="45.06046" lon="4.68228">
        <ele>441.68798828125</ele>
        <time>2010-07-24T13:18:01Z</time>
      </trkpt>
      <trkpt lat="45.06042" lon="4.68215">
        <ele>441.91799926758</ele>
        <time>2010-07-24T13:18:03Z</time>
      </trkpt>
      <trkpt lat="45.06039" lon="4.68178">
        <ele>442.43200683594</ele>
        <time>2010-07-24T13:18:08Z</time>
      </trkpt>
      <trkpt lat="45.06048" lon="4.68111">
        <ele>443.37899780273</ele>
        <time>2010-07-24T13:18:17Z</time>
      </trkpt>
      <trkpt lat="45.06052" lon="4.68067">
        <ele>444.5299987793</ele>
        <time>2010-07-24T13:18:23Z</time>
      </trkpt>
      <trkpt lat="45.06055" lon="4.6803">
        <ele>444.99899291992</ele>
        <time>2010-07-24T13:18:28Z</time>
      </trkpt>
      <trkpt lat="45.06063" lon="4.67995">
        <ele>445.3330078125</ele>
        <time>2010-07-24T13:18:33Z</time>
      </trkpt>
      <trkpt lat="45.06087" lon="4.67948">
        <ele>446.20901489258</ele>
        <time>2010-07-24T13:18:41Z</time>
      </trkpt>
      <trkpt lat="45.0612" lon="4.67885">
        <ele>447.50201416016</ele>
        <time>2010-07-24T13:18:52Z</time>
      </trkpt>
      <trkpt lat="45.06122" lon="4.67879">
        <ele>447.40701293945</ele>
        <time>2010-07-24T13:18:53Z</time>
      </trkpt>
      <trkpt lat="45.06126" lon="4.67838">
        <ele>448.29800415039</ele>
        <time>2010-07-24T13:18:59Z</time>
      </trkpt>
      <trkpt lat="45.06117" lon="4.67774">
        <ele>449.32998657227</ele>
        <time>2010-07-24T13:19:08Z</time>
      </trkpt>
      <trkpt lat="45.06117" lon="4.67751">
        <ele>449.90899658203</ele>
        <time>2010-07-24T13:19:11Z</time>
      </trkpt>
      <trkpt lat="45.06128" lon="4.67717">
        <ele>450.5419921875</ele>
        <time>2010-07-24T13:19:16Z</time>
      </trkpt>
      <trkpt lat="45.06136" lon="4.67707">
        <ele>450.92999267578</ele>
        <time>2010-07-24T13:19:18Z</time>
      </trkpt>
      <trkpt lat="45.06152" lon="4.67689">
        <ele>451.61999511719</ele>
        <time>2010-07-24T13:19:22Z</time>
      </trkpt>
      <trkpt lat="45.06164" lon="4.67658">
        <ele>452.6969909668</ele>
        <time>2010-07-24T13:19:27Z</time>
      </trkpt>
      <trkpt lat="45.06165" lon="4.67644">
        <ele>453.06500244141</ele>
        <time>2010-07-24T13:19:29Z</time>
      </trkpt>
      <trkpt lat="45.06166" lon="4.67629">
        <ele>453.12600708008</ele>
        <time>2010-07-24T13:19:31Z</time>
      </trkpt>
      <trkpt lat="45.06176" lon="4.67594">
        <ele>453.91598510742</ele>
        <time>2010-07-24T13:19:36Z</time>
      </trkpt>
      <trkpt lat="45.06192" lon="4.67564">
        <ele>453.88299560547</ele>
        <time>2010-07-24T13:19:41Z</time>
      </trkpt>
      <trkpt lat="45.06206" lon="4.67527">
        <ele>455.3219909668</ele>
        <time>2010-07-24T13:19:47Z</time>
      </trkpt>
      <trkpt lat="45.06217" lon="4.67504">
        <ele>455.94000244141</ele>
        <time>2010-07-24T13:19:51Z</time>
      </trkpt>
      <trkpt lat="45.06251" lon="4.67461">
        <ele>456.58801269531</ele>
        <time>2010-07-24T13:20:00Z</time>
      </trkpt>
      <trkpt lat="45.06254" lon="4.67456">
        <ele>456.68499755859</ele>
        <time>2010-07-24T13:20:01Z</time>
      </trkpt>
      <trkpt lat="45.06264" lon="4.67439">
        <ele>457.19198608398</ele>
        <time>2010-07-24T13:20:04Z</time>
      </trkpt>
      <trkpt lat="45.06278" lon="4.67389">
        <ele>458.01000976562</ele>
        <time>2010-07-24T13:20:11Z</time>
      </trkpt>
      <trkpt lat="45.06291" lon="4.67339">
        <ele>458.26501464844</ele>
        <time>2010-07-24T13:20:18Z</time>
      </trkpt>
      <trkpt lat="45.06297" lon="4.67327">
        <ele>458.64599609375</ele>
        <time>2010-07-24T13:20:20Z</time>
      </trkpt>
      <trkpt lat="45.06326" lon="4.67288">
        <ele>459.50799560547</ele>
        <time>2010-07-24T13:20:28Z</time>
      </trkpt>
      <trkpt lat="45.06348" lon="4.67251">
        <ele>460.53698730469</ele>
        <time>2010-07-24T13:20:35Z</time>
      </trkpt>
      <trkpt lat="45.06356" lon="4.67215">
        <ele>461.15701293945</ele>
        <time>2010-07-24T13:20:40Z</time>
      </trkpt>
      <trkpt lat="45.06357" lon="4.67194">
        <ele>460.66900634766</ele>
        <time>2010-07-24T13:20:43Z</time>
      </trkpt>
      <trkpt lat="45.06368" lon="4.67161">
        <ele>461.72100830078</ele>
        <time>2010-07-24T13:20:48Z</time>
      </trkpt>
      <trkpt lat="45.06372" lon="4.67156">
        <ele>461.51699829102</ele>
        <time>2010-07-24T13:20:49Z</time>
      </trkpt>
      <trkpt lat="45.06398" lon="4.67123">
        <ele>463.08999633789</ele>
        <time>2010-07-24T13:20:56Z</time>
      </trkpt>
      <trkpt lat="45.06412" lon="4.671">
        <ele>463.40600585938</ele>
        <time>2010-07-24T13:21:00Z</time>
      </trkpt>
      <trkpt lat="45.06425" lon="4.67087">
        <ele>463.24499511719</ele>
        <time>2010-07-24T13:21:03Z</time>
      </trkpt>
      <trkpt lat="45.06443" lon="4.67075">
        <ele>463.75799560547</ele>
        <time>2010-07-24T13:21:07Z</time>
      </trkpt>
      <trkpt lat="45.06469" lon="4.67062">
        <ele>464.56500244141</ele>
        <time>2010-07-24T13:21:12Z</time>
      </trkpt>
      <trkpt lat="45.06489" lon="4.67028">
        <ele>465.61199951172</ele>
        <time>2010-07-24T13:21:18Z</time>
      </trkpt>
      <trkpt lat="45.065" lon="4.66962">
        <ele>466.98098754883</ele>
        <time>2010-07-24T13:21:27Z</time>
      </trkpt>
      <trkpt lat="45.06502" lon="4.66948">
        <ele>466.96899414062</ele>
        <time>2010-07-24T13:21:29Z</time>
      </trkpt>
      <trkpt lat="45.06512" lon="4.66913">
        <ele>467.61999511719</ele>
        <time>2010-07-24T13:21:34Z</time>
      </trkpt>
      <trkpt lat="45.0654" lon="4.66868">
        <ele>467.38900756836</ele>
        <time>2010-07-24T13:21:42Z</time>
      </trkpt>
      <trkpt lat="45.06546" lon="4.66853">
        <ele>467.3330078125</ele>
        <time>2010-07-24T13:21:44Z</time>
      </trkpt>
      <trkpt lat="45.06552" lon="4.66804">
        <ele>467.26699829102</ele>
        <time>2010-07-24T13:21:50Z</time>
      </trkpt>
      <trkpt lat="45.06558" lon="4.66754">
        <ele>466.83700561523</ele>
        <time>2010-07-24T13:21:56Z</time>
      </trkpt>
      <trkpt lat="45.06573" lon="4.66698">
        <ele>465.90100097656</ele>
        <time>2010-07-24T13:22:03Z</time>
      </trkpt>
      <trkpt lat="45.06586" lon="4.66644">
        <ele>464.19100952148</ele>
        <time>2010-07-24T13:22:09Z</time>
      </trkpt>
      <trkpt lat="45.06589" lon="4.66635">
        <ele>463.92199707031</ele>
        <time>2010-07-24T13:22:10Z</time>
      </trkpt>
      <trkpt lat="45.06607" lon="4.66605">
        <ele>462.44799804688</ele>
        <time>2010-07-24T13:22:14Z</time>
      </trkpt>
      <trkpt lat="45.06613" lon="4.666">
        <ele>462.34100341797</ele>
        <time>2010-07-24T13:22:15Z</time>
      </trkpt>
      <trkpt lat="45.06626" lon="4.6659">
        <ele>462.43099975586</ele>
        <time>2010-07-24T13:22:17Z</time>
      </trkpt>
      <trkpt lat="45.06646" lon="4.66561">
        <ele>462.47799682617</ele>
        <time>2010-07-24T13:22:21Z</time>
      </trkpt>
      <trkpt lat="45.06651" lon="4.66542">
        <ele>462.63400268555</ele>
        <time>2010-07-24T13:22:23Z</time>
      </trkpt>
      <trkpt lat="45.06657" lon="4.66504">
        <ele>461.89498901367</ele>
        <time>2010-07-24T13:22:28Z</time>
      </trkpt>
      <trkpt lat="45.0666" lon="4.66494">
        <ele>461.22900390625</ele>
        <time>2010-07-24T13:22:31Z</time>
      </trkpt>
      <trkpt lat="45.06666" lon="4.6648">
        <ele>460.8219909668</ele>
        <time>2010-07-24T13:22:36Z</time>
      </trkpt>
      <trkpt lat="45.06668" lon="4.66454">
        <ele>460.89898681641</ele>
        <time>2010-07-24T13:22:42Z</time>
      </trkpt>
      <trkpt lat="45.06665" lon="4.66445">
        <ele>460.9280090332</ele>
        <time>2010-07-24T13:22:44Z</time>
      </trkpt>
      <trkpt lat="45.06644" lon="4.66424">
        <ele>460.71798706055</ele>
        <time>2010-07-24T13:22:50Z</time>
      </trkpt>
      <trkpt lat="45.06611" lon="4.66404">
        <ele>460.25</ele>
        <time>2010-07-24T13:22:57Z</time>
      </trkpt>
      <trkpt lat="45.06585" lon="4.66368">
        <ele>459.29400634766</ele>
        <time>2010-07-24T13:23:03Z</time>
      </trkpt>
      <trkpt lat="45.0658" lon="4.66333">
        <ele>459.11898803711</ele>
        <time>2010-07-24T13:23:07Z</time>
      </trkpt>
      <trkpt lat="45.06588" lon="4.66298">
        <ele>458.31500244141</ele>
        <time>2010-07-24T13:23:11Z</time>
      </trkpt>
      <trkpt lat="45.06608" lon="4.66275">
        <ele>457.02099609375</ele>
        <time>2010-07-24T13:23:15Z</time>
      </trkpt>
      <trkpt lat="45.06628" lon="4.66271">
        <ele>456.30099487305</ele>
        <time>2010-07-24T13:23:18Z</time>
      </trkpt>
      <trkpt lat="45.06634" lon="4.66272">
        <ele>456.26901245117</ele>
        <time>2010-07-24T13:23:19Z</time>
      </trkpt>
      <trkpt lat="45.0666" lon="4.66281">
        <ele>455.42199707031</ele>
        <time>2010-07-24T13:23:23Z</time>
      </trkpt>
      <trkpt lat="45.06696" lon="4.66278">
        <ele>453.98699951172</ele>
        <time>2010-07-24T13:23:28Z</time>
      </trkpt>
      <trkpt lat="45.0673" lon="4.66265">
        <ele>452.51699829102</ele>
        <time>2010-07-24T13:23:33Z</time>
      </trkpt>
      <trkpt lat="45.06767" lon="4.6624">
        <ele>452.29501342773</ele>
        <time>2010-07-24T13:23:39Z</time>
      </trkpt>
      <trkpt lat="45.06791" lon="4.66221">
        <ele>452.06799316406</ele>
        <time>2010-07-24T13:23:43Z</time>
      </trkpt>
      <trkpt lat="45.06829" lon="4.66211">
        <ele>450.79699707031</ele>
        <time>2010-07-24T13:23:49Z</time>
      </trkpt>
      <trkpt lat="45.06841" lon="4.66214">
        <ele>450.10900878906</ele>
        <time>2010-07-24T13:23:51Z</time>
      </trkpt>
      <trkpt lat="45.06869" lon="4.66229">
        <ele>447.9280090332</ele>
        <time>2010-07-24T13:23:56Z</time>
      </trkpt>
      <trkpt lat="45.06903" lon="4.66238">
        <ele>448.89498901367</ele>
        <time>2010-07-24T13:24:02Z</time>
      </trkpt>
      <trkpt lat="45.06949" lon="4.66243">
        <ele>447.95001220703</ele>
        <time>2010-07-24T13:24:09Z</time>
      </trkpt>
      <trkpt lat="45.06981" lon="4.66254">
        <ele>447.43701171875</ele>
        <time>2010-07-24T13:24:14Z</time>
      </trkpt>
      <trkpt lat="45.07016" lon="4.66263">
        <ele>447.22698974609</ele>
        <time>2010-07-24T13:24:20Z</time>
      </trkpt>
      <trkpt lat="45.07065" lon="4.66261">
        <ele>446.09201049805</ele>
        <time>2010-07-24T13:24:28Z</time>
      </trkpt>
      <trkpt lat="45.07098" lon="4.66234">
        <ele>445.81399536133</ele>
        <time>2010-07-24T13:24:34Z</time>
      </trkpt>
      <trkpt lat="45.07132" lon="4.66192">
        <ele>445.74798583984</ele>
        <time>2010-07-24T13:24:41Z</time>
      </trkpt>
      <trkpt lat="45.07161" lon="4.66151">
        <ele>445.12200927734</ele>
        <time>2010-07-24T13:24:48Z</time>
      </trkpt>
      <trkpt lat="45.0717" lon="4.66113">
        <ele>445.39300537109</ele>
        <time>2010-07-24T13:24:53Z</time>
      </trkpt>
      <trkpt lat="45.07168" lon="4.66087">
        <ele>444.9700012207</ele>
        <time>2010-07-24T13:24:56Z</time>
      </trkpt>
      <trkpt lat="45.07151" lon="4.66002">
        <ele>444.43200683594</ele>
        <time>2010-07-24T13:25:06Z</time>
      </trkpt>
      <trkpt lat="45.0715" lon="4.65994">
        <ele>444.64099121094</ele>
        <time>2010-07-24T13:25:07Z</time>
      </trkpt>
      <trkpt lat="45.07132" lon="4.65958">
        <ele>444.81799316406</ele>
        <time>2010-07-24T13:25:12Z</time>
      </trkpt>
      <trkpt lat="45.07114" lon="4.65932">
        <ele>444.51599121094</ele>
        <time>2010-07-24T13:25:16Z</time>
      </trkpt>
      <trkpt lat="45.07107" lon="4.65917">
        <ele>444.01501464844</ele>
        <time>2010-07-24T13:25:18Z</time>
      </trkpt>
      <trkpt lat="45.07101" lon="4.65873">
        <ele>444.03900146484</ele>
        <time>2010-07-24T13:25:23Z</time>
      </trkpt>
      <trkpt lat="45.07112" lon="4.65852">
        <ele>443.91598510742</ele>
        <time>2010-07-24T13:25:26Z</time>
      </trkpt>
      <trkpt lat="45.07136" lon="4.65839">
        <ele>442.78799438477</ele>
        <time>2010-07-24T13:25:30Z</time>
      </trkpt>
      <trkpt lat="45.07186" lon="4.65822">
        <ele>442.89801025391</ele>
        <time>2010-07-24T13:25:38Z</time>
      </trkpt>
      <trkpt lat="45.07223" lon="4.65806">
        <ele>442.81100463867</ele>
        <time>2010-07-24T13:25:44Z</time>
      </trkpt>
      <trkpt lat="45.07229" lon="4.65803">
        <ele>442.72198486328</ele>
        <time>2010-07-24T13:25:45Z</time>
      </trkpt>
      <trkpt lat="45.07262" lon="4.65775">
        <ele>441.46398925781</ele>
        <time>2010-07-24T13:25:51Z</time>
      </trkpt>
      <trkpt lat="45.07273" lon="4.65751">
        <ele>441.32299804688</ele>
        <time>2010-07-24T13:25:54Z</time>
      </trkpt>
      <trkpt lat="45.07284" lon="4.65707">
        <ele>441.35598754883</ele>
        <time>2010-07-24T13:25:59Z</time>
      </trkpt>
      <trkpt lat="45.07301" lon="4.65621">
        <ele>440.93099975586</ele>
        <time>2010-07-24T13:26:08Z</time>
      </trkpt>
      <trkpt lat="45.07318" lon="4.65563">
        <ele>440.29299926758</ele>
        <time>2010-07-24T13:26:14Z</time>
      </trkpt>
      <trkpt lat="45.07339" lon="4.65498">
        <ele>440.13598632812</ele>
        <time>2010-07-24T13:26:21Z</time>
      </trkpt>
      <trkpt lat="45.07362" lon="4.65426">
        <ele>439.58999633789</ele>
        <time>2010-07-24T13:26:29Z</time>
      </trkpt>
      <trkpt lat="45.07365" lon="4.65408">
        <ele>439.71301269531</ele>
        <time>2010-07-24T13:26:31Z</time>
      </trkpt>
      <trkpt lat="45.07369" lon="4.65346">
        <ele>438.93701171875</ele>
        <time>2010-07-24T13:26:37Z</time>
      </trkpt>
      <trkpt lat="45.07384" lon="4.65283">
        <ele>437.97601318359</ele>
        <time>2010-07-24T13:26:43Z</time>
      </trkpt>
      <trkpt lat="45.07392" lon="4.65238">
        <ele>437.14898681641</ele>
        <time>2010-07-24T13:26:47Z</time>
      </trkpt>
      <trkpt lat="45.07392" lon="4.65168">
        <ele>435.60998535156</ele>
        <time>2010-07-24T13:26:53Z</time>
      </trkpt>
      <trkpt lat="45.07396" lon="4.65114">
        <ele>435.29400634766</ele>
        <time>2010-07-24T13:26:58Z</time>
      </trkpt>
      <trkpt lat="45.07413" lon="4.65039">
        <ele>433.64999389648</ele>
        <time>2010-07-24T13:27:05Z</time>
      </trkpt>
      <trkpt lat="45.07426" lon="4.64996">
        <ele>433.1549987793</ele>
        <time>2010-07-24T13:27:09Z</time>
      </trkpt>
      <trkpt lat="45.07452" lon="4.64962">
        <ele>432.25799560547</ele>
        <time>2010-07-24T13:27:13Z</time>
      </trkpt>
      <trkpt lat="45.07468" lon="4.64951">
        <ele>431.97601318359</ele>
        <time>2010-07-24T13:27:15Z</time>
      </trkpt>
      <trkpt lat="45.07493" lon="4.64937">
        <ele>431.18200683594</ele>
        <time>2010-07-24T13:27:18Z</time>
      </trkpt>
      <trkpt lat="45.07516" lon="4.64898">
        <ele>430.25500488281</ele>
        <time>2010-07-24T13:27:22Z</time>
      </trkpt>
      <trkpt lat="45.0752" lon="4.64873">
        <ele>430.19198608398</ele>
        <time>2010-07-24T13:27:24Z</time>
      </trkpt>
      <trkpt lat="45.07523" lon="4.6481">
        <ele>429.32400512695</ele>
        <time>2010-07-24T13:27:29Z</time>
      </trkpt>
      <trkpt lat="45.07512" lon="4.64766">
        <ele>428.63900756836</ele>
        <time>2010-07-24T13:27:33Z</time>
      </trkpt>
      <trkpt lat="45.075" lon="4.6475">
        <ele>428.12298583984</ele>
        <time>2010-07-24T13:27:35Z</time>
      </trkpt>
      <trkpt lat="45.07486" lon="4.64735">
        <ele>427.85800170898</ele>
        <time>2010-07-24T13:27:37Z</time>
      </trkpt>
      <trkpt lat="45.07462" lon="4.64697">
        <ele>426.67700195312</ele>
        <time>2010-07-24T13:27:41Z</time>
      </trkpt>
      <trkpt lat="45.07452" lon="4.64663">
        <ele>426.05200195312</ele>
        <time>2010-07-24T13:27:44Z</time>
      </trkpt>
      <trkpt lat="45.07457" lon="4.64639">
        <ele>425.49099731445</ele>
        <time>2010-07-24T13:27:46Z</time>
      </trkpt>
      <trkpt lat="45.07486" lon="4.64536">
        <ele>424.14001464844</ele>
        <time>2010-07-24T13:27:55Z</time>
      </trkpt>
      <trkpt lat="45.07501" lon="4.64509">
        <ele>424.12298583984</ele>
        <time>2010-07-24T13:27:58Z</time>
      </trkpt>
      <trkpt lat="45.07513" lon="4.64493">
        <ele>423.62600708008</ele>
        <time>2010-07-24T13:28:00Z</time>
      </trkpt>
      <trkpt lat="45.07524" lon="4.64478">
        <ele>423.30899047852</ele>
        <time>2010-07-24T13:28:02Z</time>
      </trkpt>
      <trkpt lat="45.07548" lon="4.64438">
        <ele>422.73699951172</ele>
        <time>2010-07-24T13:28:07Z</time>
      </trkpt>
      <trkpt lat="45.07549" lon="4.64405">
        <ele>422.37799072266</ele>
        <time>2010-07-24T13:28:10Z</time>
      </trkpt>
      <trkpt lat="45.07535" lon="4.64333">
        <ele>420.96099853516</ele>
        <time>2010-07-24T13:28:16Z</time>
      </trkpt>
      <trkpt lat="45.07521" lon="4.64248">
        <ele>419.46398925781</ele>
        <time>2010-07-24T13:28:23Z</time>
      </trkpt>
      <trkpt lat="45.07521" lon="4.64223">
        <ele>419.08200073242</ele>
        <time>2010-07-24T13:28:25Z</time>
      </trkpt>
      <trkpt lat="45.07534" lon="4.64178">
        <ele>417.54699707031</ele>
        <time>2010-07-24T13:28:29Z</time>
      </trkpt>
      <trkpt lat="45.07541" lon="4.64169">
        <ele>417.22100830078</ele>
        <time>2010-07-24T13:28:30Z</time>
      </trkpt>
      <trkpt lat="45.07561" lon="4.64145">
        <ele>416.52899169922</ele>
        <time>2010-07-24T13:28:33Z</time>
      </trkpt>
      <trkpt lat="45.07576" lon="4.64102">
        <ele>416.91400146484</ele>
        <time>2010-07-24T13:28:37Z</time>
      </trkpt>
      <trkpt lat="45.07578" lon="4.6409">
        <ele>416.88101196289</ele>
        <time>2010-07-24T13:28:38Z</time>
      </trkpt>
      <trkpt lat="45.07582" lon="4.64035">
        <ele>417.42401123047</ele>
        <time>2010-07-24T13:28:43Z</time>
      </trkpt>
      <trkpt lat="45.07576" lon="4.63985">
        <ele>417.95401000977</ele>
        <time>2010-07-24T13:28:48Z</time>
      </trkpt>
      <trkpt lat="45.07574" lon="4.63976">
        <ele>418.14199829102</ele>
        <time>2010-07-24T13:28:49Z</time>
      </trkpt>
      <trkpt lat="45.07556" lon="4.63925">
        <ele>418.94400024414</ele>
        <time>2010-07-24T13:28:55Z</time>
      </trkpt>
      <trkpt lat="45.07547" lon="4.63877">
        <ele>420.42999267578</ele>
        <time>2010-07-24T13:29:01Z</time>
      </trkpt>
      <trkpt lat="45.07541" lon="4.63822">
        <ele>422.52398681641</ele>
        <time>2010-07-24T13:29:08Z</time>
      </trkpt>
      <trkpt lat="45.0755" lon="4.63796">
        <ele>423.6969909668</ele>
        <time>2010-07-24T13:29:12Z</time>
      </trkpt>
      <trkpt lat="45.07555" lon="4.63792">
        <ele>423.98400878906</ele>
        <time>2010-07-24T13:29:13Z</time>
      </trkpt>
      <trkpt lat="45.07589" lon="4.63769">
        <ele>425.82501220703</ele>
        <time>2010-07-24T13:29:21Z</time>
      </trkpt>
      <trkpt lat="45.07629" lon="4.63747">
        <ele>426.8030090332</ele>
        <time>2010-07-24T13:29:30Z</time>
      </trkpt>
      <trkpt lat="45.07655" lon="4.6373">
        <ele>428.13400268555</ele>
        <time>2010-07-24T13:29:36Z</time>
      </trkpt>
      <trkpt lat="45.07679" lon="4.63718">
        <ele>429.83898925781</ele>
        <time>2010-07-24T13:29:42Z</time>
      </trkpt>
      <trkpt lat="45.0771" lon="4.63702">
        <ele>431.18301391602</ele>
        <time>2010-07-24T13:29:50Z</time>
      </trkpt>
      <trkpt lat="45.07727" lon="4.63679">
        <ele>432.16500854492</ele>
        <time>2010-07-24T13:29:56Z</time>
      </trkpt>
      <trkpt lat="45.0773" lon="4.63669">
        <ele>432.46798706055</ele>
        <time>2010-07-24T13:29:58Z</time>
      </trkpt>
      <trkpt lat="45.07736" lon="4.6363">
        <ele>433.96301269531</ele>
        <time>2010-07-24T13:30:05Z</time>
      </trkpt>
      <trkpt lat="45.0774" lon="4.63619">
        <ele>434.66900634766</ele>
        <time>2010-07-24T13:30:07Z</time>
      </trkpt>
      <trkpt lat="45.07745" lon="4.63609">
        <ele>435.01699829102</ele>
        <time>2010-07-24T13:30:09Z</time>
      </trkpt>
      <trkpt lat="45.07769" lon="4.63578">
        <ele>436.08200073242</ele>
        <time>2010-07-24T13:30:17Z</time>
      </trkpt>
      <trkpt lat="45.078" lon="4.63548">
        <ele>438.25299072266</ele>
        <time>2010-07-24T13:30:26Z</time>
      </trkpt>
      <trkpt lat="45.0782" lon="4.63533">
        <ele>439.65100097656</ele>
        <time>2010-07-24T13:30:31Z</time>
      </trkpt>
      <trkpt lat="45.07855" lon="4.63514">
        <ele>442.07400512695</ele>
        <time>2010-07-24T13:30:40Z</time>
      </trkpt>
      <trkpt lat="45.07863" lon="4.63511">
        <ele>442.37399291992</ele>
        <time>2010-07-24T13:30:42Z</time>
      </trkpt>
      <trkpt lat="45.07884" lon="4.63511">
        <ele>443.46798706055</ele>
        <time>2010-07-24T13:30:47Z</time>
      </trkpt>
      <trkpt lat="45.07901" lon="4.63518">
        <ele>444.04901123047</ele>
        <time>2010-07-24T13:30:51Z</time>
      </trkpt>
      <trkpt lat="45.07914" lon="4.63531">
        <ele>444.56399536133</ele>
        <time>2010-07-24T13:30:55Z</time>
      </trkpt>
      <trkpt lat="45.07932" lon="4.63558">
        <ele>445.68099975586</ele>
        <time>2010-07-24T13:31:01Z</time>
      </trkpt>
      <trkpt lat="45.07951" lon="4.63573">
        <ele>446.66799926758</ele>
        <time>2010-07-24T13:31:06Z</time>
      </trkpt>
      <trkpt lat="45.07969" lon="4.63571">
        <ele>447.10900878906</ele>
        <time>2010-07-24T13:31:10Z</time>
      </trkpt>
      <trkpt lat="45.07983" lon="4.63556">
        <ele>447.79800415039</ele>
        <time>2010-07-24T13:31:14Z</time>
      </trkpt>
      <trkpt lat="45.07988" lon="4.63546">
        <ele>448.19299316406</ele>
        <time>2010-07-24T13:31:16Z</time>
      </trkpt>
      <trkpt lat="45.08014" lon="4.63487">
        <ele>450.83200073242</ele>
        <time>2010-07-24T13:31:27Z</time>
      </trkpt>
      <trkpt lat="45.0804" lon="4.63434">
        <ele>452.78201293945</ele>
        <time>2010-07-24T13:31:37Z</time>
      </trkpt>
      <trkpt lat="45.08047" lon="4.63425">
        <ele>453.16101074219</ele>
        <time>2010-07-24T13:31:39Z</time>
      </trkpt>
      <trkpt lat="45.08067" lon="4.63408">
        <ele>454.32000732422</ele>
        <time>2010-07-24T13:31:44Z</time>
      </trkpt>
      <trkpt lat="45.08075" lon="4.63404">
        <ele>454.65399169922</ele>
        <time>2010-07-24T13:31:46Z</time>
      </trkpt>
      <trkpt lat="45.08094" lon="4.63383">
        <ele>455.38101196289</ele>
        <time>2010-07-24T13:31:51Z</time>
      </trkpt>
      <trkpt lat="45.08096" lon="4.63363">
        <ele>456.08200073242</ele>
        <time>2010-07-24T13:31:54Z</time>
      </trkpt>
      <trkpt lat="45.0809" lon="4.63344">
        <ele>456.78298950195</ele>
        <time>2010-07-24T13:31:57Z</time>
      </trkpt>
      <trkpt lat="45.08076" lon="4.63332">
        <ele>457.62100219727</ele>
        <time>2010-07-24T13:32:00Z</time>
      </trkpt>
      <trkpt lat="45.0806" lon="4.63333">
        <ele>458.30200195312</ele>
        <time>2010-07-24T13:32:03Z</time>
      </trkpt>
      <trkpt lat="45.08046" lon="4.63347">
        <ele>459.23300170898</ele>
        <time>2010-07-24T13:32:06Z</time>
      </trkpt>
      <trkpt lat="45.08043" lon="4.63354">
        <ele>459.63800048828</ele>
        <time>2010-07-24T13:32:07Z</time>
      </trkpt>
      <trkpt lat="45.08023" lon="4.63402">
        <ele>461.68399047852</ele>
        <time>2010-07-24T13:32:13Z</time>
      </trkpt>
      <trkpt lat="45.08004" lon="4.63427">
        <ele>463.07699584961</ele>
        <time>2010-07-24T13:32:17Z</time>
      </trkpt>
      <trkpt lat="45.07991" lon="4.63433">
        <ele>463.79501342773</ele>
        <time>2010-07-24T13:32:19Z</time>
      </trkpt>
      <trkpt lat="45.07967" lon="4.63433">
        <ele>465.12899780273</ele>
        <time>2010-07-24T13:32:23Z</time>
      </trkpt>
      <trkpt lat="45.07961" lon="4.6343">
        <ele>465.54501342773</ele>
        <time>2010-07-24T13:32:24Z</time>
      </trkpt>
      <trkpt lat="45.07927" lon="4.63409">
        <ele>467.98498535156</ele>
        <time>2010-07-24T13:32:31Z</time>
      </trkpt>
      <trkpt lat="45.07908" lon="4.63402">
        <ele>468.92700195312</ele>
        <time>2010-07-24T13:32:35Z</time>
      </trkpt>
      <trkpt lat="45.07899" lon="4.63401">
        <ele>469.6130065918</ele>
        <time>2010-07-24T13:32:37Z</time>
      </trkpt>
      <trkpt lat="45.07856" lon="4.63408">
        <ele>472.25100708008</ele>
        <time>2010-07-24T13:32:47Z</time>
      </trkpt>
      <trkpt lat="45.07839" lon="4.63412">
        <ele>473.22100830078</ele>
        <time>2010-07-24T13:32:51Z</time>
      </trkpt>
      <trkpt lat="45.07804" lon="4.63433">
        <ele>474.71200561523</ele>
        <time>2010-07-24T13:33:00Z</time>
      </trkpt>
      <trkpt lat="45.07779" lon="4.6344">
        <ele>476.48001098633</ele>
        <time>2010-07-24T13:33:07Z</time>
      </trkpt>
      <trkpt lat="45.07757" lon="4.63451">
        <ele>477.80801391602</ele>
        <time>2010-07-24T13:33:14Z</time>
      </trkpt>
      <trkpt lat="45.07736" lon="4.6345">
        <ele>478.87701416016</ele>
        <time>2010-07-24T13:33:20Z</time>
      </trkpt>
      <trkpt lat="45.07726" lon="4.63437">
        <ele>479.57000732422</ele>
        <time>2010-07-24T13:33:24Z</time>
      </trkpt>
      <trkpt lat="45.07726" lon="4.63418">
        <ele>480.25100708008</ele>
        <time>2010-07-24T13:33:28Z</time>
      </trkpt>
      <trkpt lat="45.07735" lon="4.63398">
        <ele>481.22100830078</ele>
        <time>2010-07-24T13:33:33Z</time>
      </trkpt>
      <trkpt lat="45.07755" lon="4.63383">
        <ele>483.26998901367</ele>
        <time>2010-07-24T13:33:39Z</time>
      </trkpt>
      <trkpt lat="45.07781" lon="4.63371">
        <ele>485.14801025391</ele>
        <time>2010-07-24T13:33:46Z</time>
      </trkpt>
      <trkpt lat="45.07807" lon="4.63358">
        <ele>486.66598510742</ele>
        <time>2010-07-24T13:33:53Z</time>
      </trkpt>
      <trkpt lat="45.07843" lon="4.63342">
        <ele>488.38101196289</ele>
        <time>2010-07-24T13:34:01Z</time>
      </trkpt>
      <trkpt lat="45.07877" lon="4.63326">
        <ele>490.13800048828</ele>
        <time>2010-07-24T13:34:08Z</time>
      </trkpt>
      <trkpt lat="45.07922" lon="4.63303">
        <ele>492.86499023438</ele>
        <time>2010-07-24T13:34:17Z</time>
      </trkpt>
      <trkpt lat="45.07927" lon="4.633">
        <ele>493.18099975586</ele>
        <time>2010-07-24T13:34:18Z</time>
      </trkpt>
      <trkpt lat="45.07954" lon="4.63267">
        <ele>495.51098632812</ele>
        <time>2010-07-24T13:34:25Z</time>
      </trkpt>
      <trkpt lat="45.07964" lon="4.63251">
        <ele>496.11898803711</ele>
        <time>2010-07-24T13:34:28Z</time>
      </trkpt>
      <trkpt lat="45.0799" lon="4.63233">
        <ele>497.28201293945</ele>
        <time>2010-07-24T13:34:34Z</time>
      </trkpt>
      <trkpt lat="45.08026" lon="4.63225">
        <ele>499.78799438477</ele>
        <time>2010-07-24T13:34:42Z</time>
      </trkpt>
      <trkpt lat="45.08039" lon="4.63219">
        <ele>500.79901123047</ele>
        <time>2010-07-24T13:34:45Z</time>
      </trkpt>
      <trkpt lat="45.08067" lon="4.63201">
        <ele>502.5830078125</ele>
        <time>2010-07-24T13:34:52Z</time>
      </trkpt>
      <trkpt lat="45.08073" lon="4.63193">
        <ele>502.9460144043</ele>
        <time>2010-07-24T13:34:54Z</time>
      </trkpt>
      <trkpt lat="45.08101" lon="4.63171">
        <ele>504.20001220703</ele>
        <time>2010-07-24T13:35:01Z</time>
      </trkpt>
      <trkpt lat="45.08144" lon="4.63135">
        <ele>507.08499145508</ele>
        <time>2010-07-24T13:35:12Z</time>
      </trkpt>
      <trkpt lat="45.08176" lon="4.63112">
        <ele>509.17498779297</ele>
        <time>2010-07-24T13:35:20Z</time>
      </trkpt>
      <trkpt lat="45.08202" lon="4.6311">
        <ele>510.48001098633</ele>
        <time>2010-07-24T13:35:26Z</time>
      </trkpt>
      <trkpt lat="45.08228" lon="4.63114">
        <ele>511.63101196289</ele>
        <time>2010-07-24T13:35:32Z</time>
      </trkpt>
      <trkpt lat="45.08244" lon="4.63108">
        <ele>512.55401611328</ele>
        <time>2010-07-24T13:35:36Z</time>
      </trkpt>
      <trkpt lat="45.08265" lon="4.63083">
        <ele>513.99401855469</ele>
        <time>2010-07-24T13:35:42Z</time>
      </trkpt>
      <trkpt lat="45.08268" lon="4.63077">
        <ele>514.24298095703</ele>
        <time>2010-07-24T13:35:43Z</time>
      </trkpt>
      <trkpt lat="45.083" lon="4.6303">
        <ele>516.28497314453</ele>
        <time>2010-07-24T13:35:50Z</time>
      </trkpt>
      <trkpt lat="45.08325" lon="4.62979">
        <ele>519.34002685547</ele>
        <time>2010-07-24T13:35:58Z</time>
      </trkpt>
      <trkpt lat="45.08345" lon="4.62938">
        <ele>520.40899658203</ele>
        <time>2010-07-24T13:36:05Z</time>
      </trkpt>
      <trkpt lat="45.08364" lon="4.62897">
        <ele>522.69897460938</ele>
        <time>2010-07-24T13:36:13Z</time>
      </trkpt>
      <trkpt lat="45.08384" lon="4.62854">
        <ele>523.95501708984</ele>
        <time>2010-07-24T13:36:21Z</time>
      </trkpt>
      <trkpt lat="45.08401" lon="4.62815">
        <ele>524.86602783203</ele>
        <time>2010-07-24T13:36:28Z</time>
      </trkpt>
      <trkpt lat="45.08426" lon="4.62766">
        <ele>525.67297363281</ele>
        <time>2010-07-24T13:36:37Z</time>
      </trkpt>
      <trkpt lat="45.08433" lon="4.62749">
        <ele>526.21801757812</ele>
        <time>2010-07-24T13:36:40Z</time>
      </trkpt>
      <trkpt lat="45.08438" lon="4.62731">
        <ele>526.92498779297</ele>
        <time>2010-07-24T13:36:44Z</time>
      </trkpt>
      <trkpt lat="45.08438" lon="4.62727">
        <ele>527.27301025391</ele>
        <time>2010-07-24T13:36:45Z</time>
      </trkpt>
      <trkpt lat="45.08435" lon="4.62719">
        <ele>527.70501708984</ele>
        <time>2010-07-24T13:36:48Z</time>
      </trkpt>
      <trkpt lat="45.08439" lon="4.62714">
        <ele>527.97998046875</ele>
        <time>2010-07-24T13:36:54Z</time>
      </trkpt>
      <trkpt lat="45.08439" lon="4.62713">
        <ele>528.12902832031</ele>
        <time>2010-07-24T13:36:55Z</time>
      </trkpt>
      <trkpt lat="45.08446" lon="4.62703">
        <ele>529.52301025391</ele>
        <time>2010-07-24T13:38:07Z</time>
      </trkpt>
      <trkpt lat="45.08443" lon="4.62699">
        <ele>529.66802978516</ele>
        <time>2010-07-24T13:38:09Z</time>
      </trkpt>
      <trkpt lat="45.08425" lon="4.62683">
        <ele>530.32800292969</ele>
        <time>2010-07-24T13:38:16Z</time>
      </trkpt>
      <trkpt lat="45.08419" lon="4.62669">
        <ele>531.35699462891</ele>
        <time>2010-07-24T13:38:20Z</time>
      </trkpt>
      <trkpt lat="45.08414" lon="4.62651">
        <ele>532.625</ele>
        <time>2010-07-24T13:38:25Z</time>
      </trkpt>
      <trkpt lat="45.08403" lon="4.62641">
        <ele>533.52197265625</ele>
        <time>2010-07-24T13:38:29Z</time>
      </trkpt>
      <trkpt lat="45.08387" lon="4.62637">
        <ele>534.39599609375</ele>
        <time>2010-07-24T13:38:34Z</time>
      </trkpt>
      <trkpt lat="45.08365" lon="4.62634">
        <ele>535.46997070312</ele>
        <time>2010-07-24T13:38:40Z</time>
      </trkpt>
      <trkpt lat="45.08339" lon="4.62623">
        <ele>536.46002197266</ele>
        <time>2010-07-24T13:38:47Z</time>
      </trkpt>
      <trkpt lat="45.0831" lon="4.62613">
        <ele>538.62902832031</ele>
        <time>2010-07-24T13:38:55Z</time>
      </trkpt>
      <trkpt lat="45.08293" lon="4.62597">
        <ele>540.20300292969</ele>
        <time>2010-07-24T13:39:01Z</time>
      </trkpt>
      <trkpt lat="45.08278" lon="4.62577">
        <ele>542.36901855469</ele>
        <time>2010-07-24T13:39:08Z</time>
      </trkpt>
      <trkpt lat="45.08265" lon="4.62579">
        <ele>542.20697021484</ele>
        <time>2010-07-24T13:39:12Z</time>
      </trkpt>
      <trkpt lat="45.08237" lon="4.62593">
        <ele>541.22399902344</ele>
        <time>2010-07-24T13:39:18Z</time>
      </trkpt>
      <trkpt lat="45.08218" lon="4.62591">
        <ele>541.48901367188</ele>
        <time>2010-07-24T13:39:23Z</time>
      </trkpt>
      <trkpt lat="45.08213" lon="4.6259">
        <ele>541.38000488281</ele>
        <time>2010-07-24T13:39:26Z</time>
      </trkpt>
      <trkpt lat="45.08216" lon="4.62592">
        <ele>541.17297363281</ele>
        <time>2010-07-24T13:39:29Z</time>
      </trkpt>
      <trkpt lat="45.08217" lon="4.62588">
        <ele>541.28198242188</ele>
        <time>2010-07-24T13:39:33Z</time>
      </trkpt>
      <trkpt lat="45.08213" lon="4.62587">
        <ele>541.17797851562</ele>
        <time>2010-07-24T13:39:36Z</time>
      </trkpt>
      <trkpt lat="45.08203" lon="4.62577">
        <ele>540.92700195312</ele>
        <time>2010-07-24T13:39:42Z</time>
      </trkpt>
      <trkpt lat="45.0819" lon="4.62565">
        <ele>540.56402587891</ele>
        <time>2010-07-24T13:39:46Z</time>
      </trkpt>
      <trkpt lat="45.08174" lon="4.62545">
        <ele>540.39300537109</ele>
        <time>2010-07-24T13:39:51Z</time>
      </trkpt>
      <trkpt lat="45.08148" lon="4.62512">
        <ele>540.92297363281</ele>
        <time>2010-07-24T13:39:58Z</time>
      </trkpt>
      <trkpt lat="45.08127" lon="4.62486">
        <ele>540.26397705078</ele>
        <time>2010-07-24T13:40:03Z</time>
      </trkpt>
      <trkpt lat="45.08113" lon="4.62444">
        <ele>539.53698730469</ele>
        <time>2010-07-24T13:40:08Z</time>
      </trkpt>
      <trkpt lat="45.08113" lon="4.62405">
        <ele>538.53399658203</ele>
        <time>2010-07-24T13:40:12Z</time>
      </trkpt>
      <trkpt lat="45.08129" lon="4.62323">
        <ele>537.625</ele>
        <time>2010-07-24T13:40:20Z</time>
      </trkpt>
      <trkpt lat="45.08138" lon="4.62252">
        <ele>536.83599853516</ele>
        <time>2010-07-24T13:40:27Z</time>
      </trkpt>
      <trkpt lat="45.08141" lon="4.62232">
        <ele>536.82098388672</ele>
        <time>2010-07-24T13:40:29Z</time>
      </trkpt>
      <trkpt lat="45.08149" lon="4.62205">
        <ele>536.22601318359</ele>
        <time>2010-07-24T13:40:32Z</time>
      </trkpt>
      <trkpt lat="45.08184" lon="4.62148">
        <ele>536.9169921875</ele>
        <time>2010-07-24T13:40:40Z</time>
      </trkpt>
      <trkpt lat="45.0821" lon="4.62107">
        <ele>535.85601806641</ele>
        <time>2010-07-24T13:40:46Z</time>
      </trkpt>
      <trkpt lat="45.08247" lon="4.62048">
        <ele>535.30902099609</ele>
        <time>2010-07-24T13:40:54Z</time>
      </trkpt>
      <trkpt lat="45.08277" lon="4.61987">
        <ele>534.99700927734</ele>
        <time>2010-07-24T13:41:01Z</time>
      </trkpt>
      <trkpt lat="45.08285" lon="4.61933">
        <ele>534.14300537109</ele>
        <time>2010-07-24T13:41:06Z</time>
      </trkpt>
      <trkpt lat="45.08278" lon="4.619">
        <ele>534.53698730469</ele>
        <time>2010-07-24T13:41:09Z</time>
      </trkpt>
      <trkpt lat="45.08248" lon="4.61821">
        <ele>533.92797851562</ele>
        <time>2010-07-24T13:41:17Z</time>
      </trkpt>
      <trkpt lat="45.08234" lon="4.61781">
        <ele>534.28900146484</ele>
        <time>2010-07-24T13:41:21Z</time>
      </trkpt>
      <trkpt lat="45.08231" lon="4.61725">
        <ele>533.74102783203</ele>
        <time>2010-07-24T13:41:26Z</time>
      </trkpt>
      <trkpt lat="45.08241" lon="4.61682">
        <ele>534.05401611328</ele>
        <time>2010-07-24T13:41:30Z</time>
      </trkpt>
      <trkpt lat="45.08249" lon="4.61661">
        <ele>533.71600341797</ele>
        <time>2010-07-24T13:41:32Z</time>
      </trkpt>
      <trkpt lat="45.08253" lon="4.61615">
        <ele>532.23901367188</ele>
        <time>2010-07-24T13:41:36Z</time>
      </trkpt>
      <trkpt lat="45.0825" lon="4.61603">
        <ele>532.12701416016</ele>
        <time>2010-07-24T13:41:37Z</time>
      </trkpt>
      <trkpt lat="45.08236" lon="4.61548">
        <ele>531.90399169922</ele>
        <time>2010-07-24T13:41:42Z</time>
      </trkpt>
      <trkpt lat="45.08217" lon="4.61494">
        <ele>531.14898681641</ele>
        <time>2010-07-24T13:41:47Z</time>
      </trkpt>
      <trkpt lat="45.08212" lon="4.61448">
        <ele>531.23901367188</ele>
        <time>2010-07-24T13:41:51Z</time>
      </trkpt>
      <trkpt lat="45.0821" lon="4.61403">
        <ele>531.09600830078</ele>
        <time>2010-07-24T13:41:55Z</time>
      </trkpt>
      <trkpt lat="45.08202" lon="4.61381">
        <ele>530.97698974609</ele>
        <time>2010-07-24T13:41:57Z</time>
      </trkpt>
      <trkpt lat="45.08169" lon="4.613">
        <ele>528.91497802734</ele>
        <time>2010-07-24T13:42:04Z</time>
      </trkpt>
      <trkpt lat="45.08152" lon="4.61251">
        <ele>526.80999755859</ele>
        <time>2010-07-24T13:42:08Z</time>
      </trkpt>
      <trkpt lat="45.08149" lon="4.61201">
        <ele>525.791015625</ele>
        <time>2010-07-24T13:42:12Z</time>
      </trkpt>
      <trkpt lat="45.08164" lon="4.61166">
        <ele>524.68597412109</ele>
        <time>2010-07-24T13:42:15Z</time>
      </trkpt>
      <trkpt lat="45.08181" lon="4.61133">
        <ele>524.21899414062</ele>
        <time>2010-07-24T13:42:18Z</time>
      </trkpt>
      <trkpt lat="45.08194" lon="4.6108">
        <ele>522.87902832031</ele>
        <time>2010-07-24T13:42:22Z</time>
      </trkpt>
      <trkpt lat="45.08189" lon="4.61039">
        <ele>521.31799316406</ele>
        <time>2010-07-24T13:42:25Z</time>
      </trkpt>
      <trkpt lat="45.08173" lon="4.61021">
        <ele>520.17102050781</ele>
        <time>2010-07-24T13:42:27Z</time>
      </trkpt>
      <trkpt lat="45.08163" lon="4.61017">
        <ele>520.05902099609</ele>
        <time>2010-07-24T13:42:28Z</time>
      </trkpt>
      <trkpt lat="45.08129" lon="4.60989">
        <ele>518.31201171875</ele>
        <time>2010-07-24T13:42:32Z</time>
      </trkpt>
      <trkpt lat="45.08124" lon="4.60976">
        <ele>517.88800048828</ele>
        <time>2010-07-24T13:42:33Z</time>
      </trkpt>
      <trkpt lat="45.08085" lon="4.60887">
        <ele>514.94799804688</ele>
        <time>2010-07-24T13:42:40Z</time>
      </trkpt>
      <trkpt lat="45.0808" lon="4.60875">
        <ele>514.69000244141</ele>
        <time>2010-07-24T13:42:41Z</time>
      </trkpt>
      <trkpt lat="45.08056" lon="4.60792">
        <ele>514.40002441406</ele>
        <time>2010-07-24T13:42:47Z</time>
      </trkpt>
      <trkpt lat="45.08046" lon="4.60766">
        <ele>513.63397216797</ele>
        <time>2010-07-24T13:42:49Z</time>
      </trkpt>
      <trkpt lat="45.08042" lon="4.60723">
        <ele>512.25201416016</ele>
        <time>2010-07-24T13:42:52Z</time>
      </trkpt>
      <trkpt lat="45.08045" lon="4.60708">
        <ele>511.68399047852</ele>
        <time>2010-07-24T13:42:53Z</time>
      </trkpt>
      <trkpt lat="45.08065" lon="4.60618">
        <ele>509.11499023438</ele>
        <time>2010-07-24T13:42:59Z</time>
      </trkpt>
      <trkpt lat="45.08067" lon="4.60603">
        <ele>508.81600952148</ele>
        <time>2010-07-24T13:43:00Z</time>
      </trkpt>
      <trkpt lat="45.08071" lon="4.60531">
        <ele>508.11099243164</ele>
        <time>2010-07-24T13:43:05Z</time>
      </trkpt>
      <trkpt lat="45.08081" lon="4.6049">
        <ele>507.26501464844</ele>
        <time>2010-07-24T13:43:08Z</time>
      </trkpt>
      <trkpt lat="45.08098" lon="4.60471">
        <ele>506.66799926758</ele>
        <time>2010-07-24T13:43:10Z</time>
      </trkpt>
      <trkpt lat="45.08157" lon="4.60415">
        <ele>505.35198974609</ele>
        <time>2010-07-24T13:43:17Z</time>
      </trkpt>
      <trkpt lat="45.08192" lon="4.60365">
        <ele>505.2080078125</ele>
        <time>2010-07-24T13:43:22Z</time>
      </trkpt>
      <trkpt lat="45.08224" lon="4.60306">
        <ele>505.33099365234</ele>
        <time>2010-07-24T13:43:28Z</time>
      </trkpt>
      <trkpt lat="45.08246" lon="4.60261">
        <ele>507.0950012207</ele>
        <time>2010-07-24T13:43:33Z</time>
      </trkpt>
      <trkpt lat="45.08258" lon="4.60213">
        <ele>507.89498901367</ele>
        <time>2010-07-24T13:43:38Z</time>
      </trkpt>
      <trkpt lat="45.08256" lon="4.60158">
        <ele>508.88800048828</ele>
        <time>2010-07-24T13:43:44Z</time>
      </trkpt>
      <trkpt lat="45.0825" lon="4.60091">
        <ele>508.94198608398</ele>
        <time>2010-07-24T13:43:51Z</time>
      </trkpt>
      <trkpt lat="45.08251" lon="4.60052">
        <ele>509.04800415039</ele>
        <time>2010-07-24T13:43:55Z</time>
      </trkpt>
      <trkpt lat="45.08265" lon="4.60007">
        <ele>509.07901000977</ele>
        <time>2010-07-24T13:44:00Z</time>
      </trkpt>
      <trkpt lat="45.08276" lon="4.59948">
        <ele>510.02700805664</ele>
        <time>2010-07-24T13:44:07Z</time>
      </trkpt>
      <trkpt lat="45.08279" lon="4.5992">
        <ele>510.11801147461</ele>
        <time>2010-07-24T13:44:11Z</time>
      </trkpt>
      <trkpt lat="45.08272" lon="4.59888">
        <ele>510.10299682617</ele>
        <time>2010-07-24T13:44:16Z</time>
      </trkpt>
      <trkpt lat="45.08263" lon="4.59879">
        <ele>510.01400756836</ele>
        <time>2010-07-24T13:44:18Z</time>
      </trkpt>
      <trkpt lat="45.08245" lon="4.59864">
        <ele>510.72399902344</ele>
        <time>2010-07-24T13:44:22Z</time>
      </trkpt>
      <trkpt lat="45.08233" lon="4.59844">
        <ele>511.74700927734</ele>
        <time>2010-07-24T13:44:26Z</time>
      </trkpt>
      <trkpt lat="45.08228" lon="4.59831">
        <ele>511.84799194336</ele>
        <time>2010-07-24T13:44:28Z</time>
      </trkpt>
      <trkpt lat="45.08219" lon="4.59806">
        <ele>512.20001220703</ele>
        <time>2010-07-24T13:44:32Z</time>
      </trkpt>
      <trkpt lat="45.08194" lon="4.59742">
        <ele>513.82397460938</ele>
        <time>2010-07-24T13:44:42Z</time>
      </trkpt>
      <trkpt lat="45.08189" lon="4.59729">
        <ele>514.03601074219</ele>
        <time>2010-07-24T13:44:44Z</time>
      </trkpt>
      <trkpt lat="45.08176" lon="4.59668">
        <ele>514.41302490234</ele>
        <time>2010-07-24T13:44:52Z</time>
      </trkpt>
      <trkpt lat="45.08173" lon="4.59613">
        <ele>514.90698242188</ele>
        <time>2010-07-24T13:44:59Z</time>
      </trkpt>
      <trkpt lat="45.08179" lon="4.59563">
        <ele>516.48400878906</ele>
        <time>2010-07-24T13:45:06Z</time>
      </trkpt>
      <trkpt lat="45.08183" lon="4.59537">
        <ele>517.42901611328</ele>
        <time>2010-07-24T13:45:10Z</time>
      </trkpt>
      <trkpt lat="45.08183" lon="4.5948">
        <ele>518.93701171875</ele>
        <time>2010-07-24T13:45:19Z</time>
      </trkpt>
      <trkpt lat="45.08194" lon="4.5945">
        <ele>519.51202392578</ele>
        <time>2010-07-24T13:45:24Z</time>
      </trkpt>
      <trkpt lat="45.08205" lon="4.59429">
        <ele>520.01599121094</ele>
        <time>2010-07-24T13:45:28Z</time>
      </trkpt>
      <trkpt lat="45.08212" lon="4.59398">
        <ele>521.7080078125</ele>
        <time>2010-07-24T13:45:33Z</time>
      </trkpt>
      <trkpt lat="45.08206" lon="4.59367">
        <ele>522.85400390625</ele>
        <time>2010-07-24T13:45:38Z</time>
      </trkpt>
      <trkpt lat="45.08176" lon="4.59311">
        <ele>524.65197753906</ele>
        <time>2010-07-24T13:45:49Z</time>
      </trkpt>
      <trkpt lat="45.08154" lon="4.59273">
        <ele>525.78198242188</ele>
        <time>2010-07-24T13:45:57Z</time>
      </trkpt>
      <trkpt lat="45.08149" lon="4.59251">
        <ele>526.65002441406</ele>
        <time>2010-07-24T13:46:01Z</time>
      </trkpt>
      <trkpt lat="45.08143" lon="4.59203">
        <ele>529.06298828125</ele>
        <time>2010-07-24T13:46:10Z</time>
      </trkpt>
      <trkpt lat="45.08141" lon="4.5917">
        <ele>529.52801513672</ele>
        <time>2010-07-24T13:46:16Z</time>
      </trkpt>
      <trkpt lat="45.08141" lon="4.59114">
        <ele>529.583984375</ele>
        <time>2010-07-24T13:46:24Z</time>
      </trkpt>
      <trkpt lat="45.08144" lon="4.59051">
        <ele>529.65502929688</ele>
        <time>2010-07-24T13:46:33Z</time>
      </trkpt>
      <trkpt lat="45.08147" lon="4.58997">
        <ele>530.67901611328</ele>
        <time>2010-07-24T13:46:41Z</time>
      </trkpt>
      <trkpt lat="45.08152" lon="4.58926">
        <ele>533.02801513672</ele>
        <time>2010-07-24T13:46:52Z</time>
      </trkpt>
      <trkpt lat="45.08162" lon="4.58858">
        <ele>534.88299560547</ele>
        <time>2010-07-24T13:47:03Z</time>
      </trkpt>
      <trkpt lat="45.08168" lon="4.58836">
        <ele>535.42199707031</ele>
        <time>2010-07-24T13:47:07Z</time>
      </trkpt>
      <trkpt lat="45.08174" lon="4.58786">
        <ele>538.04302978516</ele>
        <time>2010-07-24T13:47:16Z</time>
      </trkpt>
      <trkpt lat="45.08172" lon="4.58754">
        <ele>538.52001953125</ele>
        <time>2010-07-24T13:47:22Z</time>
      </trkpt>
      <trkpt lat="45.08174" lon="4.58711">
        <ele>539.84497070312</ele>
        <time>2010-07-24T13:47:29Z</time>
      </trkpt>
      <trkpt lat="45.08178" lon="4.58671">
        <ele>541.60900878906</ele>
        <time>2010-07-24T13:47:36Z</time>
      </trkpt>
      <trkpt lat="45.08179" lon="4.58666">
        <ele>541.77899169922</ele>
        <time>2010-07-24T13:47:37Z</time>
      </trkpt>
      <trkpt lat="45.08189" lon="4.58625">
        <ele>542.54302978516</ele>
        <time>2010-07-24T13:47:44Z</time>
      </trkpt>
      <trkpt lat="45.0819" lon="4.58618">
        <ele>542.52502441406</ele>
        <time>2010-07-24T13:47:45Z</time>
      </trkpt>
      <trkpt lat="45.08191" lon="4.5858">
        <ele>542.02600097656</ele>
        <time>2010-07-24T13:47:50Z</time>
      </trkpt>
      <trkpt lat="45.08186" lon="4.58558">
        <ele>542.10998535156</ele>
        <time>2010-07-24T13:47:53Z</time>
      </trkpt>
      <trkpt lat="45.08186" lon="4.58536">
        <ele>542.58001708984</ele>
        <time>2010-07-24T13:47:56Z</time>
      </trkpt>
      <trkpt lat="45.08195" lon="4.58504">
        <ele>543.52301025391</ele>
        <time>2010-07-24T13:48:01Z</time>
      </trkpt>
      <trkpt lat="45.08212" lon="4.58493">
        <ele>544.36798095703</ele>
        <time>2010-07-24T13:48:05Z</time>
      </trkpt>
      <trkpt lat="45.08215" lon="4.58491">
        <ele>544.55798339844</ele>
        <time>2010-07-24T13:48:06Z</time>
      </trkpt>
      <trkpt lat="45.0824" lon="4.58486">
        <ele>545.98498535156</ele>
        <time>2010-07-24T13:48:12Z</time>
      </trkpt>
      <trkpt lat="45.08252" lon="4.58482">
        <ele>546.54400634766</ele>
        <time>2010-07-24T13:48:15Z</time>
      </trkpt>
      <trkpt lat="45.08274" lon="4.58476">
        <ele>546.97302246094</ele>
        <time>2010-07-24T13:48:20Z</time>
      </trkpt>
      <trkpt lat="45.08303" lon="4.58464">
        <ele>547.76098632812</ele>
        <time>2010-07-24T13:48:26Z</time>
      </trkpt>
      <trkpt lat="45.08328" lon="4.58454">
        <ele>548.53100585938</ele>
        <time>2010-07-24T13:48:31Z</time>
      </trkpt>
      <trkpt lat="45.08362" lon="4.58447">
        <ele>549.32299804688</ele>
        <time>2010-07-24T13:48:38Z</time>
      </trkpt>
      <trkpt lat="45.08392" lon="4.58437">
        <ele>549.61401367188</ele>
        <time>2010-07-24T13:48:44Z</time>
      </trkpt>
      <trkpt lat="45.08424" lon="4.58413">
        <ele>551.08197021484</ele>
        <time>2010-07-24T13:48:52Z</time>
      </trkpt>
      <trkpt lat="45.08451" lon="4.58393">
        <ele>552.09698486328</ele>
        <time>2010-07-24T13:48:59Z</time>
      </trkpt>
      <trkpt lat="45.08474" lon="4.58366">
        <ele>553.36499023438</ele>
        <time>2010-07-24T13:49:06Z</time>
      </trkpt>
      <trkpt lat="45.0849" lon="4.5833">
        <ele>554.50402832031</ele>
        <time>2010-07-24T13:49:13Z</time>
      </trkpt>
      <trkpt lat="45.08503" lon="4.58298">
        <ele>555.77502441406</ele>
        <time>2010-07-24T13:49:20Z</time>
      </trkpt>
      <trkpt lat="45.08515" lon="4.58258">
        <ele>556.88098144531</ele>
        <time>2010-07-24T13:49:28Z</time>
      </trkpt>
      <trkpt lat="45.08511" lon="4.58231">
        <ele>558.33898925781</ele>
        <time>2010-07-24T13:49:33Z</time>
      </trkpt>
      <trkpt lat="45.08501" lon="4.58223">
        <ele>558.90399169922</ele>
        <time>2010-07-24T13:49:36Z</time>
      </trkpt>
      <trkpt lat="45.08487" lon="4.58229">
        <ele>559.55297851562</ele>
        <time>2010-07-24T13:49:40Z</time>
      </trkpt>
      <trkpt lat="45.08473" lon="4.58246">
        <ele>560.68103027344</ele>
        <time>2010-07-24T13:49:45Z</time>
      </trkpt>
      <trkpt lat="45.08452" lon="4.58259">
        <ele>562.03997802734</ele>
        <time>2010-07-24T13:49:51Z</time>
      </trkpt>
      <trkpt lat="45.08429" lon="4.58256">
        <ele>563.40997314453</ele>
        <time>2010-07-24T13:49:57Z</time>
      </trkpt>
      <trkpt lat="45.08403" lon="4.58244">
        <ele>564.56500244141</ele>
        <time>2010-07-24T13:50:05Z</time>
      </trkpt>
      <trkpt lat="45.08373" lon="4.58227">
        <ele>566.13098144531</ele>
        <time>2010-07-24T13:50:14Z</time>
      </trkpt>
      <trkpt lat="45.08339" lon="4.58206">
        <ele>567.98297119141</ele>
        <time>2010-07-24T13:50:24Z</time>
      </trkpt>
      <trkpt lat="45.08318" lon="4.58187">
        <ele>568.85198974609</ele>
        <time>2010-07-24T13:50:30Z</time>
      </trkpt>
      <trkpt lat="45.08315" lon="4.58183">
        <ele>568.8740234375</ele>
        <time>2010-07-24T13:50:31Z</time>
      </trkpt>
      <trkpt lat="45.08305" lon="4.58161">
        <ele>569.083984375</ele>
        <time>2010-07-24T13:50:35Z</time>
      </trkpt>
      <trkpt lat="45.08291" lon="4.58104">
        <ele>571.25799560547</ele>
        <time>2010-07-24T13:50:45Z</time>
      </trkpt>
      <trkpt lat="45.08281" lon="4.58059">
        <ele>573.583984375</ele>
        <time>2010-07-24T13:50:53Z</time>
      </trkpt>
      <trkpt lat="45.0827" lon="4.58013">
        <ele>575.42102050781</ele>
        <time>2010-07-24T13:51:02Z</time>
      </trkpt>
      <trkpt lat="45.08262" lon="4.57972">
        <ele>576.94000244141</ele>
        <time>2010-07-24T13:51:10Z</time>
      </trkpt>
      <trkpt lat="45.08254" lon="4.57926">
        <ele>577.93902587891</ele>
        <time>2010-07-24T13:51:19Z</time>
      </trkpt>
      <trkpt lat="45.08248" lon="4.57899">
        <ele>579.51702880859</ele>
        <time>2010-07-24T13:51:25Z</time>
      </trkpt>
      <trkpt lat="45.08236" lon="4.57869">
        <ele>581.29400634766</ele>
        <time>2010-07-24T13:51:32Z</time>
      </trkpt>
      <trkpt lat="45.0822" lon="4.57842">
        <ele>582.77899169922</ele>
        <time>2010-07-24T13:51:39Z</time>
      </trkpt>
      <trkpt lat="45.08199" lon="4.57807">
        <ele>584.8759765625</ele>
        <time>2010-07-24T13:51:48Z</time>
      </trkpt>
      <trkpt lat="45.08176" lon="4.57767">
        <ele>587.14697265625</ele>
        <time>2010-07-24T13:51:58Z</time>
      </trkpt>
      <trkpt lat="45.0816" lon="4.57739">
        <ele>588.49298095703</ele>
        <time>2010-07-24T13:52:05Z</time>
      </trkpt>
      <trkpt lat="45.08144" lon="4.57697">
        <ele>590.75701904297</ele>
        <time>2010-07-24T13:52:15Z</time>
      </trkpt>
      <trkpt lat="45.08132" lon="4.57662">
        <ele>592.52502441406</ele>
        <time>2010-07-24T13:52:23Z</time>
      </trkpt>
      <trkpt lat="45.08119" lon="4.57626">
        <ele>593.74298095703</ele>
        <time>2010-07-24T13:52:31Z</time>
      </trkpt>
      <trkpt lat="45.08106" lon="4.57587">
        <ele>594.87298583984</ele>
        <time>2010-07-24T13:52:39Z</time>
      </trkpt>
      <trkpt lat="45.08101" lon="4.5755">
        <ele>596.61901855469</ele>
        <time>2010-07-24T13:52:46Z</time>
      </trkpt>
      <trkpt lat="45.08099" lon="4.57515">
        <ele>597.97802734375</ele>
        <time>2010-07-24T13:52:53Z</time>
      </trkpt>
      <trkpt lat="45.08099" lon="4.57485">
        <ele>599.38500976562</ele>
        <time>2010-07-24T13:52:59Z</time>
      </trkpt>
      <trkpt lat="45.08099" lon="4.57446">
        <ele>601.14801025391</ele>
        <time>2010-07-24T13:53:07Z</time>
      </trkpt>
      <trkpt lat="45.08107" lon="4.57414">
        <ele>602.43701171875</ele>
        <time>2010-07-24T13:53:14Z</time>
      </trkpt>
      <trkpt lat="45.08122" lon="4.57375">
        <ele>604.16900634766</ele>
        <time>2010-07-24T13:53:23Z</time>
      </trkpt>
      <trkpt lat="45.08139" lon="4.57331">
        <ele>605.65502929688</ele>
        <time>2010-07-24T13:53:33Z</time>
      </trkpt>
      <trkpt lat="45.08153" lon="4.57308">
        <ele>607.11999511719</ele>
        <time>2010-07-24T13:53:39Z</time>
      </trkpt>
      <trkpt lat="45.08167" lon="4.57302">
        <ele>607.625</ele>
        <time>2010-07-24T13:53:43Z</time>
      </trkpt>
      <trkpt lat="45.08175" lon="4.57304">
        <ele>607.92297363281</ele>
        <time>2010-07-24T13:53:45Z</time>
      </trkpt>
      <trkpt lat="45.08193" lon="4.57314">
        <ele>609.81799316406</ele>
        <time>2010-07-24T13:53:49Z</time>
      </trkpt>
      <trkpt lat="45.0821" lon="4.57317">
        <ele>610.98101806641</ele>
        <time>2010-07-24T13:53:53Z</time>
      </trkpt>
      <trkpt lat="45.08242" lon="4.57322">
        <ele>612.69299316406</ele>
        <time>2010-07-24T13:54:01Z</time>
      </trkpt>
      <trkpt lat="45.08264" lon="4.57318">
        <ele>613.54699707031</ele>
        <time>2010-07-24T13:54:07Z</time>
      </trkpt>
      <trkpt lat="45.08284" lon="4.57312">
        <ele>614.40997314453</ele>
        <time>2010-07-24T13:54:13Z</time>
      </trkpt>
      <trkpt lat="45.08299" lon="4.57302">
        <ele>615.75</ele>
        <time>2010-07-24T13:54:18Z</time>
      </trkpt>
      <trkpt lat="45.08317" lon="4.57286">
        <ele>617.33502197266</ele>
        <time>2010-07-24T13:54:24Z</time>
      </trkpt>
      <trkpt lat="45.08326" lon="4.5727">
        <ele>617.92401123047</ele>
        <time>2010-07-24T13:54:28Z</time>
      </trkpt>
      <trkpt lat="45.08324" lon="4.57251">
        <ele>619.11297607422</ele>
        <time>2010-07-24T13:54:32Z</time>
      </trkpt>
      <trkpt lat="45.08308" lon="4.57239">
        <ele>619.61999511719</ele>
        <time>2010-07-24T13:54:37Z</time>
      </trkpt>
      <trkpt lat="45.08295" lon="4.5724">
        <ele>620.31298828125</ele>
        <time>2010-07-24T13:54:41Z</time>
      </trkpt>
      <trkpt lat="45.08278" lon="4.57242">
        <ele>621.53698730469</ele>
        <time>2010-07-24T13:54:47Z</time>
      </trkpt>
      <trkpt lat="45.08263" lon="4.57234">
        <ele>622.12200927734</ele>
        <time>2010-07-24T13:54:52Z</time>
      </trkpt>
      <trkpt lat="45.08243" lon="4.57216">
        <ele>623.65600585938</ele>
        <time>2010-07-24T13:54:59Z</time>
      </trkpt>
      <trkpt lat="45.08225" lon="4.57197">
        <ele>625.14501953125</ele>
        <time>2010-07-24T13:55:06Z</time>
      </trkpt>
      <trkpt lat="45.08206" lon="4.57179">
        <ele>625.95599365234</ele>
        <time>2010-07-24T13:55:13Z</time>
      </trkpt>
      <trkpt lat="45.08186" lon="4.57162">
        <ele>627.45697021484</ele>
        <time>2010-07-24T13:55:20Z</time>
      </trkpt>
      <trkpt lat="45.08167" lon="4.57154">
        <ele>628.50598144531</ele>
        <time>2010-07-24T13:55:26Z</time>
      </trkpt>
      <trkpt lat="45.08141" lon="4.57154">
        <ele>629.62298583984</ele>
        <time>2010-07-24T13:55:33Z</time>
      </trkpt>
      <trkpt lat="45.08122" lon="4.57156">
        <ele>630.69799804688</ele>
        <time>2010-07-24T13:55:38Z</time>
      </trkpt>
      <trkpt lat="45.08101" lon="4.57159">
        <ele>632.2509765625</ele>
        <time>2010-07-24T13:55:44Z</time>
      </trkpt>
      <trkpt lat="45.08066" lon="4.57173">
        <ele>634.43902587891</ele>
        <time>2010-07-24T13:55:54Z</time>
      </trkpt>
      <trkpt lat="45.08042" lon="4.57177">
        <ele>635.96697998047</ele>
        <time>2010-07-24T13:56:00Z</time>
      </trkpt>
      <trkpt lat="45.08019" lon="4.57166">
        <ele>637.26702880859</ele>
        <time>2010-07-24T13:56:06Z</time>
      </trkpt>
      <trkpt lat="45.07994" lon="4.57139">
        <ele>638.98101806641</ele>
        <time>2010-07-24T13:56:14Z</time>
      </trkpt>
      <trkpt lat="45.07978" lon="4.57103">
        <ele>640.66198730469</ele>
        <time>2010-07-24T13:56:22Z</time>
      </trkpt>
      <trkpt lat="45.0797" lon="4.57074">
        <ele>642.26397705078</ele>
        <time>2010-07-24T13:56:28Z</time>
      </trkpt>
      <trkpt lat="45.07966" lon="4.5704">
        <ele>643.46502685547</ele>
        <time>2010-07-24T13:56:35Z</time>
      </trkpt>
      <trkpt lat="45.07969" lon="4.56997">
        <ele>645.21697998047</ele>
        <time>2010-07-24T13:56:43Z</time>
      </trkpt>
      <trkpt lat="45.07976" lon="4.56955">
        <ele>646.79498291016</ele>
        <time>2010-07-24T13:56:51Z</time>
      </trkpt>
      <trkpt lat="45.07984" lon="4.56922">
        <ele>647.38897705078</ele>
        <time>2010-07-24T13:56:57Z</time>
      </trkpt>
      <trkpt lat="45.07989" lon="4.56899">
        <ele>648.20202636719</ele>
        <time>2010-07-24T13:57:00Z</time>
      </trkpt>
      <trkpt lat="45.07989" lon="4.56871">
        <ele>650.45300292969</ele>
        <time>2010-07-24T13:57:05Z</time>
      </trkpt>
      <trkpt lat="45.07978" lon="4.56861">
        <ele>651.87200927734</ele>
        <time>2010-07-24T13:57:09Z</time>
      </trkpt>
      <trkpt lat="45.07952" lon="4.56854">
        <ele>653.57501220703</ele>
        <time>2010-07-24T13:57:17Z</time>
      </trkpt>
      <trkpt lat="45.07927" lon="4.56844">
        <ele>655.49798583984</ele>
        <time>2010-07-24T13:57:25Z</time>
      </trkpt>
      <trkpt lat="45.07899" lon="4.56836">
        <ele>657.00201416016</ele>
        <time>2010-07-24T13:57:33Z</time>
      </trkpt>
      <trkpt lat="45.0788" lon="4.56838">
        <ele>658.01000976562</ele>
        <time>2010-07-24T13:57:38Z</time>
      </trkpt>
      <trkpt lat="45.0786" lon="4.56853">
        <ele>659.47802734375</ele>
        <time>2010-07-24T13:57:44Z</time>
      </trkpt>
      <trkpt lat="45.07839" lon="4.56878">
        <ele>661.31597900391</ele>
        <time>2010-07-24T13:57:51Z</time>
      </trkpt>
      <trkpt lat="45.07807" lon="4.56899">
        <ele>663.80798339844</ele>
        <time>2010-07-24T13:57:59Z</time>
      </trkpt>
      <trkpt lat="45.07769" lon="4.56898">
        <ele>667.21197509766</ele>
        <time>2010-07-24T13:58:08Z</time>
      </trkpt>
      <trkpt lat="45.07748" lon="4.56884">
        <ele>668.52697753906</ele>
        <time>2010-07-24T13:58:14Z</time>
      </trkpt>
      <trkpt lat="45.07728" lon="4.56859">
        <ele>670.02398681641</ele>
        <time>2010-07-24T13:58:21Z</time>
      </trkpt>
      <trkpt lat="45.07718" lon="4.56842">
        <ele>670.88201904297</ele>
        <time>2010-07-24T13:58:25Z</time>
      </trkpt>
      <trkpt lat="45.07696" lon="4.56797">
        <ele>672.55401611328</ele>
        <time>2010-07-24T13:58:34Z</time>
      </trkpt>
      <trkpt lat="45.07686" lon="4.56752">
        <ele>674.03601074219</ele>
        <time>2010-07-24T13:58:42Z</time>
      </trkpt>
      <trkpt lat="45.07683" lon="4.56704">
        <ele>676.14001464844</ele>
        <time>2010-07-24T13:58:51Z</time>
      </trkpt>
      <trkpt lat="45.07684" lon="4.56661">
        <ele>679.21899414062</ele>
        <time>2010-07-24T13:58:59Z</time>
      </trkpt>
      <trkpt lat="45.07689" lon="4.56625">
        <ele>680.90899658203</ele>
        <time>2010-07-24T13:59:06Z</time>
      </trkpt>
      <trkpt lat="45.07699" lon="4.56595">
        <ele>681.69299316406</ele>
        <time>2010-07-24T13:59:12Z</time>
      </trkpt>
      <trkpt lat="45.07719" lon="4.56579">
        <ele>683.71502685547</ele>
        <time>2010-07-24T13:59:18Z</time>
      </trkpt>
      <trkpt lat="45.07752" lon="4.56571">
        <ele>685.81298828125</ele>
        <time>2010-07-24T13:59:26Z</time>
      </trkpt>
      <trkpt lat="45.07784" lon="4.56564">
        <ele>687.42102050781</ele>
        <time>2010-07-24T13:59:34Z</time>
      </trkpt>
      <trkpt lat="45.07814" lon="4.56555">
        <ele>687.88897705078</ele>
        <time>2010-07-24T13:59:42Z</time>
      </trkpt>
      <trkpt lat="45.07827" lon="4.56553">
        <ele>690.26501464844</ele>
        <time>2010-07-24T13:59:47Z</time>
      </trkpt>
      <trkpt lat="45.07841" lon="4.56555">
        <ele>691.81298828125</ele>
        <time>2010-07-24T13:59:53Z</time>
      </trkpt>
      <trkpt lat="45.0785" lon="4.56564">
        <ele>693.71697998047</ele>
        <time>2010-07-24T13:59:58Z</time>
      </trkpt>
      <trkpt lat="45.07852" lon="4.56565">
        <ele>693.95098876953</ele>
        <time>2010-07-24T13:59:59Z</time>
      </trkpt>
      <trkpt lat="45.07862" lon="4.56561">
        <ele>693.89599609375</ele>
        <time>2010-07-24T14:00:04Z</time>
      </trkpt>
      <trkpt lat="45.07874" lon="4.56536">
        <ele>696.53497314453</ele>
        <time>2010-07-24T14:00:11Z</time>
      </trkpt>
      <trkpt lat="45.0788" lon="4.56523">
        <ele>698.09600830078</ele>
        <time>2010-07-24T14:00:16Z</time>
      </trkpt>
      <trkpt lat="45.07884" lon="4.56511">
        <ele>698.90002441406</ele>
        <time>2010-07-24T14:00:20Z</time>
      </trkpt>
      <trkpt lat="45.07889" lon="4.5651">
        <ele>699.88702392578</ele>
        <time>2010-07-24T14:00:24Z</time>
      </trkpt>
      <trkpt lat="45.07887" lon="4.56516">
        <ele>700.11798095703</ele>
        <time>2010-07-24T14:00:29Z</time>
      </trkpt>
      <trkpt lat="45.07885" lon="4.56523">
        <ele>698.46997070312</ele>
        <time>2010-07-24T14:00:57Z</time>
      </trkpt>
      <trkpt lat="45.07882" lon="4.5653">
        <ele>697.92401123047</ele>
        <time>2010-07-24T14:01:01Z</time>
      </trkpt>
      <trkpt lat="45.0787" lon="4.56542">
        <ele>696.50402832031</ele>
        <time>2010-07-24T14:01:06Z</time>
      </trkpt>
      <trkpt lat="45.07868" lon="4.56537">
        <ele>695.75701904297</ele>
        <time>2010-07-24T14:01:08Z</time>
      </trkpt>
      <trkpt lat="45.07869" lon="4.56533">
        <ele>695.59002685547</ele>
        <time>2010-07-24T14:01:09Z</time>
      </trkpt>
      <trkpt lat="45.0788" lon="4.56499">
        <ele>695.78302001953</ele>
        <time>2010-07-24T14:01:17Z</time>
      </trkpt>
      <trkpt lat="45.07893" lon="4.56458">
        <ele>697.41198730469</ele>
        <time>2010-07-24T14:01:26Z</time>
      </trkpt>
      <trkpt lat="45.07901" lon="4.56418">
        <ele>699.31597900391</ele>
        <time>2010-07-24T14:01:34Z</time>
      </trkpt>
      <trkpt lat="45.07906" lon="4.56379">
        <ele>700.65600585938</ele>
        <time>2010-07-24T14:01:41Z</time>
      </trkpt>
      <trkpt lat="45.079" lon="4.56343">
        <ele>701.26501464844</ele>
        <time>2010-07-24T14:01:47Z</time>
      </trkpt>
      <trkpt lat="45.07886" lon="4.56295">
        <ele>702.23498535156</ele>
        <time>2010-07-24T14:01:55Z</time>
      </trkpt>
      <trkpt lat="45.07883" lon="4.56283">
        <ele>702.47802734375</ele>
        <time>2010-07-24T14:01:57Z</time>
      </trkpt>
      <trkpt lat="45.07867" lon="4.56234">
        <ele>703.76300048828</ele>
        <time>2010-07-24T14:02:05Z</time>
      </trkpt>
      <trkpt lat="45.07854" lon="4.56182">
        <ele>705.08898925781</ele>
        <time>2010-07-24T14:02:13Z</time>
      </trkpt>
      <trkpt lat="45.07848" lon="4.56139">
        <ele>706.63098144531</ele>
        <time>2010-07-24T14:02:20Z</time>
      </trkpt>
      <trkpt lat="45.07848" lon="4.56133">
        <ele>706.69500732422</ele>
        <time>2010-07-24T14:02:21Z</time>
      </trkpt>
      <trkpt lat="45.07848" lon="4.561">
        <ele>707.27600097656</ele>
        <time>2010-07-24T14:02:26Z</time>
      </trkpt>
      <trkpt lat="45.07851" lon="4.56075">
        <ele>708.89697265625</ele>
        <time>2010-07-24T14:02:30Z</time>
      </trkpt>
      <trkpt lat="45.07858" lon="4.56026">
        <ele>709.90399169922</ele>
        <time>2010-07-24T14:02:38Z</time>
      </trkpt>
      <trkpt lat="45.0786" lon="4.56014">
        <ele>710.43402099609</ele>
        <time>2010-07-24T14:02:40Z</time>
      </trkpt>
      <trkpt lat="45.07854" lon="4.55992">
        <ele>710.77600097656</ele>
        <time>2010-07-24T14:02:44Z</time>
      </trkpt>
      <trkpt lat="45.07842" lon="4.55986">
        <ele>710.49298095703</ele>
        <time>2010-07-24T14:02:47Z</time>
      </trkpt>
      <trkpt lat="45.07832" lon="4.55987">
        <ele>711.15002441406</ele>
        <time>2010-07-24T14:02:49Z</time>
      </trkpt>
      <trkpt lat="45.07787" lon="4.55985">
        <ele>712.66198730469</ele>
        <time>2010-07-24T14:02:58Z</time>
      </trkpt>
      <trkpt lat="45.07747" lon="4.55974">
        <ele>714.56597900391</ele>
        <time>2010-07-24T14:03:06Z</time>
      </trkpt>
      <trkpt lat="45.07729" lon="4.55963">
        <ele>715.79797363281</ele>
        <time>2010-07-24T14:03:10Z</time>
      </trkpt>
      <trkpt lat="45.07716" lon="4.55951">
        <ele>717.34997558594</ele>
        <time>2010-07-24T14:03:13Z</time>
      </trkpt>
      <trkpt lat="45.07698" lon="4.55917">
        <ele>718.33001708984</ele>
        <time>2010-07-24T14:03:19Z</time>
      </trkpt>
      <trkpt lat="45.07678" lon="4.55862">
        <ele>719.43701171875</ele>
        <time>2010-07-24T14:03:27Z</time>
      </trkpt>
      <trkpt lat="45.07669" lon="4.55834">
        <ele>720.52301025391</ele>
        <time>2010-07-24T14:03:31Z</time>
      </trkpt>
      <trkpt lat="45.07669" lon="4.55794">
        <ele>721.50701904297</ele>
        <time>2010-07-24T14:03:36Z</time>
      </trkpt>
      <trkpt lat="45.07682" lon="4.55769">
        <ele>722.30700683594</ele>
        <time>2010-07-24T14:03:40Z</time>
      </trkpt>
      <trkpt lat="45.07686" lon="4.55764">
        <ele>722.7509765625</ele>
        <time>2010-07-24T14:03:41Z</time>
      </trkpt>
      <trkpt lat="45.07722" lon="4.55717">
        <ele>725.18200683594</ele>
        <time>2010-07-24T14:03:51Z</time>
      </trkpt>
      <trkpt lat="45.07748" lon="4.55688">
        <ele>726.77398681641</ele>
        <time>2010-07-24T14:03:58Z</time>
      </trkpt>
      <trkpt lat="45.07787" lon="4.5565">
        <ele>728.38299560547</ele>
        <time>2010-07-24T14:04:08Z</time>
      </trkpt>
      <trkpt lat="45.07811" lon="4.55632">
        <ele>729.99700927734</ele>
        <time>2010-07-24T14:04:14Z</time>
      </trkpt>
      <trkpt lat="45.07829" lon="4.55615">
        <ele>731.30999755859</ele>
        <time>2010-07-24T14:04:19Z</time>
      </trkpt>
      <trkpt lat="45.07829" lon="4.55597">
        <ele>731.38800048828</ele>
        <time>2010-07-24T14:04:22Z</time>
      </trkpt>
      <trkpt lat="45.07817" lon="4.55586">
        <ele>731.46801757812</ele>
        <time>2010-07-24T14:04:25Z</time>
      </trkpt>
      <trkpt lat="45.07811" lon="4.55586">
        <ele>731.68200683594</ele>
        <time>2010-07-24T14:04:26Z</time>
      </trkpt>
      <trkpt lat="45.07767" lon="4.5558">
        <ele>732.90802001953</ele>
        <time>2010-07-24T14:04:34Z</time>
      </trkpt>
      <trkpt lat="45.07723" lon="4.55571">
        <ele>734.83898925781</ele>
        <time>2010-07-24T14:04:42Z</time>
      </trkpt>
      <trkpt lat="45.0768" lon="4.55562">
        <ele>737.22399902344</ele>
        <time>2010-07-24T14:04:50Z</time>
      </trkpt>
      <trkpt lat="45.07643" lon="4.55545">
        <ele>738.64300537109</ele>
        <time>2010-07-24T14:04:57Z</time>
      </trkpt>
      <trkpt lat="45.07633" lon="4.55537">
        <ele>739.21801757812</ele>
        <time>2010-07-24T14:04:59Z</time>
      </trkpt>
      <trkpt lat="45.07617" lon="4.55515">
        <ele>740.2080078125</ele>
        <time>2010-07-24T14:05:03Z</time>
      </trkpt>
      <trkpt lat="45.07595" lon="4.55462">
        <ele>741.32299804688</ele>
        <time>2010-07-24T14:05:11Z</time>
      </trkpt>
      <trkpt lat="45.07591" lon="4.5544">
        <ele>742.29901123047</ele>
        <time>2010-07-24T14:05:14Z</time>
      </trkpt>
      <trkpt lat="45.07589" lon="4.55417">
        <ele>743.02697753906</ele>
        <time>2010-07-24T14:05:17Z</time>
      </trkpt>
      <trkpt lat="45.07592" lon="4.55386">
        <ele>743.46801757812</ele>
        <time>2010-07-24T14:05:21Z</time>
      </trkpt>
      <trkpt lat="45.07607" lon="4.55329">
        <ele>744.85198974609</ele>
        <time>2010-07-24T14:05:29Z</time>
      </trkpt>
      <trkpt lat="45.0761" lon="4.55257">
        <ele>745.60198974609</ele>
        <time>2010-07-24T14:05:38Z</time>
      </trkpt>
      <trkpt lat="45.07618" lon="4.552">
        <ele>746.38098144531</ele>
        <time>2010-07-24T14:05:45Z</time>
      </trkpt>
      <trkpt lat="45.07621" lon="4.55176">
        <ele>747.19897460938</ele>
        <time>2010-07-24T14:05:48Z</time>
      </trkpt>
      <trkpt lat="45.07632" lon="4.55139">
        <ele>748.93499755859</ele>
        <time>2010-07-24T14:05:53Z</time>
      </trkpt>
      <trkpt lat="45.07663" lon="4.55087">
        <ele>750.72998046875</ele>
        <time>2010-07-24T14:06:02Z</time>
      </trkpt>
      <trkpt lat="45.07695" lon="4.55033">
        <ele>752.80200195312</ele>
        <time>2010-07-24T14:06:12Z</time>
      </trkpt>
      <trkpt lat="45.07721" lon="4.5499">
        <ele>754.19201660156</ele>
        <time>2010-07-24T14:06:20Z</time>
      </trkpt>
      <trkpt lat="45.07746" lon="4.54946">
        <ele>756.09600830078</ele>
        <time>2010-07-24T14:06:28Z</time>
      </trkpt>
      <trkpt lat="45.07757" lon="4.54933">
        <ele>756.83197021484</ele>
        <time>2010-07-24T14:06:31Z</time>
      </trkpt>
      <trkpt lat="45.07773" lon="4.54918">
        <ele>758.28198242188</ele>
        <time>2010-07-24T14:06:35Z</time>
      </trkpt>
      <trkpt lat="45.07815" lon="4.54881">
        <ele>760.91101074219</ele>
        <time>2010-07-24T14:06:45Z</time>
      </trkpt>
      <trkpt lat="45.07822" lon="4.54874">
        <ele>761.24700927734</ele>
        <time>2010-07-24T14:06:47Z</time>
      </trkpt>
      <trkpt lat="45.07836" lon="4.54857">
        <ele>761.92999267578</ele>
        <time>2010-07-24T14:06:51Z</time>
      </trkpt>
      <trkpt lat="45.0784" lon="4.54833">
        <ele>762.45001220703</ele>
        <time>2010-07-24T14:06:55Z</time>
      </trkpt>
      <trkpt lat="45.07829" lon="4.54822">
        <ele>762.94702148438</ele>
        <time>2010-07-24T14:06:58Z</time>
      </trkpt>
      <trkpt lat="45.07821" lon="4.54822">
        <ele>763.38598632812</ele>
        <time>2010-07-24T14:07:00Z</time>
      </trkpt>
      <trkpt lat="45.07797" lon="4.54824">
        <ele>764.27600097656</ele>
        <time>2010-07-24T14:07:05Z</time>
      </trkpt>
      <trkpt lat="45.07756" lon="4.54816">
        <ele>765.64501953125</ele>
        <time>2010-07-24T14:07:13Z</time>
      </trkpt>
      <trkpt lat="45.07733" lon="4.54817">
        <ele>766.59802246094</ele>
        <time>2010-07-24T14:07:18Z</time>
      </trkpt>
      <trkpt lat="45.07719" lon="4.54819">
        <ele>767.34002685547</ele>
        <time>2010-07-24T14:07:21Z</time>
      </trkpt>
      <trkpt lat="45.07682" lon="4.54834">
        <ele>768.791015625</ele>
        <time>2010-07-24T14:07:29Z</time>
      </trkpt>
      <trkpt lat="45.07678" lon="4.54837">
        <ele>768.96301269531</ele>
        <time>2010-07-24T14:07:30Z</time>
      </trkpt>
      <trkpt lat="45.07644" lon="4.54864">
        <ele>770.21398925781</ele>
        <time>2010-07-24T14:07:38Z</time>
      </trkpt>
      <trkpt lat="45.07603" lon="4.54891">
        <ele>771.27099609375</ele>
        <time>2010-07-24T14:07:47Z</time>
      </trkpt>
      <trkpt lat="45.07591" lon="4.54899">
        <ele>772.18597412109</ele>
        <time>2010-07-24T14:07:50Z</time>
      </trkpt>
      <trkpt lat="45.07565" lon="4.54911">
        <ele>773.19897460938</ele>
        <time>2010-07-24T14:07:56Z</time>
      </trkpt>
      <trkpt lat="45.07542" lon="4.54899">
        <ele>773.66802978516</ele>
        <time>2010-07-24T14:08:01Z</time>
      </trkpt>
      <trkpt lat="45.07539" lon="4.54894">
        <ele>773.90698242188</ele>
        <time>2010-07-24T14:08:02Z</time>
      </trkpt>
      <trkpt lat="45.07517" lon="4.54842">
        <ele>775.61297607422</ele>
        <time>2010-07-24T14:08:11Z</time>
      </trkpt>
      <trkpt lat="45.07508" lon="4.54818">
        <ele>775.88098144531</ele>
        <time>2010-07-24T14:08:15Z</time>
      </trkpt>
      <trkpt lat="45.07504" lon="4.54792">
        <ele>776.78399658203</ele>
        <time>2010-07-24T14:08:19Z</time>
      </trkpt>
      <trkpt lat="45.07503" lon="4.54719">
        <ele>779.22601318359</ele>
        <time>2010-07-24T14:08:29Z</time>
      </trkpt>
      <trkpt lat="45.07504" lon="4.54697">
        <ele>779.60797119141</ele>
        <time>2010-07-24T14:08:32Z</time>
      </trkpt>
      <trkpt lat="45.07515" lon="4.54646">
        <ele>781.14501953125</ele>
        <time>2010-07-24T14:08:39Z</time>
      </trkpt>
      <trkpt lat="45.07534" lon="4.546">
        <ele>782.19799804688</ele>
        <time>2010-07-24T14:08:46Z</time>
      </trkpt>
      <trkpt lat="45.07561" lon="4.54556">
        <ele>783.27301025391</ele>
        <time>2010-07-24T14:08:54Z</time>
      </trkpt>
      <trkpt lat="45.07577" lon="4.54527">
        <ele>785.00299072266</ele>
        <time>2010-07-24T14:08:59Z</time>
      </trkpt>
      <trkpt lat="45.07597" lon="4.54487">
        <ele>786.99200439453</ele>
        <time>2010-07-24T14:09:06Z</time>
      </trkpt>
      <trkpt lat="45.07597" lon="4.54457">
        <ele>788.66900634766</ele>
        <time>2010-07-24T14:09:11Z</time>
      </trkpt>
      <trkpt lat="45.07585" lon="4.54449">
        <ele>788.30798339844</ele>
        <time>2010-07-24T14:09:14Z</time>
      </trkpt>
      <trkpt lat="45.07576" lon="4.54451">
        <ele>788.29699707031</ele>
        <time>2010-07-24T14:09:16Z</time>
      </trkpt>
      <trkpt lat="45.07558" lon="4.54459">
        <ele>789.05999755859</ele>
        <time>2010-07-24T14:09:20Z</time>
      </trkpt>
      <trkpt lat="45.07524" lon="4.54465">
        <ele>790.45202636719</ele>
        <time>2010-07-24T14:09:27Z</time>
      </trkpt>
      <trkpt lat="45.07481" lon="4.5447">
        <ele>792.23199462891</ele>
        <time>2010-07-24T14:09:36Z</time>
      </trkpt>
      <trkpt lat="45.07457" lon="4.54463">
        <ele>793.01202392578</ele>
        <time>2010-07-24T14:09:41Z</time>
      </trkpt>
      <trkpt lat="45.07445" lon="4.54439">
        <ele>793.31500244141</ele>
        <time>2010-07-24T14:09:45Z</time>
      </trkpt>
      <trkpt lat="45.07443" lon="4.54432">
        <ele>793.4990234375</ele>
        <time>2010-07-24T14:09:46Z</time>
      </trkpt>
      <trkpt lat="45.07441" lon="4.54416">
        <ele>793.92498779297</ele>
        <time>2010-07-24T14:09:48Z</time>
      </trkpt>
      <trkpt lat="45.07441" lon="4.54339">
        <ele>796.6259765625</ele>
        <time>2010-07-24T14:09:58Z</time>
      </trkpt>
      <trkpt lat="45.07432" lon="4.54274">
        <ele>798.26702880859</ele>
        <time>2010-07-24T14:10:07Z</time>
      </trkpt>
      <trkpt lat="45.07424" lon="4.54228">
        <ele>799.91998291016</ele>
        <time>2010-07-24T14:10:14Z</time>
      </trkpt>
      <trkpt lat="45.07423" lon="4.54216">
        <ele>800.55102539062</ele>
        <time>2010-07-24T14:10:16Z</time>
      </trkpt>
      <trkpt lat="45.0741" lon="4.54194">
        <ele>801.19598388672</ele>
        <time>2010-07-24T14:10:21Z</time>
      </trkpt>
      <trkpt lat="45.07397" lon="4.54198">
        <ele>801</ele>
        <time>2010-07-24T14:10:24Z</time>
      </trkpt>
      <trkpt lat="45.07389" lon="4.54211">
        <ele>801.708984375</ele>
        <time>2010-07-24T14:10:27Z</time>
      </trkpt>
      <trkpt lat="45.07381" lon="4.54239">
        <ele>802.20001220703</ele>
        <time>2010-07-24T14:10:32Z</time>
      </trkpt>
      <trkpt lat="45.07363" lon="4.5429">
        <ele>804.04602050781</ele>
        <time>2010-07-24T14:10:41Z</time>
      </trkpt>
      <trkpt lat="45.07344" lon="4.54326">
        <ele>805.35198974609</ele>
        <time>2010-07-24T14:10:48Z</time>
      </trkpt>
      <trkpt lat="45.07328" lon="4.54339">
        <ele>805.76000976562</ele>
        <time>2010-07-24T14:10:52Z</time>
      </trkpt>
      <trkpt lat="45.07288" lon="4.54353">
        <ele>807.31402587891</ele>
        <time>2010-07-24T14:11:01Z</time>
      </trkpt>
      <trkpt lat="45.07265" lon="4.54359">
        <ele>808.35601806641</ele>
        <time>2010-07-24T14:11:06Z</time>
      </trkpt>
      <trkpt lat="45.07246" lon="4.54379">
        <ele>808.88702392578</ele>
        <time>2010-07-24T14:11:11Z</time>
      </trkpt>
      <trkpt lat="45.0724" lon="4.54403">
        <ele>809.69097900391</ele>
        <time>2010-07-24T14:11:15Z</time>
      </trkpt>
      <trkpt lat="45.07227" lon="4.54459">
        <ele>810.90399169922</ele>
        <time>2010-07-24T14:11:23Z</time>
      </trkpt>
      <trkpt lat="45.0722" lon="4.54515">
        <ele>813.16302490234</ele>
        <time>2010-07-24T14:11:31Z</time>
      </trkpt>
      <trkpt lat="45.07217" lon="4.54565">
        <ele>814.61499023438</ele>
        <time>2010-07-24T14:11:38Z</time>
      </trkpt>
      <trkpt lat="45.07214" lon="4.54578">
        <ele>815.52398681641</ele>
        <time>2010-07-24T14:11:40Z</time>
      </trkpt>
      <trkpt lat="45.07195" lon="4.54611">
        <ele>817.75897216797</ele>
        <time>2010-07-24T14:11:46Z</time>
      </trkpt>
      <trkpt lat="45.07175" lon="4.54615">
        <ele>818.67700195312</ele>
        <time>2010-07-24T14:11:50Z</time>
      </trkpt>
      <trkpt lat="45.07155" lon="4.54604">
        <ele>819.63299560547</ele>
        <time>2010-07-24T14:11:54Z</time>
      </trkpt>
      <trkpt lat="45.07108" lon="4.54565">
        <ele>821.5</ele>
        <time>2010-07-24T14:12:04Z</time>
      </trkpt>
      <trkpt lat="45.07104" lon="4.54561">
        <ele>821.62097167969</ele>
        <time>2010-07-24T14:12:05Z</time>
      </trkpt>
      <trkpt lat="45.07069" lon="4.54517">
        <ele>823.57098388672</ele>
        <time>2010-07-24T14:12:13Z</time>
      </trkpt>
      <trkpt lat="45.07043" lon="4.54475">
        <ele>824.44396972656</ele>
        <time>2010-07-24T14:12:20Z</time>
      </trkpt>
      <trkpt lat="45.07018" lon="4.54441">
        <ele>825.71301269531</ele>
        <time>2010-07-24T14:12:27Z</time>
      </trkpt>
      <trkpt lat="45.06987" lon="4.54409">
        <ele>827.64697265625</ele>
        <time>2010-07-24T14:12:35Z</time>
      </trkpt>
      <trkpt lat="45.06957" lon="4.54374">
        <ele>828.72900390625</ele>
        <time>2010-07-24T14:12:43Z</time>
      </trkpt>
      <trkpt lat="45.06932" lon="4.54334">
        <ele>830.45098876953</ele>
        <time>2010-07-24T14:12:51Z</time>
      </trkpt>
      <trkpt lat="45.06916" lon="4.54286">
        <ele>831.49401855469</ele>
        <time>2010-07-24T14:12:59Z</time>
      </trkpt>
      <trkpt lat="45.06913" lon="4.54267">
        <ele>831.81896972656</ele>
        <time>2010-07-24T14:13:02Z</time>
      </trkpt>
      <trkpt lat="45.06915" lon="4.54242">
        <ele>832.32702636719</ele>
        <time>2010-07-24T14:13:06Z</time>
      </trkpt>
      <trkpt lat="45.06926" lon="4.54196">
        <ele>833.43103027344</ele>
        <time>2010-07-24T14:13:13Z</time>
      </trkpt>
      <trkpt lat="45.0695" lon="4.5415">
        <ele>833.90899658203</ele>
        <time>2010-07-24T14:13:21Z</time>
      </trkpt>
      <trkpt lat="45.06987" lon="4.54107">
        <ele>834.97698974609</ele>
        <time>2010-07-24T14:13:30Z</time>
      </trkpt>
      <trkpt lat="45.07001" lon="4.54087">
        <ele>835.75701904297</ele>
        <time>2010-07-24T14:13:34Z</time>
      </trkpt>
      <trkpt lat="45.07014" lon="4.54056">
        <ele>836.77099609375</ele>
        <time>2010-07-24T14:13:39Z</time>
      </trkpt>
      <trkpt lat="45.07022" lon="4.5403">
        <ele>838.26599121094</ele>
        <time>2010-07-24T14:13:43Z</time>
      </trkpt>
      <trkpt lat="45.07037" lon="4.53978">
        <ele>840.00701904297</ele>
        <time>2010-07-24T14:13:51Z</time>
      </trkpt>
      <trkpt lat="45.07056" lon="4.53946">
        <ele>841.67401123047</ele>
        <time>2010-07-24T14:13:57Z</time>
      </trkpt>
      <trkpt lat="45.07087" lon="4.5391">
        <ele>843.25897216797</ele>
        <time>2010-07-24T14:14:05Z</time>
      </trkpt>
      <trkpt lat="45.07103" lon="4.53885">
        <ele>844.1240234375</ele>
        <time>2010-07-24T14:14:10Z</time>
      </trkpt>
      <trkpt lat="45.07121" lon="4.53838">
        <ele>845.66101074219</ele>
        <time>2010-07-24T14:14:18Z</time>
      </trkpt>
      <trkpt lat="45.07124" lon="4.5382">
        <ele>846.13397216797</ele>
        <time>2010-07-24T14:14:21Z</time>
      </trkpt>
      <trkpt lat="45.07127" lon="4.53802">
        <ele>846.47698974609</ele>
        <time>2010-07-24T14:14:24Z</time>
      </trkpt>
      <trkpt lat="45.07127" lon="4.5379">
        <ele>847.05902099609</ele>
        <time>2010-07-24T14:14:26Z</time>
      </trkpt>
      <trkpt lat="45.07131" lon="4.53749">
        <ele>848.33599853516</ele>
        <time>2010-07-24T14:14:33Z</time>
      </trkpt>
      <trkpt lat="45.07132" lon="4.53716">
        <ele>849.61499023438</ele>
        <time>2010-07-24T14:14:39Z</time>
      </trkpt>
      <trkpt lat="45.07132" lon="4.53694">
        <ele>850.04797363281</ele>
        <time>2010-07-24T14:14:43Z</time>
      </trkpt>
      <trkpt lat="45.07132" lon="4.5366">
        <ele>851.38702392578</ele>
        <time>2010-07-24T14:14:50Z</time>
      </trkpt>
      <trkpt lat="45.07137" lon="4.53637">
        <ele>852.04998779297</ele>
        <time>2010-07-24T14:14:55Z</time>
      </trkpt>
      <trkpt lat="45.07132" lon="4.53612">
        <ele>852.84197998047</ele>
        <time>2010-07-24T14:15:00Z</time>
      </trkpt>
      <trkpt lat="45.07114" lon="4.53598">
        <ele>853.26300048828</ele>
        <time>2010-07-24T14:15:04Z</time>
      </trkpt>
      <trkpt lat="45.07094" lon="4.53605">
        <ele>854.31201171875</ele>
        <time>2010-07-24T14:15:09Z</time>
      </trkpt>
      <trkpt lat="45.07084" lon="4.53618">
        <ele>854.70300292969</ele>
        <time>2010-07-24T14:15:13Z</time>
      </trkpt>
      <trkpt lat="45.07068" lon="4.53636">
        <ele>855.43499755859</ele>
        <time>2010-07-24T14:15:18Z</time>
      </trkpt>
      <trkpt lat="45.07055" lon="4.53651">
        <ele>856.35498046875</ele>
        <time>2010-07-24T14:15:22Z</time>
      </trkpt>
      <trkpt lat="45.07048" lon="4.53659">
        <ele>856.70098876953</ele>
        <time>2010-07-24T14:15:24Z</time>
      </trkpt>
      <trkpt lat="45.07037" lon="4.53669">
        <ele>856.93402099609</ele>
        <time>2010-07-24T14:15:27Z</time>
      </trkpt>
      <trkpt lat="45.07011" lon="4.53693">
        <ele>857.90002441406</ele>
        <time>2010-07-24T14:15:34Z</time>
      </trkpt>
      <trkpt lat="45.06987" lon="4.53718">
        <ele>859.18701171875</ele>
        <time>2010-07-24T14:15:41Z</time>
      </trkpt>
      <trkpt lat="45.0696" lon="4.53738">
        <ele>860.28399658203</ele>
        <time>2010-07-24T14:15:48Z</time>
      </trkpt>
      <trkpt lat="45.0694" lon="4.53751">
        <ele>861.27301025391</ele>
        <time>2010-07-24T14:15:53Z</time>
      </trkpt>
      <trkpt lat="45.06905" lon="4.53767">
        <ele>862.666015625</ele>
        <time>2010-07-24T14:16:01Z</time>
      </trkpt>
      <trkpt lat="45.06879" lon="4.53765">
        <ele>864.18200683594</ele>
        <time>2010-07-24T14:16:07Z</time>
      </trkpt>
      <trkpt lat="45.06874" lon="4.53762">
        <ele>864.31896972656</ele>
        <time>2010-07-24T14:16:08Z</time>
      </trkpt>
      <trkpt lat="45.06866" lon="4.53757">
        <ele>864.47698974609</ele>
        <time>2010-07-24T14:16:10Z</time>
      </trkpt>
      <trkpt lat="45.06843" lon="4.53755">
        <ele>865.04699707031</ele>
        <time>2010-07-24T14:16:15Z</time>
      </trkpt>
      <trkpt lat="45.06828" lon="4.53767">
        <ele>865.70001220703</ele>
        <time>2010-07-24T14:16:19Z</time>
      </trkpt>
      <trkpt lat="45.06821" lon="4.53774">
        <ele>866.19299316406</ele>
        <time>2010-07-24T14:16:21Z</time>
      </trkpt>
      <trkpt lat="45.068" lon="4.53796">
        <ele>867.58898925781</ele>
        <time>2010-07-24T14:16:27Z</time>
      </trkpt>
      <trkpt lat="45.06783" lon="4.53807">
        <ele>868.30200195312</ele>
        <time>2010-07-24T14:16:31Z</time>
      </trkpt>
      <trkpt lat="45.0675" lon="4.53809">
        <ele>869.21502685547</ele>
        <time>2010-07-24T14:16:38Z</time>
      </trkpt>
      <trkpt lat="45.06724" lon="4.53784">
        <ele>871.18402099609</ele>
        <time>2010-07-24T14:16:45Z</time>
      </trkpt>
      <trkpt lat="45.06716" lon="4.53769">
        <ele>871.5830078125</ele>
        <time>2010-07-24T14:16:48Z</time>
      </trkpt>
      <trkpt lat="45.06697" lon="4.53724">
        <ele>873.34497070312</ele>
        <time>2010-07-24T14:16:56Z</time>
      </trkpt>
      <trkpt lat="45.06679" lon="4.5369">
        <ele>875.12799072266</ele>
        <time>2010-07-24T14:17:03Z</time>
      </trkpt>
      <trkpt lat="45.06661" lon="4.53663">
        <ele>876.14801025391</ele>
        <time>2010-07-24T14:17:09Z</time>
      </trkpt>
      <trkpt lat="45.06644" lon="4.53636">
        <ele>877.25701904297</ele>
        <time>2010-07-24T14:17:15Z</time>
      </trkpt>
      <trkpt lat="45.06624" lon="4.53596">
        <ele>878.84002685547</ele>
        <time>2010-07-24T14:17:23Z</time>
      </trkpt>
      <trkpt lat="45.06612" lon="4.53561">
        <ele>879.66101074219</ele>
        <time>2010-07-24T14:17:29Z</time>
      </trkpt>
      <trkpt lat="45.06608" lon="4.53543">
        <ele>880.0830078125</ele>
        <time>2010-07-24T14:17:32Z</time>
      </trkpt>
      <trkpt lat="45.06602" lon="4.53527">
        <ele>880.65399169922</ele>
        <time>2010-07-24T14:17:35Z</time>
      </trkpt>
      <trkpt lat="45.06592" lon="4.53513">
        <ele>881.05999755859</ele>
        <time>2010-07-24T14:17:38Z</time>
      </trkpt>
      <trkpt lat="45.06568" lon="4.53488">
        <ele>882.48797607422</ele>
        <time>2010-07-24T14:17:45Z</time>
      </trkpt>
      <trkpt lat="45.06553" lon="4.53472">
        <ele>883.28601074219</ele>
        <time>2010-07-24T14:17:50Z</time>
      </trkpt>
      <trkpt lat="45.06535" lon="4.53452">
        <ele>884.66998291016</ele>
        <time>2010-07-24T14:17:56Z</time>
      </trkpt>
      <trkpt lat="45.06515" lon="4.53441">
        <ele>885.71899414062</ele>
        <time>2010-07-24T14:18:02Z</time>
      </trkpt>
      <trkpt lat="45.06499" lon="4.5345">
        <ele>886.44000244141</ele>
        <time>2010-07-24T14:18:06Z</time>
      </trkpt>
      <trkpt lat="45.0649" lon="4.53469">
        <ele>886.75799560547</ele>
        <time>2010-07-24T14:18:10Z</time>
      </trkpt>
      <trkpt lat="45.06484" lon="4.53492">
        <ele>887.59600830078</ele>
        <time>2010-07-24T14:18:14Z</time>
      </trkpt>
      <trkpt lat="45.06466" lon="4.5353">
        <ele>888.51300048828</ele>
        <time>2010-07-24T14:18:21Z</time>
      </trkpt>
      <trkpt lat="45.06441" lon="4.53569">
        <ele>890.46301269531</ele>
        <time>2010-07-24T14:18:29Z</time>
      </trkpt>
      <trkpt lat="45.06426" lon="4.53593">
        <ele>891.14300537109</ele>
        <time>2010-07-24T14:18:34Z</time>
      </trkpt>
      <trkpt lat="45.06409" lon="4.53618">
        <ele>892.52398681641</ele>
        <time>2010-07-24T14:18:39Z</time>
      </trkpt>
      <trkpt lat="45.06401" lon="4.53627">
        <ele>893.02398681641</ele>
        <time>2010-07-24T14:18:41Z</time>
      </trkpt>
      <trkpt lat="45.06389" lon="4.5364">
        <ele>893.64801025391</ele>
        <time>2010-07-24T14:18:44Z</time>
      </trkpt>
      <trkpt lat="45.06363" lon="4.5365">
        <ele>895.666015625</ele>
        <time>2010-07-24T14:18:50Z</time>
      </trkpt>
      <trkpt lat="45.06342" lon="4.53636">
        <ele>897.11499023438</ele>
        <time>2010-07-24T14:18:55Z</time>
      </trkpt>
      <trkpt lat="45.06338" lon="4.53631">
        <ele>897.30999755859</ele>
        <time>2010-07-24T14:18:56Z</time>
      </trkpt>
      <trkpt lat="45.06317" lon="4.5361">
        <ele>898.09600830078</ele>
        <time>2010-07-24T14:19:01Z</time>
      </trkpt>
      <trkpt lat="45.063" lon="4.53593">
        <ele>899.0830078125</ele>
        <time>2010-07-24T14:19:05Z</time>
      </trkpt>
      <trkpt lat="45.06283" lon="4.53576">
        <ele>899.88098144531</ele>
        <time>2010-07-24T14:19:09Z</time>
      </trkpt>
      <trkpt lat="45.06258" lon="4.5355">
        <ele>901.10400390625</ele>
        <time>2010-07-24T14:19:15Z</time>
      </trkpt>
      <trkpt lat="45.06232" lon="4.53519">
        <ele>902.87200927734</ele>
        <time>2010-07-24T14:19:22Z</time>
      </trkpt>
      <trkpt lat="45.06224" lon="4.53512">
        <ele>903.45501708984</ele>
        <time>2010-07-24T14:19:24Z</time>
      </trkpt>
      <trkpt lat="45.06185" lon="4.53476">
        <ele>905.78100585938</ele>
        <time>2010-07-24T14:19:34Z</time>
      </trkpt>
      <trkpt lat="45.06157" lon="4.53451">
        <ele>907.46801757812</ele>
        <time>2010-07-24T14:19:41Z</time>
      </trkpt>
      <trkpt lat="45.06131" lon="4.53418">
        <ele>909.19598388672</ele>
        <time>2010-07-24T14:19:49Z</time>
      </trkpt>
      <trkpt lat="45.06106" lon="4.53377">
        <ele>910.62799072266</ele>
        <time>2010-07-24T14:19:58Z</time>
      </trkpt>
      <trkpt lat="45.06093" lon="4.53359">
        <ele>911.30603027344</ele>
        <time>2010-07-24T14:20:02Z</time>
      </trkpt>
      <trkpt lat="45.06078" lon="4.53346">
        <ele>911.73199462891</ele>
        <time>2010-07-24T14:20:06Z</time>
      </trkpt>
      <trkpt lat="45.06041" lon="4.5333">
        <ele>911.90997314453</ele>
        <time>2010-07-24T14:20:14Z</time>
      </trkpt>
      <trkpt lat="45.06006" lon="4.53324">
        <ele>912.32202148438</ele>
        <time>2010-07-24T14:20:20Z</time>
      </trkpt>
      <trkpt lat="45.05956" lon="4.53318">
        <ele>913.29901123047</ele>
        <time>2010-07-24T14:20:28Z</time>
      </trkpt>
      <trkpt lat="45.05928" lon="4.53306">
        <ele>914.14001464844</ele>
        <time>2010-07-24T14:20:33Z</time>
      </trkpt>
      <trkpt lat="45.05912" lon="4.53285">
        <ele>914.84899902344</ele>
        <time>2010-07-24T14:20:38Z</time>
      </trkpt>
      <trkpt lat="45.0591" lon="4.53275">
        <ele>914.95001220703</ele>
        <time>2010-07-24T14:20:40Z</time>
      </trkpt>
      <trkpt lat="45.05907" lon="4.53265">
        <ele>915.03002929688</ele>
        <time>2010-07-24T14:20:44Z</time>
      </trkpt>
      <trkpt lat="45.05898" lon="4.53278">
        <ele>913.75799560547</ele>
        <time>2010-07-24T14:20:49Z</time>
      </trkpt>
      <trkpt lat="45.05891" lon="4.53286">
        <ele>915.54797363281</ele>
        <time>2010-07-24T14:20:53Z</time>
      </trkpt>
      <trkpt lat="45.05894" lon="4.53287">
        <ele>915.08898925781</ele>
        <time>2010-07-24T14:20:57Z</time>
      </trkpt>
      <trkpt lat="45.059" lon="4.53287">
        <ele>914.6669921875</ele>
        <time>2010-07-24T14:21:13Z</time>
      </trkpt>
      <trkpt lat="45.05896" lon="4.53288">
        <ele>914.23498535156</ele>
        <time>2010-07-24T14:23:13Z</time>
      </trkpt>
      <trkpt lat="45.05896" lon="4.53288">
        <ele>914.25799560547</ele>
        <time>2010-07-24T14:23:14Z</time>
      </trkpt>
      <trkpt lat="45.05902" lon="4.53272">
        <ele>914.30603027344</ele>
        <time>2010-07-24T14:23:36Z</time>
      </trkpt>
      <trkpt lat="45.05902" lon="4.53264">
        <ele>913.98400878906</ele>
        <time>2010-07-24T14:23:38Z</time>
      </trkpt>
      <trkpt lat="45.05905" lon="4.53245">
        <ele>913.14202880859</ele>
        <time>2010-07-24T14:23:42Z</time>
      </trkpt>
      <trkpt lat="45.05919" lon="4.53203">
        <ele>911.86798095703</ele>
        <time>2010-07-24T14:23:49Z</time>
      </trkpt>
      <trkpt lat="45.05926" lon="4.53181">
        <ele>910.74798583984</ele>
        <time>2010-07-24T14:23:52Z</time>
      </trkpt>
      <trkpt lat="45.05935" lon="4.53158">
        <ele>910.40997314453</ele>
        <time>2010-07-24T14:23:55Z</time>
      </trkpt>
      <trkpt lat="45.05965" lon="4.53092">
        <ele>908.60198974609</ele>
        <time>2010-07-24T14:24:03Z</time>
      </trkpt>
      <trkpt lat="45.05969" lon="4.53084">
        <ele>908.37902832031</ele>
        <time>2010-07-24T14:24:04Z</time>
      </trkpt>
      <trkpt lat="45.05978" lon="4.53045">
        <ele>907.04498291016</ele>
        <time>2010-07-24T14:24:08Z</time>
      </trkpt>
      <trkpt lat="45.05977" lon="4.53034">
        <ele>906.70397949219</ele>
        <time>2010-07-24T14:24:09Z</time>
      </trkpt>
      <trkpt lat="45.05973" lon="4.53012">
        <ele>905.96899414062</ele>
        <time>2010-07-24T14:24:11Z</time>
      </trkpt>
      <trkpt lat="45.05979" lon="4.52965">
        <ele>903.34002685547</ele>
        <time>2010-07-24T14:24:15Z</time>
      </trkpt>
      <trkpt lat="45.05982" lon="4.52947">
        <ele>902.86798095703</ele>
        <time>2010-07-24T14:24:17Z</time>
      </trkpt>
      <trkpt lat="45.05974" lon="4.52941">
        <ele>902.49200439453</ele>
        <time>2010-07-24T14:24:19Z</time>
      </trkpt>
      <trkpt lat="45.05965" lon="4.5296">
        <ele>901.66101074219</ele>
        <time>2010-07-24T14:24:22Z</time>
      </trkpt>
      <trkpt lat="45.05964" lon="4.52969">
        <ele>901.39398193359</ele>
        <time>2010-07-24T14:24:23Z</time>
      </trkpt>
      <trkpt lat="45.05961" lon="4.53001">
        <ele>900.6259765625</ele>
        <time>2010-07-24T14:24:26Z</time>
      </trkpt>
      <trkpt lat="45.05964" lon="4.53043">
        <ele>898.84997558594</ele>
        <time>2010-07-24T14:24:30Z</time>
      </trkpt>
      <trkpt lat="45.05957" lon="4.53063">
        <ele>897.72998046875</ele>
        <time>2010-07-24T14:24:34Z</time>
      </trkpt>
      <trkpt lat="45.05951" lon="4.53051">
        <ele>896.76000976562</ele>
        <time>2010-07-24T14:24:36Z</time>
      </trkpt>
      <trkpt lat="45.05951" lon="4.53035">
        <ele>895.79901123047</ele>
        <time>2010-07-24T14:24:38Z</time>
      </trkpt>
      <trkpt lat="45.05952" lon="4.52973">
        <ele>893.37200927734</ele>
        <time>2010-07-24T14:24:45Z</time>
      </trkpt>
      <trkpt lat="45.05956" lon="4.52908">
        <ele>890.18701171875</ele>
        <time>2010-07-24T14:24:51Z</time>
      </trkpt>
      <trkpt lat="45.05954" lon="4.52861">
        <ele>888.94299316406</ele>
        <time>2010-07-24T14:24:55Z</time>
      </trkpt>
      <trkpt lat="45.05947" lon="4.52811">
        <ele>886.77398681641</ele>
        <time>2010-07-24T14:24:59Z</time>
      </trkpt>
      <trkpt lat="45.05929" lon="4.52763">
        <ele>884.11901855469</ele>
        <time>2010-07-24T14:25:03Z</time>
      </trkpt>
      <trkpt lat="45.05903" lon="4.52737">
        <ele>881.58502197266</ele>
        <time>2010-07-24T14:25:06Z</time>
      </trkpt>
      <trkpt lat="45.05882" lon="4.52702">
        <ele>880.04797363281</ele>
        <time>2010-07-24T14:25:09Z</time>
      </trkpt>
      <trkpt lat="45.05832" lon="4.5259">
        <ele>873.94097900391</ele>
        <time>2010-07-24T14:25:17Z</time>
      </trkpt>
      <trkpt lat="45.05793" lon="4.52505">
        <ele>869.34100341797</ele>
        <time>2010-07-24T14:25:23Z</time>
      </trkpt>
      <trkpt lat="45.05761" lon="4.52416">
        <ele>864.71899414062</ele>
        <time>2010-07-24T14:25:29Z</time>
      </trkpt>
      <trkpt lat="45.05733" lon="4.52347">
        <ele>860.91497802734</ele>
        <time>2010-07-24T14:25:34Z</time>
      </trkpt>
      <trkpt lat="45.05729" lon="4.52334">
        <ele>860.62799072266</ele>
        <time>2010-07-24T14:25:35Z</time>
      </trkpt>
      <trkpt lat="45.05725" lon="4.5232">
        <ele>860.59802246094</ele>
        <time>2010-07-24T14:25:36Z</time>
      </trkpt>
      <trkpt lat="45.05723" lon="4.52267">
        <ele>859.09002685547</ele>
        <time>2010-07-24T14:25:40Z</time>
      </trkpt>
      <trkpt lat="45.05739" lon="4.52224">
        <ele>857.24700927734</ele>
        <time>2010-07-24T14:25:44Z</time>
      </trkpt>
      <trkpt lat="45.05751" lon="4.52193">
        <ele>854.47302246094</ele>
        <time>2010-07-24T14:25:47Z</time>
      </trkpt>
      <trkpt lat="45.05742" lon="4.52158">
        <ele>852.11297607422</ele>
        <time>2010-07-24T14:25:50Z</time>
      </trkpt>
      <trkpt lat="45.05734" lon="4.52119">
        <ele>850.75500488281</ele>
        <time>2010-07-24T14:25:53Z</time>
      </trkpt>
      <trkpt lat="45.05736" lon="4.52077">
        <ele>848.23199462891</ele>
        <time>2010-07-24T14:25:56Z</time>
      </trkpt>
      <trkpt lat="45.05738" lon="4.52063">
        <ele>847.22802734375</ele>
        <time>2010-07-24T14:25:57Z</time>
      </trkpt>
      <trkpt lat="45.05767" lon="4.51965">
        <ele>842.28198242188</ele>
        <time>2010-07-24T14:26:04Z</time>
      </trkpt>
      <trkpt lat="45.0578" lon="4.51905">
        <ele>840.31799316406</ele>
        <time>2010-07-24T14:26:08Z</time>
      </trkpt>
      <trkpt lat="45.05786" lon="4.51877">
        <ele>839.75201416016</ele>
        <time>2010-07-24T14:26:10Z</time>
      </trkpt>
      <trkpt lat="45.05802" lon="4.51856">
        <ele>839.22198486328</ele>
        <time>2010-07-24T14:26:13Z</time>
      </trkpt>
      <trkpt lat="45.05817" lon="4.51864">
        <ele>837.96502685547</ele>
        <time>2010-07-24T14:26:15Z</time>
      </trkpt>
      <trkpt lat="45.05832" lon="4.51877">
        <ele>837.02301025391</ele>
        <time>2010-07-24T14:26:17Z</time>
      </trkpt>
      <trkpt lat="45.05838" lon="4.51885">
        <ele>836.86700439453</ele>
        <time>2010-07-24T14:26:18Z</time>
      </trkpt>
      <trkpt lat="45.05888" lon="4.51938">
        <ele>831.52099609375</ele>
        <time>2010-07-24T14:26:25Z</time>
      </trkpt>
      <trkpt lat="45.05932" lon="4.51977">
        <ele>828.72998046875</ele>
        <time>2010-07-24T14:26:30Z</time>
      </trkpt>
      <trkpt lat="45.05968" lon="4.52014">
        <ele>825.51202392578</ele>
        <time>2010-07-24T14:26:34Z</time>
      </trkpt>
      <trkpt lat="45.05985" lon="4.52029">
        <ele>824.37200927734</ele>
        <time>2010-07-24T14:26:36Z</time>
      </trkpt>
      <trkpt lat="45.06003" lon="4.5203">
        <ele>822.88000488281</ele>
        <time>2010-07-24T14:26:38Z</time>
      </trkpt>
      <trkpt lat="45.06023" lon="4.52024">
        <ele>821.10302734375</ele>
        <time>2010-07-24T14:26:40Z</time>
      </trkpt>
      <trkpt lat="45.06043" lon="4.5202">
        <ele>819.74499511719</ele>
        <time>2010-07-24T14:26:42Z</time>
      </trkpt>
      <trkpt lat="45.06082" lon="4.52031">
        <ele>817.67401123047</ele>
        <time>2010-07-24T14:26:46Z</time>
      </trkpt>
      <trkpt lat="45.06096" lon="4.52024">
        <ele>817.60198974609</ele>
        <time>2010-07-24T14:26:48Z</time>
      </trkpt>
      <trkpt lat="45.06099" lon="4.5201">
        <ele>817.28399658203</ele>
        <time>2010-07-24T14:26:50Z</time>
      </trkpt>
      <trkpt lat="45.06097" lon="4.51984">
        <ele>816.13000488281</ele>
        <time>2010-07-24T14:26:53Z</time>
      </trkpt>
      <trkpt lat="45.06101" lon="4.51931">
        <ele>813.36102294922</ele>
        <time>2010-07-24T14:26:58Z</time>
      </trkpt>
      <trkpt lat="45.06112" lon="4.51883">
        <ele>811.92901611328</ele>
        <time>2010-07-24T14:27:02Z</time>
      </trkpt>
      <trkpt lat="45.06115" lon="4.51827">
        <ele>808.48498535156</ele>
        <time>2010-07-24T14:27:06Z</time>
      </trkpt>
      <trkpt lat="45.06108" lon="4.51735">
        <ele>803.33697509766</ele>
        <time>2010-07-24T14:27:12Z</time>
      </trkpt>
      <trkpt lat="45.06108" lon="4.51686">
        <ele>801.73400878906</ele>
        <time>2010-07-24T14:27:15Z</time>
      </trkpt>
      <trkpt lat="45.06097" lon="4.51627">
        <ele>798.87097167969</ele>
        <time>2010-07-24T14:27:19Z</time>
      </trkpt>
      <trkpt lat="45.0609" lon="4.51613">
        <ele>797.98498535156</ele>
        <time>2010-07-24T14:27:20Z</time>
      </trkpt>
      <trkpt lat="45.06068" lon="4.51572">
        <ele>795.73699951172</ele>
        <time>2010-07-24T14:27:23Z</time>
      </trkpt>
      <trkpt lat="45.06047" lon="4.51493">
        <ele>790.86602783203</ele>
        <time>2010-07-24T14:27:28Z</time>
      </trkpt>
      <trkpt lat="45.06039" lon="4.51428">
        <ele>788.03900146484</ele>
        <time>2010-07-24T14:27:32Z</time>
      </trkpt>
      <trkpt lat="45.06046" lon="4.51396">
        <ele>787.40100097656</ele>
        <time>2010-07-24T14:27:35Z</time>
      </trkpt>
      <trkpt lat="45.06055" lon="4.51373">
        <ele>785.88000488281</ele>
        <time>2010-07-24T14:27:38Z</time>
      </trkpt>
      <trkpt lat="45.06042" lon="4.51364">
        <ele>785.78497314453</ele>
        <time>2010-07-24T14:27:40Z</time>
      </trkpt>
      <trkpt lat="45.06019" lon="4.51371">
        <ele>784.208984375</ele>
        <time>2010-07-24T14:27:43Z</time>
      </trkpt>
      <trkpt lat="45.06013" lon="4.51395">
        <ele>783.27001953125</ele>
        <time>2010-07-24T14:27:45Z</time>
      </trkpt>
      <trkpt lat="45.06014" lon="4.51408">
        <ele>782.66198730469</ele>
        <time>2010-07-24T14:27:46Z</time>
      </trkpt>
      <trkpt lat="45.06018" lon="4.51466">
        <ele>780.08801269531</ele>
        <time>2010-07-24T14:27:50Z</time>
      </trkpt>
      <trkpt lat="45.06015" lon="4.5151">
        <ele>776.71197509766</ele>
        <time>2010-07-24T14:27:53Z</time>
      </trkpt>
      <trkpt lat="45.0602" lon="4.51573">
        <ele>773.708984375</ele>
        <time>2010-07-24T14:27:57Z</time>
      </trkpt>
      <trkpt lat="45.06025" lon="4.51638">
        <ele>771.16802978516</ele>
        <time>2010-07-24T14:28:01Z</time>
      </trkpt>
      <trkpt lat="45.06025" lon="4.51653">
        <ele>770.71197509766</ele>
        <time>2010-07-24T14:28:02Z</time>
      </trkpt>
      <trkpt lat="45.06013" lon="4.51699">
        <ele>769.59197998047</ele>
        <time>2010-07-24T14:28:06Z</time>
      </trkpt>
      <trkpt lat="45.05999" lon="4.51698">
        <ele>768.65698242188</ele>
        <time>2010-07-24T14:28:08Z</time>
      </trkpt>
      <trkpt lat="45.05986" lon="4.51677">
        <ele>767.55798339844</ele>
        <time>2010-07-24T14:28:10Z</time>
      </trkpt>
      <trkpt lat="45.05975" lon="4.51661">
        <ele>766.69299316406</ele>
        <time>2010-07-24T14:28:12Z</time>
      </trkpt>
      <trkpt lat="45.05969" lon="4.51655">
        <ele>766.50701904297</ele>
        <time>2010-07-24T14:28:13Z</time>
      </trkpt>
      <trkpt lat="45.05919" lon="4.51608">
        <ele>762.34698486328</ele>
        <time>2010-07-24T14:28:20Z</time>
      </trkpt>
      <trkpt lat="45.05884" lon="4.51562">
        <ele>758.3759765625</ele>
        <time>2010-07-24T14:28:25Z</time>
      </trkpt>
      <trkpt lat="45.05842" lon="4.515">
        <ele>754.02001953125</ele>
        <time>2010-07-24T14:28:31Z</time>
      </trkpt>
      <trkpt lat="45.05807" lon="4.51468">
        <ele>752.44799804688</ele>
        <time>2010-07-24T14:28:35Z</time>
      </trkpt>
      <trkpt lat="45.05787" lon="4.5146">
        <ele>751.82800292969</ele>
        <time>2010-07-24T14:28:37Z</time>
      </trkpt>
      <trkpt lat="45.05745" lon="4.5144">
        <ele>749.78002929688</ele>
        <time>2010-07-24T14:28:41Z</time>
      </trkpt>
      <trkpt lat="45.05676" lon="4.51409">
        <ele>745.45300292969</ele>
        <time>2010-07-24T14:28:47Z</time>
      </trkpt>
      <trkpt lat="45.0564" lon="4.51405">
        <ele>743.96502685547</ele>
        <time>2010-07-24T14:28:50Z</time>
      </trkpt>
      <trkpt lat="45.05619" lon="4.51422">
        <ele>742.62799072266</ele>
        <time>2010-07-24T14:28:52Z</time>
      </trkpt>
      <trkpt lat="45.05606" lon="4.51451">
        <ele>740.51898193359</ele>
        <time>2010-07-24T14:28:54Z</time>
      </trkpt>
      <trkpt lat="45.05601" lon="4.51483">
        <ele>739.74798583984</ele>
        <time>2010-07-24T14:28:56Z</time>
      </trkpt>
      <trkpt lat="45.05596" lon="4.51507">
        <ele>741.02301025391</ele>
        <time>2010-07-24T14:28:59Z</time>
      </trkpt>
      <trkpt lat="45.05589" lon="4.51495">
        <ele>740.54302978516</ele>
        <time>2010-07-24T14:29:01Z</time>
      </trkpt>
      <trkpt lat="45.05592" lon="4.51471">
        <ele>739.40100097656</ele>
        <time>2010-07-24T14:29:04Z</time>
      </trkpt>
      <trkpt lat="45.05598" lon="4.51452">
        <ele>738.35601806641</ele>
        <time>2010-07-24T14:29:06Z</time>
      </trkpt>
      <trkpt lat="45.05606" lon="4.51421">
        <ele>737.22302246094</ele>
        <time>2010-07-24T14:29:09Z</time>
      </trkpt>
      <trkpt lat="45.05617" lon="4.51391">
        <ele>735.71997070312</ele>
        <time>2010-07-24T14:29:12Z</time>
      </trkpt>
      <trkpt lat="45.05637" lon="4.51371">
        <ele>734.88500976562</ele>
        <time>2010-07-24T14:29:15Z</time>
      </trkpt>
      <trkpt lat="45.05661" lon="4.51367">
        <ele>733.77197265625</ele>
        <time>2010-07-24T14:29:18Z</time>
      </trkpt>
      <trkpt lat="45.05669" lon="4.51368">
        <ele>732.77899169922</ele>
        <time>2010-07-24T14:29:19Z</time>
      </trkpt>
      <trkpt lat="45.05685" lon="4.51372">
        <ele>731.78002929688</ele>
        <time>2010-07-24T14:29:21Z</time>
      </trkpt>
      <trkpt lat="45.05702" lon="4.51379">
        <ele>731.79400634766</ele>
        <time>2010-07-24T14:29:23Z</time>
      </trkpt>
      <trkpt lat="45.05751" lon="4.51386">
        <ele>729.38397216797</ele>
        <time>2010-07-24T14:29:29Z</time>
      </trkpt>
      <trkpt lat="45.05779" lon="4.5139">
        <ele>728.03198242188</ele>
        <time>2010-07-24T14:29:32Z</time>
      </trkpt>
      <trkpt lat="45.05808" lon="4.51396">
        <ele>727.51702880859</ele>
        <time>2010-07-24T14:29:35Z</time>
      </trkpt>
      <trkpt lat="45.0585" lon="4.514">
        <ele>725.48498535156</ele>
        <time>2010-07-24T14:29:39Z</time>
      </trkpt>
      <trkpt lat="45.0587" lon="4.51408">
        <ele>724.52099609375</ele>
        <time>2010-07-24T14:29:41Z</time>
      </trkpt>
      <trkpt lat="45.05886" lon="4.51425">
        <ele>723.71301269531</ele>
        <time>2010-07-24T14:29:43Z</time>
      </trkpt>
      <trkpt lat="45.05903" lon="4.51428">
        <ele>723.00799560547</ele>
        <time>2010-07-24T14:29:46Z</time>
      </trkpt>
      <trkpt lat="45.05906" lon="4.51407">
        <ele>722.34802246094</ele>
        <time>2010-07-24T14:29:48Z</time>
      </trkpt>
      <trkpt lat="45.05901" lon="4.51385">
        <ele>721.91400146484</ele>
        <time>2010-07-24T14:29:50Z</time>
      </trkpt>
      <trkpt lat="45.05896" lon="4.51364">
        <ele>721.08898925781</ele>
        <time>2010-07-24T14:29:52Z</time>
      </trkpt>
      <trkpt lat="45.05878" lon="4.51337">
        <ele>720.21600341797</ele>
        <time>2010-07-24T14:29:55Z</time>
      </trkpt>
      <trkpt lat="45.0587" lon="4.51331">
        <ele>719.85998535156</ele>
        <time>2010-07-24T14:29:56Z</time>
      </trkpt>
      <trkpt lat="45.05841" lon="4.51301">
        <ele>718.12902832031</ele>
        <time>2010-07-24T14:30:00Z</time>
      </trkpt>
      <trkpt lat="45.05829" lon="4.51281">
        <ele>717.48199462891</ele>
        <time>2010-07-24T14:30:02Z</time>
      </trkpt>
      <trkpt lat="45.0578" lon="4.51225">
        <ele>714.88201904297</ele>
        <time>2010-07-24T14:30:09Z</time>
      </trkpt>
      <trkpt lat="45.05767" lon="4.51208">
        <ele>714.11602783203</ele>
        <time>2010-07-24T14:30:11Z</time>
      </trkpt>
      <trkpt lat="45.05741" lon="4.51171">
        <ele>711.82598876953</ele>
        <time>2010-07-24T14:30:15Z</time>
      </trkpt>
      <trkpt lat="45.05725" lon="4.51141">
        <ele>711.08697509766</ele>
        <time>2010-07-24T14:30:18Z</time>
      </trkpt>
      <trkpt lat="45.05722" lon="4.51108">
        <ele>709.78100585938</ele>
        <time>2010-07-24T14:30:21Z</time>
      </trkpt>
      <trkpt lat="45.05725" lon="4.51071">
        <ele>706.91101074219</ele>
        <time>2010-07-24T14:30:24Z</time>
      </trkpt>
      <trkpt lat="45.05712" lon="4.51048">
        <ele>704.95501708984</ele>
        <time>2010-07-24T14:30:26Z</time>
      </trkpt>
      <trkpt lat="45.05703" lon="4.5104">
        <ele>704.35498046875</ele>
        <time>2010-07-24T14:30:27Z</time>
      </trkpt>
      <trkpt lat="45.05677" lon="4.51015">
        <ele>703.13500976562</ele>
        <time>2010-07-24T14:30:30Z</time>
      </trkpt>
      <trkpt lat="45.05625" lon="4.50984">
        <ele>698.52697753906</ele>
        <time>2010-07-24T14:30:35Z</time>
      </trkpt>
      <trkpt lat="45.05603" lon="4.50967">
        <ele>696.43902587891</ele>
        <time>2010-07-24T14:30:37Z</time>
      </trkpt>
      <trkpt lat="45.05562" lon="4.50921">
        <ele>690.97900390625</ele>
        <time>2010-07-24T14:30:41Z</time>
      </trkpt>
      <trkpt lat="45.05525" lon="4.50889">
        <ele>688.49499511719</ele>
        <time>2010-07-24T14:30:45Z</time>
      </trkpt>
      <trkpt lat="45.05525" lon="4.5087">
        <ele>686.65399169922</ele>
        <time>2010-07-24T14:30:48Z</time>
      </trkpt>
      <trkpt lat="45.05539" lon="4.50869">
        <ele>683.93103027344</ele>
        <time>2010-07-24T14:30:50Z</time>
      </trkpt>
      <trkpt lat="45.05545" lon="4.50873">
        <ele>683.41198730469</ele>
        <time>2010-07-24T14:30:51Z</time>
      </trkpt>
      <trkpt lat="45.05587" lon="4.50898">
        <ele>678.77600097656</ele>
        <time>2010-07-24T14:30:56Z</time>
      </trkpt>
      <trkpt lat="45.05607" lon="4.50906">
        <ele>676.96801757812</ele>
        <time>2010-07-24T14:30:58Z</time>
      </trkpt>
      <trkpt lat="45.0565" lon="4.50908">
        <ele>673.33197021484</ele>
        <time>2010-07-24T14:31:02Z</time>
      </trkpt>
      <trkpt lat="45.05713" lon="4.5089">
        <ele>666.78601074219</ele>
        <time>2010-07-24T14:31:07Z</time>
      </trkpt>
      <trkpt lat="45.05736" lon="4.50885">
        <ele>665.51098632812</ele>
        <time>2010-07-24T14:31:09Z</time>
      </trkpt>
      <trkpt lat="45.0577" lon="4.50911">
        <ele>661.40997314453</ele>
        <time>2010-07-24T14:31:13Z</time>
      </trkpt>
      <trkpt lat="45.05777" lon="4.50921">
        <ele>660.95202636719</ele>
        <time>2010-07-24T14:31:14Z</time>
      </trkpt>
      <trkpt lat="45.05801" lon="4.50934">
        <ele>660.32702636719</ele>
        <time>2010-07-24T14:31:18Z</time>
      </trkpt>
      <trkpt lat="45.05804" lon="4.50925">
        <ele>659.64599609375</ele>
        <time>2010-07-24T14:31:19Z</time>
      </trkpt>
      <trkpt lat="45.05806" lon="4.50876">
        <ele>655.24200439453</ele>
        <time>2010-07-24T14:31:23Z</time>
      </trkpt>
      <trkpt lat="45.05808" lon="4.5083">
        <ele>651.16497802734</ele>
        <time>2010-07-24T14:31:26Z</time>
      </trkpt>
      <trkpt lat="45.05825" lon="4.50777">
        <ele>646.26599121094</ele>
        <time>2010-07-24T14:31:30Z</time>
      </trkpt>
      <trkpt lat="45.05854" lon="4.50754">
        <ele>642.54400634766</ele>
        <time>2010-07-24T14:31:33Z</time>
      </trkpt>
      <trkpt lat="45.05875" lon="4.50735">
        <ele>641.21398925781</ele>
        <time>2010-07-24T14:31:36Z</time>
      </trkpt>
      <trkpt lat="45.05867" lon="4.50717">
        <ele>641.42498779297</ele>
        <time>2010-07-24T14:31:39Z</time>
      </trkpt>
      <trkpt lat="45.05859" lon="4.5071">
        <ele>642.45501708984</ele>
        <time>2010-07-24T14:31:41Z</time>
      </trkpt>
      <trkpt lat="45.05836" lon="4.50698">
        <ele>645.22100830078</ele>
        <time>2010-07-24T14:31:48Z</time>
      </trkpt>
      <trkpt lat="45.05826" lon="4.50694">
        <ele>646.36297607422</ele>
        <time>2010-07-24T14:31:52Z</time>
      </trkpt>
      <trkpt lat="45.05817" lon="4.50692">
        <ele>646.91400146484</ele>
        <time>2010-07-24T14:31:55Z</time>
      </trkpt>
      <trkpt lat="45.05799" lon="4.50688">
        <ele>648.58599853516</ele>
        <time>2010-07-24T14:32:01Z</time>
      </trkpt>
      <trkpt lat="45.05777" lon="4.5068">
        <ele>650.36102294922</ele>
        <time>2010-07-24T14:32:08Z</time>
      </trkpt>
      <trkpt lat="45.05759" lon="4.50664">
        <ele>651.01098632812</ele>
        <time>2010-07-24T14:32:14Z</time>
      </trkpt>
      <trkpt lat="45.05743" lon="4.50657">
        <ele>651.833984375</ele>
        <time>2010-07-24T14:32:19Z</time>
      </trkpt>
      <trkpt lat="45.05728" lon="4.50659">
        <ele>653.09698486328</ele>
        <time>2010-07-24T14:32:24Z</time>
      </trkpt>
      <trkpt lat="45.05711" lon="4.50666">
        <ele>654.86297607422</ele>
        <time>2010-07-24T14:32:30Z</time>
      </trkpt>
      <trkpt lat="45.05695" lon="4.50677">
        <ele>656.51599121094</ele>
        <time>2010-07-24T14:32:36Z</time>
      </trkpt>
      <trkpt lat="45.05679" lon="4.50678">
        <ele>657.95300292969</ele>
        <time>2010-07-24T14:32:41Z</time>
      </trkpt>
      <trkpt lat="45.05661" lon="4.50661">
        <ele>658.63702392578</ele>
        <time>2010-07-24T14:32:47Z</time>
      </trkpt>
      <trkpt lat="45.05656" lon="4.50653">
        <ele>658.61602783203</ele>
        <time>2010-07-24T14:32:49Z</time>
      </trkpt>
      <trkpt lat="45.05646" lon="4.50632">
        <ele>658.31597900391</ele>
        <time>2010-07-24T14:32:53Z</time>
      </trkpt>
      <trkpt lat="45.05648" lon="4.50609">
        <ele>657.60699462891</ele>
        <time>2010-07-24T14:32:57Z</time>
      </trkpt>
      <trkpt lat="45.0567" lon="4.506">
        <ele>656.22998046875</ele>
        <time>2010-07-24T14:33:01Z</time>
      </trkpt>
      <trkpt lat="45.05688" lon="4.50598">
        <ele>655.99499511719</ele>
        <time>2010-07-24T14:33:04Z</time>
      </trkpt>
      <trkpt lat="45.05706" lon="4.50589">
        <ele>655.52398681641</ele>
        <time>2010-07-24T14:33:07Z</time>
      </trkpt>
      <trkpt lat="45.05727" lon="4.50575">
        <ele>654.92700195312</ele>
        <time>2010-07-24T14:33:11Z</time>
      </trkpt>
      <trkpt lat="45.05756" lon="4.50538">
        <ele>654.27502441406</ele>
        <time>2010-07-24T14:33:17Z</time>
      </trkpt>
      <trkpt lat="45.05787" lon="4.50499">
        <ele>655.25</ele>
        <time>2010-07-24T14:33:23Z</time>
      </trkpt>
      <trkpt lat="45.05807" lon="4.50477">
        <ele>653.92199707031</ele>
        <time>2010-07-24T14:33:27Z</time>
      </trkpt>
      <trkpt lat="45.05819" lon="4.50445">
        <ele>651.97601318359</ele>
        <time>2010-07-24T14:33:31Z</time>
      </trkpt>
      <trkpt lat="45.05827" lon="4.50411">
        <ele>652.80401611328</ele>
        <time>2010-07-24T14:33:35Z</time>
      </trkpt>
      <trkpt lat="45.05836" lon="4.50393">
        <ele>651.74798583984</ele>
        <time>2010-07-24T14:33:37Z</time>
      </trkpt>
      <trkpt lat="45.05864" lon="4.5034">
        <ele>645.27502441406</ele>
        <time>2010-07-24T14:33:42Z</time>
      </trkpt>
      <trkpt lat="45.05877" lon="4.50317">
        <ele>643.01000976562</ele>
        <time>2010-07-24T14:33:44Z</time>
      </trkpt>
      <trkpt lat="45.05922" lon="4.50275">
        <ele>637.84997558594</ele>
        <time>2010-07-24T14:33:49Z</time>
      </trkpt>
      <trkpt lat="45.05932" lon="4.50268">
        <ele>636.51202392578</ele>
        <time>2010-07-24T14:33:50Z</time>
      </trkpt>
      <trkpt lat="45.05968" lon="4.50225">
        <ele>632.68499755859</ele>
        <time>2010-07-24T14:33:54Z</time>
      </trkpt>
      <trkpt lat="45.05971" lon="4.502">
        <ele>631.61901855469</ele>
        <time>2010-07-24T14:33:58Z</time>
      </trkpt>
      <trkpt lat="45.05957" lon="4.50207">
        <ele>629.78399658203</ele>
        <time>2010-07-24T14:34:00Z</time>
      </trkpt>
      <trkpt lat="45.05924" lon="4.50227">
        <ele>625.60900878906</ele>
        <time>2010-07-24T14:34:04Z</time>
      </trkpt>
      <trkpt lat="45.05883" lon="4.50235">
        <ele>621.63598632812</ele>
        <time>2010-07-24T14:34:08Z</time>
      </trkpt>
      <trkpt lat="45.05862" lon="4.50242">
        <ele>620.75402832031</ele>
        <time>2010-07-24T14:34:10Z</time>
      </trkpt>
      <trkpt lat="45.05843" lon="4.50263">
        <ele>618.83697509766</ele>
        <time>2010-07-24T14:34:12Z</time>
      </trkpt>
      <trkpt lat="45.05798" lon="4.50319">
        <ele>613.76098632812</ele>
        <time>2010-07-24T14:34:17Z</time>
      </trkpt>
      <trkpt lat="45.05785" lon="4.50316">
        <ele>614.04602050781</ele>
        <time>2010-07-24T14:34:20Z</time>
      </trkpt>
      <trkpt lat="45.05796" lon="4.50297">
        <ele>611.66198730469</ele>
        <time>2010-07-24T14:34:23Z</time>
      </trkpt>
      <trkpt lat="45.05812" lon="4.50274">
        <ele>609.875</ele>
        <time>2010-07-24T14:34:26Z</time>
      </trkpt>
      <trkpt lat="45.05827" lon="4.50223">
        <ele>606.92999267578</ele>
        <time>2010-07-24T14:34:30Z</time>
      </trkpt>
      <trkpt lat="45.05845" lon="4.50192">
        <ele>603.9580078125</ele>
        <time>2010-07-24T14:34:33Z</time>
      </trkpt>
      <trkpt lat="45.05859" lon="4.50178">
        <ele>601.98400878906</ele>
        <time>2010-07-24T14:34:35Z</time>
      </trkpt>
      <trkpt lat="45.05869" lon="4.50169">
        <ele>600.47198486328</ele>
        <time>2010-07-24T14:34:37Z</time>
      </trkpt>
      <trkpt lat="45.05872" lon="4.50146">
        <ele>598.37799072266</ele>
        <time>2010-07-24T14:34:41Z</time>
      </trkpt>
      <trkpt lat="45.05868" lon="4.50141">
        <ele>598.08898925781</ele>
        <time>2010-07-24T14:34:42Z</time>
      </trkpt>
      <trkpt lat="45.05856" lon="4.50127">
        <ele>596.52197265625</ele>
        <time>2010-07-24T14:34:44Z</time>
      </trkpt>
      <trkpt lat="45.05813" lon="4.50059">
        <ele>588.60498046875</ele>
        <time>2010-07-24T14:34:51Z</time>
      </trkpt>
      <trkpt lat="45.05798" lon="4.50021">
        <ele>583.27099609375</ele>
        <time>2010-07-24T14:34:54Z</time>
      </trkpt>
      <trkpt lat="45.05791" lon="4.4996">
        <ele>576.88397216797</ele>
        <time>2010-07-24T14:34:58Z</time>
      </trkpt>
      <trkpt lat="45.0579" lon="4.49941">
        <ele>575.81701660156</ele>
        <time>2010-07-24T14:35:00Z</time>
      </trkpt>
      <trkpt lat="45.0579" lon="4.49927">
        <ele>575.01397705078</ele>
        <time>2010-07-24T14:35:03Z</time>
      </trkpt>
      <trkpt lat="45.0579" lon="4.49902">
        <ele>573.17102050781</ele>
        <time>2010-07-24T14:35:08Z</time>
      </trkpt>
      <trkpt lat="45.05789" lon="4.49896">
        <ele>572.63299560547</ele>
        <time>2010-07-24T14:35:09Z</time>
      </trkpt>
      <trkpt lat="45.05796" lon="4.49855">
        <ele>570.46301269531</ele>
        <time>2010-07-24T14:35:14Z</time>
      </trkpt>
      <trkpt lat="45.05801" lon="4.49838">
        <ele>569.91900634766</ele>
        <time>2010-07-24T14:35:16Z</time>
      </trkpt>
      <trkpt lat="45.05808" lon="4.49782">
        <ele>566.36700439453</ele>
        <time>2010-07-24T14:35:21Z</time>
      </trkpt>
      <trkpt lat="45.05809" lon="4.49768">
        <ele>564.96899414062</ele>
        <time>2010-07-24T14:35:22Z</time>
      </trkpt>
      <trkpt lat="45.05818" lon="4.49728">
        <ele>562.01300048828</ele>
        <time>2010-07-24T14:35:25Z</time>
      </trkpt>
      <trkpt lat="45.05832" lon="4.49691">
        <ele>560.57098388672</ele>
        <time>2010-07-24T14:35:28Z</time>
      </trkpt>
      <trkpt lat="45.05836" lon="4.49659">
        <ele>560.51000976562</ele>
        <time>2010-07-24T14:35:31Z</time>
      </trkpt>
      <trkpt lat="45.0583" lon="4.49647">
        <ele>560.85101318359</ele>
        <time>2010-07-24T14:35:33Z</time>
      </trkpt>
      <trkpt lat="45.05823" lon="4.49629">
        <ele>561.75598144531</ele>
        <time>2010-07-24T14:35:38Z</time>
      </trkpt>
      <trkpt lat="45.05822" lon="4.49624">
        <ele>561.85998535156</ele>
        <time>2010-07-24T14:35:42Z</time>
      </trkpt>
      <trkpt lat="45.05814" lon="4.49611">
        <ele>561.416015625</ele>
        <time>2010-07-24T14:35:52Z</time>
      </trkpt>
      <trkpt lat="45.05814" lon="4.49607">
        <ele>561.36499023438</ele>
        <time>2010-07-24T14:35:57Z</time>
      </trkpt>
      <trkpt lat="45.05816" lon="4.49616">
        <ele>561.64001464844</ele>
        <time>2010-07-24T14:36:02Z</time>
      </trkpt>
      <trkpt lat="45.05819" lon="4.4962">
        <ele>561.81500244141</ele>
        <time>2010-07-24T14:36:07Z</time>
      </trkpt>
      <trkpt lat="45.05815" lon="4.49611">
        <ele>561.19201660156</ele>
        <time>2010-07-24T14:37:01Z</time>
      </trkpt>
      <trkpt lat="45.05802" lon="4.49603">
        <ele>560.68798828125</ele>
        <time>2010-07-24T14:37:05Z</time>
      </trkpt>
      <trkpt lat="45.05787" lon="4.49608">
        <ele>560.28698730469</ele>
        <time>2010-07-24T14:37:09Z</time>
      </trkpt>
      <trkpt lat="45.05779" lon="4.49612">
        <ele>560.94201660156</ele>
        <time>2010-07-24T14:37:11Z</time>
      </trkpt>
      <trkpt lat="45.05767" lon="4.49624">
        <ele>563.10699462891</ele>
        <time>2010-07-24T14:37:15Z</time>
      </trkpt>
      <trkpt lat="45.05756" lon="4.49633">
        <ele>564.74401855469</ele>
        <time>2010-07-24T14:37:19Z</time>
      </trkpt>
      <trkpt lat="45.05748" lon="4.49639">
        <ele>565.69201660156</ele>
        <time>2010-07-24T14:37:22Z</time>
      </trkpt>
      <trkpt lat="45.05738" lon="4.49648">
        <ele>566.78302001953</ele>
        <time>2010-07-24T14:37:26Z</time>
      </trkpt>
      <trkpt lat="45.0573" lon="4.49654">
        <ele>567.36499023438</ele>
        <time>2010-07-24T14:37:29Z</time>
      </trkpt>
      <trkpt lat="45.05712" lon="4.49671">
        <ele>569.72601318359</ele>
        <time>2010-07-24T14:37:36Z</time>
      </trkpt>
      <trkpt lat="45.057" lon="4.49685">
        <ele>572.84399414062</ele>
        <time>2010-07-24T14:37:42Z</time>
      </trkpt>
      <trkpt lat="45.05691" lon="4.49698">
        <ele>575.22998046875</ele>
        <time>2010-07-24T14:37:50Z</time>
      </trkpt>
      <trkpt lat="45.05692" lon="4.4969">
        <ele>575.02001953125</ele>
        <time>2010-07-24T14:37:53Z</time>
      </trkpt>
      <trkpt lat="45.05699" lon="4.49676">
        <ele>573.73999023438</ele>
        <time>2010-07-24T14:37:56Z</time>
      </trkpt>
      <trkpt lat="45.05702" lon="4.4967">
        <ele>573.52099609375</ele>
        <time>2010-07-24T14:37:57Z</time>
      </trkpt>
      <trkpt lat="45.05727" lon="4.49634">
        <ele>573.61401367188</ele>
        <time>2010-07-24T14:38:04Z</time>
      </trkpt>
      <trkpt lat="45.05758" lon="4.49598">
        <ele>572.73797607422</ele>
        <time>2010-07-24T14:38:12Z</time>
      </trkpt>
      <trkpt lat="45.058" lon="4.49563">
        <ele>572.13201904297</ele>
        <time>2010-07-24T14:38:21Z</time>
      </trkpt>
      <trkpt lat="45.0585" lon="4.49521">
        <ele>570.71398925781</ele>
        <time>2010-07-24T14:38:31Z</time>
      </trkpt>
      <trkpt lat="45.05879" lon="4.4949">
        <ele>569.42297363281</ele>
        <time>2010-07-24T14:38:37Z</time>
      </trkpt>
      <trkpt lat="45.05891" lon="4.49473">
        <ele>568.67797851562</ele>
        <time>2010-07-24T14:38:40Z</time>
      </trkpt>
      <trkpt lat="45.05913" lon="4.49461">
        <ele>568.7490234375</ele>
        <time>2010-07-24T14:38:44Z</time>
      </trkpt>
      <trkpt lat="45.05967" lon="4.49449">
        <ele>567.69299316406</ele>
        <time>2010-07-24T14:38:53Z</time>
      </trkpt>
      <trkpt lat="45.05997" lon="4.49443">
        <ele>570.64599609375</ele>
        <time>2010-07-24T14:38:59Z</time>
      </trkpt>
      <trkpt lat="45.06028" lon="4.49436">
        <ele>572.42999267578</ele>
        <time>2010-07-24T14:39:07Z</time>
      </trkpt>
      <trkpt lat="45.06058" lon="4.49427">
        <ele>573.92102050781</ele>
        <time>2010-07-24T14:39:15Z</time>
      </trkpt>
      <trkpt lat="45.06077" lon="4.4941">
        <ele>575.11499023438</ele>
        <time>2010-07-24T14:39:21Z</time>
      </trkpt>
      <trkpt lat="45.06102" lon="4.49391">
        <ele>576.56201171875</ele>
        <time>2010-07-24T14:39:29Z</time>
      </trkpt>
      <trkpt lat="45.06113" lon="4.49389">
        <ele>576.57897949219</ele>
        <time>2010-07-24T14:39:32Z</time>
      </trkpt>
      <trkpt lat="45.06139" lon="4.49404">
        <ele>577.52398681641</ele>
        <time>2010-07-24T14:39:39Z</time>
      </trkpt>
      <trkpt lat="45.06161" lon="4.49416">
        <ele>578.08197021484</ele>
        <time>2010-07-24T14:39:45Z</time>
      </trkpt>
      <trkpt lat="45.06192" lon="4.49422">
        <ele>578.30297851562</ele>
        <time>2010-07-24T14:39:53Z</time>
      </trkpt>
      <trkpt lat="45.06232" lon="4.4943">
        <ele>579.27099609375</ele>
        <time>2010-07-24T14:40:03Z</time>
      </trkpt>
      <trkpt lat="45.06261" lon="4.4943">
        <ele>579.78601074219</ele>
        <time>2010-07-24T14:40:10Z</time>
      </trkpt>
      <trkpt lat="45.06299" lon="4.49426">
        <ele>580.84197998047</ele>
        <time>2010-07-24T14:40:19Z</time>
      </trkpt>
      <trkpt lat="45.06312" lon="4.49426">
        <ele>581.22399902344</ele>
        <time>2010-07-24T14:40:22Z</time>
      </trkpt>
      <trkpt lat="45.0635" lon="4.49432">
        <ele>581.63702392578</ele>
        <time>2010-07-24T14:40:31Z</time>
      </trkpt>
      <trkpt lat="45.06383" lon="4.49438">
        <ele>581.62701416016</ele>
        <time>2010-07-24T14:40:39Z</time>
      </trkpt>
      <trkpt lat="45.06395" lon="4.49439">
        <ele>582.39801025391</ele>
        <time>2010-07-24T14:40:42Z</time>
      </trkpt>
      <trkpt lat="45.06424" lon="4.49426">
        <ele>582.69396972656</ele>
        <time>2010-07-24T14:40:49Z</time>
      </trkpt>
      <trkpt lat="45.06437" lon="4.4941">
        <ele>582.07098388672</ele>
        <time>2010-07-24T14:40:53Z</time>
      </trkpt>
      <trkpt lat="45.0645" lon="4.49374">
        <ele>582.29400634766</ele>
        <time>2010-07-24T14:41:00Z</time>
      </trkpt>
      <trkpt lat="45.06451" lon="4.49369">
        <ele>582.27697753906</ele>
        <time>2010-07-24T14:41:01Z</time>
      </trkpt>
      <trkpt lat="45.06464" lon="4.49343">
        <ele>582.41101074219</ele>
        <time>2010-07-24T14:41:06Z</time>
      </trkpt>
      <trkpt lat="45.06475" lon="4.49323">
        <ele>582.99597167969</ele>
        <time>2010-07-24T14:41:10Z</time>
      </trkpt>
      <trkpt lat="45.06496" lon="4.4929">
        <ele>584.10699462891</ele>
        <time>2010-07-24T14:41:17Z</time>
      </trkpt>
      <trkpt lat="45.06499" lon="4.49286">
        <ele>584.12799072266</ele>
        <time>2010-07-24T14:41:18Z</time>
      </trkpt>
      <trkpt lat="45.0651" lon="4.49273">
        <ele>584.34698486328</ele>
        <time>2010-07-24T14:41:21Z</time>
      </trkpt>
      <trkpt lat="45.06536" lon="4.49237">
        <ele>585.46801757812</ele>
        <time>2010-07-24T14:41:29Z</time>
      </trkpt>
      <trkpt lat="45.06558" lon="4.49213">
        <ele>585.75897216797</ele>
        <time>2010-07-24T14:41:35Z</time>
      </trkpt>
      <trkpt lat="45.06595" lon="4.49181">
        <ele>586.32299804688</ele>
        <time>2010-07-24T14:41:44Z</time>
      </trkpt>
      <trkpt lat="45.06627" lon="4.49147">
        <ele>586.91900634766</ele>
        <time>2010-07-24T14:41:52Z</time>
      </trkpt>
      <trkpt lat="45.06661" lon="4.4912">
        <ele>587.53802490234</ele>
        <time>2010-07-24T14:42:00Z</time>
      </trkpt>
      <trkpt lat="45.06705" lon="4.49094">
        <ele>587.75299072266</ele>
        <time>2010-07-24T14:42:10Z</time>
      </trkpt>
      <trkpt lat="45.06718" lon="4.49087">
        <ele>587.78002929688</ele>
        <time>2010-07-24T14:42:13Z</time>
      </trkpt>
      <trkpt lat="45.06727" lon="4.49083">
        <ele>588.40698242188</ele>
        <time>2010-07-24T14:42:15Z</time>
      </trkpt>
      <trkpt lat="45.06743" lon="4.49071">
        <ele>589.26800537109</ele>
        <time>2010-07-24T14:42:19Z</time>
      </trkpt>
      <trkpt lat="45.06757" lon="4.49053">
        <ele>588.63098144531</ele>
        <time>2010-07-24T14:42:23Z</time>
      </trkpt>
      <trkpt lat="45.06765" lon="4.49037">
        <ele>588.30102539062</ele>
        <time>2010-07-24T14:42:26Z</time>
      </trkpt>
      <trkpt lat="45.06791" lon="4.49006">
        <ele>589.55603027344</ele>
        <time>2010-07-24T14:42:33Z</time>
      </trkpt>
      <trkpt lat="45.06811" lon="4.48992">
        <ele>590.875</ele>
        <time>2010-07-24T14:42:38Z</time>
      </trkpt>
      <trkpt lat="45.06814" lon="4.48989">
        <ele>591.03198242188</ele>
        <time>2010-07-24T14:42:39Z</time>
      </trkpt>
      <trkpt lat="45.06845" lon="4.48963">
        <ele>591.35998535156</ele>
        <time>2010-07-24T14:42:47Z</time>
      </trkpt>
      <trkpt lat="45.06865" lon="4.48945">
        <ele>591.72497558594</ele>
        <time>2010-07-24T14:42:52Z</time>
      </trkpt>
      <trkpt lat="45.06889" lon="4.48925">
        <ele>592.02801513672</ele>
        <time>2010-07-24T14:42:58Z</time>
      </trkpt>
      <trkpt lat="45.06918" lon="4.48906">
        <ele>593.15899658203</ele>
        <time>2010-07-24T14:43:05Z</time>
      </trkpt>
      <trkpt lat="45.06923" lon="4.48904">
        <ele>593.21997070312</ele>
        <time>2010-07-24T14:43:06Z</time>
      </trkpt>
      <trkpt lat="45.06946" lon="4.48894">
        <ele>593.47497558594</ele>
        <time>2010-07-24T14:43:11Z</time>
      </trkpt>
      <trkpt lat="45.0697" lon="4.48871">
        <ele>594.20501708984</ele>
        <time>2010-07-24T14:43:17Z</time>
      </trkpt>
      <trkpt lat="45.06973" lon="4.48866">
        <ele>594.28302001953</ele>
        <time>2010-07-24T14:43:18Z</time>
      </trkpt>
      <trkpt lat="45.06996" lon="4.48839">
        <ele>594.33898925781</ele>
        <time>2010-07-24T14:43:24Z</time>
      </trkpt>
      <trkpt lat="45.07017" lon="4.48837">
        <ele>595.03302001953</ele>
        <time>2010-07-24T14:43:28Z</time>
      </trkpt>
      <trkpt lat="45.07056" lon="4.48835">
        <ele>595.64001464844</ele>
        <time>2010-07-24T14:43:36Z</time>
      </trkpt>
      <trkpt lat="45.0707" lon="4.48835">
        <ele>595.833984375</ele>
        <time>2010-07-24T14:43:39Z</time>
      </trkpt>
      <trkpt lat="45.07098" lon="4.48841">
        <ele>596.08599853516</ele>
        <time>2010-07-24T14:43:45Z</time>
      </trkpt>
      <trkpt lat="45.07136" lon="4.48861">
        <ele>596.97900390625</ele>
        <time>2010-07-24T14:43:53Z</time>
      </trkpt>
      <trkpt lat="45.07156" lon="4.48879">
        <ele>597.42797851562</ele>
        <time>2010-07-24T14:43:58Z</time>
      </trkpt>
      <trkpt lat="45.07184" lon="4.4892">
        <ele>597.82598876953</ele>
        <time>2010-07-24T14:44:06Z</time>
      </trkpt>
      <trkpt lat="45.07207" lon="4.48966">
        <ele>598.97998046875</ele>
        <time>2010-07-24T14:44:14Z</time>
      </trkpt>
      <trkpt lat="45.07212" lon="4.48978">
        <ele>599.21899414062</ele>
        <time>2010-07-24T14:44:16Z</time>
      </trkpt>
      <trkpt lat="45.0723" lon="4.49037">
        <ele>600.71899414062</ele>
        <time>2010-07-24T14:44:25Z</time>
      </trkpt>
      <trkpt lat="45.07242" lon="4.4907">
        <ele>601.15100097656</ele>
        <time>2010-07-24T14:44:30Z</time>
      </trkpt>
      <trkpt lat="45.07244" lon="4.49099">
        <ele>601.03100585938</ele>
        <time>2010-07-24T14:44:34Z</time>
      </trkpt>
      <trkpt lat="45.07244" lon="4.49142">
        <ele>601.82598876953</ele>
        <time>2010-07-24T14:44:40Z</time>
      </trkpt>
      <trkpt lat="45.07244" lon="4.49191">
        <ele>602.00799560547</ele>
        <time>2010-07-24T14:44:47Z</time>
      </trkpt>
      <trkpt lat="45.07245" lon="4.49218">
        <ele>602.56097412109</ele>
        <time>2010-07-24T14:44:51Z</time>
      </trkpt>
      <trkpt lat="45.07251" lon="4.49278">
        <ele>603.30700683594</ele>
        <time>2010-07-24T14:45:00Z</time>
      </trkpt>
      <trkpt lat="45.07257" lon="4.4931">
        <ele>603.57702636719</ele>
        <time>2010-07-24T14:45:05Z</time>
      </trkpt>
      <trkpt lat="45.07272" lon="4.49337">
        <ele>603.65997314453</ele>
        <time>2010-07-24T14:45:10Z</time>
      </trkpt>
      <trkpt lat="45.0729" lon="4.4934">
        <ele>604.1669921875</ele>
        <time>2010-07-24T14:45:14Z</time>
      </trkpt>
      <trkpt lat="45.07299" lon="4.49333">
        <ele>604.44201660156</ele>
        <time>2010-07-24T14:45:16Z</time>
      </trkpt>
      <trkpt lat="45.07323" lon="4.49312">
        <ele>604.41900634766</ele>
        <time>2010-07-24T14:45:22Z</time>
      </trkpt>
      <trkpt lat="45.07341" lon="4.49294">
        <ele>605.08099365234</ele>
        <time>2010-07-24T14:45:27Z</time>
      </trkpt>
      <trkpt lat="45.07361" lon="4.49279">
        <ele>606.03997802734</ele>
        <time>2010-07-24T14:45:32Z</time>
      </trkpt>
      <trkpt lat="45.07365" lon="4.49275">
        <ele>605.88098144531</ele>
        <time>2010-07-24T14:45:33Z</time>
      </trkpt>
      <trkpt lat="45.0738" lon="4.49259">
        <ele>605.83099365234</ele>
        <time>2010-07-24T14:45:37Z</time>
      </trkpt>
      <trkpt lat="45.07393" lon="4.49245">
        <ele>606.23901367188</ele>
        <time>2010-07-24T14:45:40Z</time>
      </trkpt>
      <trkpt lat="45.07415" lon="4.49212">
        <ele>605.68298339844</ele>
        <time>2010-07-24T14:45:46Z</time>
      </trkpt>
      <trkpt lat="45.0742" lon="4.49202">
        <ele>606.23101806641</ele>
        <time>2010-07-24T14:45:48Z</time>
      </trkpt>
      <trkpt lat="45.07439" lon="4.49178">
        <ele>607.91497802734</ele>
        <time>2010-07-24T14:45:54Z</time>
      </trkpt>
      <trkpt lat="45.07455" lon="4.4916">
        <ele>607.78302001953</ele>
        <time>2010-07-24T14:45:58Z</time>
      </trkpt>
      <trkpt lat="45.07465" lon="4.49146">
        <ele>607.68499755859</ele>
        <time>2010-07-24T14:46:01Z</time>
      </trkpt>
      <trkpt lat="45.07483" lon="4.49131">
        <ele>607.79400634766</ele>
        <time>2010-07-24T14:46:06Z</time>
      </trkpt>
      <trkpt lat="45.07501" lon="4.49122">
        <ele>608.20501708984</ele>
        <time>2010-07-24T14:46:10Z</time>
      </trkpt>
      <trkpt lat="45.07533" lon="4.49087">
        <ele>608.80700683594</ele>
        <time>2010-07-24T14:46:17Z</time>
      </trkpt>
      <trkpt lat="45.07541" lon="4.49069">
        <ele>609.58099365234</ele>
        <time>2010-07-24T14:46:20Z</time>
      </trkpt>
      <trkpt lat="45.07549" lon="4.49042">
        <ele>610.84301757812</ele>
        <time>2010-07-24T14:46:25Z</time>
      </trkpt>
      <trkpt lat="45.07563" lon="4.49031">
        <ele>610.94299316406</ele>
        <time>2010-07-24T14:46:29Z</time>
      </trkpt>
      <trkpt lat="45.07581" lon="4.4902">
        <ele>612.11297607422</ele>
        <time>2010-07-24T14:46:33Z</time>
      </trkpt>
      <trkpt lat="45.0761" lon="4.49008">
        <ele>612.5009765625</ele>
        <time>2010-07-24T14:46:38Z</time>
      </trkpt>
      <trkpt lat="45.07642" lon="4.4901">
        <ele>612.85699462891</ele>
        <time>2010-07-24T14:46:44Z</time>
      </trkpt>
      <trkpt lat="45.07662" lon="4.49017">
        <ele>613.17102050781</ele>
        <time>2010-07-24T14:46:48Z</time>
      </trkpt>
      <trkpt lat="45.07692" lon="4.49043">
        <ele>612.96899414062</ele>
        <time>2010-07-24T14:46:55Z</time>
      </trkpt>
      <trkpt lat="45.07705" lon="4.49065">
        <ele>613.66900634766</ele>
        <time>2010-07-24T14:46:59Z</time>
      </trkpt>
      <trkpt lat="45.07713" lon="4.49075">
        <ele>613.30700683594</ele>
        <time>2010-07-24T14:47:01Z</time>
      </trkpt>
      <trkpt lat="45.07759" lon="4.49118">
        <ele>615.42297363281</ele>
        <time>2010-07-24T14:47:12Z</time>
      </trkpt>
      <trkpt lat="45.07771" lon="4.49129">
        <ele>614.63098144531</ele>
        <time>2010-07-24T14:47:15Z</time>
      </trkpt>
      <trkpt lat="45.07794" lon="4.49135">
        <ele>614.80902099609</ele>
        <time>2010-07-24T14:47:20Z</time>
      </trkpt>
      <trkpt lat="45.07809" lon="4.49122">
        <ele>615.72998046875</ele>
        <time>2010-07-24T14:47:24Z</time>
      </trkpt>
      <trkpt lat="45.07812" lon="4.49117">
        <ele>615.76098632812</ele>
        <time>2010-07-24T14:47:25Z</time>
      </trkpt>
      <trkpt lat="45.07828" lon="4.49077">
        <ele>616.09600830078</ele>
        <time>2010-07-24T14:47:32Z</time>
      </trkpt>
      <trkpt lat="45.07846" lon="4.49029">
        <ele>616.34802246094</ele>
        <time>2010-07-24T14:47:40Z</time>
      </trkpt>
      <trkpt lat="45.07849" lon="4.49023">
        <ele>616.28698730469</ele>
        <time>2010-07-24T14:47:41Z</time>
      </trkpt>
      <trkpt lat="45.07869" lon="4.49005">
        <ele>616.59100341797</ele>
        <time>2010-07-24T14:47:46Z</time>
      </trkpt>
      <trkpt lat="45.07884" lon="4.49002">
        <ele>617.26202392578</ele>
        <time>2010-07-24T14:47:49Z</time>
      </trkpt>
      <trkpt lat="45.07922" lon="4.4901">
        <ele>618.03100585938</ele>
        <time>2010-07-24T14:47:57Z</time>
      </trkpt>
      <trkpt lat="45.07951" lon="4.49023">
        <ele>618.78302001953</ele>
        <time>2010-07-24T14:48:03Z</time>
      </trkpt>
      <trkpt lat="45.07972" lon="4.49033">
        <ele>619.44201660156</ele>
        <time>2010-07-24T14:48:07Z</time>
      </trkpt>
      <trkpt lat="45.07997" lon="4.49046">
        <ele>620.06298828125</ele>
        <time>2010-07-24T14:48:12Z</time>
      </trkpt>
      <trkpt lat="45.08021" lon="4.49046">
        <ele>620.17602539062</ele>
        <time>2010-07-24T14:48:17Z</time>
      </trkpt>
      <trkpt lat="45.08034" lon="4.49034">
        <ele>620.57800292969</ele>
        <time>2010-07-24T14:48:20Z</time>
      </trkpt>
      <trkpt lat="45.08067" lon="4.48988">
        <ele>622.13000488281</ele>
        <time>2010-07-24T14:48:29Z</time>
      </trkpt>
      <trkpt lat="45.08085" lon="4.48964">
        <ele>622.77697753906</ele>
        <time>2010-07-24T14:48:34Z</time>
      </trkpt>
      <trkpt lat="45.08101" lon="4.48927">
        <ele>623.81597900391</ele>
        <time>2010-07-24T14:48:40Z</time>
      </trkpt>
      <trkpt lat="45.08117" lon="4.48873">
        <ele>624.23999023438</ele>
        <time>2010-07-24T14:48:48Z</time>
      </trkpt>
      <trkpt lat="45.08128" lon="4.48839">
        <ele>623.98498535156</ele>
        <time>2010-07-24T14:48:53Z</time>
      </trkpt>
      <trkpt lat="45.08131" lon="4.48825">
        <ele>624.42700195312</ele>
        <time>2010-07-24T14:48:55Z</time>
      </trkpt>
      <trkpt lat="45.08133" lon="4.48795">
        <ele>624.33801269531</ele>
        <time>2010-07-24T14:48:59Z</time>
      </trkpt>
      <trkpt lat="45.08134" lon="4.48749">
        <ele>624.26397705078</ele>
        <time>2010-07-24T14:49:05Z</time>
      </trkpt>
      <trkpt lat="45.08136" lon="4.48695">
        <ele>624.93798828125</ele>
        <time>2010-07-24T14:49:12Z</time>
      </trkpt>
      <trkpt lat="45.08146" lon="4.48643">
        <ele>625.77600097656</ele>
        <time>2010-07-24T14:49:19Z</time>
      </trkpt>
      <trkpt lat="45.08156" lon="4.48593">
        <ele>625.84600830078</ele>
        <time>2010-07-24T14:49:26Z</time>
      </trkpt>
      <trkpt lat="45.08166" lon="4.48537">
        <ele>625.63702392578</ele>
        <time>2010-07-24T14:49:34Z</time>
      </trkpt>
      <trkpt lat="45.08174" lon="4.48485">
        <ele>627.69097900391</ele>
        <time>2010-07-24T14:49:41Z</time>
      </trkpt>
      <trkpt lat="45.08185" lon="4.48432">
        <ele>626.92700195312</ele>
        <time>2010-07-24T14:49:48Z</time>
      </trkpt>
      <trkpt lat="45.08192" lon="4.48402">
        <ele>627.79302978516</ele>
        <time>2010-07-24T14:49:52Z</time>
      </trkpt>
      <trkpt lat="45.08194" lon="4.48389">
        <ele>628.17297363281</ele>
        <time>2010-07-24T14:49:54Z</time>
      </trkpt>
      <trkpt lat="45.08205" lon="4.48345">
        <ele>630.27197265625</ele>
        <time>2010-07-24T14:50:00Z</time>
      </trkpt>
      <trkpt lat="45.08226" lon="4.48278">
        <ele>630.73400878906</ele>
        <time>2010-07-24T14:50:09Z</time>
      </trkpt>
      <trkpt lat="45.08239" lon="4.48241">
        <ele>631.66900634766</ele>
        <time>2010-07-24T14:50:15Z</time>
      </trkpt>
      <trkpt lat="45.08251" lon="4.482">
        <ele>632.55999755859</ele>
        <time>2010-07-24T14:50:22Z</time>
      </trkpt>
      <trkpt lat="45.08261" lon="4.48173">
        <ele>632.02301025391</ele>
        <time>2010-07-24T14:50:27Z</time>
      </trkpt>
      <trkpt lat="45.08271" lon="4.48149">
        <ele>632.34002685547</ele>
        <time>2010-07-24T14:50:32Z</time>
      </trkpt>
      <trkpt lat="45.08283" lon="4.48127">
        <ele>632.79699707031</ele>
        <time>2010-07-24T14:50:37Z</time>
      </trkpt>
      <trkpt lat="45.08298" lon="4.48098">
        <ele>633.04998779297</ele>
        <time>2010-07-24T14:50:44Z</time>
      </trkpt>
      <trkpt lat="45.08311" lon="4.4807">
        <ele>633.74200439453</ele>
        <time>2010-07-24T14:50:50Z</time>
      </trkpt>
      <trkpt lat="45.08319" lon="4.4805">
        <ele>633.81201171875</ele>
        <time>2010-07-24T14:50:54Z</time>
      </trkpt>
      <trkpt lat="45.08342" lon="4.48004">
        <ele>633.83801269531</ele>
        <time>2010-07-24T14:51:03Z</time>
      </trkpt>
      <trkpt lat="45.08347" lon="4.47994">
        <ele>634.25799560547</ele>
        <time>2010-07-24T14:51:05Z</time>
      </trkpt>
      <trkpt lat="45.08355" lon="4.47963">
        <ele>633.83697509766</ele>
        <time>2010-07-24T14:51:10Z</time>
      </trkpt>
      <trkpt lat="45.08357" lon="4.47936">
        <ele>634.19799804688</ele>
        <time>2010-07-24T14:51:14Z</time>
      </trkpt>
      <trkpt lat="45.0836" lon="4.47922">
        <ele>634.36999511719</ele>
        <time>2010-07-24T14:51:16Z</time>
      </trkpt>
      <trkpt lat="45.08375" lon="4.47893">
        <ele>634.49401855469</ele>
        <time>2010-07-24T14:51:21Z</time>
      </trkpt>
      <trkpt lat="45.08385" lon="4.47887">
        <ele>635.05999755859</ele>
        <time>2010-07-24T14:51:23Z</time>
      </trkpt>
      <trkpt lat="45.08413" lon="4.47887">
        <ele>635.87902832031</ele>
        <time>2010-07-24T14:51:29Z</time>
      </trkpt>
      <trkpt lat="45.08421" lon="4.47892">
        <ele>636.00897216797</ele>
        <time>2010-07-24T14:51:31Z</time>
      </trkpt>
      <trkpt lat="45.08443" lon="4.47926">
        <ele>637.03698730469</ele>
        <time>2010-07-24T14:51:39Z</time>
      </trkpt>
      <trkpt lat="45.08458" lon="4.47932">
        <ele>637.54602050781</ele>
        <time>2010-07-24T14:51:43Z</time>
      </trkpt>
      <trkpt lat="45.08481" lon="4.47931">
        <ele>637.64001464844</ele>
        <time>2010-07-24T14:51:49Z</time>
      </trkpt>
      <trkpt lat="45.08503" lon="4.47926">
        <ele>638.03198242188</ele>
        <time>2010-07-24T14:51:55Z</time>
      </trkpt>
      <trkpt lat="45.08523" lon="4.47912">
        <ele>639.20397949219</ele>
        <time>2010-07-24T14:52:01Z</time>
      </trkpt>
      <trkpt lat="45.08542" lon="4.47893">
        <ele>639.87298583984</ele>
        <time>2010-07-24T14:52:07Z</time>
      </trkpt>
      <trkpt lat="45.08545" lon="4.47889">
        <ele>640</ele>
        <time>2010-07-24T14:52:08Z</time>
      </trkpt>
      <trkpt lat="45.08578" lon="4.47852">
        <ele>641.05102539062</ele>
        <time>2010-07-24T14:52:18Z</time>
      </trkpt>
      <trkpt lat="45.08583" lon="4.47844">
        <ele>641.28100585938</ele>
        <time>2010-07-24T14:52:20Z</time>
      </trkpt>
      <trkpt lat="45.08603" lon="4.47812">
        <ele>642.63397216797</ele>
        <time>2010-07-24T14:52:27Z</time>
      </trkpt>
      <trkpt lat="45.0861" lon="4.47804">
        <ele>643.06298828125</ele>
        <time>2010-07-24T14:52:29Z</time>
      </trkpt>
      <trkpt lat="45.08624" lon="4.47779">
        <ele>642.8740234375</ele>
        <time>2010-07-24T14:52:34Z</time>
      </trkpt>
      <trkpt lat="45.08639" lon="4.47745">
        <ele>643.42797851562</ele>
        <time>2010-07-24T14:52:40Z</time>
      </trkpt>
      <trkpt lat="45.08643" lon="4.47735">
        <ele>643.49597167969</ele>
        <time>2010-07-24T14:52:42Z</time>
      </trkpt>
      <trkpt lat="45.08652" lon="4.4772">
        <ele>643.45397949219</ele>
        <time>2010-07-24T14:52:45Z</time>
      </trkpt>
      <trkpt lat="45.08668" lon="4.47701">
        <ele>643.86901855469</ele>
        <time>2010-07-24T14:52:49Z</time>
      </trkpt>
      <trkpt lat="45.08675" lon="4.47692">
        <ele>643.68499755859</ele>
        <time>2010-07-24T14:52:51Z</time>
      </trkpt>
      <trkpt lat="45.08683" lon="4.47678">
        <ele>643.73199462891</ele>
        <time>2010-07-24T14:52:54Z</time>
      </trkpt>
      <trkpt lat="45.08704" lon="4.47651">
        <ele>645.10699462891</ele>
        <time>2010-07-24T14:53:00Z</time>
      </trkpt>
      <trkpt lat="45.08711" lon="4.47643">
        <ele>644.90600585938</ele>
        <time>2010-07-24T14:53:02Z</time>
      </trkpt>
      <trkpt lat="45.08733" lon="4.4761">
        <ele>644.93597412109</ele>
        <time>2010-07-24T14:53:09Z</time>
      </trkpt>
      <trkpt lat="45.08737" lon="4.47606">
        <ele>645.06701660156</ele>
        <time>2010-07-24T14:53:10Z</time>
      </trkpt>
      <trkpt lat="45.08743" lon="4.47595">
        <ele>646.01501464844</ele>
        <time>2010-07-24T14:53:12Z</time>
      </trkpt>
      <trkpt lat="45.08761" lon="4.47558">
        <ele>648.68200683594</ele>
        <time>2010-07-24T14:53:18Z</time>
      </trkpt>
      <trkpt lat="45.08764" lon="4.47552">
        <ele>648.59100341797</ele>
        <time>2010-07-24T14:53:19Z</time>
      </trkpt>
      <trkpt lat="45.08783" lon="4.47507">
        <ele>648.98699951172</ele>
        <time>2010-07-24T14:53:26Z</time>
      </trkpt>
      <trkpt lat="45.08789" lon="4.47495">
        <ele>649.29901123047</ele>
        <time>2010-07-24T14:53:28Z</time>
      </trkpt>
      <trkpt lat="45.08792" lon="4.47461">
        <ele>649.99102783203</ele>
        <time>2010-07-24T14:53:33Z</time>
      </trkpt>
      <trkpt lat="45.088" lon="4.47431">
        <ele>650.17602539062</ele>
        <time>2010-07-24T14:53:38Z</time>
      </trkpt>
      <trkpt lat="45.0881" lon="4.47421">
        <ele>650.53198242188</ele>
        <time>2010-07-24T14:53:41Z</time>
      </trkpt>
      <trkpt lat="45.08832" lon="4.47414">
        <ele>650.83099365234</ele>
        <time>2010-07-24T14:53:47Z</time>
      </trkpt>
      <trkpt lat="45.08849" lon="4.47409">
        <ele>651.07000732422</ele>
        <time>2010-07-24T14:53:51Z</time>
      </trkpt>
      <trkpt lat="45.0887" lon="4.47402">
        <ele>652.05499267578</ele>
        <time>2010-07-24T14:53:56Z</time>
      </trkpt>
      <trkpt lat="45.08875" lon="4.47401">
        <ele>652.11401367188</ele>
        <time>2010-07-24T14:53:57Z</time>
      </trkpt>
      <trkpt lat="45.08897" lon="4.47401">
        <ele>652.48498535156</ele>
        <time>2010-07-24T14:54:02Z</time>
      </trkpt>
      <trkpt lat="45.0891" lon="4.47404">
        <ele>652.63000488281</ele>
        <time>2010-07-24T14:54:05Z</time>
      </trkpt>
      <trkpt lat="45.08923" lon="4.47407">
        <ele>652.48400878906</ele>
        <time>2010-07-24T14:54:08Z</time>
      </trkpt>
      <trkpt lat="45.08947" lon="4.47417">
        <ele>653.23199462891</ele>
        <time>2010-07-24T14:54:13Z</time>
      </trkpt>
      <trkpt lat="45.08961" lon="4.47428">
        <ele>653.22698974609</ele>
        <time>2010-07-24T14:54:16Z</time>
      </trkpt>
      <trkpt lat="45.08995" lon="4.47462">
        <ele>653.58599853516</ele>
        <time>2010-07-24T14:54:24Z</time>
      </trkpt>
      <trkpt lat="45.09015" lon="4.47488">
        <ele>653.47399902344</ele>
        <time>2010-07-24T14:54:29Z</time>
      </trkpt>
      <trkpt lat="45.09035" lon="4.47495">
        <ele>654.44097900391</ele>
        <time>2010-07-24T14:54:33Z</time>
      </trkpt>
      <trkpt lat="45.0904" lon="4.47493">
        <ele>654.63397216797</ele>
        <time>2010-07-24T14:54:34Z</time>
      </trkpt>
      <trkpt lat="45.09066" lon="4.47482">
        <ele>654.166015625</ele>
        <time>2010-07-24T14:54:40Z</time>
      </trkpt>
      <trkpt lat="45.09084" lon="4.47475">
        <ele>654.45599365234</ele>
        <time>2010-07-24T14:54:44Z</time>
      </trkpt>
      <trkpt lat="45.09094" lon="4.47472">
        <ele>654.51800537109</ele>
        <time>2010-07-24T14:54:46Z</time>
      </trkpt>
      <trkpt lat="45.09126" lon="4.47468">
        <ele>654.27600097656</ele>
        <time>2010-07-24T14:54:52Z</time>
      </trkpt>
      <trkpt lat="45.09163" lon="4.47467">
        <ele>654.86401367188</ele>
        <time>2010-07-24T14:54:59Z</time>
      </trkpt>
      <trkpt lat="45.0919" lon="4.47469">
        <ele>655.30401611328</ele>
        <time>2010-07-24T14:55:04Z</time>
      </trkpt>
      <trkpt lat="45.09195" lon="4.4747">
        <ele>655.57397460938</ele>
        <time>2010-07-24T14:55:05Z</time>
      </trkpt>
      <trkpt lat="45.09228" lon="4.4748">
        <ele>656.56799316406</ele>
        <time>2010-07-24T14:55:11Z</time>
      </trkpt>
      <trkpt lat="45.09234" lon="4.47482">
        <ele>656.70501708984</ele>
        <time>2010-07-24T14:55:12Z</time>
      </trkpt>
      <trkpt lat="45.09245" lon="4.47488">
        <ele>656.89300537109</ele>
        <time>2010-07-24T14:55:14Z</time>
      </trkpt>
      <trkpt lat="45.09268" lon="4.47516">
        <ele>657.36798095703</ele>
        <time>2010-07-24T14:55:19Z</time>
      </trkpt>
      <trkpt lat="45.09288" lon="4.47547">
        <ele>656.38000488281</ele>
        <time>2010-07-24T14:55:24Z</time>
      </trkpt>
      <trkpt lat="45.09305" lon="4.47576">
        <ele>656.10998535156</ele>
        <time>2010-07-24T14:55:29Z</time>
      </trkpt>
      <trkpt lat="45.09333" lon="4.47609">
        <ele>657.52801513672</ele>
        <time>2010-07-24T14:55:36Z</time>
      </trkpt>
      <trkpt lat="45.09354" lon="4.47639">
        <ele>657.54901123047</ele>
        <time>2010-07-24T14:55:42Z</time>
      </trkpt>
      <trkpt lat="45.09358" lon="4.47643">
        <ele>657.16802978516</ele>
        <time>2010-07-24T14:55:43Z</time>
      </trkpt>
      <trkpt lat="45.09365" lon="4.47649">
        <ele>656.28997802734</ele>
        <time>2010-07-24T14:55:45Z</time>
      </trkpt>
      <trkpt lat="45.09371" lon="4.47652">
        <ele>657.02099609375</ele>
        <time>2010-07-24T14:55:47Z</time>
      </trkpt>
      <trkpt lat="45.09401" lon="4.47653">
        <ele>659.07598876953</ele>
        <time>2010-07-24T14:55:53Z</time>
      </trkpt>
      <trkpt lat="45.09411" lon="4.47654">
        <ele>658.81597900391</ele>
        <time>2010-07-24T14:55:55Z</time>
      </trkpt>
      <trkpt lat="45.09444" lon="4.47647">
        <ele>660.03802490234</ele>
        <time>2010-07-24T14:56:02Z</time>
      </trkpt>
      <trkpt lat="45.09467" lon="4.47642">
        <ele>659.86999511719</ele>
        <time>2010-07-24T14:56:08Z</time>
      </trkpt>
      <trkpt lat="45.09483" lon="4.4765">
        <ele>659.83502197266</ele>
        <time>2010-07-24T14:56:12Z</time>
      </trkpt>
      <trkpt lat="45.0949" lon="4.47665">
        <ele>660.23101806641</ele>
        <time>2010-07-24T14:56:15Z</time>
      </trkpt>
      <trkpt lat="45.09506" lon="4.47701">
        <ele>660.19799804688</ele>
        <time>2010-07-24T14:56:23Z</time>
      </trkpt>
      <trkpt lat="45.0952" lon="4.47706">
        <ele>660.1669921875</ele>
        <time>2010-07-24T14:56:27Z</time>
      </trkpt>
      <trkpt lat="45.09543" lon="4.47699">
        <ele>660.93402099609</ele>
        <time>2010-07-24T14:56:33Z</time>
      </trkpt>
      <trkpt lat="45.09574" lon="4.47688">
        <ele>661.20001220703</ele>
        <time>2010-07-24T14:56:40Z</time>
      </trkpt>
      <trkpt lat="45.09596" lon="4.47676">
        <ele>661.97100830078</ele>
        <time>2010-07-24T14:56:45Z</time>
      </trkpt>
      <trkpt lat="45.09622" lon="4.47661">
        <ele>663.02001953125</ele>
        <time>2010-07-24T14:56:51Z</time>
      </trkpt>
      <trkpt lat="45.09646" lon="4.47646">
        <ele>663.66998291016</ele>
        <time>2010-07-24T14:56:57Z</time>
      </trkpt>
      <trkpt lat="45.09672" lon="4.47629">
        <ele>664.19396972656</ele>
        <time>2010-07-24T14:57:03Z</time>
      </trkpt>
      <trkpt lat="45.09705" lon="4.47609">
        <ele>665.23797607422</ele>
        <time>2010-07-24T14:57:10Z</time>
      </trkpt>
      <trkpt lat="45.0974" lon="4.47585">
        <ele>666.19201660156</ele>
        <time>2010-07-24T14:57:18Z</time>
      </trkpt>
      <trkpt lat="45.09765" lon="4.47566">
        <ele>666.80401611328</ele>
        <time>2010-07-24T14:57:24Z</time>
      </trkpt>
      <trkpt lat="45.0979" lon="4.47541">
        <ele>667.44799804688</ele>
        <time>2010-07-24T14:57:30Z</time>
      </trkpt>
      <trkpt lat="45.09814" lon="4.47511">
        <ele>668.30102539062</ele>
        <time>2010-07-24T14:57:37Z</time>
      </trkpt>
      <trkpt lat="45.09818" lon="4.47507">
        <ele>668.28698730469</ele>
        <time>2010-07-24T14:57:38Z</time>
      </trkpt>
      <trkpt lat="45.09826" lon="4.475">
        <ele>668.50500488281</ele>
        <time>2010-07-24T14:57:40Z</time>
      </trkpt>
      <trkpt lat="45.09839" lon="4.47482">
        <ele>669.10498046875</ele>
        <time>2010-07-24T14:57:44Z</time>
      </trkpt>
      <trkpt lat="45.09845" lon="4.47463">
        <ele>669.52801513672</ele>
        <time>2010-07-24T14:57:47Z</time>
      </trkpt>
      <trkpt lat="45.0985" lon="4.47437">
        <ele>669.93298339844</ele>
        <time>2010-07-24T14:57:51Z</time>
      </trkpt>
      <trkpt lat="45.09859" lon="4.47379">
        <ele>671.23101806641</ele>
        <time>2010-07-24T14:58:00Z</time>
      </trkpt>
      <trkpt lat="45.09865" lon="4.47342">
        <ele>672.20697021484</ele>
        <time>2010-07-24T14:58:06Z</time>
      </trkpt>
      <trkpt lat="45.09879" lon="4.47283">
        <ele>673.83599853516</ele>
        <time>2010-07-24T14:58:16Z</time>
      </trkpt>
      <trkpt lat="45.09895" lon="4.47241">
        <ele>673.30401611328</ele>
        <time>2010-07-24T14:58:24Z</time>
      </trkpt>
      <trkpt lat="45.09922" lon="4.47197">
        <ele>674.52600097656</ele>
        <time>2010-07-24T14:58:34Z</time>
      </trkpt>
      <trkpt lat="45.09946" lon="4.47165">
        <ele>676.02600097656</ele>
        <time>2010-07-24T14:58:42Z</time>
      </trkpt>
      <trkpt lat="45.09985" lon="4.47121">
        <ele>677.07800292969</ele>
        <time>2010-07-24T14:58:53Z</time>
      </trkpt>
      <trkpt lat="45.10009" lon="4.47085">
        <ele>677.71502685547</ele>
        <time>2010-07-24T14:59:01Z</time>
      </trkpt>
      <trkpt lat="45.10027" lon="4.47041">
        <ele>678.78002929688</ele>
        <time>2010-07-24T14:59:09Z</time>
      </trkpt>
      <trkpt lat="45.1004" lon="4.4699">
        <ele>679.87298583984</ele>
        <time>2010-07-24T14:59:17Z</time>
      </trkpt>
      <trkpt lat="45.10053" lon="4.46921">
        <ele>681.26702880859</ele>
        <time>2010-07-24T14:59:28Z</time>
      </trkpt>
      <trkpt lat="45.10063" lon="4.46878">
        <ele>682.08099365234</ele>
        <time>2010-07-24T14:59:35Z</time>
      </trkpt>
      <trkpt lat="45.10075" lon="4.46829">
        <ele>683.2509765625</ele>
        <time>2010-07-24T14:59:43Z</time>
      </trkpt>
      <trkpt lat="45.10079" lon="4.46818">
        <ele>683.37701416016</ele>
        <time>2010-07-24T14:59:45Z</time>
      </trkpt>
      <trkpt lat="45.10086" lon="4.46803">
        <ele>683.61297607422</ele>
        <time>2010-07-24T14:59:48Z</time>
      </trkpt>
      <trkpt lat="45.10098" lon="4.46776">
        <ele>684.07800292969</ele>
        <time>2010-07-24T14:59:53Z</time>
      </trkpt>
      <trkpt lat="45.10107" lon="4.46761">
        <ele>684.72802734375</ele>
        <time>2010-07-24T14:59:56Z</time>
      </trkpt>
      <trkpt lat="45.10126" lon="4.46732">
        <ele>685.61297607422</ele>
        <time>2010-07-24T15:00:02Z</time>
      </trkpt>
      <trkpt lat="45.10129" lon="4.46706">
        <ele>686.13098144531</ele>
        <time>2010-07-24T15:00:06Z</time>
      </trkpt>
      <trkpt lat="45.10127" lon="4.46686">
        <ele>686.74700927734</ele>
        <time>2010-07-24T15:00:09Z</time>
      </trkpt>
      <trkpt lat="45.10132" lon="4.46646">
        <ele>687.30700683594</ele>
        <time>2010-07-24T15:00:15Z</time>
      </trkpt>
      <trkpt lat="45.10146" lon="4.46597">
        <ele>687.81597900391</ele>
        <time>2010-07-24T15:00:23Z</time>
      </trkpt>
      <trkpt lat="45.10155" lon="4.46545">
        <ele>688.65698242188</ele>
        <time>2010-07-24T15:00:31Z</time>
      </trkpt>
      <trkpt lat="45.10157" lon="4.46525">
        <ele>688.7490234375</ele>
        <time>2010-07-24T15:00:34Z</time>
      </trkpt>
      <trkpt lat="45.1015" lon="4.4648">
        <ele>690.14099121094</ele>
        <time>2010-07-24T15:00:41Z</time>
      </trkpt>
      <trkpt lat="45.10141" lon="4.46429">
        <ele>691.29602050781</ele>
        <time>2010-07-24T15:00:49Z</time>
      </trkpt>
      <trkpt lat="45.10128" lon="4.46391">
        <ele>692.17602539062</ele>
        <time>2010-07-24T15:00:55Z</time>
      </trkpt>
      <trkpt lat="45.10122" lon="4.46373">
        <ele>692.81500244141</ele>
        <time>2010-07-24T15:00:58Z</time>
      </trkpt>
      <trkpt lat="45.10123" lon="4.46344">
        <ele>693.57702636719</ele>
        <time>2010-07-24T15:01:03Z</time>
      </trkpt>
      <trkpt lat="45.10135" lon="4.46338">
        <ele>694.62799072266</ele>
        <time>2010-07-24T15:01:06Z</time>
      </trkpt>
      <trkpt lat="45.1016" lon="4.46343">
        <ele>696.80297851562</ele>
        <time>2010-07-24T15:01:13Z</time>
      </trkpt>
      <trkpt lat="45.10185" lon="4.46348">
        <ele>698.22302246094</ele>
        <time>2010-07-24T15:01:20Z</time>
      </trkpt>
      <trkpt lat="45.10203" lon="4.46345">
        <ele>699.43402099609</ele>
        <time>2010-07-24T15:01:25Z</time>
      </trkpt>
      <trkpt lat="45.10223" lon="4.46328">
        <ele>700.166015625</ele>
        <time>2010-07-24T15:01:31Z</time>
      </trkpt>
      <trkpt lat="45.10246" lon="4.46299">
        <ele>702.03997802734</ele>
        <time>2010-07-24T15:01:39Z</time>
      </trkpt>
      <trkpt lat="45.10268" lon="4.46282">
        <ele>703.13098144531</ele>
        <time>2010-07-24T15:01:46Z</time>
      </trkpt>
      <trkpt lat="45.10286" lon="4.46267">
        <ele>704.46301269531</ele>
        <time>2010-07-24T15:01:52Z</time>
      </trkpt>
      <trkpt lat="45.103" lon="4.46257">
        <ele>704.42602539062</ele>
        <time>2010-07-24T15:01:57Z</time>
      </trkpt>
      <trkpt lat="45.10321" lon="4.46248">
        <ele>706.44799804688</ele>
        <time>2010-07-24T15:02:03Z</time>
      </trkpt>
      <trkpt lat="45.10352" lon="4.46232">
        <ele>708.06597900391</ele>
        <time>2010-07-24T15:02:12Z</time>
      </trkpt>
      <trkpt lat="45.10375" lon="4.46224">
        <ele>709.70300292969</ele>
        <time>2010-07-24T15:02:19Z</time>
      </trkpt>
      <trkpt lat="45.10406" lon="4.46213">
        <ele>711.14099121094</ele>
        <time>2010-07-24T15:02:28Z</time>
      </trkpt>
      <trkpt lat="45.10426" lon="4.46201">
        <ele>712.52001953125</ele>
        <time>2010-07-24T15:02:34Z</time>
      </trkpt>
      <trkpt lat="45.10448" lon="4.4619">
        <ele>713.60900878906</ele>
        <time>2010-07-24T15:02:39Z</time>
      </trkpt>
      <trkpt lat="45.10467" lon="4.4618">
        <ele>715.11901855469</ele>
        <time>2010-07-24T15:02:43Z</time>
      </trkpt>
      <trkpt lat="45.10492" lon="4.46168">
        <ele>716.79602050781</ele>
        <time>2010-07-24T15:02:49Z</time>
      </trkpt>
      <trkpt lat="45.10511" lon="4.46159">
        <ele>718.11499023438</ele>
        <time>2010-07-24T15:02:54Z</time>
      </trkpt>
      <trkpt lat="45.10537" lon="4.46146">
        <ele>719.32299804688</ele>
        <time>2010-07-24T15:03:01Z</time>
      </trkpt>
      <trkpt lat="45.10557" lon="4.46131">
        <ele>720.41400146484</ele>
        <time>2010-07-24T15:03:07Z</time>
      </trkpt>
      <trkpt lat="45.10577" lon="4.46118">
        <ele>721.72100830078</ele>
        <time>2010-07-24T15:03:13Z</time>
      </trkpt>
      <trkpt lat="45.10597" lon="4.46107">
        <ele>722.95300292969</ele>
        <time>2010-07-24T15:03:19Z</time>
      </trkpt>
      <trkpt lat="45.10615" lon="4.46088">
        <ele>723.89099121094</ele>
        <time>2010-07-24T15:03:25Z</time>
      </trkpt>
      <trkpt lat="45.10636" lon="4.46058">
        <ele>725.31500244141</ele>
        <time>2010-07-24T15:03:33Z</time>
      </trkpt>
      <trkpt lat="45.10663" lon="4.46027">
        <ele>727.59497070312</ele>
        <time>2010-07-24T15:03:42Z</time>
      </trkpt>
      <trkpt lat="45.10691" lon="4.46007">
        <ele>728.68701171875</ele>
        <time>2010-07-24T15:03:50Z</time>
      </trkpt>
      <trkpt lat="45.10695" lon="4.46005">
        <ele>728.91497802734</ele>
        <time>2010-07-24T15:03:51Z</time>
      </trkpt>
      <trkpt lat="45.10711" lon="4.46008">
        <ele>729.79901123047</ele>
        <time>2010-07-24T15:03:55Z</time>
      </trkpt>
      <trkpt lat="45.10718" lon="4.46014">
        <ele>730.35699462891</ele>
        <time>2010-07-24T15:03:57Z</time>
      </trkpt>
      <trkpt lat="45.10732" lon="4.46036">
        <ele>730.79797363281</ele>
        <time>2010-07-24T15:04:02Z</time>
      </trkpt>
      <trkpt lat="45.10739" lon="4.46068">
        <ele>732.49200439453</ele>
        <time>2010-07-24T15:04:08Z</time>
      </trkpt>
      <trkpt lat="45.1074" lon="4.4609">
        <ele>733.40399169922</ele>
        <time>2010-07-24T15:04:12Z</time>
      </trkpt>
      <trkpt lat="45.10741" lon="4.46118">
        <ele>734.63201904297</ele>
        <time>2010-07-24T15:04:17Z</time>
      </trkpt>
      <trkpt lat="45.1074" lon="4.46151">
        <ele>735.3740234375</ele>
        <time>2010-07-24T15:04:23Z</time>
      </trkpt>
      <trkpt lat="45.10739" lon="4.46174">
        <ele>735.90197753906</ele>
        <time>2010-07-24T15:04:27Z</time>
      </trkpt>
      <trkpt lat="45.10741" lon="4.46212">
        <ele>736.63598632812</ele>
        <time>2010-07-24T15:04:33Z</time>
      </trkpt>
      <trkpt lat="45.10741" lon="4.46219">
        <ele>736.73101806641</ele>
        <time>2010-07-24T15:04:34Z</time>
      </trkpt>
      <trkpt lat="45.10739" lon="4.46231">
        <ele>737.30499267578</ele>
        <time>2010-07-24T15:04:36Z</time>
      </trkpt>
      <trkpt lat="45.10735" lon="4.46269">
        <ele>738.13500976562</ele>
        <time>2010-07-24T15:04:42Z</time>
      </trkpt>
      <trkpt lat="45.10732" lon="4.46288">
        <ele>738.7509765625</ele>
        <time>2010-07-24T15:04:45Z</time>
      </trkpt>
      <trkpt lat="45.10728" lon="4.46325">
        <ele>739.95202636719</ele>
        <time>2010-07-24T15:04:51Z</time>
      </trkpt>
      <trkpt lat="45.10729" lon="4.46336">
        <ele>740.36102294922</ele>
        <time>2010-07-24T15:04:53Z</time>
      </trkpt>
      <trkpt lat="45.10727" lon="4.46364">
        <ele>741.34600830078</ele>
        <time>2010-07-24T15:04:58Z</time>
      </trkpt>
      <trkpt lat="45.10727" lon="4.4637">
        <ele>741.65802001953</ele>
        <time>2010-07-24T15:04:59Z</time>
      </trkpt>
      <trkpt lat="45.10725" lon="4.46398">
        <ele>742.68902587891</ele>
        <time>2010-07-24T15:05:04Z</time>
      </trkpt>
      <trkpt lat="45.10727" lon="4.46417">
        <ele>743.12298583984</ele>
        <time>2010-07-24T15:05:07Z</time>
      </trkpt>
      <trkpt lat="45.10728" lon="4.46448">
        <ele>744.19500732422</ele>
        <time>2010-07-24T15:05:12Z</time>
      </trkpt>
      <trkpt lat="45.10729" lon="4.46466">
        <ele>744.56402587891</ele>
        <time>2010-07-24T15:05:15Z</time>
      </trkpt>
      <trkpt lat="45.10733" lon="4.46508">
        <ele>745.57202148438</ele>
        <time>2010-07-24T15:05:22Z</time>
      </trkpt>
      <trkpt lat="45.10734" lon="4.46533">
        <ele>746.18701171875</ele>
        <time>2010-07-24T15:05:26Z</time>
      </trkpt>
      <trkpt lat="45.10737" lon="4.46558">
        <ele>747.17901611328</ele>
        <time>2010-07-24T15:05:30Z</time>
      </trkpt>
      <trkpt lat="45.10746" lon="4.46591">
        <ele>747.96801757812</ele>
        <time>2010-07-24T15:05:35Z</time>
      </trkpt>
      <trkpt lat="45.10761" lon="4.46635">
        <ele>749.28399658203</ele>
        <time>2010-07-24T15:05:42Z</time>
      </trkpt>
      <trkpt lat="45.10769" lon="4.46665">
        <ele>750.16900634766</ele>
        <time>2010-07-24T15:05:47Z</time>
      </trkpt>
      <trkpt lat="45.10775" lon="4.46692">
        <ele>750.92401123047</ele>
        <time>2010-07-24T15:05:51Z</time>
      </trkpt>
      <trkpt lat="45.10778" lon="4.46705">
        <ele>751.21801757812</ele>
        <time>2010-07-24T15:05:53Z</time>
      </trkpt>
      <trkpt lat="45.10777" lon="4.46745">
        <ele>752.75500488281</ele>
        <time>2010-07-24T15:05:59Z</time>
      </trkpt>
      <trkpt lat="45.10775" lon="4.46773">
        <ele>753.63800048828</ele>
        <time>2010-07-24T15:06:03Z</time>
      </trkpt>
      <trkpt lat="45.10783" lon="4.46812">
        <ele>754.69396972656</ele>
        <time>2010-07-24T15:06:09Z</time>
      </trkpt>
      <trkpt lat="45.10785" lon="4.46819">
        <ele>754.93298339844</ele>
        <time>2010-07-24T15:06:10Z</time>
      </trkpt>
      <trkpt lat="45.10796" lon="4.4684">
        <ele>755.50201416016</ele>
        <time>2010-07-24T15:06:13Z</time>
      </trkpt>
      <trkpt lat="45.10825" lon="4.46873">
        <ele>756.43499755859</ele>
        <time>2010-07-24T15:06:18Z</time>
      </trkpt>
      <trkpt lat="45.10836" lon="4.46881">
        <ele>757.37701416016</ele>
        <time>2010-07-24T15:06:22Z</time>
      </trkpt>
      <trkpt lat="45.10853" lon="4.46882">
        <ele>758.76300048828</ele>
        <time>2010-07-24T15:06:26Z</time>
      </trkpt>
      <trkpt lat="45.10873" lon="4.46876">
        <ele>759.59997558594</ele>
        <time>2010-07-24T15:06:31Z</time>
      </trkpt>
      <trkpt lat="45.10889" lon="4.46866">
        <ele>760.58801269531</ele>
        <time>2010-07-24T15:06:35Z</time>
      </trkpt>
      <trkpt lat="45.1092" lon="4.46854">
        <ele>761.75402832031</ele>
        <time>2010-07-24T15:06:41Z</time>
      </trkpt>
      <trkpt lat="45.10954" lon="4.46846">
        <ele>763.13397216797</ele>
        <time>2010-07-24T15:06:47Z</time>
      </trkpt>
      <trkpt lat="45.10998" lon="4.46838">
        <ele>765.08898925781</ele>
        <time>2010-07-24T15:06:55Z</time>
      </trkpt>
      <trkpt lat="45.11003" lon="4.46837">
        <ele>765.48797607422</ele>
        <time>2010-07-24T15:06:56Z</time>
      </trkpt>
      <trkpt lat="45.11029" lon="4.46843">
        <ele>766.74102783203</ele>
        <time>2010-07-24T15:07:01Z</time>
      </trkpt>
      <trkpt lat="45.11038" lon="4.46851">
        <ele>767.20001220703</ele>
        <time>2010-07-24T15:07:03Z</time>
      </trkpt>
      <trkpt lat="45.11065" lon="4.46886">
        <ele>768.94799804688</ele>
        <time>2010-07-24T15:07:10Z</time>
      </trkpt>
      <trkpt lat="45.11069" lon="4.46892">
        <ele>769.01202392578</ele>
        <time>2010-07-24T15:07:11Z</time>
      </trkpt>
      <trkpt lat="45.11074" lon="4.46904">
        <ele>769.38201904297</ele>
        <time>2010-07-24T15:07:13Z</time>
      </trkpt>
      <trkpt lat="45.11093" lon="4.46946">
        <ele>770.59899902344</ele>
        <time>2010-07-24T15:07:20Z</time>
      </trkpt>
      <trkpt lat="45.11099" lon="4.46959">
        <ele>771.25</ele>
        <time>2010-07-24T15:07:22Z</time>
      </trkpt>
      <trkpt lat="45.11105" lon="4.4698">
        <ele>772.06402587891</ele>
        <time>2010-07-24T15:07:25Z</time>
      </trkpt>
      <trkpt lat="45.11108" lon="4.47022">
        <ele>772.86297607422</ele>
        <time>2010-07-24T15:07:31Z</time>
      </trkpt>
      <trkpt lat="45.11108" lon="4.47029">
        <ele>773.36199951172</ele>
        <time>2010-07-24T15:07:32Z</time>
      </trkpt>
      <trkpt lat="45.11115" lon="4.47071">
        <ele>774.46899414062</ele>
        <time>2010-07-24T15:07:38Z</time>
      </trkpt>
      <trkpt lat="45.11115" lon="4.47093">
        <ele>775.29901123047</ele>
        <time>2010-07-24T15:07:41Z</time>
      </trkpt>
      <trkpt lat="45.11123" lon="4.4714">
        <ele>776.11700439453</ele>
        <time>2010-07-24T15:07:48Z</time>
      </trkpt>
      <trkpt lat="45.11124" lon="4.47154">
        <ele>776.97100830078</ele>
        <time>2010-07-24T15:07:50Z</time>
      </trkpt>
      <trkpt lat="45.11125" lon="4.47174">
        <ele>776.20501708984</ele>
        <time>2010-07-24T15:07:53Z</time>
      </trkpt>
      <trkpt lat="45.11132" lon="4.472">
        <ele>778.05401611328</ele>
        <time>2010-07-24T15:07:57Z</time>
      </trkpt>
      <trkpt lat="45.11148" lon="4.47251">
        <ele>778.94000244141</ele>
        <time>2010-07-24T15:08:05Z</time>
      </trkpt>
      <trkpt lat="45.11155" lon="4.47271">
        <ele>779.78601074219</ele>
        <time>2010-07-24T15:08:08Z</time>
      </trkpt>
      <trkpt lat="45.11175" lon="4.47294">
        <ele>780.46502685547</ele>
        <time>2010-07-24T15:08:13Z</time>
      </trkpt>
      <trkpt lat="45.11179" lon="4.47297">
        <ele>781.15802001953</ele>
        <time>2010-07-24T15:08:14Z</time>
      </trkpt>
      <trkpt lat="45.11209" lon="4.47325">
        <ele>782.75701904297</ele>
        <time>2010-07-24T15:08:21Z</time>
      </trkpt>
      <trkpt lat="45.11239" lon="4.47343">
        <ele>784.44201660156</ele>
        <time>2010-07-24T15:08:27Z</time>
      </trkpt>
      <trkpt lat="45.11277" lon="4.47356">
        <ele>785.97198486328</ele>
        <time>2010-07-24T15:08:34Z</time>
      </trkpt>
      <trkpt lat="45.11322" lon="4.47367">
        <ele>787.27398681641</ele>
        <time>2010-07-24T15:08:42Z</time>
      </trkpt>
      <trkpt lat="45.11327" lon="4.47367">
        <ele>787.61798095703</ele>
        <time>2010-07-24T15:08:43Z</time>
      </trkpt>
      <trkpt lat="45.11349" lon="4.47375">
        <ele>788.49401855469</ele>
        <time>2010-07-24T15:08:47Z</time>
      </trkpt>
      <trkpt lat="45.11372" lon="4.47396">
        <ele>789.70397949219</ele>
        <time>2010-07-24T15:08:52Z</time>
      </trkpt>
      <trkpt lat="45.11387" lon="4.47405">
        <ele>790.25799560547</ele>
        <time>2010-07-24T15:08:55Z</time>
      </trkpt>
      <trkpt lat="45.11396" lon="4.47414">
        <ele>790.96301269531</ele>
        <time>2010-07-24T15:08:57Z</time>
      </trkpt>
      <trkpt lat="45.11417" lon="4.47434">
        <ele>792.38000488281</ele>
        <time>2010-07-24T15:09:02Z</time>
      </trkpt>
      <trkpt lat="45.11442" lon="4.47441">
        <ele>793.86999511719</ele>
        <time>2010-07-24T15:09:07Z</time>
      </trkpt>
      <trkpt lat="45.1146" lon="4.47454">
        <ele>794.92297363281</ele>
        <time>2010-07-24T15:09:11Z</time>
      </trkpt>
      <trkpt lat="45.11469" lon="4.47463">
        <ele>794.958984375</ele>
        <time>2010-07-24T15:09:13Z</time>
      </trkpt>
      <trkpt lat="45.11486" lon="4.47472">
        <ele>796.18798828125</ele>
        <time>2010-07-24T15:09:17Z</time>
      </trkpt>
      <trkpt lat="45.11498" lon="4.47459">
        <ele>796.86901855469</ele>
        <time>2010-07-24T15:09:20Z</time>
      </trkpt>
      <trkpt lat="45.11511" lon="4.47436">
        <ele>797.64697265625</ele>
        <time>2010-07-24T15:09:24Z</time>
      </trkpt>
      <trkpt lat="45.11515" lon="4.47432">
        <ele>797.72998046875</ele>
        <time>2010-07-24T15:09:25Z</time>
      </trkpt>
      <trkpt lat="45.1155" lon="4.47407">
        <ele>799.60797119141</ele>
        <time>2010-07-24T15:09:32Z</time>
      </trkpt>
      <trkpt lat="45.11566" lon="4.47401">
        <ele>801.20397949219</ele>
        <time>2010-07-24T15:09:35Z</time>
      </trkpt>
      <trkpt lat="45.11576" lon="4.47407">
        <ele>801.73199462891</ele>
        <time>2010-07-24T15:09:37Z</time>
      </trkpt>
      <trkpt lat="45.11599" lon="4.47416">
        <ele>802.28399658203</ele>
        <time>2010-07-24T15:09:42Z</time>
      </trkpt>
      <trkpt lat="45.11606" lon="4.47397">
        <ele>802.83801269531</ele>
        <time>2010-07-24T15:09:45Z</time>
      </trkpt>
      <trkpt lat="45.11607" lon="4.47384">
        <ele>803.53601074219</ele>
        <time>2010-07-24T15:09:47Z</time>
      </trkpt>
      <trkpt lat="45.11607" lon="4.47365">
        <ele>804.05700683594</ele>
        <time>2010-07-24T15:09:50Z</time>
      </trkpt>
      <trkpt lat="45.11619" lon="4.47333">
        <ele>805.00402832031</ele>
        <time>2010-07-24T15:09:55Z</time>
      </trkpt>
      <trkpt lat="45.11653" lon="4.47292">
        <ele>807.08502197266</ele>
        <time>2010-07-24T15:10:03Z</time>
      </trkpt>
      <trkpt lat="45.11693" lon="4.47251">
        <ele>808.84899902344</ele>
        <time>2010-07-24T15:10:12Z</time>
      </trkpt>
      <trkpt lat="45.11698" lon="4.47248">
        <ele>809.10498046875</ele>
        <time>2010-07-24T15:10:13Z</time>
      </trkpt>
      <trkpt lat="45.11728" lon="4.47241">
        <ele>809.98101806641</ele>
        <time>2010-07-24T15:10:19Z</time>
      </trkpt>
      <trkpt lat="45.11733" lon="4.47242">
        <ele>810.25201416016</ele>
        <time>2010-07-24T15:10:20Z</time>
      </trkpt>
      <trkpt lat="45.11772" lon="4.47253">
        <ele>812.02600097656</ele>
        <time>2010-07-24T15:10:28Z</time>
      </trkpt>
      <trkpt lat="45.11811" lon="4.47266">
        <ele>813.46801757812</ele>
        <time>2010-07-24T15:10:36Z</time>
      </trkpt>
      <trkpt lat="45.1183" lon="4.47274">
        <ele>814.03399658203</ele>
        <time>2010-07-24T15:10:40Z</time>
      </trkpt>
      <trkpt lat="45.11843" lon="4.47284">
        <ele>814.61499023438</ele>
        <time>2010-07-24T15:10:43Z</time>
      </trkpt>
      <trkpt lat="45.11872" lon="4.47297">
        <ele>815.79699707031</ele>
        <time>2010-07-24T15:10:49Z</time>
      </trkpt>
      <trkpt lat="45.11889" lon="4.47303">
        <ele>816.19000244141</ele>
        <time>2010-07-24T15:10:52Z</time>
      </trkpt>
      <trkpt lat="45.11916" lon="4.47315">
        <ele>816.82202148438</ele>
        <time>2010-07-24T15:10:57Z</time>
      </trkpt>
      <trkpt lat="45.1193" lon="4.47318">
        <ele>816.86798095703</ele>
        <time>2010-07-24T15:11:00Z</time>
      </trkpt>
      <trkpt lat="45.11951" lon="4.47319">
        <ele>818.50897216797</ele>
        <time>2010-07-24T15:11:04Z</time>
      </trkpt>
      <trkpt lat="45.1199" lon="4.47325">
        <ele>819.63098144531</ele>
        <time>2010-07-24T15:11:12Z</time>
      </trkpt>
      <trkpt lat="45.1202" lon="4.47329">
        <ele>821.83099365234</ele>
        <time>2010-07-24T15:11:18Z</time>
      </trkpt>
      <trkpt lat="45.12051" lon="4.47331">
        <ele>822.60797119141</ele>
        <time>2010-07-24T15:11:24Z</time>
      </trkpt>
      <trkpt lat="45.12079" lon="4.47349">
        <ele>823.86901855469</ele>
        <time>2010-07-24T15:11:30Z</time>
      </trkpt>
      <trkpt lat="45.12082" lon="4.47355">
        <ele>823.94500732422</ele>
        <time>2010-07-24T15:11:31Z</time>
      </trkpt>
      <trkpt lat="45.12105" lon="4.4741">
        <ele>825.9990234375</ele>
        <time>2010-07-24T15:11:40Z</time>
      </trkpt>
      <trkpt lat="45.12107" lon="4.47416">
        <ele>826.21002197266</ele>
        <time>2010-07-24T15:11:41Z</time>
      </trkpt>
      <trkpt lat="45.12126" lon="4.47439">
        <ele>827.73602294922</ele>
        <time>2010-07-24T15:11:46Z</time>
      </trkpt>
      <trkpt lat="45.12141" lon="4.47434">
        <ele>828.48297119141</ele>
        <time>2010-07-24T15:11:49Z</time>
      </trkpt>
      <trkpt lat="45.12152" lon="4.47412">
        <ele>830.03497314453</ele>
        <time>2010-07-24T15:11:53Z</time>
      </trkpt>
      <trkpt lat="45.12154" lon="4.47399">
        <ele>830.40600585938</ele>
        <time>2010-07-24T15:11:55Z</time>
      </trkpt>
      <trkpt lat="45.12157" lon="4.47364">
        <ele>831.14501953125</ele>
        <time>2010-07-24T15:12:00Z</time>
      </trkpt>
      <trkpt lat="45.1217" lon="4.47339">
        <ele>832.02502441406</ele>
        <time>2010-07-24T15:12:04Z</time>
      </trkpt>
      <trkpt lat="45.1219" lon="4.47333">
        <ele>832.69598388672</ele>
        <time>2010-07-24T15:12:08Z</time>
      </trkpt>
      <trkpt lat="45.1221" lon="4.47338">
        <ele>834.06500244141</ele>
        <time>2010-07-24T15:12:12Z</time>
      </trkpt>
      <trkpt lat="45.12234" lon="4.47349">
        <ele>835.49298095703</ele>
        <time>2010-07-24T15:12:17Z</time>
      </trkpt>
      <trkpt lat="45.12252" lon="4.47342">
        <ele>836.40899658203</ele>
        <time>2010-07-24T15:12:21Z</time>
      </trkpt>
      <trkpt lat="45.12256" lon="4.47325">
        <ele>837.18597412109</ele>
        <time>2010-07-24T15:12:24Z</time>
      </trkpt>
      <trkpt lat="45.12252" lon="4.47313">
        <ele>837.72302246094</ele>
        <time>2010-07-24T15:12:26Z</time>
      </trkpt>
      <trkpt lat="45.12248" lon="4.473">
        <ele>838.15802001953</ele>
        <time>2010-07-24T15:12:28Z</time>
      </trkpt>
      <trkpt lat="45.1225" lon="4.47277">
        <ele>839.1240234375</ele>
        <time>2010-07-24T15:12:31Z</time>
      </trkpt>
      <trkpt lat="45.12263" lon="4.47266">
        <ele>840.13598632812</ele>
        <time>2010-07-24T15:12:34Z</time>
      </trkpt>
      <trkpt lat="45.12297" lon="4.47254">
        <ele>841.61901855469</ele>
        <time>2010-07-24T15:12:41Z</time>
      </trkpt>
      <trkpt lat="45.12312" lon="4.47247">
        <ele>842.91497802734</ele>
        <time>2010-07-24T15:12:44Z</time>
      </trkpt>
      <trkpt lat="45.1234" lon="4.47232">
        <ele>843.92297363281</ele>
        <time>2010-07-24T15:12:50Z</time>
      </trkpt>
      <trkpt lat="45.1236" lon="4.47222">
        <ele>845.57501220703</ele>
        <time>2010-07-24T15:12:55Z</time>
      </trkpt>
      <trkpt lat="45.12383" lon="4.47207">
        <ele>846.88598632812</ele>
        <time>2010-07-24T15:13:00Z</time>
      </trkpt>
      <trkpt lat="45.1241" lon="4.47196">
        <ele>848.43402099609</ele>
        <time>2010-07-24T15:13:06Z</time>
      </trkpt>
      <trkpt lat="45.12428" lon="4.4719">
        <ele>849.91900634766</ele>
        <time>2010-07-24T15:13:10Z</time>
      </trkpt>
      <trkpt lat="45.12463" lon="4.47173">
        <ele>851.64300537109</ele>
        <time>2010-07-24T15:13:17Z</time>
      </trkpt>
      <trkpt lat="45.12485" lon="4.47164">
        <ele>852.47302246094</ele>
        <time>2010-07-24T15:13:22Z</time>
      </trkpt>
      <trkpt lat="45.12504" lon="4.47153">
        <ele>853.53497314453</ele>
        <time>2010-07-24T15:13:26Z</time>
      </trkpt>
      <trkpt lat="45.12531" lon="4.47152">
        <ele>855.06597900391</ele>
        <time>2010-07-24T15:13:31Z</time>
      </trkpt>
      <trkpt lat="45.12552" lon="4.47157">
        <ele>855.44201660156</ele>
        <time>2010-07-24T15:13:35Z</time>
      </trkpt>
      <trkpt lat="45.12576" lon="4.47161">
        <ele>856.69097900391</ele>
        <time>2010-07-24T15:13:40Z</time>
      </trkpt>
      <trkpt lat="45.1259" lon="4.47161">
        <ele>857.22998046875</ele>
        <time>2010-07-24T15:13:43Z</time>
      </trkpt>
      <trkpt lat="45.12614" lon="4.47163">
        <ele>858.08801269531</ele>
        <time>2010-07-24T15:13:48Z</time>
      </trkpt>
      <trkpt lat="45.12634" lon="4.47177">
        <ele>858.23797607422</ele>
        <time>2010-07-24T15:13:53Z</time>
      </trkpt>
      <trkpt lat="45.12637" lon="4.47193">
        <ele>856.76599121094</ele>
        <time>2010-07-24T15:13:56Z</time>
      </trkpt>
      <trkpt lat="45.12647" lon="4.47238">
        <ele>859.94097900391</ele>
        <time>2010-07-24T15:14:05Z</time>
      </trkpt>
      <trkpt lat="45.1266" lon="4.47275">
        <ele>860.5</ele>
        <time>2010-07-24T15:14:12Z</time>
      </trkpt>
      <trkpt lat="45.12663" lon="4.4728">
        <ele>860.45001220703</ele>
        <time>2010-07-24T15:14:13Z</time>
      </trkpt>
      <trkpt lat="45.12683" lon="4.47324">
        <ele>861.00598144531</ele>
        <time>2010-07-24T15:14:21Z</time>
      </trkpt>
      <trkpt lat="45.12703" lon="4.47368">
        <ele>862.32098388672</ele>
        <time>2010-07-24T15:14:28Z</time>
      </trkpt>
      <trkpt lat="45.12718" lon="4.47405">
        <ele>862.89001464844</ele>
        <time>2010-07-24T15:14:33Z</time>
      </trkpt>
      <trkpt lat="45.12739" lon="4.47422">
        <ele>863.50598144531</ele>
        <time>2010-07-24T15:14:37Z</time>
      </trkpt>
      <trkpt lat="45.12753" lon="4.47406">
        <ele>863.80999755859</ele>
        <time>2010-07-24T15:14:39Z</time>
      </trkpt>
      <trkpt lat="45.12766" lon="4.47381">
        <ele>863.96899414062</ele>
        <time>2010-07-24T15:14:42Z</time>
      </trkpt>
      <trkpt lat="45.12765" lon="4.47349">
        <ele>863.82598876953</ele>
        <time>2010-07-24T15:14:45Z</time>
      </trkpt>
      <trkpt lat="45.12759" lon="4.47318">
        <ele>864.14001464844</ele>
        <time>2010-07-24T15:14:48Z</time>
      </trkpt>
      <trkpt lat="45.12759" lon="4.47274">
        <ele>864.52697753906</ele>
        <time>2010-07-24T15:14:52Z</time>
      </trkpt>
      <trkpt lat="45.12753" lon="4.47244">
        <ele>865.42999267578</ele>
        <time>2010-07-24T15:14:55Z</time>
      </trkpt>
      <trkpt lat="45.12737" lon="4.47203">
        <ele>868.14801025391</ele>
        <time>2010-07-24T15:15:00Z</time>
      </trkpt>
      <trkpt lat="45.12727" lon="4.47146">
        <ele>870.57702636719</ele>
        <time>2010-07-24T15:15:07Z</time>
      </trkpt>
      <trkpt lat="45.1272" lon="4.47097">
        <ele>872.67700195312</ele>
        <time>2010-07-24T15:15:14Z</time>
      </trkpt>
      <trkpt lat="45.12714" lon="4.47057">
        <ele>874.46502685547</ele>
        <time>2010-07-24T15:15:21Z</time>
      </trkpt>
      <trkpt lat="45.12703" lon="4.47032">
        <ele>874.92901611328</ele>
        <time>2010-07-24T15:15:27Z</time>
      </trkpt>
      <trkpt lat="45.12688" lon="4.47012">
        <ele>876.16198730469</ele>
        <time>2010-07-24T15:15:33Z</time>
      </trkpt>
      <trkpt lat="45.12671" lon="4.47005">
        <ele>877.29400634766</ele>
        <time>2010-07-24T15:15:38Z</time>
      </trkpt>
      <trkpt lat="45.12655" lon="4.46996">
        <ele>878.39398193359</ele>
        <time>2010-07-24T15:15:44Z</time>
      </trkpt>
      <trkpt lat="45.12633" lon="4.46997">
        <ele>878.96801757812</ele>
        <time>2010-07-24T15:15:50Z</time>
      </trkpt>
      <trkpt lat="45.12611" lon="4.47002">
        <ele>880.34802246094</ele>
        <time>2010-07-24T15:15:57Z</time>
      </trkpt>
      <trkpt lat="45.12592" lon="4.46994">
        <ele>881.28698730469</ele>
        <time>2010-07-24T15:16:03Z</time>
      </trkpt>
      <trkpt lat="45.12576" lon="4.46982">
        <ele>882.38397216797</ele>
        <time>2010-07-24T15:16:08Z</time>
      </trkpt>
      <trkpt lat="45.12561" lon="4.46971">
        <ele>883.44598388672</ele>
        <time>2010-07-24T15:16:13Z</time>
      </trkpt>
      <trkpt lat="45.12539" lon="4.46959">
        <ele>884.93597412109</ele>
        <time>2010-07-24T15:16:19Z</time>
      </trkpt>
      <trkpt lat="45.1252" lon="4.46948">
        <ele>885.84802246094</ele>
        <time>2010-07-24T15:16:24Z</time>
      </trkpt>
      <trkpt lat="45.12509" lon="4.46941">
        <ele>886.53698730469</ele>
        <time>2010-07-24T15:16:27Z</time>
      </trkpt>
      <trkpt lat="45.125" lon="4.46937">
        <ele>886.99597167969</ele>
        <time>2010-07-24T15:16:29Z</time>
      </trkpt>
      <trkpt lat="45.1247" lon="4.4693">
        <ele>888.74401855469</ele>
        <time>2010-07-24T15:16:36Z</time>
      </trkpt>
      <trkpt lat="45.12443" lon="4.46919">
        <ele>890.46600341797</ele>
        <time>2010-07-24T15:16:43Z</time>
      </trkpt>
      <trkpt lat="45.12416" lon="4.46907">
        <ele>892.03601074219</ele>
        <time>2010-07-24T15:16:50Z</time>
      </trkpt>
      <trkpt lat="45.12398" lon="4.46887">
        <ele>893.14501953125</ele>
        <time>2010-07-24T15:16:56Z</time>
      </trkpt>
      <trkpt lat="45.12381" lon="4.46865">
        <ele>894.38397216797</ele>
        <time>2010-07-24T15:17:02Z</time>
      </trkpt>
      <trkpt lat="45.12357" lon="4.46832">
        <ele>895.77899169922</ele>
        <time>2010-07-24T15:17:11Z</time>
      </trkpt>
      <trkpt lat="45.1234" lon="4.46819">
        <ele>897.23999023438</ele>
        <time>2010-07-24T15:17:17Z</time>
      </trkpt>
      <trkpt lat="45.12336" lon="4.46817">
        <ele>897.54998779297</ele>
        <time>2010-07-24T15:17:19Z</time>
      </trkpt>
      <trkpt lat="45.12328" lon="4.4682">
        <ele>898.73699951172</ele>
        <time>2010-07-24T15:17:23Z</time>
      </trkpt>
      <trkpt lat="45.12315" lon="4.46836">
        <ele>899.34100341797</ele>
        <time>2010-07-24T15:17:30Z</time>
      </trkpt>
      <trkpt lat="45.12302" lon="4.46851">
        <ele>900.22497558594</ele>
        <time>2010-07-24T15:17:36Z</time>
      </trkpt>
      <trkpt lat="45.12286" lon="4.46869">
        <ele>901.42999267578</ele>
        <time>2010-07-24T15:17:43Z</time>
      </trkpt>
      <trkpt lat="45.12266" lon="4.46883">
        <ele>902.59497070312</ele>
        <time>2010-07-24T15:17:50Z</time>
      </trkpt>
      <trkpt lat="45.12242" lon="4.46886">
        <ele>904.03100585938</ele>
        <time>2010-07-24T15:17:57Z</time>
      </trkpt>
      <trkpt lat="45.12215" lon="4.46885">
        <ele>905.48699951172</ele>
        <time>2010-07-24T15:18:05Z</time>
      </trkpt>
      <trkpt lat="45.12186" lon="4.46879">
        <ele>907.05603027344</ele>
        <time>2010-07-24T15:18:13Z</time>
      </trkpt>
      <trkpt lat="45.12172" lon="4.46865">
        <ele>908.14697265625</ele>
        <time>2010-07-24T15:18:18Z</time>
      </trkpt>
      <trkpt lat="45.12163" lon="4.4684">
        <ele>909.83099365234</ele>
        <time>2010-07-24T15:18:23Z</time>
      </trkpt>
      <trkpt lat="45.12157" lon="4.46807">
        <ele>910.4580078125</ele>
        <time>2010-07-24T15:18:29Z</time>
      </trkpt>
      <trkpt lat="45.1215" lon="4.46762">
        <ele>911.55798339844</ele>
        <time>2010-07-24T15:18:37Z</time>
      </trkpt>
      <trkpt lat="45.12139" lon="4.46712">
        <ele>913.69500732422</ele>
        <time>2010-07-24T15:18:46Z</time>
      </trkpt>
      <trkpt lat="45.12127" lon="4.46672">
        <ele>915.03497314453</ele>
        <time>2010-07-24T15:18:54Z</time>
      </trkpt>
      <trkpt lat="45.12115" lon="4.46644">
        <ele>916.63702392578</ele>
        <time>2010-07-24T15:19:00Z</time>
      </trkpt>
      <trkpt lat="45.12101" lon="4.46609">
        <ele>918.00201416016</ele>
        <time>2010-07-24T15:19:08Z</time>
      </trkpt>
      <trkpt lat="45.12083" lon="4.46585">
        <ele>919.08697509766</ele>
        <time>2010-07-24T15:19:15Z</time>
      </trkpt>
      <trkpt lat="45.12066" lon="4.46579">
        <ele>919.83502197266</ele>
        <time>2010-07-24T15:19:20Z</time>
      </trkpt>
      <trkpt lat="45.12053" lon="4.46582">
        <ele>920.74798583984</ele>
        <time>2010-07-24T15:19:24Z</time>
      </trkpt>
      <trkpt lat="45.12031" lon="4.46595">
        <ele>921.94299316406</ele>
        <time>2010-07-24T15:19:31Z</time>
      </trkpt>
      <trkpt lat="45.12007" lon="4.46619">
        <ele>923.4990234375</ele>
        <time>2010-07-24T15:19:39Z</time>
      </trkpt>
      <trkpt lat="45.11987" lon="4.46641">
        <ele>924.06500244141</ele>
        <time>2010-07-24T15:19:46Z</time>
      </trkpt>
      <trkpt lat="45.11966" lon="4.46647">
        <ele>925.81201171875</ele>
        <time>2010-07-24T15:19:52Z</time>
      </trkpt>
      <trkpt lat="45.1194" lon="4.46637">
        <ele>926.76300048828</ele>
        <time>2010-07-24T15:19:59Z</time>
      </trkpt>
      <trkpt lat="45.11906" lon="4.46619">
        <ele>928.92297363281</ele>
        <time>2010-07-24T15:20:09Z</time>
      </trkpt>
      <trkpt lat="45.1189" lon="4.46606">
        <ele>930.23498535156</ele>
        <time>2010-07-24T15:20:15Z</time>
      </trkpt>
      <trkpt lat="45.11889" lon="4.46602">
        <ele>930.42297363281</ele>
        <time>2010-07-24T15:20:16Z</time>
      </trkpt>
      <trkpt lat="45.11894" lon="4.46592">
        <ele>930.88299560547</ele>
        <time>2010-07-24T15:20:20Z</time>
      </trkpt>
      <trkpt lat="45.11908" lon="4.46596">
        <ele>932.21997070312</ele>
        <time>2010-07-24T15:20:25Z</time>
      </trkpt>
      <trkpt lat="45.11931" lon="4.46606">
        <ele>934.27801513672</ele>
        <time>2010-07-24T15:20:35Z</time>
      </trkpt>
      <trkpt lat="45.11948" lon="4.46607">
        <ele>935.51898193359</ele>
        <time>2010-07-24T15:20:42Z</time>
      </trkpt>
      <trkpt lat="45.11964" lon="4.46601">
        <ele>937.5</ele>
        <time>2010-07-24T15:20:49Z</time>
      </trkpt>
      <trkpt lat="45.11977" lon="4.4659">
        <ele>939.73400878906</ele>
        <time>2010-07-24T15:20:55Z</time>
      </trkpt>
      <trkpt lat="45.1199" lon="4.46573">
        <ele>941.24200439453</ele>
        <time>2010-07-24T15:21:01Z</time>
      </trkpt>
      <trkpt lat="45.12001" lon="4.4656">
        <ele>941.73602294922</ele>
        <time>2010-07-24T15:21:06Z</time>
      </trkpt>
      <trkpt lat="45.12017" lon="4.46539">
        <ele>941.99597167969</ele>
        <time>2010-07-24T15:21:13Z</time>
      </trkpt>
      <trkpt lat="45.12036" lon="4.4651">
        <ele>943.73602294922</ele>
        <time>2010-07-24T15:21:22Z</time>
      </trkpt>
      <trkpt lat="45.12043" lon="4.4648">
        <ele>944.40301513672</ele>
        <time>2010-07-24T15:21:29Z</time>
      </trkpt>
      <trkpt lat="45.12045" lon="4.46472">
        <ele>944.58898925781</ele>
        <time>2010-07-24T15:21:31Z</time>
      </trkpt>
      <trkpt lat="45.12039" lon="4.46461">
        <ele>945.64099121094</ele>
        <time>2010-07-24T15:21:35Z</time>
      </trkpt>
      <trkpt lat="45.12035" lon="4.46462">
        <ele>945.99200439453</ele>
        <time>2010-07-24T15:21:37Z</time>
      </trkpt>
      <trkpt lat="45.12027" lon="4.46467">
        <ele>946.80401611328</ele>
        <time>2010-07-24T15:21:41Z</time>
      </trkpt>
      <trkpt lat="45.12026" lon="4.46463">
        <ele>947.22100830078</ele>
        <time>2010-07-24T15:21:46Z</time>
      </trkpt>
      <trkpt lat="45.12026" lon="4.46463">
        <ele>947.37200927734</ele>
        <time>2010-07-24T15:21:47Z</time>
      </trkpt>
      <trkpt lat="45.1203" lon="4.46466">
        <ele>946.85699462891</ele>
        <time>2010-07-24T15:23:04Z</time>
      </trkpt>
      <trkpt lat="45.12038" lon="4.46462">
        <ele>946.32202148438</ele>
        <time>2010-07-24T15:23:08Z</time>
      </trkpt>
      <trkpt lat="45.12043" lon="4.46471">
        <ele>945.23400878906</ele>
        <time>2010-07-24T15:23:11Z</time>
      </trkpt>
      <trkpt lat="45.12042" lon="4.46491">
        <ele>944.32299804688</ele>
        <time>2010-07-24T15:23:15Z</time>
      </trkpt>
      <trkpt lat="45.12041" lon="4.46496">
        <ele>944.125</ele>
        <time>2010-07-24T15:23:16Z</time>
      </trkpt>
      <trkpt lat="45.12032" lon="4.46521">
        <ele>943.2080078125</ele>
        <time>2010-07-24T15:23:22Z</time>
      </trkpt>
      <trkpt lat="45.12029" lon="4.46528">
        <ele>943.51098632812</ele>
        <time>2010-07-24T15:23:27Z</time>
      </trkpt>
      <trkpt lat="45.12029" lon="4.46528">
        <ele>943.60900878906</ele>
        <time>2010-07-24T15:23:28Z</time>
      </trkpt>
      <trkpt lat="45.12027" lon="4.46527">
        <ele>944.4169921875</ele>
        <time>2010-07-24T15:25:51Z</time>
      </trkpt>
      <trkpt lat="45.12033" lon="4.46514">
        <ele>944.76202392578</ele>
        <time>2010-07-24T15:25:57Z</time>
      </trkpt>
      <trkpt lat="45.12041" lon="4.4649">
        <ele>946.20098876953</ele>
        <time>2010-07-24T15:26:02Z</time>
      </trkpt>
      <trkpt lat="45.12042" lon="4.46476">
        <ele>946.56097412109</ele>
        <time>2010-07-24T15:26:06Z</time>
      </trkpt>
      <trkpt lat="45.12043" lon="4.46468">
        <ele>946.64202880859</ele>
        <time>2010-07-24T15:26:10Z</time>
      </trkpt>
      <trkpt lat="45.12042" lon="4.46464">
        <ele>946.89001464844</ele>
        <time>2010-07-24T15:26:13Z</time>
      </trkpt>
      <trkpt lat="45.12046" lon="4.4646">
        <ele>946.99102783203</ele>
        <time>2010-07-24T15:26:18Z</time>
      </trkpt>
      <trkpt lat="45.12059" lon="4.46453">
        <ele>947.19598388672</ele>
        <time>2010-07-24T15:26:23Z</time>
      </trkpt>
      <trkpt lat="45.12073" lon="4.46448">
        <ele>948.16198730469</ele>
        <time>2010-07-24T15:26:28Z</time>
      </trkpt>
      <trkpt lat="45.12086" lon="4.4644">
        <ele>948.38897705078</ele>
        <time>2010-07-24T15:26:33Z</time>
      </trkpt>
      <trkpt lat="45.12093" lon="4.46446">
        <ele>948.71398925781</ele>
        <time>2010-07-24T15:26:37Z</time>
      </trkpt>
      <trkpt lat="45.12091" lon="4.46456">
        <ele>948.77001953125</ele>
        <time>2010-07-24T15:26:40Z</time>
      </trkpt>
      <trkpt lat="45.12089" lon="4.4646">
        <ele>948.95001220703</ele>
        <time>2010-07-24T15:26:42Z</time>
      </trkpt>
      <trkpt lat="45.12088" lon="4.46463">
        <ele>949.24597167969</ele>
        <time>2010-07-24T15:26:46Z</time>
      </trkpt>
      <trkpt lat="45.12091" lon="4.46463">
        <ele>948.84600830078</ele>
        <time>2010-07-24T15:27:03Z</time>
      </trkpt>
      <trkpt lat="45.12091" lon="4.46462">
        <ele>948.77398681641</ele>
        <time>2010-07-24T15:27:04Z</time>
      </trkpt>
      <trkpt lat="45.1209" lon="4.46451">
        <ele>952.56097412109</ele>
        <time>2010-07-24T15:32:30Z</time>
      </trkpt>
      <trkpt lat="45.12091" lon="4.46446">
        <ele>952.375</ele>
        <time>2010-07-24T15:32:33Z</time>
      </trkpt>
      <trkpt lat="45.12094" lon="4.46433">
        <ele>952.15997314453</ele>
        <time>2010-07-24T15:32:40Z</time>
      </trkpt>
      <trkpt lat="45.12095" lon="4.46431">
        <ele>952.42199707031</ele>
        <time>2010-07-24T15:32:41Z</time>
      </trkpt>
      <trkpt lat="45.1211" lon="4.46425">
        <ele>955.02801513672</ele>
        <time>2010-07-24T15:32:48Z</time>
      </trkpt>
      <trkpt lat="45.12119" lon="4.46415">
        <ele>955.88702392578</ele>
        <time>2010-07-24T15:32:53Z</time>
      </trkpt>
      <trkpt lat="45.1213" lon="4.46407">
        <ele>956.43499755859</ele>
        <time>2010-07-24T15:32:58Z</time>
      </trkpt>
      <trkpt lat="45.12144" lon="4.46393">
        <ele>958.09197998047</ele>
        <time>2010-07-24T15:33:05Z</time>
      </trkpt>
      <trkpt lat="45.12158" lon="4.46381">
        <ele>958.49200439453</ele>
        <time>2010-07-24T15:33:11Z</time>
      </trkpt>
      <trkpt lat="45.12175" lon="4.46365">
        <ele>960.458984375</ele>
        <time>2010-07-24T15:33:19Z</time>
      </trkpt>
      <trkpt lat="45.12181" lon="4.46358">
        <ele>961.84997558594</ele>
        <time>2010-07-24T15:33:22Z</time>
      </trkpt>
      <trkpt lat="45.12206" lon="4.46336">
        <ele>963.58502197266</ele>
        <time>2010-07-24T15:33:33Z</time>
      </trkpt>
      <trkpt lat="45.1222" lon="4.46324">
        <ele>965.02697753906</ele>
        <time>2010-07-24T15:33:40Z</time>
      </trkpt>
      <trkpt lat="45.12229" lon="4.46318">
        <ele>965.32800292969</ele>
        <time>2010-07-24T15:33:44Z</time>
      </trkpt>
      <trkpt lat="45.12249" lon="4.46309">
        <ele>966.58197021484</ele>
        <time>2010-07-24T15:33:52Z</time>
      </trkpt>
      <trkpt lat="45.12265" lon="4.46309">
        <ele>968.06799316406</ele>
        <time>2010-07-24T15:33:59Z</time>
      </trkpt>
      <trkpt lat="45.12277" lon="4.46322">
        <ele>969.61499023438</ele>
        <time>2010-07-24T15:34:05Z</time>
      </trkpt>
      <trkpt lat="45.1229" lon="4.46347">
        <ele>969.78601074219</ele>
        <time>2010-07-24T15:34:12Z</time>
      </trkpt>
      <trkpt lat="45.12301" lon="4.46364">
        <ele>970.19598388672</ele>
        <time>2010-07-24T15:34:17Z</time>
      </trkpt>
      <trkpt lat="45.12312" lon="4.46387">
        <ele>971.26800537109</ele>
        <time>2010-07-24T15:34:23Z</time>
      </trkpt>
      <trkpt lat="45.12324" lon="4.4641">
        <ele>972.12799072266</ele>
        <time>2010-07-24T15:34:29Z</time>
      </trkpt>
      <trkpt lat="45.12338" lon="4.46437">
        <ele>973.21002197266</ele>
        <time>2010-07-24T15:34:36Z</time>
      </trkpt>
      <trkpt lat="45.12355" lon="4.46461">
        <ele>974.57000732422</ele>
        <time>2010-07-24T15:34:43Z</time>
      </trkpt>
      <trkpt lat="45.12379" lon="4.46486">
        <ele>976.19097900391</ele>
        <time>2010-07-24T15:34:52Z</time>
      </trkpt>
      <trkpt lat="45.124" lon="4.46493">
        <ele>976.44097900391</ele>
        <time>2010-07-24T15:34:59Z</time>
      </trkpt>
      <trkpt lat="45.12424" lon="4.46492">
        <ele>977.57501220703</ele>
        <time>2010-07-24T15:35:06Z</time>
      </trkpt>
      <trkpt lat="45.12445" lon="4.4649">
        <ele>978.53698730469</ele>
        <time>2010-07-24T15:35:12Z</time>
      </trkpt>
      <trkpt lat="45.12475" lon="4.46492">
        <ele>979.92401123047</ele>
        <time>2010-07-24T15:35:21Z</time>
      </trkpt>
      <trkpt lat="45.12485" lon="4.46496">
        <ele>981.21002197266</ele>
        <time>2010-07-24T15:35:24Z</time>
      </trkpt>
      <trkpt lat="45.12507" lon="4.46512">
        <ele>980.95501708984</ele>
        <time>2010-07-24T15:35:31Z</time>
      </trkpt>
      <trkpt lat="45.12536" lon="4.46537">
        <ele>981.74597167969</ele>
        <time>2010-07-24T15:35:39Z</time>
      </trkpt>
      <trkpt lat="45.12564" lon="4.46557">
        <ele>982.43701171875</ele>
        <time>2010-07-24T15:35:46Z</time>
      </trkpt>
      <trkpt lat="45.12578" lon="4.46562">
        <ele>983.10900878906</ele>
        <time>2010-07-24T15:35:49Z</time>
      </trkpt>
      <trkpt lat="45.12591" lon="4.46564">
        <ele>984.4580078125</ele>
        <time>2010-07-24T15:35:52Z</time>
      </trkpt>
      <trkpt lat="45.12596" lon="4.46564">
        <ele>984.38397216797</ele>
        <time>2010-07-24T15:35:53Z</time>
      </trkpt>
      <trkpt lat="45.1263" lon="4.46554">
        <ele>985.89801025391</ele>
        <time>2010-07-24T15:36:02Z</time>
      </trkpt>
      <trkpt lat="45.12661" lon="4.46542">
        <ele>988.6669921875</ele>
        <time>2010-07-24T15:36:12Z</time>
      </trkpt>
      <trkpt lat="45.12664" lon="4.4654">
        <ele>988.92297363281</ele>
        <time>2010-07-24T15:36:13Z</time>
      </trkpt>
      <trkpt lat="45.12695" lon="4.46528">
        <ele>990.92700195312</ele>
        <time>2010-07-24T15:36:23Z</time>
      </trkpt>
      <trkpt lat="45.12717" lon="4.46518">
        <ele>994.20697021484</ele>
        <time>2010-07-24T15:36:31Z</time>
      </trkpt>
      <trkpt lat="45.12742" lon="4.46503">
        <ele>997.38000488281</ele>
        <time>2010-07-24T15:36:40Z</time>
      </trkpt>
      <trkpt lat="45.1276" lon="4.46494">
        <ele>998.15301513672</ele>
        <time>2010-07-24T15:36:47Z</time>
      </trkpt>
      <trkpt lat="45.12779" lon="4.46482">
        <ele>1000.2739868164</ele>
        <time>2010-07-24T15:36:54Z</time>
      </trkpt>
      <trkpt lat="45.12801" lon="4.46475">
        <ele>1001.1790161133</ele>
        <time>2010-07-24T15:37:02Z</time>
      </trkpt>
      <trkpt lat="45.12818" lon="4.4647">
        <ele>1002.8079833984</ele>
        <time>2010-07-24T15:37:08Z</time>
      </trkpt>
      <trkpt lat="45.12834" lon="4.46467">
        <ele>1003.6729736328</ele>
        <time>2010-07-24T15:37:13Z</time>
      </trkpt>
      <trkpt lat="45.12852" lon="4.46467">
        <ele>1004.9459838867</ele>
        <time>2010-07-24T15:37:19Z</time>
      </trkpt>
      <trkpt lat="45.12872" lon="4.4647">
        <ele>1005.625</ele>
        <time>2010-07-24T15:37:26Z</time>
      </trkpt>
      <trkpt lat="45.12891" lon="4.46477">
        <ele>1007.3040161133</ele>
        <time>2010-07-24T15:37:33Z</time>
      </trkpt>
      <trkpt lat="45.12912" lon="4.46488">
        <ele>1008.3309936523</ele>
        <time>2010-07-24T15:37:41Z</time>
      </trkpt>
      <trkpt lat="45.12931" lon="4.46499">
        <ele>1009.3489990234</ele>
        <time>2010-07-24T15:37:48Z</time>
      </trkpt>
      <trkpt lat="45.12947" lon="4.46505">
        <ele>1009.8800048828</ele>
        <time>2010-07-24T15:37:53Z</time>
      </trkpt>
      <trkpt lat="45.12962" lon="4.46514">
        <ele>1010.6580200195</ele>
        <time>2010-07-24T15:37:59Z</time>
      </trkpt>
      <trkpt lat="45.12973" lon="4.46524">
        <ele>1011.7379760742</ele>
        <time>2010-07-24T15:38:04Z</time>
      </trkpt>
      <trkpt lat="45.12987" lon="4.46542">
        <ele>1012.4039916992</ele>
        <time>2010-07-24T15:38:10Z</time>
      </trkpt>
      <trkpt lat="45.12999" lon="4.46567">
        <ele>1014.0200195312</ele>
        <time>2010-07-24T15:38:17Z</time>
      </trkpt>
      <trkpt lat="45.13011" lon="4.46598">
        <ele>1014.9080200195</ele>
        <time>2010-07-24T15:38:25Z</time>
      </trkpt>
      <trkpt lat="45.13027" lon="4.46636">
        <ele>1017.0269775391</ele>
        <time>2010-07-24T15:38:35Z</time>
      </trkpt>
      <trkpt lat="45.13037" lon="4.46665">
        <ele>1017.742980957</ele>
        <time>2010-07-24T15:38:43Z</time>
      </trkpt>
      <trkpt lat="45.13053" lon="4.46704">
        <ele>1019.3439941406</ele>
        <time>2010-07-24T15:38:54Z</time>
      </trkpt>
      <trkpt lat="45.13064" lon="4.46738">
        <ele>1021.2540283203</ele>
        <time>2010-07-24T15:39:03Z</time>
      </trkpt>
      <trkpt lat="45.13078" lon="4.46776">
        <ele>1023.0560302734</ele>
        <time>2010-07-24T15:39:13Z</time>
      </trkpt>
      <trkpt lat="45.13091" lon="4.46812">
        <ele>1025.0269775391</ele>
        <time>2010-07-24T15:39:22Z</time>
      </trkpt>
      <trkpt lat="45.13113" lon="4.46854">
        <ele>1027.4300537109</ele>
        <time>2010-07-24T15:39:33Z</time>
      </trkpt>
      <trkpt lat="45.13135" lon="4.46891">
        <ele>1028.2490234375</ele>
        <time>2010-07-24T15:39:42Z</time>
      </trkpt>
      <trkpt lat="45.1315" lon="4.46911">
        <ele>1028.6729736328</ele>
        <time>2010-07-24T15:39:47Z</time>
      </trkpt>
      <trkpt lat="45.1318" lon="4.46947">
        <ele>1031.1729736328</ele>
        <time>2010-07-24T15:39:57Z</time>
      </trkpt>
      <trkpt lat="45.13202" lon="4.46978">
        <ele>1033.8220214844</ele>
        <time>2010-07-24T15:40:05Z</time>
      </trkpt>
      <trkpt lat="45.13219" lon="4.47005">
        <ele>1035.0699462891</ele>
        <time>2010-07-24T15:40:12Z</time>
      </trkpt>
      <trkpt lat="45.13242" lon="4.47038">
        <ele>1037.376953125</ele>
        <time>2010-07-24T15:40:21Z</time>
      </trkpt>
      <trkpt lat="45.13267" lon="4.47073">
        <ele>1037.6130371094</ele>
        <time>2010-07-24T15:40:30Z</time>
      </trkpt>
      <trkpt lat="45.13275" lon="4.47085">
        <ele>1039.1040039062</ele>
        <time>2010-07-24T15:40:33Z</time>
      </trkpt>
      <trkpt lat="45.13297" lon="4.47122">
        <ele>1038.5880126953</ele>
        <time>2010-07-24T15:40:41Z</time>
      </trkpt>
      <trkpt lat="45.13308" lon="4.47142">
        <ele>1039.2270507812</ele>
        <time>2010-07-24T15:40:45Z</time>
      </trkpt>
      <trkpt lat="45.13315" lon="4.47158">
        <ele>1039.3900146484</ele>
        <time>2010-07-24T15:40:48Z</time>
      </trkpt>
      <trkpt lat="45.13324" lon="4.472">
        <ele>1039.7559814453</ele>
        <time>2010-07-24T15:40:55Z</time>
      </trkpt>
      <trkpt lat="45.13329" lon="4.47242">
        <ele>1041.1169433594</ele>
        <time>2010-07-24T15:41:03Z</time>
      </trkpt>
      <trkpt lat="45.13334" lon="4.47283">
        <ele>1042.1290283203</ele>
        <time>2010-07-24T15:41:11Z</time>
      </trkpt>
      <trkpt lat="45.13346" lon="4.47315">
        <ele>1042.9720458984</ele>
        <time>2010-07-24T15:41:18Z</time>
      </trkpt>
      <trkpt lat="45.13369" lon="4.47341">
        <ele>1044.0739746094</ele>
        <time>2010-07-24T15:41:27Z</time>
      </trkpt>
      <trkpt lat="45.13393" lon="4.47353">
        <ele>1045.8189697266</ele>
        <time>2010-07-24T15:41:35Z</time>
      </trkpt>
      <trkpt lat="45.13404" lon="4.47359">
        <ele>1046.1369628906</ele>
        <time>2010-07-24T15:41:39Z</time>
      </trkpt>
      <trkpt lat="45.13423" lon="4.47364">
        <ele>1047.4250488281</ele>
        <time>2010-07-24T15:41:46Z</time>
      </trkpt>
      <trkpt lat="45.13441" lon="4.47372">
        <ele>1048.4320068359</ele>
        <time>2010-07-24T15:41:52Z</time>
      </trkpt>
      <trkpt lat="45.13457" lon="4.47382">
        <ele>1049.4310302734</ele>
        <time>2010-07-24T15:41:57Z</time>
      </trkpt>
      <trkpt lat="45.1347" lon="4.47403">
        <ele>1050.2950439453</ele>
        <time>2010-07-24T15:42:03Z</time>
      </trkpt>
      <trkpt lat="45.13473" lon="4.47429">
        <ele>1052.0920410156</ele>
        <time>2010-07-24T15:42:09Z</time>
      </trkpt>
      <trkpt lat="45.13472" lon="4.47456">
        <ele>1053.5379638672</ele>
        <time>2010-07-24T15:42:15Z</time>
      </trkpt>
      <trkpt lat="45.13472" lon="4.47478">
        <ele>1055.1479492188</ele>
        <time>2010-07-24T15:42:20Z</time>
      </trkpt>
      <trkpt lat="45.13474" lon="4.47483">
        <ele>1055.45703125</ele>
        <time>2010-07-24T15:42:21Z</time>
      </trkpt>
      <trkpt lat="45.13482" lon="4.47505">
        <ele>1056.9539794922</ele>
        <time>2010-07-24T15:42:25Z</time>
      </trkpt>
      <trkpt lat="45.13508" lon="4.47542">
        <ele>1058.6999511719</ele>
        <time>2010-07-24T15:42:34Z</time>
      </trkpt>
      <trkpt lat="45.13528" lon="4.47565">
        <ele>1059.6999511719</ele>
        <time>2010-07-24T15:42:40Z</time>
      </trkpt>
      <trkpt lat="45.13552" lon="4.47593">
        <ele>1061.4169921875</ele>
        <time>2010-07-24T15:42:48Z</time>
      </trkpt>
      <trkpt lat="45.13577" lon="4.47624">
        <ele>1063.7449951172</ele>
        <time>2010-07-24T15:42:57Z</time>
      </trkpt>
      <trkpt lat="45.13601" lon="4.47648">
        <ele>1065.626953125</ele>
        <time>2010-07-24T15:43:05Z</time>
      </trkpt>
      <trkpt lat="45.13624" lon="4.47656">
        <ele>1067.2969970703</ele>
        <time>2010-07-24T15:43:12Z</time>
      </trkpt>
      <trkpt lat="45.1364" lon="4.47655">
        <ele>1068.4310302734</ele>
        <time>2010-07-24T15:43:17Z</time>
      </trkpt>
      <trkpt lat="45.13652" lon="4.47651">
        <ele>1069.1770019531</ele>
        <time>2010-07-24T15:43:21Z</time>
      </trkpt>
      <trkpt lat="45.13663" lon="4.47649">
        <ele>1069.8409423828</ele>
        <time>2010-07-24T15:43:25Z</time>
      </trkpt>
      <trkpt lat="45.1368" lon="4.47647">
        <ele>1071.0310058594</ele>
        <time>2010-07-24T15:43:31Z</time>
      </trkpt>
      <trkpt lat="45.13696" lon="4.47642">
        <ele>1072.1540527344</ele>
        <time>2010-07-24T15:43:36Z</time>
      </trkpt>
      <trkpt lat="45.1371" lon="4.47636">
        <ele>1073.2280273438</ele>
        <time>2010-07-24T15:43:41Z</time>
      </trkpt>
      <trkpt lat="45.13728" lon="4.47631">
        <ele>1074.7340087891</ele>
        <time>2010-07-24T15:43:47Z</time>
      </trkpt>
      <trkpt lat="45.13747" lon="4.4763">
        <ele>1076.5529785156</ele>
        <time>2010-07-24T15:43:53Z</time>
      </trkpt>
      <trkpt lat="45.13765" lon="4.47637">
        <ele>1077.0209960938</ele>
        <time>2010-07-24T15:43:59Z</time>
      </trkpt>
      <trkpt lat="45.1378" lon="4.47653">
        <ele>1077.7640380859</ele>
        <time>2010-07-24T15:44:05Z</time>
      </trkpt>
      <trkpt lat="45.13792" lon="4.47668">
        <ele>1078.8129882812</ele>
        <time>2010-07-24T15:44:10Z</time>
      </trkpt>
      <trkpt lat="45.13807" lon="4.47686">
        <ele>1080.0050048828</ele>
        <time>2010-07-24T15:44:16Z</time>
      </trkpt>
      <trkpt lat="45.13828" lon="4.47709">
        <ele>1081.0780029297</ele>
        <time>2010-07-24T15:44:24Z</time>
      </trkpt>
      <trkpt lat="45.13859" lon="4.47745">
        <ele>1084.3649902344</ele>
        <time>2010-07-24T15:44:36Z</time>
      </trkpt>
      <trkpt lat="45.13881" lon="4.47776">
        <ele>1086.75</ele>
        <time>2010-07-24T15:44:46Z</time>
      </trkpt>
      <trkpt lat="45.139" lon="4.47809">
        <ele>1089.1459960938</ele>
        <time>2010-07-24T15:44:56Z</time>
      </trkpt>
      <trkpt lat="45.13921" lon="4.47836">
        <ele>1091.6949462891</ele>
        <time>2010-07-24T15:45:06Z</time>
      </trkpt>
      <trkpt lat="45.13942" lon="4.47856">
        <ele>1093.5030517578</ele>
        <time>2010-07-24T15:45:15Z</time>
      </trkpt>
      <trkpt lat="45.13965" lon="4.47867">
        <ele>1095.9670410156</ele>
        <time>2010-07-24T15:45:24Z</time>
      </trkpt>
      <trkpt lat="45.13976" lon="4.47868">
        <ele>1095.5629882812</ele>
        <time>2010-07-24T15:45:29Z</time>
      </trkpt>
      <trkpt lat="45.13987" lon="4.47858">
        <ele>1097.4079589844</ele>
        <time>2010-07-24T15:45:34Z</time>
      </trkpt>
      <trkpt lat="45.14004" lon="4.47837">
        <ele>1097.2359619141</ele>
        <time>2010-07-24T15:45:41Z</time>
      </trkpt>
      <trkpt lat="45.14016" lon="4.47809">
        <ele>1098.0460205078</ele>
        <time>2010-07-24T15:45:48Z</time>
      </trkpt>
      <trkpt lat="45.14024" lon="4.47771">
        <ele>1097.2189941406</ele>
        <time>2010-07-24T15:45:56Z</time>
      </trkpt>
      <trkpt lat="45.14031" lon="4.47744">
        <ele>1098.4360351562</ele>
        <time>2010-07-24T15:46:02Z</time>
      </trkpt>
      <trkpt lat="45.14034" lon="4.47738">
        <ele>1098.3239746094</ele>
        <time>2010-07-24T15:46:04Z</time>
      </trkpt>
      <trkpt lat="45.14039" lon="4.47744">
        <ele>1098.3559570312</ele>
        <time>2010-07-24T15:46:08Z</time>
      </trkpt>
      <trkpt lat="45.14038" lon="4.4775">
        <ele>1100.0069580078</ele>
        <time>2010-07-24T15:46:10Z</time>
      </trkpt>
      <trkpt lat="45.14033" lon="4.47788">
        <ele>1101.4229736328</ele>
        <time>2010-07-24T15:46:20Z</time>
      </trkpt>
      <trkpt lat="45.14031" lon="4.4781">
        <ele>1103.1400146484</ele>
        <time>2010-07-24T15:46:26Z</time>
      </trkpt>
      <trkpt lat="45.14022" lon="4.47845">
        <ele>1105.1099853516</ele>
        <time>2010-07-24T15:46:35Z</time>
      </trkpt>
      <trkpt lat="45.14008" lon="4.47883">
        <ele>1107.0760498047</ele>
        <time>2010-07-24T15:46:45Z</time>
      </trkpt>
      <trkpt lat="45.13995" lon="4.47916">
        <ele>1109.2989501953</ele>
        <time>2010-07-24T15:46:54Z</time>
      </trkpt>
      <trkpt lat="45.13985" lon="4.47943">
        <ele>1110.7149658203</ele>
        <time>2010-07-24T15:47:02Z</time>
      </trkpt>
      <trkpt lat="45.13977" lon="4.47971">
        <ele>1112.3070068359</ele>
        <time>2010-07-24T15:47:09Z</time>
      </trkpt>
      <trkpt lat="45.13974" lon="4.48001">
        <ele>1113.7419433594</ele>
        <time>2010-07-24T15:47:16Z</time>
      </trkpt>
      <trkpt lat="45.13976" lon="4.48035">
        <ele>1114.8370361328</ele>
        <time>2010-07-24T15:47:24Z</time>
      </trkpt>
      <trkpt lat="45.13979" lon="4.48065">
        <ele>1115.1989746094</ele>
        <time>2010-07-24T15:47:31Z</time>
      </trkpt>
      <trkpt lat="45.13984" lon="4.48097">
        <ele>1114.708984375</ele>
        <time>2010-07-24T15:47:37Z</time>
      </trkpt>
      <trkpt lat="45.13987" lon="4.48109">
        <ele>1114.5629882812</ele>
        <time>2010-07-24T15:47:39Z</time>
      </trkpt>
      <trkpt lat="45.13991" lon="4.48121">
        <ele>1114.623046875</ele>
        <time>2010-07-24T15:47:41Z</time>
      </trkpt>
      <trkpt lat="45.14012" lon="4.48174">
        <ele>1114.7209472656</ele>
        <time>2010-07-24T15:47:49Z</time>
      </trkpt>
      <trkpt lat="45.14018" lon="4.48187">
        <ele>1114.7590332031</ele>
        <time>2010-07-24T15:47:51Z</time>
      </trkpt>
      <trkpt lat="45.14031" lon="4.48223">
        <ele>1114.6180419922</ele>
        <time>2010-07-24T15:47:56Z</time>
      </trkpt>
      <trkpt lat="45.14038" lon="4.48255">
        <ele>1114.2459716797</ele>
        <time>2010-07-24T15:48:00Z</time>
      </trkpt>
      <trkpt lat="45.14063" lon="4.4831">
        <ele>1112.8360595703</ele>
        <time>2010-07-24T15:48:07Z</time>
      </trkpt>
      <trkpt lat="45.14067" lon="4.48318">
        <ele>1112.7270507812</ele>
        <time>2010-07-24T15:48:08Z</time>
      </trkpt>
      <trkpt lat="45.14093" lon="4.48353">
        <ele>1110.4599609375</ele>
        <time>2010-07-24T15:48:13Z</time>
      </trkpt>
      <trkpt lat="45.14119" lon="4.48393">
        <ele>1109.2060546875</ele>
        <time>2010-07-24T15:48:18Z</time>
      </trkpt>
      <trkpt lat="45.14131" lon="4.48434">
        <ele>1110.7550048828</ele>
        <time>2010-07-24T15:48:23Z</time>
      </trkpt>
      <trkpt lat="45.14127" lon="4.48462">
        <ele>1113.0539550781</ele>
        <time>2010-07-24T15:48:27Z</time>
      </trkpt>
      <trkpt lat="45.14123" lon="4.48473">
        <ele>1114.0970458984</ele>
        <time>2010-07-24T15:48:29Z</time>
      </trkpt>
      <trkpt lat="45.14111" lon="4.485">
        <ele>1116.0770263672</ele>
        <time>2010-07-24T15:48:35Z</time>
      </trkpt>
      <trkpt lat="45.14098" lon="4.48528">
        <ele>1117.5229492188</ele>
        <time>2010-07-24T15:48:41Z</time>
      </trkpt>
      <trkpt lat="45.14087" lon="4.48555">
        <ele>1118.6879882812</ele>
        <time>2010-07-24T15:48:47Z</time>
      </trkpt>
      <trkpt lat="45.14079" lon="4.48577">
        <ele>1119.9520263672</ele>
        <time>2010-07-24T15:48:52Z</time>
      </trkpt>
      <trkpt lat="45.14072" lon="4.48604">
        <ele>1121.4899902344</ele>
        <time>2010-07-24T15:48:58Z</time>
      </trkpt>
      <trkpt lat="45.14067" lon="4.48634">
        <ele>1122.6989746094</ele>
        <time>2010-07-24T15:49:04Z</time>
      </trkpt>
      <trkpt lat="45.14062" lon="4.48668">
        <ele>1124.0610351562</ele>
        <time>2010-07-24T15:49:10Z</time>
      </trkpt>
      <trkpt lat="45.14059" lon="4.48693">
        <ele>1125.2449951172</ele>
        <time>2010-07-24T15:49:15Z</time>
      </trkpt>
      <trkpt lat="45.14062" lon="4.48723">
        <ele>1126.7280273438</ele>
        <time>2010-07-24T15:49:21Z</time>
      </trkpt>
      <trkpt lat="45.14076" lon="4.48748">
        <ele>1128.0150146484</ele>
        <time>2010-07-24T15:49:27Z</time>
      </trkpt>
      <trkpt lat="45.14093" lon="4.48773">
        <ele>1130.0269775391</ele>
        <time>2010-07-24T15:49:34Z</time>
      </trkpt>
      <trkpt lat="45.14105" lon="4.48795">
        <ele>1131.5260009766</ele>
        <time>2010-07-24T15:49:40Z</time>
      </trkpt>
      <trkpt lat="45.14122" lon="4.4883">
        <ele>1133.4010009766</ele>
        <time>2010-07-24T15:49:49Z</time>
      </trkpt>
      <trkpt lat="45.14132" lon="4.48865">
        <ele>1135.1390380859</ele>
        <time>2010-07-24T15:49:57Z</time>
      </trkpt>
      <trkpt lat="45.14135" lon="4.48893">
        <ele>1136.1419677734</ele>
        <time>2010-07-24T15:50:03Z</time>
      </trkpt>
      <trkpt lat="45.1414" lon="4.48914">
        <ele>1137.0899658203</ele>
        <time>2010-07-24T15:50:08Z</time>
      </trkpt>
      <trkpt lat="45.14148" lon="4.48933">
        <ele>1138.0119628906</ele>
        <time>2010-07-24T15:50:14Z</time>
      </trkpt>
      <trkpt lat="45.14164" lon="4.48954">
        <ele>1139.7860107422</ele>
        <time>2010-07-24T15:50:22Z</time>
      </trkpt>
      <trkpt lat="45.14177" lon="4.48963">
        <ele>1140.7790527344</ele>
        <time>2010-07-24T15:50:27Z</time>
      </trkpt>
      <trkpt lat="45.14199" lon="4.48972">
        <ele>1142.2860107422</ele>
        <time>2010-07-24T15:50:35Z</time>
      </trkpt>
      <trkpt lat="45.14222" lon="4.48977">
        <ele>1144.0439453125</ele>
        <time>2010-07-24T15:50:43Z</time>
      </trkpt>
      <trkpt lat="45.14242" lon="4.48976">
        <ele>1145.5520019531</ele>
        <time>2010-07-24T15:50:50Z</time>
      </trkpt>
      <trkpt lat="45.14262" lon="4.4897">
        <ele>1146.0050048828</ele>
        <time>2010-07-24T15:50:57Z</time>
      </trkpt>
      <trkpt lat="45.14285" lon="4.4896">
        <ele>1148.1240234375</ele>
        <time>2010-07-24T15:51:06Z</time>
      </trkpt>
      <trkpt lat="45.14308" lon="4.48949">
        <ele>1149.6619873047</ele>
        <time>2010-07-24T15:51:15Z</time>
      </trkpt>
      <trkpt lat="45.14326" lon="4.4894">
        <ele>1151.2509765625</ele>
        <time>2010-07-24T15:51:22Z</time>
      </trkpt>
      <trkpt lat="45.14353" lon="4.48927">
        <ele>1152.7139892578</ele>
        <time>2010-07-24T15:51:32Z</time>
      </trkpt>
      <trkpt lat="45.14368" lon="4.48918">
        <ele>1153.4720458984</ele>
        <time>2010-07-24T15:51:39Z</time>
      </trkpt>
      <trkpt lat="45.14384" lon="4.48908">
        <ele>1154.9580078125</ele>
        <time>2010-07-24T15:51:46Z</time>
      </trkpt>
      <trkpt lat="45.14396" lon="4.48903">
        <ele>1156.1400146484</ele>
        <time>2010-07-24T15:51:51Z</time>
      </trkpt>
      <trkpt lat="45.14406" lon="4.48901">
        <ele>1156.8220214844</ele>
        <time>2010-07-24T15:51:55Z</time>
      </trkpt>
      <trkpt lat="45.14421" lon="4.48899">
        <ele>1158.0889892578</ele>
        <time>2010-07-24T15:52:00Z</time>
      </trkpt>
      <trkpt lat="45.1444" lon="4.48899">
        <ele>1159.33203125</ele>
        <time>2010-07-24T15:52:07Z</time>
      </trkpt>
      <trkpt lat="45.14453" lon="4.48903">
        <ele>1160.2619628906</ele>
        <time>2010-07-24T15:52:12Z</time>
      </trkpt>
      <trkpt lat="45.14469" lon="4.48916">
        <ele>1161.3900146484</ele>
        <time>2010-07-24T15:52:18Z</time>
      </trkpt>
      <trkpt lat="45.14486" lon="4.48932">
        <ele>1163.0539550781</ele>
        <time>2010-07-24T15:52:25Z</time>
      </trkpt>
      <trkpt lat="45.145" lon="4.48952">
        <ele>1164.4639892578</ele>
        <time>2010-07-24T15:52:32Z</time>
      </trkpt>
      <trkpt lat="45.14517" lon="4.4897">
        <ele>1166.1719970703</ele>
        <time>2010-07-24T15:52:39Z</time>
      </trkpt>
      <trkpt lat="45.14544" lon="4.48987">
        <ele>1167.2659912109</ele>
        <time>2010-07-24T15:52:48Z</time>
      </trkpt>
      <trkpt lat="45.14574" lon="4.49001">
        <ele>1168.6009521484</ele>
        <time>2010-07-24T15:52:58Z</time>
      </trkpt>
      <trkpt lat="45.146" lon="4.49006">
        <ele>1169.9239501953</ele>
        <time>2010-07-24T15:53:06Z</time>
      </trkpt>
      <trkpt lat="45.14629" lon="4.49009">
        <ele>1171.3830566406</ele>
        <time>2010-07-24T15:53:15Z</time>
      </trkpt>
      <trkpt lat="45.1466" lon="4.4901">
        <ele>1173.2209472656</ele>
        <time>2010-07-24T15:53:25Z</time>
      </trkpt>
      <trkpt lat="45.14688" lon="4.49014">
        <ele>1173.7889404297</ele>
        <time>2010-07-24T15:53:34Z</time>
      </trkpt>
      <trkpt lat="45.14717" lon="4.49021">
        <ele>1174.8179931641</ele>
        <time>2010-07-24T15:53:43Z</time>
      </trkpt>
      <trkpt lat="45.14735" lon="4.4903">
        <ele>1176.2550048828</ele>
        <time>2010-07-24T15:53:49Z</time>
      </trkpt>
      <trkpt lat="45.14762" lon="4.49046">
        <ele>1177.8179931641</ele>
        <time>2010-07-24T15:53:59Z</time>
      </trkpt>
      <trkpt lat="45.14774" lon="4.49056">
        <ele>1178.9029541016</ele>
        <time>2010-07-24T15:54:05Z</time>
      </trkpt>
      <trkpt lat="45.14783" lon="4.49066">
        <ele>1179.5670166016</ele>
        <time>2010-07-24T15:54:11Z</time>
      </trkpt>
      <trkpt lat="45.14793" lon="4.49079">
        <ele>1180.5489501953</ele>
        <time>2010-07-24T15:54:17Z</time>
      </trkpt>
      <trkpt lat="45.14802" lon="4.49094">
        <ele>1182.2690429688</ele>
        <time>2010-07-24T15:54:24Z</time>
      </trkpt>
      <trkpt lat="45.14806" lon="4.49105">
        <ele>1183.4560546875</ele>
        <time>2010-07-24T15:54:29Z</time>
      </trkpt>
      <trkpt lat="45.1481" lon="4.49117">
        <ele>1184.3950195312</ele>
        <time>2010-07-24T15:54:34Z</time>
      </trkpt>
      <trkpt lat="45.14814" lon="4.49135">
        <ele>1186.1080322266</ele>
        <time>2010-07-24T15:54:41Z</time>
      </trkpt>
      <trkpt lat="45.14818" lon="4.49151">
        <ele>1187.1510009766</ele>
        <time>2010-07-24T15:54:47Z</time>
      </trkpt>
      <trkpt lat="45.14822" lon="4.49172">
        <ele>1188.2399902344</ele>
        <time>2010-07-24T15:54:54Z</time>
      </trkpt>
      <trkpt lat="45.14825" lon="4.49186">
        <ele>1189.0579833984</ele>
        <time>2010-07-24T15:54:59Z</time>
      </trkpt>
      <trkpt lat="45.14827" lon="4.49206">
        <ele>1190.1149902344</ele>
        <time>2010-07-24T15:55:06Z</time>
      </trkpt>
      <trkpt lat="45.14827" lon="4.49209">
        <ele>1190.4210205078</ele>
        <time>2010-07-24T15:55:07Z</time>
      </trkpt>
      <trkpt lat="45.14829" lon="4.49228">
        <ele>1191.6870117188</ele>
        <time>2010-07-24T15:55:14Z</time>
      </trkpt>
      <trkpt lat="45.14829" lon="4.49249">
        <ele>1192.7010498047</ele>
        <time>2010-07-24T15:55:21Z</time>
      </trkpt>
      <trkpt lat="45.14834" lon="4.4927">
        <ele>1193.7989501953</ele>
        <time>2010-07-24T15:55:28Z</time>
      </trkpt>
      <trkpt lat="45.14842" lon="4.49288">
        <ele>1194.7590332031</ele>
        <time>2010-07-24T15:55:35Z</time>
      </trkpt>
      <trkpt lat="45.14856" lon="4.49305">
        <ele>1196.3509521484</ele>
        <time>2010-07-24T15:55:43Z</time>
      </trkpt>
      <trkpt lat="45.14868" lon="4.49321">
        <ele>1197.9329833984</ele>
        <time>2010-07-24T15:55:50Z</time>
      </trkpt>
      <trkpt lat="45.1488" lon="4.49338">
        <ele>1199.5520019531</ele>
        <time>2010-07-24T15:55:57Z</time>
      </trkpt>
      <trkpt lat="45.14897" lon="4.49366">
        <ele>1200.9840087891</ele>
        <time>2010-07-24T15:56:07Z</time>
      </trkpt>
      <trkpt lat="45.14906" lon="4.49387">
        <ele>1202.9639892578</ele>
        <time>2010-07-24T15:56:14Z</time>
      </trkpt>
      <trkpt lat="45.14916" lon="4.49416">
        <ele>1204.3129882812</ele>
        <time>2010-07-24T15:56:23Z</time>
      </trkpt>
      <trkpt lat="45.14921" lon="4.49444">
        <ele>1205.6309814453</ele>
        <time>2010-07-24T15:56:31Z</time>
      </trkpt>
      <trkpt lat="45.14922" lon="4.49472">
        <ele>1207.3249511719</ele>
        <time>2010-07-24T15:56:39Z</time>
      </trkpt>
      <trkpt lat="45.14922" lon="4.49503">
        <ele>1209.5340576172</ele>
        <time>2010-07-24T15:56:48Z</time>
      </trkpt>
      <trkpt lat="45.14922" lon="4.49534">
        <ele>1210.6770019531</ele>
        <time>2010-07-24T15:56:57Z</time>
      </trkpt>
      <trkpt lat="45.14924" lon="4.49564">
        <ele>1211.8879394531</ele>
        <time>2010-07-24T15:57:05Z</time>
      </trkpt>
      <trkpt lat="45.14926" lon="4.49589">
        <ele>1213.0649414062</ele>
        <time>2010-07-24T15:57:12Z</time>
      </trkpt>
      <trkpt lat="45.14932" lon="4.49618">
        <ele>1214.4790039062</ele>
        <time>2010-07-24T15:57:20Z</time>
      </trkpt>
      <trkpt lat="45.14938" lon="4.49641">
        <ele>1215.7939453125</ele>
        <time>2010-07-24T15:57:27Z</time>
      </trkpt>
      <trkpt lat="45.1495" lon="4.4967">
        <ele>1217.748046875</ele>
        <time>2010-07-24T15:57:37Z</time>
      </trkpt>
      <trkpt lat="45.14964" lon="4.49703">
        <ele>1219.7149658203</ele>
        <time>2010-07-24T15:57:48Z</time>
      </trkpt>
      <trkpt lat="45.14976" lon="4.49734">
        <ele>1221.8129882812</ele>
        <time>2010-07-24T15:57:58Z</time>
      </trkpt>
      <trkpt lat="45.14981" lon="4.49753">
        <ele>1222.7299804688</ele>
        <time>2010-07-24T15:58:04Z</time>
      </trkpt>
      <trkpt lat="45.14984" lon="4.4977">
        <ele>1223.8010253906</ele>
        <time>2010-07-24T15:58:10Z</time>
      </trkpt>
      <trkpt lat="45.14986" lon="4.49791">
        <ele>1225.2430419922</ele>
        <time>2010-07-24T15:58:17Z</time>
      </trkpt>
      <trkpt lat="45.14988" lon="4.49817">
        <ele>1226.4990234375</ele>
        <time>2010-07-24T15:58:25Z</time>
      </trkpt>
      <trkpt lat="45.14988" lon="4.49841">
        <ele>1227.8480224609</ele>
        <time>2010-07-24T15:58:32Z</time>
      </trkpt>
      <trkpt lat="45.14984" lon="4.49881">
        <ele>1229.6750488281</ele>
        <time>2010-07-24T15:58:43Z</time>
      </trkpt>
      <trkpt lat="45.14978" lon="4.49906">
        <ele>1230.6020507812</ele>
        <time>2010-07-24T15:58:50Z</time>
      </trkpt>
      <trkpt lat="45.14968" lon="4.49937">
        <ele>1232.0729980469</ele>
        <time>2010-07-24T15:58:57Z</time>
      </trkpt>
      <trkpt lat="45.14961" lon="4.49961">
        <ele>1233.5369873047</ele>
        <time>2010-07-24T15:59:03Z</time>
      </trkpt>
      <trkpt lat="45.14946" lon="4.49991">
        <ele>1235.1130371094</ele>
        <time>2010-07-24T15:59:11Z</time>
      </trkpt>
      <trkpt lat="45.14936" lon="4.50013">
        <ele>1235.8349609375</ele>
        <time>2010-07-24T15:59:17Z</time>
      </trkpt>
      <trkpt lat="45.14922" lon="4.50041">
        <ele>1237.3879394531</ele>
        <time>2010-07-24T15:59:24Z</time>
      </trkpt>
      <trkpt lat="45.14911" lon="4.50069">
        <ele>1238.8179931641</ele>
        <time>2010-07-24T15:59:31Z</time>
      </trkpt>
      <trkpt lat="45.14905" lon="4.50094">
        <ele>1240.0279541016</ele>
        <time>2010-07-24T15:59:37Z</time>
      </trkpt>
      <trkpt lat="45.149" lon="4.50118">
        <ele>1241.5780029297</ele>
        <time>2010-07-24T15:59:43Z</time>
      </trkpt>
      <trkpt lat="45.14896" lon="4.50149">
        <ele>1243.29296875</ele>
        <time>2010-07-24T15:59:51Z</time>
      </trkpt>
      <trkpt lat="45.14893" lon="4.50174">
        <ele>1244.8800048828</ele>
        <time>2010-07-24T15:59:58Z</time>
      </trkpt>
      <trkpt lat="45.1489" lon="4.50206">
        <ele>1246.6999511719</ele>
        <time>2010-07-24T16:00:07Z</time>
      </trkpt>
      <trkpt lat="45.14886" lon="4.50224">
        <ele>1247.2939453125</ele>
        <time>2010-07-24T16:00:13Z</time>
      </trkpt>
      <trkpt lat="45.14885" lon="4.50226">
        <ele>1247.7139892578</ele>
        <time>2010-07-24T16:00:16Z</time>
      </trkpt>
      <trkpt lat="45.14888" lon="4.50227">
        <ele>1247.6729736328</ele>
        <time>2010-07-24T16:01:51Z</time>
      </trkpt>
      <trkpt lat="45.14886" lon="4.50245">
        <ele>1247.4780273438</ele>
        <time>2010-07-24T16:01:56Z</time>
      </trkpt>
      <trkpt lat="45.14883" lon="4.5026">
        <ele>1247.2010498047</ele>
        <time>2010-07-24T16:02:01Z</time>
      </trkpt>
      <trkpt lat="45.14886" lon="4.50282">
        <ele>1246.3260498047</ele>
        <time>2010-07-24T16:02:26Z</time>
      </trkpt>
      <trkpt lat="45.14889" lon="4.50328">
        <ele>1243.6479492188</ele>
        <time>2010-07-24T16:02:32Z</time>
      </trkpt>
      <trkpt lat="45.14893" lon="4.50374">
        <ele>1239.7760009766</ele>
        <time>2010-07-24T16:02:36Z</time>
      </trkpt>
      <trkpt lat="45.14898" lon="4.50446">
        <ele>1234.7719726562</ele>
        <time>2010-07-24T16:02:41Z</time>
      </trkpt>
      <trkpt lat="45.14898" lon="4.50532">
        <ele>1229.8669433594</ele>
        <time>2010-07-24T16:02:46Z</time>
      </trkpt>
      <trkpt lat="45.14901" lon="4.506">
        <ele>1227.7530517578</ele>
        <time>2010-07-24T16:02:50Z</time>
      </trkpt>
      <trkpt lat="45.14908" lon="4.50682">
        <ele>1226.1689453125</ele>
        <time>2010-07-24T16:02:55Z</time>
      </trkpt>
      <trkpt lat="45.14909" lon="4.50777">
        <ele>1225.0150146484</ele>
        <time>2010-07-24T16:03:01Z</time>
      </trkpt>
      <trkpt lat="45.14899" lon="4.50849">
        <ele>1225.0050048828</ele>
        <time>2010-07-24T16:03:06Z</time>
      </trkpt>
      <trkpt lat="45.14888" lon="4.50932">
        <ele>1223.4499511719</ele>
        <time>2010-07-24T16:03:12Z</time>
      </trkpt>
      <trkpt lat="45.14885" lon="4.51">
        <ele>1222.0899658203</ele>
        <time>2010-07-24T16:03:17Z</time>
      </trkpt>
      <trkpt lat="45.14885" lon="4.51014">
        <ele>1221.8270263672</ele>
        <time>2010-07-24T16:03:18Z</time>
      </trkpt>
      <trkpt lat="45.14878" lon="4.51099">
        <ele>1218.6639404297</ele>
        <time>2010-07-24T16:03:24Z</time>
      </trkpt>
      <trkpt lat="45.14883" lon="4.51159">
        <ele>1216.6120605469</ele>
        <time>2010-07-24T16:03:28Z</time>
      </trkpt>
      <trkpt lat="45.14897" lon="4.51233">
        <ele>1215.9479980469</ele>
        <time>2010-07-24T16:03:33Z</time>
      </trkpt>
      <trkpt lat="45.14896" lon="4.51288">
        <ele>1216.4840087891</ele>
        <time>2010-07-24T16:03:37Z</time>
      </trkpt>
      <trkpt lat="45.14883" lon="4.51335">
        <ele>1216.8430175781</ele>
        <time>2010-07-24T16:03:41Z</time>
      </trkpt>
      <trkpt lat="45.14877" lon="4.51345">
        <ele>1216.2810058594</ele>
        <time>2010-07-24T16:03:42Z</time>
      </trkpt>
      <trkpt lat="45.14832" lon="4.51417">
        <ele>1215.7869873047</ele>
        <time>2010-07-24T16:03:50Z</time>
      </trkpt>
      <trkpt lat="45.14799" lon="4.51481">
        <ele>1215.3380126953</ele>
        <time>2010-07-24T16:03:57Z</time>
      </trkpt>
      <trkpt lat="45.14767" lon="4.51542">
        <ele>1215.7850341797</ele>
        <time>2010-07-24T16:04:04Z</time>
      </trkpt>
      <trkpt lat="45.14722" lon="4.51603">
        <ele>1215.0930175781</ele>
        <time>2010-07-24T16:04:12Z</time>
      </trkpt>
      <trkpt lat="45.14686" lon="4.51632">
        <ele>1214.4969482422</ele>
        <time>2010-07-24T16:04:17Z</time>
      </trkpt>
      <trkpt lat="45.14651" lon="4.51646">
        <ele>1215.626953125</ele>
        <time>2010-07-24T16:04:22Z</time>
      </trkpt>
      <trkpt lat="45.14645" lon="4.51648">
        <ele>1216.2299804688</ele>
        <time>2010-07-24T16:04:23Z</time>
      </trkpt>
      <trkpt lat="45.14616" lon="4.5164">
        <ele>1219.1059570312</ele>
        <time>2010-07-24T16:04:29Z</time>
      </trkpt>
      <trkpt lat="45.14592" lon="4.51624">
        <ele>1221.2170410156</ele>
        <time>2010-07-24T16:04:36Z</time>
      </trkpt>
      <trkpt lat="45.1457" lon="4.51617">
        <ele>1222.5290527344</ele>
        <time>2010-07-24T16:04:42Z</time>
      </trkpt>
      <trkpt lat="45.1455" lon="4.51614">
        <ele>1223.7700195312</ele>
        <time>2010-07-24T16:04:47Z</time>
      </trkpt>
      <trkpt lat="45.14523" lon="4.51615">
        <ele>1225.0340576172</ele>
        <time>2010-07-24T16:04:54Z</time>
      </trkpt>
      <trkpt lat="45.145" lon="4.51615">
        <ele>1226.2559814453</ele>
        <time>2010-07-24T16:05:00Z</time>
      </trkpt>
      <trkpt lat="45.14469" lon="4.5162">
        <ele>1226.9599609375</ele>
        <time>2010-07-24T16:05:07Z</time>
      </trkpt>
      <trkpt lat="45.14433" lon="4.51629">
        <ele>1229.0209960938</ele>
        <time>2010-07-24T16:05:16Z</time>
      </trkpt>
      <trkpt lat="45.144" lon="4.51642">
        <ele>1229.3220214844</ele>
        <time>2010-07-24T16:05:23Z</time>
      </trkpt>
      <trkpt lat="45.14373" lon="4.51661">
        <ele>1229.3540039062</ele>
        <time>2010-07-24T16:05:29Z</time>
      </trkpt>
      <trkpt lat="45.14344" lon="4.51689">
        <ele>1229.3780517578</ele>
        <time>2010-07-24T16:05:35Z</time>
      </trkpt>
      <trkpt lat="45.14314" lon="4.51724">
        <ele>1229.3909912109</ele>
        <time>2010-07-24T16:05:41Z</time>
      </trkpt>
      <trkpt lat="45.14308" lon="4.5173">
        <ele>1229.3909912109</ele>
        <time>2010-07-24T16:05:42Z</time>
      </trkpt>
      <trkpt lat="45.14275" lon="4.51771">
        <ele>1229.7530517578</ele>
        <time>2010-07-24T16:05:48Z</time>
      </trkpt>
      <trkpt lat="45.14249" lon="4.51812">
        <ele>1228.7889404297</ele>
        <time>2010-07-24T16:05:53Z</time>
      </trkpt>
      <trkpt lat="45.14213" lon="4.51862">
        <ele>1228.9410400391</ele>
        <time>2010-07-24T16:05:59Z</time>
      </trkpt>
      <trkpt lat="45.14177" lon="4.51911">
        <ele>1228.2120361328</ele>
        <time>2010-07-24T16:06:05Z</time>
      </trkpt>
      <trkpt lat="45.14147" lon="4.51944">
        <ele>1228.5159912109</ele>
        <time>2010-07-24T16:06:10Z</time>
      </trkpt>
      <trkpt lat="45.14141" lon="4.51951">
        <ele>1228.45703125</ele>
        <time>2010-07-24T16:06:11Z</time>
      </trkpt>
      <trkpt lat="45.14086" lon="4.52003">
        <ele>1229.1729736328</ele>
        <time>2010-07-24T16:06:20Z</time>
      </trkpt>
      <trkpt lat="45.14059" lon="4.52028">
        <ele>1229.2030029297</ele>
        <time>2010-07-24T16:06:25Z</time>
      </trkpt>
      <trkpt lat="45.14035" lon="4.52053">
        <ele>1229.2390136719</ele>
        <time>2010-07-24T16:06:30Z</time>
      </trkpt>
      <trkpt lat="45.14018" lon="4.52075">
        <ele>1229.2559814453</ele>
        <time>2010-07-24T16:06:35Z</time>
      </trkpt>
      <trkpt lat="45.14001" lon="4.52103">
        <ele>1232.8349609375</ele>
        <time>2010-07-24T16:06:40Z</time>
      </trkpt>
      <trkpt lat="45.13994" lon="4.52116">
        <ele>1233.0369873047</ele>
        <time>2010-07-24T16:06:42Z</time>
      </trkpt>
      <trkpt lat="45.13977" lon="4.52166">
        <ele>1233.2330322266</ele>
        <time>2010-07-24T16:06:48Z</time>
      </trkpt>
      <trkpt lat="45.13963" lon="4.52226">
        <ele>1230.9260253906</ele>
        <time>2010-07-24T16:06:53Z</time>
      </trkpt>
      <trkpt lat="45.13953" lon="4.52269">
        <ele>1228.4770507812</ele>
        <time>2010-07-24T16:06:56Z</time>
      </trkpt>
      <trkpt lat="45.13947" lon="4.523">
        <ele>1227.7049560547</ele>
        <time>2010-07-24T16:06:58Z</time>
      </trkpt>
      <trkpt lat="45.13934" lon="4.52382">
        <ele>1221.7159423828</ele>
        <time>2010-07-24T16:07:03Z</time>
      </trkpt>
      <trkpt lat="45.13929" lon="4.52398">
        <ele>1221.7159423828</ele>
        <time>2010-07-24T16:07:04Z</time>
      </trkpt>
      <trkpt lat="45.1391" lon="4.52448">
        <ele>1218.4510498047</ele>
        <time>2010-07-24T16:07:07Z</time>
      </trkpt>
      <trkpt lat="45.13884" lon="4.52497">
        <ele>1208.3289794922</ele>
        <time>2010-07-24T16:07:10Z</time>
      </trkpt>
      <trkpt lat="45.13865" lon="4.52529">
        <ele>1207.2750244141</ele>
        <time>2010-07-24T16:07:12Z</time>
      </trkpt>
      <trkpt lat="45.13836" lon="4.52577">
        <ele>1205.0780029297</ele>
        <time>2010-07-24T16:07:15Z</time>
      </trkpt>
      <trkpt lat="45.13815" lon="4.52606">
        <ele>1203.8520507812</ele>
        <time>2010-07-24T16:07:17Z</time>
      </trkpt>
      <trkpt lat="45.13793" lon="4.52633">
        <ele>1200.5219726562</ele>
        <time>2010-07-24T16:07:19Z</time>
      </trkpt>
      <trkpt lat="45.13749" lon="4.52647">
        <ele>1196.3210449219</ele>
        <time>2010-07-24T16:07:22Z</time>
      </trkpt>
      <trkpt lat="45.13723" lon="4.52637">
        <ele>1195.4549560547</ele>
        <time>2010-07-24T16:07:24Z</time>
      </trkpt>
      <trkpt lat="45.13662" lon="4.52615">
        <ele>1195.5729980469</ele>
        <time>2010-07-24T16:07:29Z</time>
      </trkpt>
      <trkpt lat="45.13606" lon="4.52612">
        <ele>1193.6710205078</ele>
        <time>2010-07-24T16:07:34Z</time>
      </trkpt>
      <trkpt lat="45.13547" lon="4.52623">
        <ele>1188.9289550781</ele>
        <time>2010-07-24T16:07:39Z</time>
      </trkpt>
      <trkpt lat="45.1349" lon="4.52642">
        <ele>1187.4749755859</ele>
        <time>2010-07-24T16:07:44Z</time>
      </trkpt>
      <trkpt lat="45.13441" lon="4.52668">
        <ele>1189.3170166016</ele>
        <time>2010-07-24T16:07:49Z</time>
      </trkpt>
      <trkpt lat="45.134" lon="4.52678">
        <ele>1189.6729736328</ele>
        <time>2010-07-24T16:07:53Z</time>
      </trkpt>
      <trkpt lat="45.13357" lon="4.52676">
        <ele>1189.6579589844</ele>
        <time>2010-07-24T16:07:57Z</time>
      </trkpt>
      <trkpt lat="45.13293" lon="4.52662">
        <ele>1189.3489990234</ele>
        <time>2010-07-24T16:08:03Z</time>
      </trkpt>
      <trkpt lat="45.13234" lon="4.52638">
        <ele>1189.2850341797</ele>
        <time>2010-07-24T16:08:09Z</time>
      </trkpt>
      <trkpt lat="45.13223" lon="4.52636">
        <ele>1188.9110107422</ele>
        <time>2010-07-24T16:08:10Z</time>
      </trkpt>
      <trkpt lat="45.13179" lon="4.52652">
        <ele>1186.2220458984</ele>
        <time>2010-07-24T16:08:14Z</time>
      </trkpt>
      <trkpt lat="45.13156" lon="4.52691">
        <ele>1183.4029541016</ele>
        <time>2010-07-24T16:08:17Z</time>
      </trkpt>
      <trkpt lat="45.1315" lon="4.52707">
        <ele>1182.1309814453</ele>
        <time>2010-07-24T16:08:18Z</time>
      </trkpt>
      <trkpt lat="45.13135" lon="4.52758">
        <ele>1178.7320556641</ele>
        <time>2010-07-24T16:08:21Z</time>
      </trkpt>
      <trkpt lat="45.13111" lon="4.52805">
        <ele>1176.3439941406</ele>
        <time>2010-07-24T16:08:24Z</time>
      </trkpt>
      <trkpt lat="45.13086" lon="4.52811">
        <ele>1175.2030029297</ele>
        <time>2010-07-24T16:08:26Z</time>
      </trkpt>
      <trkpt lat="45.13064" lon="4.52803">
        <ele>1174.8399658203</ele>
        <time>2010-07-24T16:08:28Z</time>
      </trkpt>
      <trkpt lat="45.12987" lon="4.52773">
        <ele>1175.0959472656</ele>
        <time>2010-07-24T16:08:35Z</time>
      </trkpt>
      <trkpt lat="45.12923" lon="4.52767">
        <ele>1172.9090576172</ele>
        <time>2010-07-24T16:08:41Z</time>
      </trkpt>
      <trkpt lat="45.12902" lon="4.52764">
        <ele>1172.498046875</ele>
        <time>2010-07-24T16:08:43Z</time>
      </trkpt>
      <trkpt lat="45.12862" lon="4.52738">
        <ele>1170.8990478516</ele>
        <time>2010-07-24T16:08:47Z</time>
      </trkpt>
      <trkpt lat="45.12843" lon="4.52697">
        <ele>1168.9549560547</ele>
        <time>2010-07-24T16:08:50Z</time>
      </trkpt>
      <trkpt lat="45.1284" lon="4.52648">
        <ele>1166.1109619141</ele>
        <time>2010-07-24T16:08:53Z</time>
      </trkpt>
      <trkpt lat="45.12841" lon="4.52632">
        <ele>1165.7530517578</ele>
        <time>2010-07-24T16:08:54Z</time>
      </trkpt>
      <trkpt lat="45.12852" lon="4.52554">
        <ele>1163.9000244141</ele>
        <time>2010-07-24T16:08:59Z</time>
      </trkpt>
      <trkpt lat="45.12854" lon="4.52539">
        <ele>1163.4649658203</ele>
        <time>2010-07-24T16:09:00Z</time>
      </trkpt>
      <trkpt lat="45.1284" lon="4.52481">
        <ele>1161.6779785156</ele>
        <time>2010-07-24T16:09:04Z</time>
      </trkpt>
      <trkpt lat="45.12812" lon="4.52448">
        <ele>1159.6159667969</ele>
        <time>2010-07-24T16:09:07Z</time>
      </trkpt>
      <trkpt lat="45.12801" lon="4.5244">
        <ele>1159.2879638672</ele>
        <time>2010-07-24T16:09:08Z</time>
      </trkpt>
      <trkpt lat="45.12754" lon="4.52422">
        <ele>1156.9279785156</ele>
        <time>2010-07-24T16:09:12Z</time>
      </trkpt>
      <trkpt lat="45.12729" lon="4.5243">
        <ele>1155.7769775391</ele>
        <time>2010-07-24T16:09:14Z</time>
      </trkpt>
      <trkpt lat="45.12717" lon="4.52438">
        <ele>1155.04296875</ele>
        <time>2010-07-24T16:09:15Z</time>
      </trkpt>
      <trkpt lat="45.12643" lon="4.52484">
        <ele>1149.6350097656</ele>
        <time>2010-07-24T16:09:21Z</time>
      </trkpt>
      <trkpt lat="45.12566" lon="4.52516">
        <ele>1145.9260253906</ele>
        <time>2010-07-24T16:09:27Z</time>
      </trkpt>
      <trkpt lat="45.12541" lon="4.52528">
        <ele>1144.8189697266</ele>
        <time>2010-07-24T16:09:29Z</time>
      </trkpt>
      <trkpt lat="45.1249" lon="4.52588">
        <ele>1139.5880126953</ele>
        <time>2010-07-24T16:09:34Z</time>
      </trkpt>
      <trkpt lat="45.1247" lon="4.52614">
        <ele>1138.8540039062</ele>
        <time>2010-07-24T16:09:36Z</time>
      </trkpt>
      <trkpt lat="45.12426" lon="4.5266">
        <ele>1134.6750488281</ele>
        <time>2010-07-24T16:09:40Z</time>
      </trkpt>
      <trkpt lat="45.12377" lon="4.52693">
        <ele>1131.626953125</ele>
        <time>2010-07-24T16:09:44Z</time>
      </trkpt>
      <trkpt lat="45.12351" lon="4.52707">
        <ele>1130.5739746094</ele>
        <time>2010-07-24T16:09:46Z</time>
      </trkpt>
      <trkpt lat="45.12338" lon="4.52714">
        <ele>1130.25</ele>
        <time>2010-07-24T16:09:47Z</time>
      </trkpt>
      <trkpt lat="45.12251" lon="4.52732">
        <ele>1125.9830322266</ele>
        <time>2010-07-24T16:09:53Z</time>
      </trkpt>
      <trkpt lat="45.12235" lon="4.52734">
        <ele>1124.6770019531</ele>
        <time>2010-07-24T16:09:54Z</time>
      </trkpt>
      <trkpt lat="45.12196" lon="4.5276">
        <ele>1121.9320068359</ele>
        <time>2010-07-24T16:09:57Z</time>
      </trkpt>
      <trkpt lat="45.1218" lon="4.52798">
        <ele>1118.8549804688</ele>
        <time>2010-07-24T16:09:59Z</time>
      </trkpt>
      <trkpt lat="45.12148" lon="4.5289">
        <ele>1113.1569824219</ele>
        <time>2010-07-24T16:10:04Z</time>
      </trkpt>
      <trkpt lat="45.12142" lon="4.52908">
        <ele>1112.3089599609</ele>
        <time>2010-07-24T16:10:05Z</time>
      </trkpt>
      <trkpt lat="45.12124" lon="4.5301">
        <ele>1107.2889404297</ele>
        <time>2010-07-24T16:10:10Z</time>
      </trkpt>
      <trkpt lat="45.12121" lon="4.5303">
        <ele>1105.8070068359</ele>
        <time>2010-07-24T16:10:11Z</time>
      </trkpt>
      <trkpt lat="45.12093" lon="4.53125">
        <ele>1099.9940185547</ele>
        <time>2010-07-24T16:10:16Z</time>
      </trkpt>
      <trkpt lat="45.12074" lon="4.53155">
        <ele>1098.8659667969</ele>
        <time>2010-07-24T16:10:18Z</time>
      </trkpt>
      <trkpt lat="45.12035" lon="4.53184">
        <ele>1095.9949951172</ele>
        <time>2010-07-24T16:10:21Z</time>
      </trkpt>
      <trkpt lat="45.12009" lon="4.53223">
        <ele>1094.1209716797</ele>
        <time>2010-07-24T16:10:24Z</time>
      </trkpt>
      <trkpt lat="45.12017" lon="4.53266">
        <ele>1092.4479980469</ele>
        <time>2010-07-24T16:10:27Z</time>
      </trkpt>
      <trkpt lat="45.12035" lon="4.53287">
        <ele>1091.9050292969</ele>
        <time>2010-07-24T16:10:29Z</time>
      </trkpt>
      <trkpt lat="45.12054" lon="4.53305">
        <ele>1090.0200195312</ele>
        <time>2010-07-24T16:10:31Z</time>
      </trkpt>
      <trkpt lat="45.12079" lon="4.53357">
        <ele>1086.9119873047</ele>
        <time>2010-07-24T16:10:35Z</time>
      </trkpt>
      <trkpt lat="45.12078" lon="4.53388">
        <ele>1085.9780273438</ele>
        <time>2010-07-24T16:10:37Z</time>
      </trkpt>
      <trkpt lat="45.12061" lon="4.53431">
        <ele>1085.3659667969</ele>
        <time>2010-07-24T16:10:40Z</time>
      </trkpt>
      <trkpt lat="45.1204" lon="4.53466">
        <ele>1085.3129882812</ele>
        <time>2010-07-24T16:10:43Z</time>
      </trkpt>
      <trkpt lat="45.11988" lon="4.53491">
        <ele>1083.8659667969</ele>
        <time>2010-07-24T16:10:48Z</time>
      </trkpt>
      <trkpt lat="45.1195" lon="4.53514">
        <ele>1082.1450195312</ele>
        <time>2010-07-24T16:10:52Z</time>
      </trkpt>
      <trkpt lat="45.11924" lon="4.53559">
        <ele>1083.3310546875</ele>
        <time>2010-07-24T16:10:56Z</time>
      </trkpt>
      <trkpt lat="45.11916" lon="4.53577">
        <ele>1084.8559570312</ele>
        <time>2010-07-24T16:10:58Z</time>
      </trkpt>
      <trkpt lat="45.11911" lon="4.53586">
        <ele>1086.2399902344</ele>
        <time>2010-07-24T16:11:00Z</time>
      </trkpt>
      <trkpt lat="45.11915" lon="4.53597">
        <ele>1086.1469726562</ele>
        <time>2010-07-24T16:11:05Z</time>
      </trkpt>
      <trkpt lat="45.11922" lon="4.53612">
        <ele>1084.8050537109</ele>
        <time>2010-07-24T16:11:08Z</time>
      </trkpt>
      <trkpt lat="45.11938" lon="4.53624">
        <ele>1084.8060302734</ele>
        <time>2010-07-24T16:11:12Z</time>
      </trkpt>
      <trkpt lat="45.11973" lon="4.53652">
        <ele>1082.8000488281</ele>
        <time>2010-07-24T16:11:18Z</time>
      </trkpt>
      <trkpt lat="45.11985" lon="4.53663">
        <ele>1081.2330322266</ele>
        <time>2010-07-24T16:11:20Z</time>
      </trkpt>
      <trkpt lat="45.12021" lon="4.537">
        <ele>1077.8790283203</ele>
        <time>2010-07-24T16:11:25Z</time>
      </trkpt>
      <trkpt lat="45.12035" lon="4.5372">
        <ele>1076.2950439453</ele>
        <time>2010-07-24T16:11:27Z</time>
      </trkpt>
      <trkpt lat="45.12078" lon="4.53786">
        <ele>1072.9649658203</ele>
        <time>2010-07-24T16:11:33Z</time>
      </trkpt>
      <trkpt lat="45.12086" lon="4.53797">
        <ele>1072.9649658203</ele>
        <time>2010-07-24T16:11:34Z</time>
      </trkpt>
      <trkpt lat="45.12103" lon="4.5382">
        <ele>1071.6810302734</ele>
        <time>2010-07-24T16:11:36Z</time>
      </trkpt>
      <trkpt lat="45.12132" lon="4.53843">
        <ele>1066.5100097656</ele>
        <time>2010-07-24T16:11:39Z</time>
      </trkpt>
      <trkpt lat="45.12141" lon="4.53845">
        <ele>1065.7679443359</ele>
        <time>2010-07-24T16:11:40Z</time>
      </trkpt>
      <trkpt lat="45.12192" lon="4.53869">
        <ele>1062.0639648438</ele>
        <time>2010-07-24T16:11:44Z</time>
      </trkpt>
      <trkpt lat="45.1221" lon="4.53916">
        <ele>1058.6240234375</ele>
        <time>2010-07-24T16:11:47Z</time>
      </trkpt>
      <trkpt lat="45.12236" lon="4.53957">
        <ele>1056.9899902344</ele>
        <time>2010-07-24T16:11:50Z</time>
      </trkpt>
      <trkpt lat="45.12261" lon="4.53964">
        <ele>1055.6750488281</ele>
        <time>2010-07-24T16:11:52Z</time>
      </trkpt>
      <trkpt lat="45.12275" lon="4.53958">
        <ele>1055.6750488281</ele>
        <time>2010-07-24T16:11:53Z</time>
      </trkpt>
      <trkpt lat="45.12287" lon="4.53949">
        <ele>1052.1920166016</ele>
        <time>2010-07-24T16:11:54Z</time>
      </trkpt>
      <trkpt lat="45.12309" lon="4.53931">
        <ele>1049.1899414062</ele>
        <time>2010-07-24T16:11:56Z</time>
      </trkpt>
      <trkpt lat="45.12333" lon="4.53915">
        <ele>1047.5980224609</ele>
        <time>2010-07-24T16:11:58Z</time>
      </trkpt>
      <trkpt lat="45.12345" lon="4.53908">
        <ele>1047.5980224609</ele>
        <time>2010-07-24T16:11:59Z</time>
      </trkpt>
      <trkpt lat="45.12382" lon="4.53911">
        <ele>1046.2969970703</ele>
        <time>2010-07-24T16:12:02Z</time>
      </trkpt>
      <trkpt lat="45.12402" lon="4.53938">
        <ele>1045.1979980469</ele>
        <time>2010-07-24T16:12:04Z</time>
      </trkpt>
      <trkpt lat="45.1241" lon="4.53955">
        <ele>1045.1979980469</ele>
        <time>2010-07-24T16:12:05Z</time>
      </trkpt>
      <trkpt lat="45.1245" lon="4.54005">
        <ele>1042.0290527344</ele>
        <time>2010-07-24T16:12:09Z</time>
      </trkpt>
      <trkpt lat="45.12463" lon="4.54011">
        <ele>1042.0290527344</ele>
        <time>2010-07-24T16:12:10Z</time>
      </trkpt>
      <trkpt lat="45.12488" lon="4.54057">
        <ele>1037.3790283203</ele>
        <time>2010-07-24T16:12:13Z</time>
      </trkpt>
      <trkpt lat="45.12493" lon="4.54095">
        <ele>1035.6020507812</ele>
        <time>2010-07-24T16:12:15Z</time>
      </trkpt>
      <trkpt lat="45.12513" lon="4.54147">
        <ele>1033.2989501953</ele>
        <time>2010-07-24T16:12:18Z</time>
      </trkpt>
      <trkpt lat="45.12516" lon="4.54189">
        <ele>1029.8489990234</ele>
        <time>2010-07-24T16:12:20Z</time>
      </trkpt>
      <trkpt lat="45.1251" lon="4.54226">
        <ele>1028.8790283203</ele>
        <time>2010-07-24T16:12:22Z</time>
      </trkpt>
      <trkpt lat="45.12503" lon="4.54244">
        <ele>1027.4870605469</ele>
        <time>2010-07-24T16:12:23Z</time>
      </trkpt>
      <trkpt lat="45.12492" lon="4.54304">
        <ele>1024.3690185547</ele>
        <time>2010-07-24T16:12:26Z</time>
      </trkpt>
      <trkpt lat="45.1249" lon="4.54384">
        <ele>1020.2960205078</ele>
        <time>2010-07-24T16:12:30Z</time>
      </trkpt>
      <trkpt lat="45.12496" lon="4.54423">
        <ele>1018.0969848633</ele>
        <time>2010-07-24T16:12:32Z</time>
      </trkpt>
      <trkpt lat="45.12502" lon="4.54441">
        <ele>1017.257019043</ele>
        <time>2010-07-24T16:12:33Z</time>
      </trkpt>
      <trkpt lat="45.12536" lon="4.54476">
        <ele>1014.3670043945</ele>
        <time>2010-07-24T16:12:36Z</time>
      </trkpt>
      <trkpt lat="45.1255" lon="4.54482">
        <ele>1013.5289916992</ele>
        <time>2010-07-24T16:12:37Z</time>
      </trkpt>
      <trkpt lat="45.1259" lon="4.54494">
        <ele>1011.958984375</ele>
        <time>2010-07-24T16:12:40Z</time>
      </trkpt>
      <trkpt lat="45.12603" lon="4.54499">
        <ele>1011.958984375</ele>
        <time>2010-07-24T16:12:41Z</time>
      </trkpt>
      <trkpt lat="45.12637" lon="4.54533">
        <ele>1006.7600097656</ele>
        <time>2010-07-24T16:12:44Z</time>
      </trkpt>
      <trkpt lat="45.12641" lon="4.54553">
        <ele>1005.9559936523</ele>
        <time>2010-07-24T16:12:45Z</time>
      </trkpt>
      <trkpt lat="45.12636" lon="4.54607">
        <ele>1002.7100219727</ele>
        <time>2010-07-24T16:12:48Z</time>
      </trkpt>
      <trkpt lat="45.12627" lon="4.54644">
        <ele>1001.1989746094</ele>
        <time>2010-07-24T16:12:50Z</time>
      </trkpt>
      <trkpt lat="45.12608" lon="4.54737">
        <ele>996.12298583984</ele>
        <time>2010-07-24T16:12:55Z</time>
      </trkpt>
      <trkpt lat="45.12599" lon="4.54811">
        <ele>990.40600585938</ele>
        <time>2010-07-24T16:12:59Z</time>
      </trkpt>
      <trkpt lat="45.12598" lon="4.54845">
        <ele>989.50201416016</ele>
        <time>2010-07-24T16:13:01Z</time>
      </trkpt>
      <trkpt lat="45.126" lon="4.54862">
        <ele>989.50201416016</ele>
        <time>2010-07-24T16:13:02Z</time>
      </trkpt>
      <trkpt lat="45.12629" lon="4.54921">
        <ele>989.50201416016</ele>
        <time>2010-07-24T16:13:06Z</time>
      </trkpt>
      <trkpt lat="45.1267" lon="4.54973">
        <ele>987.81500244141</ele>
        <time>2010-07-24T16:13:10Z</time>
      </trkpt>
      <trkpt lat="45.12691" lon="4.55003">
        <ele>985.26800537109</ele>
        <time>2010-07-24T16:13:12Z</time>
      </trkpt>
      <trkpt lat="45.12697" lon="4.55064">
        <ele>981.19097900391</ele>
        <time>2010-07-24T16:13:15Z</time>
      </trkpt>
      <trkpt lat="45.12696" lon="4.55084">
        <ele>979.82202148438</ele>
        <time>2010-07-24T16:13:16Z</time>
      </trkpt>
      <trkpt lat="45.12696" lon="4.55142">
        <ele>975.83697509766</ele>
        <time>2010-07-24T16:13:19Z</time>
      </trkpt>
      <trkpt lat="45.12715" lon="4.55212">
        <ele>973.84698486328</ele>
        <time>2010-07-24T16:13:23Z</time>
      </trkpt>
      <trkpt lat="45.12753" lon="4.5527">
        <ele>969.57598876953</ele>
        <time>2010-07-24T16:13:27Z</time>
      </trkpt>
      <trkpt lat="45.12793" lon="4.55332">
        <ele>967.82702636719</ele>
        <time>2010-07-24T16:13:31Z</time>
      </trkpt>
      <trkpt lat="45.12833" lon="4.55394">
        <ele>962.88500976562</ele>
        <time>2010-07-24T16:13:35Z</time>
      </trkpt>
      <trkpt lat="45.12888" lon="4.55457">
        <ele>957.28900146484</ele>
        <time>2010-07-24T16:13:40Z</time>
      </trkpt>
      <trkpt lat="45.12939" lon="4.55481">
        <ele>951.24700927734</ele>
        <time>2010-07-24T16:13:44Z</time>
      </trkpt>
      <trkpt lat="45.12952" lon="4.55483">
        <ele>951.24700927734</ele>
        <time>2010-07-24T16:13:45Z</time>
      </trkpt>
      <trkpt lat="45.12991" lon="4.55484">
        <ele>948.46502685547</ele>
        <time>2010-07-24T16:13:48Z</time>
      </trkpt>
      <trkpt lat="45.13031" lon="4.55478">
        <ele>944.86999511719</ele>
        <time>2010-07-24T16:13:51Z</time>
      </trkpt>
      <trkpt lat="45.13091" lon="4.55437">
        <ele>939.93798828125</ele>
        <time>2010-07-24T16:13:56Z</time>
      </trkpt>
      <trkpt lat="45.131" lon="4.55424">
        <ele>939.25897216797</ele>
        <time>2010-07-24T16:13:57Z</time>
      </trkpt>
      <trkpt lat="45.13145" lon="4.55356">
        <ele>936.7919921875</ele>
        <time>2010-07-24T16:14:02Z</time>
      </trkpt>
      <trkpt lat="45.13174" lon="4.55343">
        <ele>934.94702148438</ele>
        <time>2010-07-24T16:14:05Z</time>
      </trkpt>
      <trkpt lat="45.132" lon="4.55365">
        <ele>933.58697509766</ele>
        <time>2010-07-24T16:14:07Z</time>
      </trkpt>
      <trkpt lat="45.13256" lon="4.55444">
        <ele>927.46899414062</ele>
        <time>2010-07-24T16:14:13Z</time>
      </trkpt>
      <trkpt lat="45.13305" lon="4.55479">
        <ele>923.56500244141</ele>
        <time>2010-07-24T16:14:17Z</time>
      </trkpt>
      <trkpt lat="45.13346" lon="4.55491">
        <ele>920.97900390625</ele>
        <time>2010-07-24T16:14:20Z</time>
      </trkpt>
      <trkpt lat="45.1339" lon="4.55494">
        <ele>919.61297607422</ele>
        <time>2010-07-24T16:14:23Z</time>
      </trkpt>
      <trkpt lat="45.13429" lon="4.55517">
        <ele>918.90399169922</ele>
        <time>2010-07-24T16:14:26Z</time>
      </trkpt>
      <trkpt lat="45.13451" lon="4.55569">
        <ele>917.68499755859</ele>
        <time>2010-07-24T16:14:29Z</time>
      </trkpt>
      <trkpt lat="45.13449" lon="4.55607">
        <ele>917.68499755859</ele>
        <time>2010-07-24T16:14:31Z</time>
      </trkpt>
      <trkpt lat="45.13436" lon="4.55637">
        <ele>914.20501708984</ele>
        <time>2010-07-24T16:14:33Z</time>
      </trkpt>
      <trkpt lat="45.13426" lon="4.5565">
        <ele>914.20501708984</ele>
        <time>2010-07-24T16:14:34Z</time>
      </trkpt>
      <trkpt lat="45.13361" lon="4.55751">
        <ele>905.96398925781</ele>
        <time>2010-07-24T16:14:41Z</time>
      </trkpt>
      <trkpt lat="45.13324" lon="4.55833">
        <ele>900.35699462891</ele>
        <time>2010-07-24T16:14:46Z</time>
      </trkpt>
      <trkpt lat="45.13285" lon="4.55913">
        <ele>895.15100097656</ele>
        <time>2010-07-24T16:14:51Z</time>
      </trkpt>
      <trkpt lat="45.13247" lon="4.55972">
        <ele>892.72198486328</ele>
        <time>2010-07-24T16:14:55Z</time>
      </trkpt>
      <trkpt lat="45.13202" lon="4.5605">
        <ele>890.24798583984</ele>
        <time>2010-07-24T16:15:00Z</time>
      </trkpt>
      <trkpt lat="45.13194" lon="4.56066">
        <ele>890.24798583984</ele>
        <time>2010-07-24T16:15:01Z</time>
      </trkpt>
      <trkpt lat="45.13161" lon="4.56132">
        <ele>880.83898925781</ele>
        <time>2010-07-24T16:15:05Z</time>
      </trkpt>
      <trkpt lat="45.13152" lon="4.56146">
        <ele>880.83502197266</ele>
        <time>2010-07-24T16:15:06Z</time>
      </trkpt>
      <trkpt lat="45.13142" lon="4.5616">
        <ele>879.61199951172</ele>
        <time>2010-07-24T16:15:07Z</time>
      </trkpt>
      <trkpt lat="45.13118" lon="4.5623">
        <ele>879.61199951172</ele>
        <time>2010-07-24T16:15:11Z</time>
      </trkpt>
      <trkpt lat="45.13131" lon="4.56264">
        <ele>878.02099609375</ele>
        <time>2010-07-24T16:15:13Z</time>
      </trkpt>
      <trkpt lat="45.13151" lon="4.56295">
        <ele>876.33099365234</ele>
        <time>2010-07-24T16:15:15Z</time>
      </trkpt>
      <trkpt lat="45.13167" lon="4.56329">
        <ele>872.76202392578</ele>
        <time>2010-07-24T16:15:17Z</time>
      </trkpt>
      <trkpt lat="45.13199" lon="4.56397">
        <ele>869.17700195312</ele>
        <time>2010-07-24T16:15:21Z</time>
      </trkpt>
      <trkpt lat="45.13207" lon="4.56414">
        <ele>868.14898681641</ele>
        <time>2010-07-24T16:15:22Z</time>
      </trkpt>
      <trkpt lat="45.13215" lon="4.5643">
        <ele>866.95599365234</ele>
        <time>2010-07-24T16:15:23Z</time>
      </trkpt>
      <trkpt lat="45.13231" lon="4.56487">
        <ele>862.47998046875</ele>
        <time>2010-07-24T16:15:26Z</time>
      </trkpt>
      <trkpt lat="45.13233" lon="4.56526">
        <ele>861.14599609375</ele>
        <time>2010-07-24T16:15:28Z</time>
      </trkpt>
      <trkpt lat="45.13227" lon="4.56585">
        <ele>860.27001953125</ele>
        <time>2010-07-24T16:15:31Z</time>
      </trkpt>
      <trkpt lat="45.13221" lon="4.56604">
        <ele>859.32598876953</ele>
        <time>2010-07-24T16:15:32Z</time>
      </trkpt>
      <trkpt lat="45.13215" lon="4.56622">
        <ele>859.32598876953</ele>
        <time>2010-07-24T16:15:33Z</time>
      </trkpt>
      <trkpt lat="45.13202" lon="4.56658">
        <ele>857.61297607422</ele>
        <time>2010-07-24T16:15:35Z</time>
      </trkpt>
      <trkpt lat="45.13196" lon="4.56676">
        <ele>857.61297607422</ele>
        <time>2010-07-24T16:15:36Z</time>
      </trkpt>
      <trkpt lat="45.1318" lon="4.56732">
        <ele>850.84997558594</ele>
        <time>2010-07-24T16:15:39Z</time>
      </trkpt>
      <trkpt lat="45.13177" lon="4.56752">
        <ele>850.84997558594</ele>
        <time>2010-07-24T16:15:40Z</time>
      </trkpt>
      <trkpt lat="45.13175" lon="4.56792">
        <ele>846.41497802734</ele>
        <time>2010-07-24T16:15:42Z</time>
      </trkpt>
      <trkpt lat="45.13175" lon="4.56811">
        <ele>845.62902832031</ele>
        <time>2010-07-24T16:15:43Z</time>
      </trkpt>
      <trkpt lat="45.13176" lon="4.5683">
        <ele>845.62902832031</ele>
        <time>2010-07-24T16:15:44Z</time>
      </trkpt>
      <trkpt lat="45.1318" lon="4.56849">
        <ele>844.73400878906</ele>
        <time>2010-07-24T16:15:45Z</time>
      </trkpt>
      <trkpt lat="45.13202" lon="4.56941">
        <ele>841.45697021484</ele>
        <time>2010-07-24T16:15:50Z</time>
      </trkpt>
      <trkpt lat="45.13214" lon="4.56977">
        <ele>839.208984375</ele>
        <time>2010-07-24T16:15:52Z</time>
      </trkpt>
      <trkpt lat="45.13228" lon="4.57014">
        <ele>837.20501708984</ele>
        <time>2010-07-24T16:15:54Z</time>
      </trkpt>
      <trkpt lat="45.13235" lon="4.57034">
        <ele>836.07702636719</ele>
        <time>2010-07-24T16:15:55Z</time>
      </trkpt>
      <trkpt lat="45.13266" lon="4.5708">
        <ele>833.79602050781</ele>
        <time>2010-07-24T16:15:58Z</time>
      </trkpt>
      <trkpt lat="45.13282" lon="4.57085">
        <ele>832.0009765625</ele>
        <time>2010-07-24T16:15:59Z</time>
      </trkpt>
      <trkpt lat="45.13296" lon="4.57084">
        <ele>829.48999023438</ele>
        <time>2010-07-24T16:16:00Z</time>
      </trkpt>
      <trkpt lat="45.13344" lon="4.57043">
        <ele>825.06896972656</ele>
        <time>2010-07-24T16:16:04Z</time>
      </trkpt>
      <trkpt lat="45.13354" lon="4.57029">
        <ele>823.88702392578</ele>
        <time>2010-07-24T16:16:05Z</time>
      </trkpt>
      <trkpt lat="45.13368" lon="4.57">
        <ele>822.68701171875</ele>
        <time>2010-07-24T16:16:07Z</time>
      </trkpt>
      <trkpt lat="45.134" lon="4.56941">
        <ele>820.46899414062</ele>
        <time>2010-07-24T16:16:11Z</time>
      </trkpt>
      <trkpt lat="45.1345" lon="4.56854">
        <ele>814.56597900391</ele>
        <time>2010-07-24T16:16:17Z</time>
      </trkpt>
      <trkpt lat="45.13482" lon="4.56799">
        <ele>811.05902099609</ele>
        <time>2010-07-24T16:16:21Z</time>
      </trkpt>
      <trkpt lat="45.13493" lon="4.56786">
        <ele>810.14697265625</ele>
        <time>2010-07-24T16:16:22Z</time>
      </trkpt>
      <trkpt lat="45.13533" lon="4.56753">
        <ele>806.95098876953</ele>
        <time>2010-07-24T16:16:26Z</time>
      </trkpt>
      <trkpt lat="45.13569" lon="4.567">
        <ele>805.22601318359</ele>
        <time>2010-07-24T16:16:30Z</time>
      </trkpt>
      <trkpt lat="45.13592" lon="4.56637">
        <ele>804.01000976562</ele>
        <time>2010-07-24T16:16:34Z</time>
      </trkpt>
      <trkpt lat="45.13584" lon="4.56585">
        <ele>804.32897949219</ele>
        <time>2010-07-24T16:16:37Z</time>
      </trkpt>
      <trkpt lat="45.1358" lon="4.56552">
        <ele>804.92797851562</ele>
        <time>2010-07-24T16:16:39Z</time>
      </trkpt>
      <trkpt lat="45.13567" lon="4.56509">
        <ele>806.18597412109</ele>
        <time>2010-07-24T16:16:42Z</time>
      </trkpt>
      <trkpt lat="45.13573" lon="4.56459">
        <ele>806.57299804688</ele>
        <time>2010-07-24T16:16:46Z</time>
      </trkpt>
      <trkpt lat="45.13594" lon="4.56457">
        <ele>805.74798583984</ele>
        <time>2010-07-24T16:16:48Z</time>
      </trkpt>
      <trkpt lat="45.13605" lon="4.56459">
        <ele>805.22998046875</ele>
        <time>2010-07-24T16:16:49Z</time>
      </trkpt>
      <trkpt lat="45.13635" lon="4.5647">
        <ele>803.49401855469</ele>
        <time>2010-07-24T16:16:52Z</time>
      </trkpt>
      <trkpt lat="45.13699" lon="4.565">
        <ele>797.80200195312</ele>
        <time>2010-07-24T16:16:58Z</time>
      </trkpt>
      <trkpt lat="45.13731" lon="4.56527">
        <ele>795.09100341797</ele>
        <time>2010-07-24T16:17:01Z</time>
      </trkpt>
      <trkpt lat="45.13792" lon="4.56614">
        <ele>790.90502929688</ele>
        <time>2010-07-24T16:17:08Z</time>
      </trkpt>
      <trkpt lat="45.1382" lon="4.56666">
        <ele>789.69702148438</ele>
        <time>2010-07-24T16:17:12Z</time>
      </trkpt>
      <trkpt lat="45.13839" lon="4.56708">
        <ele>787.21600341797</ele>
        <time>2010-07-24T16:17:15Z</time>
      </trkpt>
      <trkpt lat="45.13853" lon="4.56774">
        <ele>783.63702392578</ele>
        <time>2010-07-24T16:17:19Z</time>
      </trkpt>
      <trkpt lat="45.13867" lon="4.56861">
        <ele>776.69702148438</ele>
        <time>2010-07-24T16:17:24Z</time>
      </trkpt>
      <trkpt lat="45.13868" lon="4.56878">
        <ele>775.42297363281</ele>
        <time>2010-07-24T16:17:25Z</time>
      </trkpt>
      <trkpt lat="45.1389" lon="4.56937">
        <ele>770.43597412109</ele>
        <time>2010-07-24T16:17:29Z</time>
      </trkpt>
      <trkpt lat="45.139" lon="4.56946">
        <ele>770.77398681641</ele>
        <time>2010-07-24T16:17:30Z</time>
      </trkpt>
      <trkpt lat="45.13932" lon="4.5696">
        <ele>767.85498046875</ele>
        <time>2010-07-24T16:17:33Z</time>
      </trkpt>
      <trkpt lat="45.13954" lon="4.5696">
        <ele>767.32501220703</ele>
        <time>2010-07-24T16:17:35Z</time>
      </trkpt>
      <trkpt lat="45.14011" lon="4.56962">
        <ele>764.20599365234</ele>
        <time>2010-07-24T16:17:40Z</time>
      </trkpt>
      <trkpt lat="45.14035" lon="4.56964">
        <ele>763.82800292969</ele>
        <time>2010-07-24T16:17:42Z</time>
      </trkpt>
      <trkpt lat="45.14068" lon="4.56985">
        <ele>762.85900878906</ele>
        <time>2010-07-24T16:17:45Z</time>
      </trkpt>
      <trkpt lat="45.14077" lon="4.56999">
        <ele>761.03497314453</ele>
        <time>2010-07-24T16:17:46Z</time>
      </trkpt>
      <trkpt lat="45.14117" lon="4.57039">
        <ele>756.25897216797</ele>
        <time>2010-07-24T16:17:50Z</time>
      </trkpt>
      <trkpt lat="45.14142" lon="4.57035">
        <ele>754.04302978516</ele>
        <time>2010-07-24T16:17:52Z</time>
      </trkpt>
      <trkpt lat="45.14177" lon="4.57006">
        <ele>749.40997314453</ele>
        <time>2010-07-24T16:17:55Z</time>
      </trkpt>
      <trkpt lat="45.14186" lon="4.56993">
        <ele>748.49298095703</ele>
        <time>2010-07-24T16:17:56Z</time>
      </trkpt>
      <trkpt lat="45.14232" lon="4.56913">
        <ele>742.7490234375</ele>
        <time>2010-07-24T16:18:02Z</time>
      </trkpt>
      <trkpt lat="45.1425" lon="4.56891">
        <ele>742.11199951172</ele>
        <time>2010-07-24T16:18:04Z</time>
      </trkpt>
      <trkpt lat="45.14294" lon="4.56855">
        <ele>743.33197021484</ele>
        <time>2010-07-24T16:18:08Z</time>
      </trkpt>
      <trkpt lat="45.14329" lon="4.56854">
        <ele>742.17199707031</ele>
        <time>2010-07-24T16:18:11Z</time>
      </trkpt>
      <trkpt lat="45.14341" lon="4.56884">
        <ele>743.18402099609</ele>
        <time>2010-07-24T16:18:13Z</time>
      </trkpt>
      <trkpt lat="45.14335" lon="4.56931">
        <ele>742.60400390625</ele>
        <time>2010-07-24T16:18:16Z</time>
      </trkpt>
      <trkpt lat="45.14318" lon="4.56955">
        <ele>741.53698730469</ele>
        <time>2010-07-24T16:18:18Z</time>
      </trkpt>
      <trkpt lat="45.14274" lon="4.57042">
        <ele>736.53698730469</ele>
        <time>2010-07-24T16:18:24Z</time>
      </trkpt>
      <trkpt lat="45.14248" lon="4.57125">
        <ele>731.43200683594</ele>
        <time>2010-07-24T16:18:29Z</time>
      </trkpt>
      <trkpt lat="45.14241" lon="4.5714">
        <ele>730.07000732422</ele>
        <time>2010-07-24T16:18:30Z</time>
      </trkpt>
      <trkpt lat="45.14196" lon="4.57186">
        <ele>726.24102783203</ele>
        <time>2010-07-24T16:18:34Z</time>
      </trkpt>
      <trkpt lat="45.1416" lon="4.57216">
        <ele>724.10400390625</ele>
        <time>2010-07-24T16:18:37Z</time>
      </trkpt>
      <trkpt lat="45.14093" lon="4.57248">
        <ele>718.04797363281</ele>
        <time>2010-07-24T16:18:42Z</time>
      </trkpt>
      <trkpt lat="45.14014" lon="4.57282">
        <ele>713.75500488281</ele>
        <time>2010-07-24T16:18:48Z</time>
      </trkpt>
      <trkpt lat="45.13955" lon="4.5733">
        <ele>709.27197265625</ele>
        <time>2010-07-24T16:18:53Z</time>
      </trkpt>
      <trkpt lat="45.13921" lon="4.57393">
        <ele>704.83697509766</ele>
        <time>2010-07-24T16:18:57Z</time>
      </trkpt>
      <trkpt lat="45.13914" lon="4.57409">
        <ele>703.99102783203</ele>
        <time>2010-07-24T16:18:58Z</time>
      </trkpt>
      <trkpt lat="45.1389" lon="4.57458">
        <ele>702.11999511719</ele>
        <time>2010-07-24T16:19:01Z</time>
      </trkpt>
      <trkpt lat="45.13885" lon="4.57516">
        <ele>699.84002685547</ele>
        <time>2010-07-24T16:19:04Z</time>
      </trkpt>
      <trkpt lat="45.1389" lon="4.57676">
        <ele>691.89099121094</ele>
        <time>2010-07-24T16:19:12Z</time>
      </trkpt>
      <trkpt lat="45.13892" lon="4.57795">
        <ele>686.23297119141</ele>
        <time>2010-07-24T16:19:18Z</time>
      </trkpt>
      <trkpt lat="45.13888" lon="4.57834">
        <ele>684.34698486328</ele>
        <time>2010-07-24T16:19:20Z</time>
      </trkpt>
      <trkpt lat="45.13882" lon="4.57887">
        <ele>681.57098388672</ele>
        <time>2010-07-24T16:19:23Z</time>
      </trkpt>
      <trkpt lat="45.13919" lon="4.57918">
        <ele>679.92700195312</ele>
        <time>2010-07-24T16:19:26Z</time>
      </trkpt>
      <trkpt lat="45.13932" lon="4.57924">
        <ele>679.56597900391</ele>
        <time>2010-07-24T16:19:27Z</time>
      </trkpt>
      <trkpt lat="45.13977" lon="4.57955">
        <ele>675.58898925781</ele>
        <time>2010-07-24T16:19:31Z</time>
      </trkpt>
      <trkpt lat="45.13979" lon="4.57969">
        <ele>675.37799072266</ele>
        <time>2010-07-24T16:19:32Z</time>
      </trkpt>
      <trkpt lat="45.13975" lon="4.58">
        <ele>674.56500244141</ele>
        <time>2010-07-24T16:19:34Z</time>
      </trkpt>
      <trkpt lat="45.13966" lon="4.58029">
        <ele>673.17297363281</ele>
        <time>2010-07-24T16:19:36Z</time>
      </trkpt>
      <trkpt lat="45.13964" lon="4.58046">
        <ele>672.89697265625</ele>
        <time>2010-07-24T16:19:37Z</time>
      </trkpt>
      <trkpt lat="45.13962" lon="4.58116">
        <ele>669.97100830078</ele>
        <time>2010-07-24T16:19:41Z</time>
      </trkpt>
      <trkpt lat="45.13959" lon="4.58207">
        <ele>664.92700195312</ele>
        <time>2010-07-24T16:19:46Z</time>
      </trkpt>
      <trkpt lat="45.13974" lon="4.58273">
        <ele>660.97802734375</ele>
        <time>2010-07-24T16:19:50Z</time>
      </trkpt>
      <trkpt lat="45.13998" lon="4.58292">
        <ele>658.86700439453</ele>
        <time>2010-07-24T16:19:52Z</time>
      </trkpt>
      <trkpt lat="45.1404" lon="4.58304">
        <ele>656.55999755859</ele>
        <time>2010-07-24T16:19:55Z</time>
      </trkpt>
      <trkpt lat="45.14082" lon="4.58295">
        <ele>653.92999267578</ele>
        <time>2010-07-24T16:19:58Z</time>
      </trkpt>
      <trkpt lat="45.14134" lon="4.58269">
        <ele>651.85797119141</ele>
        <time>2010-07-24T16:20:02Z</time>
      </trkpt>
      <trkpt lat="45.14166" lon="4.58279">
        <ele>651.80297851562</ele>
        <time>2010-07-24T16:20:05Z</time>
      </trkpt>
      <trkpt lat="45.14174" lon="4.58313">
        <ele>650.89300537109</ele>
        <time>2010-07-24T16:20:07Z</time>
      </trkpt>
      <trkpt lat="45.14167" lon="4.58343">
        <ele>650.19299316406</ele>
        <time>2010-07-24T16:20:09Z</time>
      </trkpt>
      <trkpt lat="45.14149" lon="4.58367">
        <ele>649.24200439453</ele>
        <time>2010-07-24T16:20:11Z</time>
      </trkpt>
      <trkpt lat="45.1414" lon="4.58379">
        <ele>648.84698486328</ele>
        <time>2010-07-24T16:20:12Z</time>
      </trkpt>
      <trkpt lat="45.14109" lon="4.58465">
        <ele>645.59002685547</ele>
        <time>2010-07-24T16:20:18Z</time>
      </trkpt>
      <trkpt lat="45.14116" lon="4.58516">
        <ele>643.17199707031</ele>
        <time>2010-07-24T16:20:21Z</time>
      </trkpt>
      <trkpt lat="45.14117" lon="4.58533">
        <ele>642.86102294922</ele>
        <time>2010-07-24T16:20:22Z</time>
      </trkpt>
      <trkpt lat="45.14119" lon="4.58568">
        <ele>641.66900634766</ele>
        <time>2010-07-24T16:20:24Z</time>
      </trkpt>
      <trkpt lat="45.14121" lon="4.58674">
        <ele>636.38702392578</ele>
        <time>2010-07-24T16:20:30Z</time>
      </trkpt>
      <trkpt lat="45.14126" lon="4.58766">
        <ele>631.65399169922</ele>
        <time>2010-07-24T16:20:35Z</time>
      </trkpt>
      <trkpt lat="45.14127" lon="4.58803">
        <ele>629.94299316406</ele>
        <time>2010-07-24T16:20:37Z</time>
      </trkpt>
      <trkpt lat="45.14153" lon="4.58867">
        <ele>626.49798583984</ele>
        <time>2010-07-24T16:20:41Z</time>
      </trkpt>
      <trkpt lat="45.14181" lon="4.58907">
        <ele>622.96899414062</ele>
        <time>2010-07-24T16:20:44Z</time>
      </trkpt>
      <trkpt lat="45.14195" lon="4.58942">
        <ele>621.76599121094</ele>
        <time>2010-07-24T16:20:46Z</time>
      </trkpt>
      <trkpt lat="45.14196" lon="4.58999">
        <ele>619.36102294922</ele>
        <time>2010-07-24T16:20:49Z</time>
      </trkpt>
      <trkpt lat="45.142" lon="4.59056">
        <ele>616.34899902344</ele>
        <time>2010-07-24T16:20:52Z</time>
      </trkpt>
      <trkpt lat="45.14203" lon="4.59074">
        <ele>615.34301757812</ele>
        <time>2010-07-24T16:20:53Z</time>
      </trkpt>
      <trkpt lat="45.14233" lon="4.59179">
        <ele>611.12799072266</ele>
        <time>2010-07-24T16:20:59Z</time>
      </trkpt>
      <trkpt lat="45.14244" lon="4.59215">
        <ele>609.52502441406</ele>
        <time>2010-07-24T16:21:01Z</time>
      </trkpt>
      <trkpt lat="45.14277" lon="4.59275">
        <ele>606.07501220703</ele>
        <time>2010-07-24T16:21:05Z</time>
      </trkpt>
      <trkpt lat="45.14313" lon="4.593">
        <ele>602.89501953125</ele>
        <time>2010-07-24T16:21:08Z</time>
      </trkpt>
      <trkpt lat="45.1434" lon="4.59294">
        <ele>601.29699707031</ele>
        <time>2010-07-24T16:21:10Z</time>
      </trkpt>
      <trkpt lat="45.14352" lon="4.59287">
        <ele>600.15100097656</ele>
        <time>2010-07-24T16:21:11Z</time>
      </trkpt>
      <trkpt lat="45.14384" lon="4.59264">
        <ele>598.85900878906</ele>
        <time>2010-07-24T16:21:14Z</time>
      </trkpt>
      <trkpt lat="45.14407" lon="4.59282">
        <ele>598.94201660156</ele>
        <time>2010-07-24T16:21:17Z</time>
      </trkpt>
      <trkpt lat="45.14408" lon="4.59311">
        <ele>598.18298339844</ele>
        <time>2010-07-24T16:21:19Z</time>
      </trkpt>
      <trkpt lat="45.14398" lon="4.59342">
        <ele>596.64300537109</ele>
        <time>2010-07-24T16:21:21Z</time>
      </trkpt>
      <trkpt lat="45.1438" lon="4.59385">
        <ele>594.02697753906</ele>
        <time>2010-07-24T16:21:24Z</time>
      </trkpt>
      <trkpt lat="45.1436" lon="4.59403">
        <ele>591.35601806641</ele>
        <time>2010-07-24T16:21:26Z</time>
      </trkpt>
      <trkpt lat="45.1429" lon="4.59454">
        <ele>586.17401123047</ele>
        <time>2010-07-24T16:21:32Z</time>
      </trkpt>
      <trkpt lat="45.14267" lon="4.59468">
        <ele>583.86901855469</ele>
        <time>2010-07-24T16:21:34Z</time>
      </trkpt>
      <trkpt lat="45.14212" lon="4.59517">
        <ele>579.33697509766</ele>
        <time>2010-07-24T16:21:39Z</time>
      </trkpt>
      <trkpt lat="45.14178" lon="4.59552">
        <ele>577.07202148438</ele>
        <time>2010-07-24T16:21:42Z</time>
      </trkpt>
      <trkpt lat="45.14145" lon="4.59608">
        <ele>572.708984375</ele>
        <time>2010-07-24T16:21:46Z</time>
      </trkpt>
      <trkpt lat="45.14148" lon="4.59661">
        <ele>570.31896972656</ele>
        <time>2010-07-24T16:21:49Z</time>
      </trkpt>
      <trkpt lat="45.14163" lon="4.59694">
        <ele>568.51898193359</ele>
        <time>2010-07-24T16:21:51Z</time>
      </trkpt>
      <trkpt lat="45.14194" lon="4.59782">
        <ele>563.708984375</ele>
        <time>2010-07-24T16:21:56Z</time>
      </trkpt>
      <trkpt lat="45.14233" lon="4.59886">
        <ele>558.43597412109</ele>
        <time>2010-07-24T16:22:02Z</time>
      </trkpt>
      <trkpt lat="45.14248" lon="4.5994">
        <ele>556.20202636719</ele>
        <time>2010-07-24T16:22:05Z</time>
      </trkpt>
      <trkpt lat="45.14275" lon="4.60006">
        <ele>551.79901123047</ele>
        <time>2010-07-24T16:22:09Z</time>
      </trkpt>
      <trkpt lat="45.1429" lon="4.60058">
        <ele>549.10998535156</ele>
        <time>2010-07-24T16:22:12Z</time>
      </trkpt>
      <trkpt lat="45.14294" lon="4.60076">
        <ele>547.35101318359</ele>
        <time>2010-07-24T16:22:13Z</time>
      </trkpt>
      <trkpt lat="45.14312" lon="4.60124">
        <ele>545.65802001953</ele>
        <time>2010-07-24T16:22:16Z</time>
      </trkpt>
      <trkpt lat="45.14352" lon="4.60212">
        <ele>539.41998291016</ele>
        <time>2010-07-24T16:22:22Z</time>
      </trkpt>
      <trkpt lat="45.14359" lon="4.60225">
        <ele>539.03399658203</ele>
        <time>2010-07-24T16:22:23Z</time>
      </trkpt>
      <trkpt lat="45.14395" lon="4.60265">
        <ele>536.98901367188</ele>
        <time>2010-07-24T16:22:27Z</time>
      </trkpt>
      <trkpt lat="45.14411" lon="4.60287">
        <ele>536.00701904297</ele>
        <time>2010-07-24T16:22:29Z</time>
      </trkpt>
      <trkpt lat="45.14433" lon="4.60326">
        <ele>533.26898193359</ele>
        <time>2010-07-24T16:22:32Z</time>
      </trkpt>
      <trkpt lat="45.14478" lon="4.60432">
        <ele>528.71197509766</ele>
        <time>2010-07-24T16:22:40Z</time>
      </trkpt>
      <trkpt lat="45.14489" lon="4.60456">
        <ele>527.71197509766</ele>
        <time>2010-07-24T16:22:42Z</time>
      </trkpt>
      <trkpt lat="45.14522" lon="4.60509">
        <ele>524.37200927734</ele>
        <time>2010-07-24T16:22:47Z</time>
      </trkpt>
      <trkpt lat="45.14547" lon="4.60552">
        <ele>522.458984375</ele>
        <time>2010-07-24T16:22:51Z</time>
      </trkpt>
      <trkpt lat="45.14596" lon="4.60634">
        <ele>519.65600585938</ele>
        <time>2010-07-24T16:22:59Z</time>
      </trkpt>
      <trkpt lat="45.14644" lon="4.60704">
        <ele>518.38000488281</ele>
        <time>2010-07-24T16:23:07Z</time>
      </trkpt>
      <trkpt lat="45.1467" lon="4.60742">
        <ele>517.45001220703</ele>
        <time>2010-07-24T16:23:12Z</time>
      </trkpt>
      <trkpt lat="45.147" lon="4.60782">
        <ele>517.44396972656</ele>
        <time>2010-07-24T16:23:18Z</time>
      </trkpt>
      <trkpt lat="45.14729" lon="4.60825">
        <ele>517.41998291016</ele>
        <time>2010-07-24T16:23:25Z</time>
      </trkpt>
      <trkpt lat="45.14741" lon="4.60846">
        <ele>516.71502685547</ele>
        <time>2010-07-24T16:23:28Z</time>
      </trkpt>
      <trkpt lat="45.14772" lon="4.60909">
        <ele>514.48699951172</ele>
        <time>2010-07-24T16:23:36Z</time>
      </trkpt>
      <trkpt lat="45.1478" lon="4.60928">
        <ele>513.69702148438</ele>
        <time>2010-07-24T16:23:38Z</time>
      </trkpt>
      <trkpt lat="45.148" lon="4.60973">
        <ele>513.04302978516</ele>
        <time>2010-07-24T16:23:43Z</time>
      </trkpt>
      <trkpt lat="45.1482" lon="4.61015">
        <ele>511.30899047852</ele>
        <time>2010-07-24T16:23:48Z</time>
      </trkpt>
      <trkpt lat="45.14825" lon="4.61022">
        <ele>511.01998901367</ele>
        <time>2010-07-24T16:23:49Z</time>
      </trkpt>
      <trkpt lat="45.14853" lon="4.61052">
        <ele>510.03399658203</ele>
        <time>2010-07-24T16:23:54Z</time>
      </trkpt>
      <trkpt lat="45.14883" lon="4.61108">
        <ele>506.49499511719</ele>
        <time>2010-07-24T16:24:00Z</time>
      </trkpt>
      <trkpt lat="45.1489" lon="4.61131">
        <ele>505.25</ele>
        <time>2010-07-24T16:24:02Z</time>
      </trkpt>
      <trkpt lat="45.14907" lon="4.61199">
        <ele>501.46899414062</ele>
        <time>2010-07-24T16:24:07Z</time>
      </trkpt>
      <trkpt lat="45.14918" lon="4.61236">
        <ele>501.08200073242</ele>
        <time>2010-07-24T16:24:10Z</time>
      </trkpt>
      <trkpt lat="45.14938" lon="4.61275">
        <ele>499.73001098633</ele>
        <time>2010-07-24T16:24:14Z</time>
      </trkpt>
      <trkpt lat="45.14965" lon="4.61318">
        <ele>497.19500732422</ele>
        <time>2010-07-24T16:24:19Z</time>
      </trkpt>
      <trkpt lat="45.14979" lon="4.61348">
        <ele>496.08801269531</ele>
        <time>2010-07-24T16:24:22Z</time>
      </trkpt>
      <trkpt lat="45.14997" lon="4.61369">
        <ele>494.79598999023</ele>
        <time>2010-07-24T16:24:25Z</time>
      </trkpt>
      <trkpt lat="45.15013" lon="4.61385">
        <ele>495.57501220703</ele>
        <time>2010-07-24T16:24:28Z</time>
      </trkpt>
      <trkpt lat="45.15031" lon="4.61404">
        <ele>496.73199462891</ele>
        <time>2010-07-24T16:24:32Z</time>
      </trkpt>
      <trkpt lat="45.15036" lon="4.6141">
        <ele>497.2799987793</ele>
        <time>2010-07-24T16:24:33Z</time>
      </trkpt>
      <trkpt lat="45.15042" lon="4.6142">
        <ele>498.41198730469</ele>
        <time>2010-07-24T16:24:35Z</time>
      </trkpt>
      <trkpt lat="45.15044" lon="4.61426">
        <ele>498.40701293945</ele>
        <time>2010-07-24T16:24:36Z</time>
      </trkpt>
      <trkpt lat="45.15055" lon="4.61456">
        <ele>498.21200561523</ele>
        <time>2010-07-24T16:24:40Z</time>
      </trkpt>
      <trkpt lat="45.15064" lon="4.61492">
        <ele>496.33401489258</ele>
        <time>2010-07-24T16:24:44Z</time>
      </trkpt>
      <trkpt lat="45.15067" lon="4.61501">
        <ele>494.88598632812</ele>
        <time>2010-07-24T16:24:45Z</time>
      </trkpt>
      <trkpt lat="45.15094" lon="4.61549">
        <ele>492.4460144043</ele>
        <time>2010-07-24T16:24:50Z</time>
      </trkpt>
      <trkpt lat="45.15101" lon="4.61565">
        <ele>492.25601196289</ele>
        <time>2010-07-24T16:24:52Z</time>
      </trkpt>
      <trkpt lat="45.15108" lon="4.61599">
        <ele>492.48699951172</ele>
        <time>2010-07-24T16:24:57Z</time>
      </trkpt>
      <trkpt lat="45.1511" lon="4.61609">
        <ele>492.64898681641</ele>
        <time>2010-07-24T16:25:01Z</time>
      </trkpt>
      <trkpt lat="45.1511" lon="4.6161">
        <ele>492.73400878906</ele>
        <time>2010-07-24T16:25:02Z</time>
      </trkpt>
      <trkpt lat="45.1511" lon="4.61611">
        <ele>492.63800048828</ele>
        <time>2010-07-24T16:25:05Z</time>
      </trkpt>
      <trkpt lat="45.15109" lon="4.61619">
        <ele>492.20700073242</ele>
        <time>2010-07-24T16:25:36Z</time>
      </trkpt>
      <trkpt lat="45.1511" lon="4.61624">
        <ele>491.90200805664</ele>
        <time>2010-07-24T16:25:37Z</time>
      </trkpt>
      <trkpt lat="45.15117" lon="4.61655">
        <ele>490.06900024414</ele>
        <time>2010-07-24T16:25:41Z</time>
      </trkpt>
      <trkpt lat="45.15142" lon="4.6173">
        <ele>489.99200439453</ele>
        <time>2010-07-24T16:25:48Z</time>
      </trkpt>
      <trkpt lat="45.15147" lon="4.61751">
        <ele>490.48001098633</ele>
        <time>2010-07-24T16:25:50Z</time>
      </trkpt>
      <trkpt lat="45.15163" lon="4.61786">
        <ele>490.52301025391</ele>
        <time>2010-07-24T16:25:54Z</time>
      </trkpt>
      <trkpt lat="45.15167" lon="4.61794">
        <ele>490.52200317383</ele>
        <time>2010-07-24T16:25:55Z</time>
      </trkpt>
      <trkpt lat="45.15207" lon="4.61851">
        <ele>490.13198852539</ele>
        <time>2010-07-24T16:26:03Z</time>
      </trkpt>
      <trkpt lat="45.15244" lon="4.61908">
        <ele>489.44299316406</ele>
        <time>2010-07-24T16:26:11Z</time>
      </trkpt>
      <trkpt lat="45.15274" lon="4.61963">
        <ele>488.26400756836</ele>
        <time>2010-07-24T16:26:18Z</time>
      </trkpt>
      <trkpt lat="45.15308" lon="4.62027">
        <ele>486.96600341797</ele>
        <time>2010-07-24T16:26:26Z</time>
      </trkpt>
      <trkpt lat="45.1533" lon="4.62064">
        <ele>486.63000488281</ele>
        <time>2010-07-24T16:26:31Z</time>
      </trkpt>
      <trkpt lat="45.15364" lon="4.6212">
        <ele>484.81600952148</ele>
        <time>2010-07-24T16:26:38Z</time>
      </trkpt>
      <trkpt lat="45.15375" lon="4.62136">
        <ele>484.14498901367</ele>
        <time>2010-07-24T16:26:40Z</time>
      </trkpt>
      <trkpt lat="45.15427" lon="4.62221">
        <ele>483.60598754883</ele>
        <time>2010-07-24T16:26:50Z</time>
      </trkpt>
      <trkpt lat="45.15466" lon="4.62287">
        <ele>483.25601196289</ele>
        <time>2010-07-24T16:26:58Z</time>
      </trkpt>
      <trkpt lat="45.15498" lon="4.62344">
        <ele>481.75799560547</ele>
        <time>2010-07-24T16:27:05Z</time>
      </trkpt>
      <trkpt lat="45.15536" lon="4.62407">
        <ele>481.89001464844</ele>
        <time>2010-07-24T16:27:13Z</time>
      </trkpt>
      <trkpt lat="45.15584" lon="4.62492">
        <ele>480.16500854492</ele>
        <time>2010-07-24T16:27:23Z</time>
      </trkpt>
      <trkpt lat="45.156" lon="4.62548">
        <ele>478.86999511719</ele>
        <time>2010-07-24T16:27:28Z</time>
      </trkpt>
      <trkpt lat="45.15638" lon="4.62631">
        <ele>478.53298950195</ele>
        <time>2010-07-24T16:27:36Z</time>
      </trkpt>
      <trkpt lat="45.15678" lon="4.62711">
        <ele>476.75601196289</ele>
        <time>2010-07-24T16:27:44Z</time>
      </trkpt>
      <trkpt lat="45.15731" lon="4.62819">
        <ele>474.3630065918</ele>
        <time>2010-07-24T16:27:54Z</time>
      </trkpt>
      <trkpt lat="45.15747" lon="4.62853">
        <ele>473.08898925781</ele>
        <time>2010-07-24T16:27:57Z</time>
      </trkpt>
      <trkpt lat="45.1576" lon="4.62904">
        <ele>473.44799804688</ele>
        <time>2010-07-24T16:28:01Z</time>
      </trkpt>
      <trkpt lat="45.15757" lon="4.62928">
        <ele>474.01098632812</ele>
        <time>2010-07-24T16:28:03Z</time>
      </trkpt>
      <trkpt lat="45.15744" lon="4.62983">
        <ele>475.2380065918</ele>
        <time>2010-07-24T16:28:08Z</time>
      </trkpt>
      <trkpt lat="45.15742" lon="4.63024">
        <ele>476.04598999023</ele>
        <time>2010-07-24T16:28:12Z</time>
      </trkpt>
      <trkpt lat="45.15746" lon="4.63054">
        <ele>476.33999633789</ele>
        <time>2010-07-24T16:28:15Z</time>
      </trkpt>
      <trkpt lat="45.15762" lon="4.63099">
        <ele>476.78201293945</ele>
        <time>2010-07-24T16:28:20Z</time>
      </trkpt>
      <trkpt lat="45.15767" lon="4.63106">
        <ele>476.84899902344</ele>
        <time>2010-07-24T16:28:21Z</time>
      </trkpt>
      <trkpt lat="45.15795" lon="4.63133">
        <ele>476.6669921875</ele>
        <time>2010-07-24T16:28:26Z</time>
      </trkpt>
      <trkpt lat="45.15813" lon="4.63162">
        <ele>475.8039855957</ele>
        <time>2010-07-24T16:28:30Z</time>
      </trkpt>
      <trkpt lat="45.15817" lon="4.6317">
        <ele>475.70001220703</ele>
        <time>2010-07-24T16:28:31Z</time>
      </trkpt>
      <trkpt lat="45.1584" lon="4.63192">
        <ele>476.15798950195</ele>
        <time>2010-07-24T16:28:35Z</time>
      </trkpt>
      <trkpt lat="45.15847" lon="4.63193">
        <ele>476.27200317383</ele>
        <time>2010-07-24T16:28:36Z</time>
      </trkpt>
      <trkpt lat="45.15871" lon="4.63196">
        <ele>475.20599365234</ele>
        <time>2010-07-24T16:28:39Z</time>
      </trkpt>
      <trkpt lat="45.15907" lon="4.63217">
        <ele>474.03601074219</ele>
        <time>2010-07-24T16:28:44Z</time>
      </trkpt>
      <trkpt lat="45.15929" lon="4.63252">
        <ele>472.84600830078</ele>
        <time>2010-07-24T16:28:48Z</time>
      </trkpt>
      <trkpt lat="45.15933" lon="4.63264">
        <ele>472.59698486328</ele>
        <time>2010-07-24T16:28:49Z</time>
      </trkpt>
      <trkpt lat="45.15939" lon="4.63288">
        <ele>472.24899291992</ele>
        <time>2010-07-24T16:28:51Z</time>
      </trkpt>
      <trkpt lat="45.15961" lon="4.63326">
        <ele>471.0530090332</ele>
        <time>2010-07-24T16:28:55Z</time>
      </trkpt>
      <trkpt lat="45.15969" lon="4.63332">
        <ele>470.94400024414</ele>
        <time>2010-07-24T16:28:56Z</time>
      </trkpt>
      <trkpt lat="45.16018" lon="4.63387">
        <ele>470.07299804688</ele>
        <time>2010-07-24T16:29:03Z</time>
      </trkpt>
      <trkpt lat="45.16068" lon="4.63456">
        <ele>468.43099975586</ele>
        <time>2010-07-24T16:29:11Z</time>
      </trkpt>
      <trkpt lat="45.16099" lon="4.63497">
        <ele>467.1549987793</ele>
        <time>2010-07-24T16:29:16Z</time>
      </trkpt>
      <trkpt lat="45.16118" lon="4.63521">
        <ele>466.50399780273</ele>
        <time>2010-07-24T16:29:19Z</time>
      </trkpt>
      <trkpt lat="45.16176" lon="4.63595">
        <ele>464.49798583984</ele>
        <time>2010-07-24T16:29:28Z</time>
      </trkpt>
      <trkpt lat="45.16188" lon="4.63613">
        <ele>464.37600708008</ele>
        <time>2010-07-24T16:29:30Z</time>
      </trkpt>
      <trkpt lat="45.16216" lon="4.63681">
        <ele>462.64700317383</ele>
        <time>2010-07-24T16:29:36Z</time>
      </trkpt>
      <trkpt lat="45.16243" lon="4.63764">
        <ele>461.78399658203</ele>
        <time>2010-07-24T16:29:43Z</time>
      </trkpt>
      <trkpt lat="45.16249" lon="4.63826">
        <ele>461.29400634766</ele>
        <time>2010-07-24T16:29:48Z</time>
      </trkpt>
      <trkpt lat="45.16256" lon="4.63901">
        <ele>461.0830078125</ele>
        <time>2010-07-24T16:29:54Z</time>
      </trkpt>
      <trkpt lat="45.16259" lon="4.63962">
        <ele>460.78799438477</ele>
        <time>2010-07-24T16:29:59Z</time>
      </trkpt>
      <trkpt lat="45.16283" lon="4.64055">
        <ele>460.13800048828</ele>
        <time>2010-07-24T16:30:07Z</time>
      </trkpt>
      <trkpt lat="45.16293" lon="4.64099">
        <ele>460.39801025391</ele>
        <time>2010-07-24T16:30:11Z</time>
      </trkpt>
      <trkpt lat="45.16325" lon="4.64144">
        <ele>459.39599609375</ele>
        <time>2010-07-24T16:30:16Z</time>
      </trkpt>
      <trkpt lat="45.16339" lon="4.64164">
        <ele>458.5950012207</ele>
        <time>2010-07-24T16:30:18Z</time>
      </trkpt>
      <trkpt lat="45.16357" lon="4.64218">
        <ele>455.69900512695</ele>
        <time>2010-07-24T16:30:22Z</time>
      </trkpt>
      <trkpt lat="45.16359" lon="4.64249">
        <ele>454.5830078125</ele>
        <time>2010-07-24T16:30:24Z</time>
      </trkpt>
      <trkpt lat="45.16342" lon="4.64344">
        <ele>453.16500854492</ele>
        <time>2010-07-24T16:30:31Z</time>
      </trkpt>
      <trkpt lat="45.16331" lon="4.64403">
        <ele>454.27801513672</ele>
        <time>2010-07-24T16:30:36Z</time>
      </trkpt>
      <trkpt lat="45.16313" lon="4.64475">
        <ele>456.94000244141</ele>
        <time>2010-07-24T16:30:43Z</time>
      </trkpt>
      <trkpt lat="45.16297" lon="4.64535">
        <ele>458.61401367188</ele>
        <time>2010-07-24T16:30:50Z</time>
      </trkpt>
      <trkpt lat="45.16293" lon="4.64582">
        <ele>459.05200195312</ele>
        <time>2010-07-24T16:30:55Z</time>
      </trkpt>
      <trkpt lat="45.16293" lon="4.64592">
        <ele>459.00399780273</ele>
        <time>2010-07-24T16:30:56Z</time>
      </trkpt>
      <trkpt lat="45.16298" lon="4.6462">
        <ele>459.29998779297</ele>
        <time>2010-07-24T16:30:59Z</time>
      </trkpt>
      <trkpt lat="45.16301" lon="4.64681">
        <ele>459.74301147461</ele>
        <time>2010-07-24T16:31:05Z</time>
      </trkpt>
      <trkpt lat="45.16312" lon="4.64719">
        <ele>460.39001464844</ele>
        <time>2010-07-24T16:31:09Z</time>
      </trkpt>
      <trkpt lat="45.16328" lon="4.64754">
        <ele>460.5419921875</ele>
        <time>2010-07-24T16:31:13Z</time>
      </trkpt>
      <trkpt lat="45.16332" lon="4.64795">
        <ele>460.52899169922</ele>
        <time>2010-07-24T16:31:17Z</time>
      </trkpt>
      <trkpt lat="45.16329" lon="4.64816">
        <ele>460.68200683594</ele>
        <time>2010-07-24T16:31:19Z</time>
      </trkpt>
      <trkpt lat="45.16323" lon="4.64846">
        <ele>460.38000488281</ele>
        <time>2010-07-24T16:31:22Z</time>
      </trkpt>
      <trkpt lat="45.16324" lon="4.64888">
        <ele>460.36999511719</ele>
        <time>2010-07-24T16:31:26Z</time>
      </trkpt>
      <trkpt lat="45.1634" lon="4.64988">
        <ele>458.44799804688</ele>
        <time>2010-07-24T16:31:35Z</time>
      </trkpt>
      <trkpt lat="45.16342" lon="4.65056">
        <ele>458.65301513672</ele>
        <time>2010-07-24T16:31:41Z</time>
      </trkpt>
      <trkpt lat="45.16339" lon="4.65089">
        <ele>458.78698730469</ele>
        <time>2010-07-24T16:31:44Z</time>
      </trkpt>
      <trkpt lat="45.16348" lon="4.65143">
        <ele>458.11499023438</ele>
        <time>2010-07-24T16:31:49Z</time>
      </trkpt>
      <trkpt lat="45.16383" lon="4.6522">
        <ele>456.45401000977</ele>
        <time>2010-07-24T16:31:57Z</time>
      </trkpt>
      <trkpt lat="45.16425" lon="4.65305">
        <ele>456.22698974609</ele>
        <time>2010-07-24T16:32:06Z</time>
      </trkpt>
      <trkpt lat="45.16466" lon="4.65389">
        <ele>454.60699462891</ele>
        <time>2010-07-24T16:32:15Z</time>
      </trkpt>
      <trkpt lat="45.16494" lon="4.65443">
        <ele>454.60699462891</ele>
        <time>2010-07-24T16:32:21Z</time>
      </trkpt>
      <trkpt lat="45.16527" lon="4.6547">
        <ele>455.26000976562</ele>
        <time>2010-07-24T16:32:26Z</time>
      </trkpt>
      <trkpt lat="45.16542" lon="4.65472">
        <ele>455.46701049805</ele>
        <time>2010-07-24T16:32:28Z</time>
      </trkpt>
      <trkpt lat="45.16581" lon="4.65471">
        <ele>455.60299682617</ele>
        <time>2010-07-24T16:32:33Z</time>
      </trkpt>
      <trkpt lat="45.1661" lon="4.65493">
        <ele>455.23300170898</ele>
        <time>2010-07-24T16:32:37Z</time>
      </trkpt>
      <trkpt lat="45.16612" lon="4.65526">
        <ele>455.02899169922</ele>
        <time>2010-07-24T16:32:40Z</time>
      </trkpt>
      <trkpt lat="45.16598" lon="4.65554">
        <ele>455.20199584961</ele>
        <time>2010-07-24T16:32:43Z</time>
      </trkpt>
      <trkpt lat="45.16592" lon="4.65561">
        <ele>455.52301025391</ele>
        <time>2010-07-24T16:32:44Z</time>
      </trkpt>
      <trkpt lat="45.1656" lon="4.65597">
        <ele>458.47799682617</ele>
        <time>2010-07-24T16:32:50Z</time>
      </trkpt>
      <trkpt lat="45.16534" lon="4.6563">
        <ele>459.45498657227</ele>
        <time>2010-07-24T16:32:56Z</time>
      </trkpt>
      <trkpt lat="45.16526" lon="4.65648">
        <ele>460.76501464844</ele>
        <time>2010-07-24T16:32:59Z</time>
      </trkpt>
      <trkpt lat="45.16525" lon="4.65654">
        <ele>461.07699584961</ele>
        <time>2010-07-24T16:33:00Z</time>
      </trkpt>
      <trkpt lat="45.16523" lon="4.65681">
        <ele>461.76300048828</ele>
        <time>2010-07-24T16:33:04Z</time>
      </trkpt>
      <trkpt lat="45.16523" lon="4.65716">
        <ele>462.53900146484</ele>
        <time>2010-07-24T16:33:09Z</time>
      </trkpt>
      <trkpt lat="45.16518" lon="4.65743">
        <ele>463.45999145508</ele>
        <time>2010-07-24T16:33:13Z</time>
      </trkpt>
      <trkpt lat="45.165" lon="4.65794">
        <ele>463.71200561523</ele>
        <time>2010-07-24T16:33:21Z</time>
      </trkpt>
      <trkpt lat="45.16484" lon="4.65836">
        <ele>466.4880065918</ele>
        <time>2010-07-24T16:33:28Z</time>
      </trkpt>
      <trkpt lat="45.16469" lon="4.65878">
        <ele>466.62600708008</ele>
        <time>2010-07-24T16:33:35Z</time>
      </trkpt>
      <trkpt lat="45.16451" lon="4.65937">
        <ele>468.12701416016</ele>
        <time>2010-07-24T16:33:45Z</time>
      </trkpt>
      <trkpt lat="45.16438" lon="4.65985">
        <ele>468.53100585938</ele>
        <time>2010-07-24T16:33:53Z</time>
      </trkpt>
      <trkpt lat="45.16437" lon="4.65992">
        <ele>468.71899414062</ele>
        <time>2010-07-24T16:33:54Z</time>
      </trkpt>
      <trkpt lat="45.1643" lon="4.66023">
        <ele>469.28799438477</ele>
        <time>2010-07-24T16:33:59Z</time>
      </trkpt>
      <trkpt lat="45.1643" lon="4.66042">
        <ele>470.00500488281</ele>
        <time>2010-07-24T16:34:02Z</time>
      </trkpt>
      <trkpt lat="45.16432" lon="4.66094">
        <ele>470.32901000977</ele>
        <time>2010-07-24T16:34:09Z</time>
      </trkpt>
      <trkpt lat="45.1644" lon="4.66141">
        <ele>467.81298828125</ele>
        <time>2010-07-24T16:34:14Z</time>
      </trkpt>
      <trkpt lat="45.16441" lon="4.66196">
        <ele>466.89999389648</ele>
        <time>2010-07-24T16:34:19Z</time>
      </trkpt>
      <trkpt lat="45.16444" lon="4.66254">
        <ele>465.41000366211</ele>
        <time>2010-07-24T16:34:24Z</time>
      </trkpt>
      <trkpt lat="45.16445" lon="4.66348">
        <ele>464.94799804688</ele>
        <time>2010-07-24T16:34:32Z</time>
      </trkpt>
      <trkpt lat="45.16447" lon="4.66418">
        <ele>465.1130065918</ele>
        <time>2010-07-24T16:34:38Z</time>
      </trkpt>
      <trkpt lat="45.16452" lon="4.66482">
        <ele>465.20901489258</ele>
        <time>2010-07-24T16:34:44Z</time>
      </trkpt>
      <trkpt lat="45.16465" lon="4.66575">
        <ele>466.18301391602</ele>
        <time>2010-07-24T16:34:53Z</time>
      </trkpt>
      <trkpt lat="45.16472" lon="4.66644">
        <ele>466.8450012207</ele>
        <time>2010-07-24T16:35:00Z</time>
      </trkpt>
      <trkpt lat="45.16467" lon="4.66705">
        <ele>469.98999023438</ele>
        <time>2010-07-24T16:35:07Z</time>
      </trkpt>
      <trkpt lat="45.16463" lon="4.66719">
        <ele>470.86700439453</ele>
        <time>2010-07-24T16:35:09Z</time>
      </trkpt>
      <trkpt lat="45.1646" lon="4.66768">
        <ele>472.67098999023</ele>
        <time>2010-07-24T16:35:16Z</time>
      </trkpt>
      <trkpt lat="45.16467" lon="4.66822">
        <ele>471.97299194336</ele>
        <time>2010-07-24T16:35:23Z</time>
      </trkpt>
      <trkpt lat="45.1648" lon="4.66882">
        <ele>470.04901123047</ele>
        <time>2010-07-24T16:35:29Z</time>
      </trkpt>
      <trkpt lat="45.16492" lon="4.66955">
        <ele>470.32800292969</ele>
        <time>2010-07-24T16:35:36Z</time>
      </trkpt>
      <trkpt lat="45.16497" lon="4.67023">
        <ele>471.52899169922</ele>
        <time>2010-07-24T16:35:43Z</time>
      </trkpt>
      <trkpt lat="45.16497" lon="4.6711">
        <ele>471.84899902344</ele>
        <time>2010-07-24T16:35:52Z</time>
      </trkpt>
      <trkpt lat="45.16498" lon="4.67221">
        <ele>472.67999267578</ele>
        <time>2010-07-24T16:36:03Z</time>
      </trkpt>
      <trkpt lat="45.16494" lon="4.67262">
        <ele>472.65301513672</ele>
        <time>2010-07-24T16:36:07Z</time>
      </trkpt>
      <trkpt lat="45.16499" lon="4.67311">
        <ele>473.57400512695</ele>
        <time>2010-07-24T16:36:12Z</time>
      </trkpt>
      <trkpt lat="45.16502" lon="4.6732">
        <ele>473.61801147461</ele>
        <time>2010-07-24T16:36:13Z</time>
      </trkpt>
      <trkpt lat="45.16533" lon="4.674">
        <ele>472.15798950195</ele>
        <time>2010-07-24T16:36:21Z</time>
      </trkpt>
      <trkpt lat="45.16549" lon="4.67442">
        <ele>470.43499755859</ele>
        <time>2010-07-24T16:36:25Z</time>
      </trkpt>
      <trkpt lat="45.16581" lon="4.67504">
        <ele>470.63299560547</ele>
        <time>2010-07-24T16:36:31Z</time>
      </trkpt>
      <trkpt lat="45.1661" lon="4.6754">
        <ele>465.59799194336</ele>
        <time>2010-07-24T16:36:35Z</time>
      </trkpt>
      <trkpt lat="45.16652" lon="4.67573">
        <ele>464.14898681641</ele>
        <time>2010-07-24T16:36:40Z</time>
      </trkpt>
      <trkpt lat="45.16695" lon="4.67623">
        <ele>462.6669921875</ele>
        <time>2010-07-24T16:36:46Z</time>
      </trkpt>
      <trkpt lat="45.16732" lon="4.67677">
        <ele>461.08499145508</ele>
        <time>2010-07-24T16:36:52Z</time>
      </trkpt>
      <trkpt lat="45.16769" lon="4.67745">
        <ele>460.87399291992</ele>
        <time>2010-07-24T16:36:59Z</time>
      </trkpt>
      <trkpt lat="45.16808" lon="4.67816">
        <ele>458.48001098633</ele>
        <time>2010-07-24T16:37:06Z</time>
      </trkpt>
      <trkpt lat="45.16819" lon="4.67838">
        <ele>457.70700073242</ele>
        <time>2010-07-24T16:37:08Z</time>
      </trkpt>
      <trkpt lat="45.16832" lon="4.6789">
        <ele>455.91900634766</ele>
        <time>2010-07-24T16:37:12Z</time>
      </trkpt>
      <trkpt lat="45.16829" lon="4.67933">
        <ele>455.35000610352</ele>
        <time>2010-07-24T16:37:15Z</time>
      </trkpt>
      <trkpt lat="45.16827" lon="4.67948">
        <ele>454.75399780273</ele>
        <time>2010-07-24T16:37:16Z</time>
      </trkpt>
      <trkpt lat="45.16813" lon="4.68006">
        <ele>452.38400268555</ele>
        <time>2010-07-24T16:37:20Z</time>
      </trkpt>
      <trkpt lat="45.16811" lon="4.68067">
        <ele>450.35900878906</ele>
        <time>2010-07-24T16:37:24Z</time>
      </trkpt>
      <trkpt lat="45.16815" lon="4.68097">
        <ele>450.73098754883</ele>
        <time>2010-07-24T16:37:26Z</time>
      </trkpt>
      <trkpt lat="45.16835" lon="4.6819">
        <ele>448.43399047852</ele>
        <time>2010-07-24T16:37:32Z</time>
      </trkpt>
      <trkpt lat="45.16839" lon="4.68206">
        <ele>448.27301025391</ele>
        <time>2010-07-24T16:37:33Z</time>
      </trkpt>
      <trkpt lat="45.1687" lon="4.6831">
        <ele>445.17599487305</ele>
        <time>2010-07-24T16:37:40Z</time>
      </trkpt>
      <trkpt lat="45.1688" lon="4.6834">
        <ele>444.49200439453</ele>
        <time>2010-07-24T16:37:42Z</time>
      </trkpt>
      <trkpt lat="45.1691" lon="4.68412">
        <ele>439.8450012207</ele>
        <time>2010-07-24T16:37:47Z</time>
      </trkpt>
      <trkpt lat="45.16915" lon="4.68427">
        <ele>439.70001220703</ele>
        <time>2010-07-24T16:37:48Z</time>
      </trkpt>
      <trkpt lat="45.16928" lon="4.6849">
        <ele>438.65100097656</ele>
        <time>2010-07-24T16:37:52Z</time>
      </trkpt>
      <trkpt lat="45.16946" lon="4.68613">
        <ele>437.62100219727</ele>
        <time>2010-07-24T16:38:00Z</time>
      </trkpt>
      <trkpt lat="45.16944" lon="4.6869">
        <ele>435.84698486328</ele>
        <time>2010-07-24T16:38:05Z</time>
      </trkpt>
      <trkpt lat="45.16941" lon="4.68766">
        <ele>437.43701171875</ele>
        <time>2010-07-24T16:38:10Z</time>
      </trkpt>
      <trkpt lat="45.1693" lon="4.68826">
        <ele>437.24798583984</ele>
        <time>2010-07-24T16:38:14Z</time>
      </trkpt>
      <trkpt lat="45.16924" lon="4.6884">
        <ele>436.74099731445</ele>
        <time>2010-07-24T16:38:15Z</time>
      </trkpt>
      <trkpt lat="45.16912" lon="4.68867">
        <ele>436.01501464844</ele>
        <time>2010-07-24T16:38:17Z</time>
      </trkpt>
      <trkpt lat="45.16896" lon="4.68929">
        <ele>433.75799560547</ele>
        <time>2010-07-24T16:38:21Z</time>
      </trkpt>
      <trkpt lat="45.16874" lon="4.69047">
        <ele>429.53298950195</ele>
        <time>2010-07-24T16:38:28Z</time>
      </trkpt>
      <trkpt lat="45.16863" lon="4.69097">
        <ele>426.20001220703</ele>
        <time>2010-07-24T16:38:31Z</time>
      </trkpt>
      <trkpt lat="45.16858" lon="4.69164">
        <ele>426.86801147461</ele>
        <time>2010-07-24T16:38:35Z</time>
      </trkpt>
      <trkpt lat="45.16866" lon="4.69296">
        <ele>422.21798706055</ele>
        <time>2010-07-24T16:38:43Z</time>
      </trkpt>
      <trkpt lat="45.16869" lon="4.69349">
        <ele>421.93099975586</ele>
        <time>2010-07-24T16:38:47Z</time>
      </trkpt>
      <trkpt lat="45.16866" lon="4.69379">
        <ele>423.38500976562</ele>
        <time>2010-07-24T16:38:51Z</time>
      </trkpt>
      <trkpt lat="45.16865" lon="4.69388">
        <ele>423.5950012207</ele>
        <time>2010-07-24T16:38:53Z</time>
      </trkpt>
      <trkpt lat="45.1687" lon="4.69427">
        <ele>422.48699951172</ele>
        <time>2010-07-24T16:38:59Z</time>
      </trkpt>
      <trkpt lat="45.16876" lon="4.69476">
        <ele>422.64898681641</ele>
        <time>2010-07-24T16:39:05Z</time>
      </trkpt>
      <trkpt lat="45.16879" lon="4.69532">
        <ele>422.71398925781</ele>
        <time>2010-07-24T16:39:11Z</time>
      </trkpt>
      <trkpt lat="45.16883" lon="4.69605">
        <ele>422.65701293945</ele>
        <time>2010-07-24T16:39:18Z</time>
      </trkpt>
      <trkpt lat="45.16891" lon="4.69653">
        <ele>421.00799560547</ele>
        <time>2010-07-24T16:39:22Z</time>
      </trkpt>
      <trkpt lat="45.16908" lon="4.6974">
        <ele>418.95199584961</ele>
        <time>2010-07-24T16:39:29Z</time>
      </trkpt>
      <trkpt lat="45.16914" lon="4.69831">
        <ele>416.86700439453</ele>
        <time>2010-07-24T16:39:36Z</time>
      </trkpt>
      <trkpt lat="45.16925" lon="4.69922">
        <ele>415.93499755859</ele>
        <time>2010-07-24T16:39:43Z</time>
      </trkpt>
      <trkpt lat="45.16944" lon="4.69992">
        <ele>416.57998657227</ele>
        <time>2010-07-24T16:39:49Z</time>
      </trkpt>
      <trkpt lat="45.16972" lon="4.70087">
        <ele>415.28399658203</ele>
        <time>2010-07-24T16:39:57Z</time>
      </trkpt>
      <trkpt lat="45.16995" lon="4.70167">
        <ele>416.75201416016</ele>
        <time>2010-07-24T16:40:04Z</time>
      </trkpt>
      <trkpt lat="45.17014" lon="4.70241">
        <ele>418.13800048828</ele>
        <time>2010-07-24T16:40:11Z</time>
      </trkpt>
      <trkpt lat="45.17038" lon="4.7033">
        <ele>419.90899658203</ele>
        <time>2010-07-24T16:40:20Z</time>
      </trkpt>
      <trkpt lat="45.17044" lon="4.70366">
        <ele>422.91299438477</ele>
        <time>2010-07-24T16:40:24Z</time>
      </trkpt>
      <trkpt lat="45.17053" lon="4.70425">
        <ele>423.01599121094</ele>
        <time>2010-07-24T16:40:31Z</time>
      </trkpt>
      <trkpt lat="45.17067" lon="4.70501">
        <ele>422.80899047852</ele>
        <time>2010-07-24T16:40:40Z</time>
      </trkpt>
      <trkpt lat="45.17074" lon="4.70539">
        <ele>425.00299072266</ele>
        <time>2010-07-24T16:40:45Z</time>
      </trkpt>
      <trkpt lat="45.17083" lon="4.70585">
        <ele>425.8210144043</ele>
        <time>2010-07-24T16:40:52Z</time>
      </trkpt>
      <trkpt lat="45.1709" lon="4.70635">
        <ele>426.49798583984</ele>
        <time>2010-07-24T16:41:00Z</time>
      </trkpt>
      <trkpt lat="45.171" lon="4.70692">
        <ele>426.35198974609</ele>
        <time>2010-07-24T16:41:08Z</time>
      </trkpt>
      <trkpt lat="45.17111" lon="4.70755">
        <ele>425.57699584961</ele>
        <time>2010-07-24T16:41:16Z</time>
      </trkpt>
      <trkpt lat="45.17114" lon="4.70772">
        <ele>424.89300537109</ele>
        <time>2010-07-24T16:41:18Z</time>
      </trkpt>
      <trkpt lat="45.17127" lon="4.70848">
        <ele>425.41500854492</ele>
        <time>2010-07-24T16:41:27Z</time>
      </trkpt>
      <trkpt lat="45.1714" lon="4.70904">
        <ele>424.03698730469</ele>
        <time>2010-07-24T16:41:33Z</time>
      </trkpt>
      <trkpt lat="45.17166" lon="4.70961">
        <ele>424.39099121094</ele>
        <time>2010-07-24T16:41:39Z</time>
      </trkpt>
      <trkpt lat="45.17195" lon="4.71021">
        <ele>421.0530090332</ele>
        <time>2010-07-24T16:41:45Z</time>
      </trkpt>
      <trkpt lat="45.17205" lon="4.71041">
        <ele>420.07501220703</ele>
        <time>2010-07-24T16:41:47Z</time>
      </trkpt>
      <trkpt lat="45.17228" lon="4.71089">
        <ele>420.09899902344</ele>
        <time>2010-07-24T16:41:52Z</time>
      </trkpt>
      <trkpt lat="45.17249" lon="4.71139">
        <ele>420.37200927734</ele>
        <time>2010-07-24T16:41:58Z</time>
      </trkpt>
      <trkpt lat="45.17269" lon="4.712">
        <ele>421.51901245117</ele>
        <time>2010-07-24T16:42:06Z</time>
      </trkpt>
      <trkpt lat="45.17291" lon="4.71269">
        <ele>420.60400390625</ele>
        <time>2010-07-24T16:42:15Z</time>
      </trkpt>
      <trkpt lat="45.1731" lon="4.71325">
        <ele>420.3210144043</ele>
        <time>2010-07-24T16:42:21Z</time>
      </trkpt>
      <trkpt lat="45.17336" lon="4.71408">
        <ele>418.28399658203</ele>
        <time>2010-07-24T16:42:29Z</time>
      </trkpt>
      <trkpt lat="45.17363" lon="4.71496">
        <ele>415.90600585938</ele>
        <time>2010-07-24T16:42:37Z</time>
      </trkpt>
      <trkpt lat="45.17395" lon="4.71592">
        <ele>415.91299438477</ele>
        <time>2010-07-24T16:42:46Z</time>
      </trkpt>
      <trkpt lat="45.17418" lon="4.71657">
        <ele>413.22399902344</ele>
        <time>2010-07-24T16:42:52Z</time>
      </trkpt>
      <trkpt lat="45.17437" lon="4.71716">
        <ele>411.61199951172</ele>
        <time>2010-07-24T16:42:57Z</time>
      </trkpt>
      <trkpt lat="45.17464" lon="4.71804">
        <ele>410.69400024414</ele>
        <time>2010-07-24T16:43:04Z</time>
      </trkpt>
      <trkpt lat="45.17496" lon="4.71902">
        <ele>402.83499145508</ele>
        <time>2010-07-24T16:43:12Z</time>
      </trkpt>
      <trkpt lat="45.1752" lon="4.71986">
        <ele>397.55099487305</ele>
        <time>2010-07-24T16:43:19Z</time>
      </trkpt>
      <trkpt lat="45.17522" lon="4.71998">
        <ele>397.31600952148</ele>
        <time>2010-07-24T16:43:20Z</time>
      </trkpt>
      <trkpt lat="45.17539" lon="4.72088">
        <ele>401.00900268555</ele>
        <time>2010-07-24T16:43:28Z</time>
      </trkpt>
      <trkpt lat="45.17542" lon="4.72098">
        <ele>400.98901367188</ele>
        <time>2010-07-24T16:43:29Z</time>
      </trkpt>
      <trkpt lat="45.17566" lon="4.72158">
        <ele>399.5710144043</ele>
        <time>2010-07-24T16:43:35Z</time>
      </trkpt>
      <trkpt lat="45.17603" lon="4.72231">
        <ele>397.72198486328</ele>
        <time>2010-07-24T16:43:43Z</time>
      </trkpt>
      <trkpt lat="45.17643" lon="4.72312">
        <ele>396.71798706055</ele>
        <time>2010-07-24T16:43:52Z</time>
      </trkpt>
      <trkpt lat="45.17683" lon="4.72394">
        <ele>398.06298828125</ele>
        <time>2010-07-24T16:44:02Z</time>
      </trkpt>
      <trkpt lat="45.1771" lon="4.72449">
        <ele>396.72900390625</ele>
        <time>2010-07-24T16:44:09Z</time>
      </trkpt>
      <trkpt lat="45.17738" lon="4.72507">
        <ele>398.39498901367</ele>
        <time>2010-07-24T16:44:17Z</time>
      </trkpt>
      <trkpt lat="45.17763" lon="4.72557">
        <ele>397.77301025391</ele>
        <time>2010-07-24T16:44:24Z</time>
      </trkpt>
      <trkpt lat="45.17799" lon="4.72625">
        <ele>396.58099365234</ele>
        <time>2010-07-24T16:44:33Z</time>
      </trkpt>
      <trkpt lat="45.17816" lon="4.72658">
        <ele>394.77801513672</ele>
        <time>2010-07-24T16:44:37Z</time>
      </trkpt>
      <trkpt lat="45.17821" lon="4.72666">
        <ele>394.67001342773</ele>
        <time>2010-07-24T16:44:38Z</time>
      </trkpt>
      <trkpt lat="45.17856" lon="4.72706">
        <ele>394.66198730469</ele>
        <time>2010-07-24T16:44:45Z</time>
      </trkpt>
      <trkpt lat="45.17892" lon="4.72743">
        <ele>393.7080078125</ele>
        <time>2010-07-24T16:44:52Z</time>
      </trkpt>
      <trkpt lat="45.17934" lon="4.72777">
        <ele>393.23400878906</ele>
        <time>2010-07-24T16:45:00Z</time>
      </trkpt>
      <trkpt lat="45.17976" lon="4.72804">
        <ele>395.76599121094</ele>
        <time>2010-07-24T16:45:08Z</time>
      </trkpt>
      <trkpt lat="45.18006" lon="4.7283">
        <ele>395.36999511719</ele>
        <time>2010-07-24T16:45:15Z</time>
      </trkpt>
      <trkpt lat="45.18023" lon="4.72846">
        <ele>396.94799804688</ele>
        <time>2010-07-24T16:45:19Z</time>
      </trkpt>
      <trkpt lat="45.18026" lon="4.7285">
        <ele>396.92999267578</ele>
        <time>2010-07-24T16:45:20Z</time>
      </trkpt>
      <trkpt lat="45.18049" lon="4.72886">
        <ele>396.88900756836</ele>
        <time>2010-07-24T16:45:26Z</time>
      </trkpt>
      <trkpt lat="45.18064" lon="4.72919">
        <ele>396.9580078125</ele>
        <time>2010-07-24T16:45:31Z</time>
      </trkpt>
      <trkpt lat="45.18087" lon="4.72965">
        <ele>397.9169921875</ele>
        <time>2010-07-24T16:45:38Z</time>
      </trkpt>
      <trkpt lat="45.18113" lon="4.73004">
        <ele>397.70401000977</ele>
        <time>2010-07-24T16:45:45Z</time>
      </trkpt>
      <trkpt lat="45.18144" lon="4.73039">
        <ele>396.63299560547</ele>
        <time>2010-07-24T16:45:52Z</time>
      </trkpt>
      <trkpt lat="45.18173" lon="4.73068">
        <ele>395.81500244141</ele>
        <time>2010-07-24T16:45:59Z</time>
      </trkpt>
      <trkpt lat="45.18204" lon="4.73081">
        <ele>396.18899536133</ele>
        <time>2010-07-24T16:46:05Z</time>
      </trkpt>
      <trkpt lat="45.18245" lon="4.73085">
        <ele>396.25299072266</ele>
        <time>2010-07-24T16:46:12Z</time>
      </trkpt>
      <trkpt lat="45.18278" lon="4.73083">
        <ele>395.69400024414</ele>
        <time>2010-07-24T16:46:18Z</time>
      </trkpt>
      <trkpt lat="45.1829" lon="4.73081">
        <ele>395.3030090332</ele>
        <time>2010-07-24T16:46:20Z</time>
      </trkpt>
      <trkpt lat="45.18308" lon="4.7308">
        <ele>395.10000610352</ele>
        <time>2010-07-24T16:46:23Z</time>
      </trkpt>
      <trkpt lat="45.18335" lon="4.73095">
        <ele>394.75698852539</ele>
        <time>2010-07-24T16:46:28Z</time>
      </trkpt>
      <trkpt lat="45.18344" lon="4.73106">
        <ele>394.80899047852</ele>
        <time>2010-07-24T16:46:30Z</time>
      </trkpt>
      <trkpt lat="45.18371" lon="4.73164">
        <ele>394.16598510742</ele>
        <time>2010-07-24T16:46:38Z</time>
      </trkpt>
      <trkpt lat="45.18404" lon="4.73204">
        <ele>394.52899169922</ele>
        <time>2010-07-24T16:46:45Z</time>
      </trkpt>
      <trkpt lat="45.18444" lon="4.7324">
        <ele>393.25399780273</ele>
        <time>2010-07-24T16:46:53Z</time>
      </trkpt>
      <trkpt lat="45.1847" lon="4.7326">
        <ele>394.4469909668</ele>
        <time>2010-07-24T16:46:58Z</time>
      </trkpt>
      <trkpt lat="45.1851" lon="4.73275">
        <ele>394.46099853516</ele>
        <time>2010-07-24T16:47:05Z</time>
      </trkpt>
      <trkpt lat="45.18545" lon="4.73294">
        <ele>393.04098510742</ele>
        <time>2010-07-24T16:47:11Z</time>
      </trkpt>
      <trkpt lat="45.18551" lon="4.73299">
        <ele>392.96499633789</ele>
        <time>2010-07-24T16:47:12Z</time>
      </trkpt>
      <trkpt lat="45.18579" lon="4.73342">
        <ele>392.88198852539</ele>
        <time>2010-07-24T16:47:18Z</time>
      </trkpt>
      <trkpt lat="45.18611" lon="4.7341">
        <ele>390.97299194336</ele>
        <time>2010-07-24T16:47:26Z</time>
      </trkpt>
      <trkpt lat="45.18628" lon="4.73465">
        <ele>390.67300415039</ele>
        <time>2010-07-24T16:47:32Z</time>
      </trkpt>
      <trkpt lat="45.18638" lon="4.73514">
        <ele>392.36898803711</ele>
        <time>2010-07-24T16:47:37Z</time>
      </trkpt>
      <trkpt lat="45.18659" lon="4.73577">
        <ele>393.7200012207</ele>
        <time>2010-07-24T16:47:44Z</time>
      </trkpt>
      <trkpt lat="45.1866" lon="4.73594">
        <ele>394.31698608398</ele>
        <time>2010-07-24T16:47:46Z</time>
      </trkpt>
      <trkpt lat="45.18662" lon="4.73607">
        <ele>394.72500610352</ele>
        <time>2010-07-24T16:47:48Z</time>
      </trkpt>
      <trkpt lat="45.18663" lon="4.73643">
        <ele>395.14801025391</ele>
        <time>2010-07-24T16:47:53Z</time>
      </trkpt>
      <trkpt lat="45.1867" lon="4.73663">
        <ele>395.19100952148</ele>
        <time>2010-07-24T16:47:57Z</time>
      </trkpt>
      <trkpt lat="45.18691" lon="4.73676">
        <ele>394.29501342773</ele>
        <time>2010-07-24T16:48:02Z</time>
      </trkpt>
      <trkpt lat="45.18732" lon="4.73677">
        <ele>392.80999755859</ele>
        <time>2010-07-24T16:48:09Z</time>
      </trkpt>
      <trkpt lat="45.18738" lon="4.73676">
        <ele>392.56900024414</ele>
        <time>2010-07-24T16:48:10Z</time>
      </trkpt>
      <trkpt lat="45.18781" lon="4.73657">
        <ele>390.41000366211</ele>
        <time>2010-07-24T16:48:17Z</time>
      </trkpt>
      <trkpt lat="45.18818" lon="4.73636">
        <ele>389.15600585938</ele>
        <time>2010-07-24T16:48:23Z</time>
      </trkpt>
      <trkpt lat="45.18823" lon="4.73633">
        <ele>388.87399291992</ele>
        <time>2010-07-24T16:48:24Z</time>
      </trkpt>
      <trkpt lat="45.18835" lon="4.73628">
        <ele>389.10000610352</ele>
        <time>2010-07-24T16:48:26Z</time>
      </trkpt>
      <trkpt lat="45.18876" lon="4.73606">
        <ele>387.88101196289</ele>
        <time>2010-07-24T16:48:32Z</time>
      </trkpt>
      <trkpt lat="45.18883" lon="4.73604">
        <ele>387.00900268555</ele>
        <time>2010-07-24T16:48:33Z</time>
      </trkpt>
      <trkpt lat="45.18912" lon="4.73608">
        <ele>386.00601196289</ele>
        <time>2010-07-24T16:48:37Z</time>
      </trkpt>
      <trkpt lat="45.18927" lon="4.73629">
        <ele>384.72299194336</ele>
        <time>2010-07-24T16:48:40Z</time>
      </trkpt>
      <trkpt lat="45.18937" lon="4.73656">
        <ele>384.94100952148</ele>
        <time>2010-07-24T16:48:43Z</time>
      </trkpt>
      <trkpt lat="45.18943" lon="4.73662">
        <ele>384.56298828125</ele>
        <time>2010-07-24T16:48:44Z</time>
      </trkpt>
      <trkpt lat="45.18971" lon="4.73686">
        <ele>382.18099975586</ele>
        <time>2010-07-24T16:48:48Z</time>
      </trkpt>
      <trkpt lat="45.18986" lon="4.73697">
        <ele>382.62600708008</ele>
        <time>2010-07-24T16:48:50Z</time>
      </trkpt>
      <trkpt lat="45.19006" lon="4.73739">
        <ele>380.86801147461</ele>
        <time>2010-07-24T16:48:54Z</time>
      </trkpt>
      <trkpt lat="45.19007" lon="4.73777">
        <ele>379.55899047852</ele>
        <time>2010-07-24T16:48:57Z</time>
      </trkpt>
      <trkpt lat="45.19017" lon="4.73827">
        <ele>378.16101074219</ele>
        <time>2010-07-24T16:49:01Z</time>
      </trkpt>
      <trkpt lat="45.19021" lon="4.73839">
        <ele>377.79501342773</ele>
        <time>2010-07-24T16:49:02Z</time>
      </trkpt>
      <trkpt lat="45.19035" lon="4.73873">
        <ele>376.4880065918</ele>
        <time>2010-07-24T16:49:05Z</time>
      </trkpt>
      <trkpt lat="45.19044" lon="4.73925">
        <ele>375.04098510742</ele>
        <time>2010-07-24T16:49:09Z</time>
      </trkpt>
      <trkpt lat="45.19044" lon="4.73939">
        <ele>374.46200561523</ele>
        <time>2010-07-24T16:49:10Z</time>
      </trkpt>
      <trkpt lat="45.19042" lon="4.74042">
        <ele>371.49398803711</ele>
        <time>2010-07-24T16:49:17Z</time>
      </trkpt>
      <trkpt lat="45.19044" lon="4.74103">
        <ele>369.10198974609</ele>
        <time>2010-07-24T16:49:21Z</time>
      </trkpt>
      <trkpt lat="45.19046" lon="4.74164">
        <ele>366.95700073242</ele>
        <time>2010-07-24T16:49:25Z</time>
      </trkpt>
      <trkpt lat="45.19062" lon="4.74238">
        <ele>366.13400268555</ele>
        <time>2010-07-24T16:49:30Z</time>
      </trkpt>
      <trkpt lat="45.19096" lon="4.7434">
        <ele>363.03201293945</ele>
        <time>2010-07-24T16:49:37Z</time>
      </trkpt>
      <trkpt lat="45.19109" lon="4.74368">
        <ele>361.86700439453</ele>
        <time>2010-07-24T16:49:39Z</time>
      </trkpt>
      <trkpt lat="45.19128" lon="4.74426">
        <ele>360.46701049805</ele>
        <time>2010-07-24T16:49:43Z</time>
      </trkpt>
      <trkpt lat="45.1916" lon="4.7456">
        <ele>355.9289855957</ele>
        <time>2010-07-24T16:49:52Z</time>
      </trkpt>
      <trkpt lat="45.19175" lon="4.7465">
        <ele>352.31799316406</ele>
        <time>2010-07-24T16:49:58Z</time>
      </trkpt>
      <trkpt lat="45.19176" lon="4.74665">
        <ele>352.04000854492</ele>
        <time>2010-07-24T16:49:59Z</time>
      </trkpt>
      <trkpt lat="45.19163" lon="4.74725">
        <ele>349.75299072266</ele>
        <time>2010-07-24T16:50:03Z</time>
      </trkpt>
      <trkpt lat="45.19136" lon="4.74754">
        <ele>348.11599731445</ele>
        <time>2010-07-24T16:50:06Z</time>
      </trkpt>
      <trkpt lat="45.19115" lon="4.74766">
        <ele>348.01000976562</ele>
        <time>2010-07-24T16:50:08Z</time>
      </trkpt>
      <trkpt lat="45.19075" lon="4.74796">
        <ele>345.67401123047</ele>
        <time>2010-07-24T16:50:12Z</time>
      </trkpt>
      <trkpt lat="45.19067" lon="4.74825">
        <ele>344.81698608398</ele>
        <time>2010-07-24T16:50:14Z</time>
      </trkpt>
      <trkpt lat="45.19067" lon="4.74856">
        <ele>344.23699951172</ele>
        <time>2010-07-24T16:50:16Z</time>
      </trkpt>
      <trkpt lat="45.19064" lon="4.74933">
        <ele>341.61099243164</ele>
        <time>2010-07-24T16:50:21Z</time>
      </trkpt>
      <trkpt lat="45.19061" lon="4.74995">
        <ele>340.2380065918</ele>
        <time>2010-07-24T16:50:25Z</time>
      </trkpt>
      <trkpt lat="45.19077" lon="4.75032">
        <ele>337.38000488281</ele>
        <time>2010-07-24T16:50:28Z</time>
      </trkpt>
      <trkpt lat="45.191" lon="4.75045">
        <ele>336.76300048828</ele>
        <time>2010-07-24T16:50:30Z</time>
      </trkpt>
      <trkpt lat="45.19177" lon="4.75098">
        <ele>334.18099975586</ele>
        <time>2010-07-24T16:50:38Z</time>
      </trkpt>
      <trkpt lat="45.19208" lon="4.75107">
        <ele>333.30200195312</ele>
        <time>2010-07-24T16:50:41Z</time>
      </trkpt>
      <trkpt lat="45.19233" lon="4.75133">
        <ele>331.9469909668</ele>
        <time>2010-07-24T16:50:44Z</time>
      </trkpt>
      <trkpt lat="45.19245" lon="4.75174">
        <ele>330.57598876953</ele>
        <time>2010-07-24T16:50:47Z</time>
      </trkpt>
      <trkpt lat="45.1925" lon="4.75186">
        <ele>330.25601196289</ele>
        <time>2010-07-24T16:50:48Z</time>
      </trkpt>
      <trkpt lat="45.19268" lon="4.75222">
        <ele>329.13400268555</ele>
        <time>2010-07-24T16:50:51Z</time>
      </trkpt>
      <trkpt lat="45.19278" lon="4.75248">
        <ele>328.27801513672</ele>
        <time>2010-07-24T16:50:53Z</time>
      </trkpt>
      <trkpt lat="45.19298" lon="4.75334">
        <ele>325.87799072266</ele>
        <time>2010-07-24T16:50:59Z</time>
      </trkpt>
      <trkpt lat="45.19323" lon="4.75383">
        <ele>323.20199584961</ele>
        <time>2010-07-24T16:51:03Z</time>
      </trkpt>
      <trkpt lat="45.19329" lon="4.75426">
        <ele>321.125</ele>
        <time>2010-07-24T16:51:06Z</time>
      </trkpt>
      <trkpt lat="45.19316" lon="4.75467">
        <ele>320.08999633789</ele>
        <time>2010-07-24T16:51:09Z</time>
      </trkpt>
      <trkpt lat="45.19315" lon="4.75483">
        <ele>319.95300292969</ele>
        <time>2010-07-24T16:51:10Z</time>
      </trkpt>
      <trkpt lat="45.19301" lon="4.75557">
        <ele>318.55899047852</ele>
        <time>2010-07-24T16:51:15Z</time>
      </trkpt>
      <trkpt lat="45.19297" lon="4.7557">
        <ele>318.25601196289</ele>
        <time>2010-07-24T16:51:16Z</time>
      </trkpt>
      <trkpt lat="45.19292" lon="4.75584">
        <ele>317.54098510742</ele>
        <time>2010-07-24T16:51:17Z</time>
      </trkpt>
      <trkpt lat="45.19261" lon="4.75625">
        <ele>315.25900268555</ele>
        <time>2010-07-24T16:51:21Z</time>
      </trkpt>
      <trkpt lat="45.1923" lon="4.75671">
        <ele>311.77499389648</ele>
        <time>2010-07-24T16:51:25Z</time>
      </trkpt>
      <trkpt lat="45.19225" lon="4.75685">
        <ele>311.49200439453</ele>
        <time>2010-07-24T16:51:26Z</time>
      </trkpt>
      <trkpt lat="45.19208" lon="4.75706">
        <ele>309.6789855957</ele>
        <time>2010-07-24T16:51:28Z</time>
      </trkpt>
      <trkpt lat="45.19173" lon="4.75693">
        <ele>307.54501342773</ele>
        <time>2010-07-24T16:51:31Z</time>
      </trkpt>
      <trkpt lat="45.19139" lon="4.75674">
        <ele>306.55499267578</ele>
        <time>2010-07-24T16:51:34Z</time>
      </trkpt>
      <trkpt lat="45.19102" lon="4.75667">
        <ele>304.64999389648</ele>
        <time>2010-07-24T16:51:37Z</time>
      </trkpt>
      <trkpt lat="45.19043" lon="4.75658">
        <ele>301.85101318359</ele>
        <time>2010-07-24T16:51:42Z</time>
      </trkpt>
      <trkpt lat="45.19033" lon="4.75681">
        <ele>301.03900146484</ele>
        <time>2010-07-24T16:51:44Z</time>
      </trkpt>
      <trkpt lat="45.19046" lon="4.75701">
        <ele>300.36999511719</ele>
        <time>2010-07-24T16:51:46Z</time>
      </trkpt>
      <trkpt lat="45.1908" lon="4.75731">
        <ele>298.42199707031</ele>
        <time>2010-07-24T16:51:50Z</time>
      </trkpt>
      <trkpt lat="45.19097" lon="4.75766">
        <ele>297.93701171875</ele>
        <time>2010-07-24T16:51:53Z</time>
      </trkpt>
      <trkpt lat="45.19101" lon="4.75826">
        <ele>295.21600341797</ele>
        <time>2010-07-24T16:51:57Z</time>
      </trkpt>
      <trkpt lat="45.1909" lon="4.7587">
        <ele>293.38000488281</ele>
        <time>2010-07-24T16:52:00Z</time>
      </trkpt>
      <trkpt lat="45.19072" lon="4.75891">
        <ele>291.80999755859</ele>
        <time>2010-07-24T16:52:02Z</time>
      </trkpt>
      <trkpt lat="45.19054" lon="4.75908">
        <ele>290.87298583984</ele>
        <time>2010-07-24T16:52:04Z</time>
      </trkpt>
      <trkpt lat="45.19013" lon="4.75928">
        <ele>288.90899658203</ele>
        <time>2010-07-24T16:52:08Z</time>
      </trkpt>
      <trkpt lat="45.1897" lon="4.75933">
        <ele>286.84600830078</ele>
        <time>2010-07-24T16:52:12Z</time>
      </trkpt>
      <trkpt lat="45.18959" lon="4.75955">
        <ele>285.92599487305</ele>
        <time>2010-07-24T16:52:14Z</time>
      </trkpt>
      <trkpt lat="45.18969" lon="4.75976">
        <ele>285.84201049805</ele>
        <time>2010-07-24T16:52:16Z</time>
      </trkpt>
      <trkpt lat="45.18999" lon="4.76029">
        <ele>284.03698730469</ele>
        <time>2010-07-24T16:52:21Z</time>
      </trkpt>
      <trkpt lat="45.19008" lon="4.7608">
        <ele>281.56399536133</ele>
        <time>2010-07-24T16:52:25Z</time>
      </trkpt>
      <trkpt lat="45.19006" lon="4.76093">
        <ele>281.37200927734</ele>
        <time>2010-07-24T16:52:26Z</time>
      </trkpt>
      <trkpt lat="45.1899" lon="4.76172">
        <ele>279.74798583984</ele>
        <time>2010-07-24T16:52:32Z</time>
      </trkpt>
      <trkpt lat="45.18993" lon="4.76226">
        <ele>278.78201293945</ele>
        <time>2010-07-24T16:52:36Z</time>
      </trkpt>
      <trkpt lat="45.18996" lon="4.76253">
        <ele>277.75100708008</ele>
        <time>2010-07-24T16:52:38Z</time>
      </trkpt>
      <trkpt lat="45.19015" lon="4.76302">
        <ele>275.67401123047</ele>
        <time>2010-07-24T16:52:42Z</time>
      </trkpt>
      <trkpt lat="45.19039" lon="4.7635">
        <ele>273.16000366211</ele>
        <time>2010-07-24T16:52:46Z</time>
      </trkpt>
      <trkpt lat="45.19043" lon="4.7638">
        <ele>271.79598999023</ele>
        <time>2010-07-24T16:52:48Z</time>
      </trkpt>
      <trkpt lat="45.19045" lon="4.76439">
        <ele>269.81100463867</ele>
        <time>2010-07-24T16:52:52Z</time>
      </trkpt>
      <trkpt lat="45.19031" lon="4.76493">
        <ele>267.7799987793</ele>
        <time>2010-07-24T16:52:56Z</time>
      </trkpt>
      <trkpt lat="45.19022" lon="4.7652">
        <ele>267.01599121094</ele>
        <time>2010-07-24T16:52:58Z</time>
      </trkpt>
      <trkpt lat="45.19015" lon="4.76564">
        <ele>266.51599121094</ele>
        <time>2010-07-24T16:53:01Z</time>
      </trkpt>
      <trkpt lat="45.18995" lon="4.76617">
        <ele>264.45999145508</ele>
        <time>2010-07-24T16:53:05Z</time>
      </trkpt>
      <trkpt lat="45.18976" lon="4.7667">
        <ele>262.88400268555</ele>
        <time>2010-07-24T16:53:09Z</time>
      </trkpt>
      <trkpt lat="45.18985" lon="4.76698">
        <ele>259.69500732422</ele>
        <time>2010-07-24T16:53:11Z</time>
      </trkpt>
      <trkpt lat="45.19014" lon="4.76721">
        <ele>259.65399169922</ele>
        <time>2010-07-24T16:53:14Z</time>
      </trkpt>
      <trkpt lat="45.19027" lon="4.76721">
        <ele>259.64401245117</ele>
        <time>2010-07-24T16:53:15Z</time>
      </trkpt>
      <trkpt lat="45.19099" lon="4.76729">
        <ele>256.51000976562</ele>
        <time>2010-07-24T16:53:21Z</time>
      </trkpt>
      <trkpt lat="45.19123" lon="4.76727">
        <ele>254.61199951172</ele>
        <time>2010-07-24T16:53:23Z</time>
      </trkpt>
      <trkpt lat="45.1917" lon="4.76737">
        <ele>251.49299621582</ele>
        <time>2010-07-24T16:53:27Z</time>
      </trkpt>
      <trkpt lat="45.19193" lon="4.76749">
        <ele>251.27600097656</ele>
        <time>2010-07-24T16:53:29Z</time>
      </trkpt>
      <trkpt lat="45.1923" lon="4.7679">
        <ele>249.59399414062</ele>
        <time>2010-07-24T16:53:33Z</time>
      </trkpt>
      <trkpt lat="45.19232" lon="4.76827">
        <ele>248.43200683594</ele>
        <time>2010-07-24T16:53:35Z</time>
      </trkpt>
      <trkpt lat="45.19226" lon="4.76882">
        <ele>246.6190032959</ele>
        <time>2010-07-24T16:53:38Z</time>
      </trkpt>
      <trkpt lat="45.1921" lon="4.7693">
        <ele>244.45300292969</ele>
        <time>2010-07-24T16:53:41Z</time>
      </trkpt>
      <trkpt lat="45.19203" lon="4.76944">
        <ele>243.61599731445</ele>
        <time>2010-07-24T16:53:42Z</time>
      </trkpt>
      <trkpt lat="45.19165" lon="4.77014">
        <ele>241.14599609375</ele>
        <time>2010-07-24T16:53:47Z</time>
      </trkpt>
      <trkpt lat="45.19138" lon="4.77042">
        <ele>240.26600646973</ele>
        <time>2010-07-24T16:53:50Z</time>
      </trkpt>
      <trkpt lat="45.19103" lon="4.77046">
        <ele>239.21099853516</ele>
        <time>2010-07-24T16:53:53Z</time>
      </trkpt>
      <trkpt lat="45.19086" lon="4.77066">
        <ele>238.91799926758</ele>
        <time>2010-07-24T16:53:55Z</time>
      </trkpt>
      <trkpt lat="45.19071" lon="4.7709">
        <ele>238.42999267578</ele>
        <time>2010-07-24T16:53:57Z</time>
      </trkpt>
      <trkpt lat="45.19046" lon="4.7712">
        <ele>237.46499633789</ele>
        <time>2010-07-24T16:54:00Z</time>
      </trkpt>
      <trkpt lat="45.19026" lon="4.77171">
        <ele>235.82899475098</ele>
        <time>2010-07-24T16:54:04Z</time>
      </trkpt>
      <trkpt lat="45.19015" lon="4.77242">
        <ele>234.91700744629</ele>
        <time>2010-07-24T16:54:09Z</time>
      </trkpt>
      <trkpt lat="45.19022" lon="4.77271">
        <ele>234.82600402832</ele>
        <time>2010-07-24T16:54:11Z</time>
      </trkpt>
      <trkpt lat="45.19056" lon="4.77313">
        <ele>234.68400573731</ele>
        <time>2010-07-24T16:54:15Z</time>
      </trkpt>
      <trkpt lat="45.19095" lon="4.77358">
        <ele>232.91700744629</ele>
        <time>2010-07-24T16:54:19Z</time>
      </trkpt>
      <trkpt lat="45.19113" lon="4.7743">
        <ele>230.91400146484</ele>
        <time>2010-07-24T16:54:24Z</time>
      </trkpt>
      <trkpt lat="45.19111" lon="4.77459">
        <ele>230.37699890137</ele>
        <time>2010-07-24T16:54:26Z</time>
      </trkpt>
      <trkpt lat="45.19113" lon="4.77545">
        <ele>229.80400085449</ele>
        <time>2010-07-24T16:54:32Z</time>
      </trkpt>
      <trkpt lat="45.19122" lon="4.776">
        <ele>228.46200561523</ele>
        <time>2010-07-24T16:54:36Z</time>
      </trkpt>
      <trkpt lat="45.19136" lon="4.77637">
        <ele>227.24699401856</ele>
        <time>2010-07-24T16:54:39Z</time>
      </trkpt>
      <trkpt lat="45.19149" lon="4.7766">
        <ele>226.79899597168</ele>
        <time>2010-07-24T16:54:41Z</time>
      </trkpt>
      <trkpt lat="45.19176" lon="4.7771">
        <ele>225.42300415039</ele>
        <time>2010-07-24T16:54:45Z</time>
      </trkpt>
      <trkpt lat="45.19211" lon="4.77745">
        <ele>223.34100341797</ele>
        <time>2010-07-24T16:54:49Z</time>
      </trkpt>
      <trkpt lat="45.19243" lon="4.77776">
        <ele>222.32499694824</ele>
        <time>2010-07-24T16:54:53Z</time>
      </trkpt>
      <trkpt lat="45.19268" lon="4.7782">
        <ele>220.15299987793</ele>
        <time>2010-07-24T16:54:57Z</time>
      </trkpt>
      <trkpt lat="45.19271" lon="4.77866">
        <ele>218.23199462891</ele>
        <time>2010-07-24T16:55:00Z</time>
      </trkpt>
      <trkpt lat="45.19265" lon="4.77949">
        <ele>214.58099365234</ele>
        <time>2010-07-24T16:55:05Z</time>
      </trkpt>
      <trkpt lat="45.19266" lon="4.78036">
        <ele>209.64999389648</ele>
        <time>2010-07-24T16:55:10Z</time>
      </trkpt>
      <trkpt lat="45.19268" lon="4.78069">
        <ele>208.90899658203</ele>
        <time>2010-07-24T16:55:12Z</time>
      </trkpt>
      <trkpt lat="45.19273" lon="4.78101">
        <ele>207.6549987793</ele>
        <time>2010-07-24T16:55:14Z</time>
      </trkpt>
      <trkpt lat="45.19272" lon="4.78168">
        <ele>204.21600341797</ele>
        <time>2010-07-24T16:55:18Z</time>
      </trkpt>
      <trkpt lat="45.19255" lon="4.78217">
        <ele>201.03799438477</ele>
        <time>2010-07-24T16:55:21Z</time>
      </trkpt>
      <trkpt lat="45.19236" lon="4.78244">
        <ele>198.55999755859</ele>
        <time>2010-07-24T16:55:23Z</time>
      </trkpt>
      <trkpt lat="45.1921" lon="4.78264">
        <ele>196.75700378418</ele>
        <time>2010-07-24T16:55:25Z</time>
      </trkpt>
      <trkpt lat="45.19153" lon="4.78312">
        <ele>194.77600097656</ele>
        <time>2010-07-24T16:55:30Z</time>
      </trkpt>
      <trkpt lat="45.19118" lon="4.78348">
        <ele>193.51600646973</ele>
        <time>2010-07-24T16:55:34Z</time>
      </trkpt>
      <trkpt lat="45.19111" lon="4.78354">
        <ele>193.2380065918</ele>
        <time>2010-07-24T16:55:35Z</time>
      </trkpt>
      <trkpt lat="45.19098" lon="4.78396">
        <ele>191.73500061035</ele>
        <time>2010-07-24T16:55:39Z</time>
      </trkpt>
      <trkpt lat="45.19101" lon="4.7844">
        <ele>190.4700012207</ele>
        <time>2010-07-24T16:55:42Z</time>
      </trkpt>
      <trkpt lat="45.1911" lon="4.7847">
        <ele>189.57099914551</ele>
        <time>2010-07-24T16:55:44Z</time>
      </trkpt>
      <trkpt lat="45.19122" lon="4.78554">
        <ele>186.09700012207</ele>
        <time>2010-07-24T16:55:49Z</time>
      </trkpt>
      <trkpt lat="45.19122" lon="4.78625">
        <ele>184.41999816894</ele>
        <time>2010-07-24T16:55:53Z</time>
      </trkpt>
      <trkpt lat="45.19127" lon="4.78677">
        <ele>183.5119934082</ele>
        <time>2010-07-24T16:55:56Z</time>
      </trkpt>
      <trkpt lat="45.19149" lon="4.78739">
        <ele>180.37800598144</ele>
        <time>2010-07-24T16:56:00Z</time>
      </trkpt>
      <trkpt lat="45.19166" lon="4.78763">
        <ele>178.10000610352</ele>
        <time>2010-07-24T16:56:02Z</time>
      </trkpt>
      <trkpt lat="45.19184" lon="4.78783">
        <ele>177.44999694824</ele>
        <time>2010-07-24T16:56:04Z</time>
      </trkpt>
      <trkpt lat="45.19202" lon="4.78835">
        <ele>177.24800109863</ele>
        <time>2010-07-24T16:56:08Z</time>
      </trkpt>
      <trkpt lat="45.1921" lon="4.78881">
        <ele>178.03799438477</ele>
        <time>2010-07-24T16:56:11Z</time>
      </trkpt>
      <trkpt lat="45.19202" lon="4.78947">
        <ele>177.0119934082</ele>
        <time>2010-07-24T16:56:15Z</time>
      </trkpt>
      <trkpt lat="45.19196" lon="4.78962">
        <ele>176.60499572754</ele>
        <time>2010-07-24T16:56:16Z</time>
      </trkpt>
      <trkpt lat="45.19168" lon="4.79059">
        <ele>172.82400512695</ele>
        <time>2010-07-24T16:56:22Z</time>
      </trkpt>
      <trkpt lat="45.19154" lon="4.79106">
        <ele>173.01899719238</ele>
        <time>2010-07-24T16:56:25Z</time>
      </trkpt>
      <trkpt lat="45.19133" lon="4.79132">
        <ele>172.61399841309</ele>
        <time>2010-07-24T16:56:28Z</time>
      </trkpt>
      <trkpt lat="45.1912" lon="4.79173">
        <ele>171.75500488281</ele>
        <time>2010-07-24T16:56:32Z</time>
      </trkpt>
      <trkpt lat="45.1912" lon="4.79187">
        <ele>171.41900634766</ele>
        <time>2010-07-24T16:56:33Z</time>
      </trkpt>
      <trkpt lat="45.1912" lon="4.79216">
        <ele>170.82899475098</ele>
        <time>2010-07-24T16:56:35Z</time>
      </trkpt>
      <trkpt lat="45.19116" lon="4.79262">
        <ele>169.81900024414</ele>
        <time>2010-07-24T16:56:38Z</time>
      </trkpt>
      <trkpt lat="45.19093" lon="4.79356">
        <ele>166.81799316406</ele>
        <time>2010-07-24T16:56:44Z</time>
      </trkpt>
      <trkpt lat="45.1908" lon="4.79406">
        <ele>165.24800109863</ele>
        <time>2010-07-24T16:56:47Z</time>
      </trkpt>
      <trkpt lat="45.19074" lon="4.79439">
        <ele>164.40899658203</ele>
        <time>2010-07-24T16:56:49Z</time>
      </trkpt>
      <trkpt lat="45.19066" lon="4.79505">
        <ele>162.48300170898</ele>
        <time>2010-07-24T16:56:53Z</time>
      </trkpt>
      <trkpt lat="45.19052" lon="4.79551">
        <ele>161.56900024414</ele>
        <time>2010-07-24T16:56:56Z</time>
      </trkpt>
      <trkpt lat="45.19043" lon="4.79563">
        <ele>161.09800720215</ele>
        <time>2010-07-24T16:56:57Z</time>
      </trkpt>
      <trkpt lat="45.19027" lon="4.79587">
        <ele>160.42900085449</ele>
        <time>2010-07-24T16:56:59Z</time>
      </trkpt>
      <trkpt lat="45.18989" lon="4.79617">
        <ele>159.63800048828</ele>
        <time>2010-07-24T16:57:03Z</time>
      </trkpt>
      <trkpt lat="45.18967" lon="4.7962">
        <ele>159.75199890137</ele>
        <time>2010-07-24T16:57:05Z</time>
      </trkpt>
      <trkpt lat="45.18897" lon="4.79621">
        <ele>160.12300109863</ele>
        <time>2010-07-24T16:57:12Z</time>
      </trkpt>
      <trkpt lat="45.18852" lon="4.7962">
        <ele>160.19200134277</ele>
        <time>2010-07-24T16:57:17Z</time>
      </trkpt>
      <trkpt lat="45.18816" lon="4.79619">
        <ele>161.55799865723</ele>
        <time>2010-07-24T16:57:22Z</time>
      </trkpt>
      <trkpt lat="45.18802" lon="4.79617">
        <ele>162.27600097656</ele>
        <time>2010-07-24T16:57:27Z</time>
      </trkpt>
      <trkpt lat="45.18785" lon="4.79619">
        <ele>162.41999816894</ele>
        <time>2010-07-24T16:57:32Z</time>
      </trkpt>
      <trkpt lat="45.18781" lon="4.79619">
        <ele>162.4940032959</ele>
        <time>2010-07-24T16:57:33Z</time>
      </trkpt>
      <trkpt lat="45.18764" lon="4.79617">
        <ele>162.79400634766</ele>
        <time>2010-07-24T16:57:37Z</time>
      </trkpt>
      <trkpt lat="45.18726" lon="4.79614">
        <ele>163.19999694824</ele>
        <time>2010-07-24T16:57:45Z</time>
      </trkpt>
      <trkpt lat="45.18693" lon="4.7961">
        <ele>163.54200744629</ele>
        <time>2010-07-24T16:57:53Z</time>
      </trkpt>
      <trkpt lat="45.18678" lon="4.79608">
        <ele>163.48500061035</ele>
        <time>2010-07-24T16:57:58Z</time>
      </trkpt>
      <trkpt lat="45.18673" lon="4.79613">
        <ele>163.57499694824</ele>
        <time>2010-07-24T16:58:00Z</time>
      </trkpt>
      <trkpt lat="45.18667" lon="4.79649">
        <ele>162.82699584961</ele>
        <time>2010-07-24T16:58:06Z</time>
      </trkpt>
      <trkpt lat="45.18665" lon="4.79673">
        <ele>162.21299743652</ele>
        <time>2010-07-24T16:58:09Z</time>
      </trkpt>
      <trkpt lat="45.18662" lon="4.79725">
        <ele>160.30700683594</ele>
        <time>2010-07-24T16:58:15Z</time>
      </trkpt>
      <trkpt lat="45.18659" lon="4.79751">
        <ele>159.59700012207</ele>
        <time>2010-07-24T16:58:18Z</time>
      </trkpt>
      <trkpt lat="45.18661" lon="4.79771">
        <ele>159.10699462891</ele>
        <time>2010-07-24T16:58:20Z</time>
      </trkpt>
      <trkpt lat="45.18659" lon="4.79809">
        <ele>158.34199523926</ele>
        <time>2010-07-24T16:58:24Z</time>
      </trkpt>
      <trkpt lat="45.18664" lon="4.79872">
        <ele>157.43800354004</ele>
        <time>2010-07-24T16:58:30Z</time>
      </trkpt>
      <trkpt lat="45.18664" lon="4.79913">
        <ele>155.88600158691</ele>
        <time>2010-07-24T16:58:34Z</time>
      </trkpt>
      <trkpt lat="45.18665" lon="4.79989">
        <ele>155.69999694824</ele>
        <time>2010-07-24T16:58:42Z</time>
      </trkpt>
      <trkpt lat="45.18667" lon="4.80043">
        <ele>155.20199584961</ele>
        <time>2010-07-24T16:58:48Z</time>
      </trkpt>
      <trkpt lat="45.1867" lon="4.80096">
        <ele>154.55900573731</ele>
        <time>2010-07-24T16:58:54Z</time>
      </trkpt>
      <trkpt lat="45.18669" lon="4.80105">
        <ele>154.55900573731</ele>
        <time>2010-07-24T16:58:55Z</time>
      </trkpt>
      <trkpt lat="45.18652" lon="4.80146">
        <ele>154.00500488281</ele>
        <time>2010-07-24T16:59:00Z</time>
      </trkpt>
      <trkpt lat="45.18626" lon="4.80202">
        <ele>155.25</ele>
        <time>2010-07-24T16:59:08Z</time>
      </trkpt>
      <trkpt lat="45.18613" lon="4.80233">
        <ele>155.86799621582</ele>
        <time>2010-07-24T16:59:13Z</time>
      </trkpt>
      <trkpt lat="45.18593" lon="4.80279">
        <ele>155.76100158691</ele>
        <time>2010-07-24T16:59:19Z</time>
      </trkpt>
      <trkpt lat="45.18574" lon="4.80325">
        <ele>154.80000305176</ele>
        <time>2010-07-24T16:59:24Z</time>
      </trkpt>
      <trkpt lat="45.18558" lon="4.80366">
        <ele>154.61599731445</ele>
        <time>2010-07-24T16:59:28Z</time>
      </trkpt>
      <trkpt lat="45.18535" lon="4.8042">
        <ele>152.62699890137</ele>
        <time>2010-07-24T16:59:33Z</time>
      </trkpt>
      <trkpt lat="45.18495" lon="4.8052">
        <ele>151.46200561523</ele>
        <time>2010-07-24T16:59:42Z</time>
      </trkpt>
      <trkpt lat="45.18457" lon="4.80617">
        <ele>151.57099914551</ele>
        <time>2010-07-24T16:59:51Z</time>
      </trkpt>
      <trkpt lat="45.18428" lon="4.80689">
        <ele>151.7140045166</ele>
        <time>2010-07-24T16:59:58Z</time>
      </trkpt>
      <trkpt lat="45.18408" lon="4.80736">
        <ele>152.03100585938</ele>
        <time>2010-07-24T17:00:03Z</time>
      </trkpt>
      <trkpt lat="45.18387" lon="4.8077">
        <ele>152.67399597168</ele>
        <time>2010-07-24T17:00:07Z</time>
      </trkpt>
      <trkpt lat="45.18385" lon="4.80781">
        <ele>152.51300048828</ele>
        <time>2010-07-24T17:00:08Z</time>
      </trkpt>
      <trkpt lat="45.18371" lon="4.80846">
        <ele>152.5299987793</ele>
        <time>2010-07-24T17:00:14Z</time>
      </trkpt>
      <trkpt lat="45.18366" lon="4.80875">
        <ele>154.24099731445</ele>
        <time>2010-07-24T17:00:17Z</time>
      </trkpt>
      <trkpt lat="45.18362" lon="4.80941">
        <ele>155.74299621582</ele>
        <time>2010-07-24T17:00:24Z</time>
      </trkpt>
      <trkpt lat="45.18367" lon="4.81009">
        <ele>156.42900085449</ele>
        <time>2010-07-24T17:00:32Z</time>
      </trkpt>
      <trkpt lat="45.18378" lon="4.81064">
        <ele>157.41000366211</ele>
        <time>2010-07-24T17:00:39Z</time>
      </trkpt>
      <trkpt lat="45.18388" lon="4.81116">
        <ele>160.12399291992</ele>
        <time>2010-07-24T17:00:46Z</time>
      </trkpt>
      <trkpt lat="45.18394" lon="4.81151">
        <ele>162.17100524902</ele>
        <time>2010-07-24T17:00:51Z</time>
      </trkpt>
      <trkpt lat="45.18403" lon="4.81195">
        <ele>164.95899963379</ele>
        <time>2010-07-24T17:00:57Z</time>
      </trkpt>
      <trkpt lat="45.18416" lon="4.81261">
        <ele>164.58700561523</ele>
        <time>2010-07-24T17:01:05Z</time>
      </trkpt>
      <trkpt lat="45.1843" lon="4.81338">
        <ele>163.62899780273</ele>
        <time>2010-07-24T17:01:13Z</time>
      </trkpt>
      <trkpt lat="45.18432" lon="4.81347">
        <ele>163.62899780273</ele>
        <time>2010-07-24T17:01:14Z</time>
      </trkpt>
      <trkpt lat="45.18426" lon="4.81376">
        <ele>159.43699645996</ele>
        <time>2010-07-24T17:01:18Z</time>
      </trkpt>
      <trkpt lat="45.18424" lon="4.81383">
        <ele>159.43699645996</ele>
        <time>2010-07-24T17:01:19Z</time>
      </trkpt>
      <trkpt lat="45.1842" lon="4.81406">
        <ele>158.18899536133</ele>
        <time>2010-07-24T17:01:22Z</time>
      </trkpt>
      <trkpt lat="45.1841" lon="4.81412">
        <ele>158.19799804688</ele>
        <time>2010-07-24T17:01:24Z</time>
      </trkpt>
      <trkpt lat="45.18354" lon="4.81419">
        <ele>159.37699890137</ele>
        <time>2010-07-24T17:01:33Z</time>
      </trkpt>
      <trkpt lat="45.18295" lon="4.81428">
        <ele>159.31199645996</ele>
        <time>2010-07-24T17:01:41Z</time>
      </trkpt>
      <trkpt lat="45.18248" lon="4.8144">
        <ele>159.05999755859</ele>
        <time>2010-07-24T17:01:47Z</time>
      </trkpt>
      <trkpt lat="45.18195" lon="4.81451">
        <ele>158.07499694824</ele>
        <time>2010-07-24T17:01:54Z</time>
      </trkpt>
      <trkpt lat="45.18153" lon="4.81463">
        <ele>157.55099487305</ele>
        <time>2010-07-24T17:02:00Z</time>
      </trkpt>
      <trkpt lat="45.18132" lon="4.8147">
        <ele>157.69500732422</ele>
        <time>2010-07-24T17:02:03Z</time>
      </trkpt>
      <trkpt lat="45.18113" lon="4.81473">
        <ele>158.05200195312</ele>
        <time>2010-07-24T17:02:06Z</time>
      </trkpt>
      <trkpt lat="45.18101" lon="4.81475">
        <ele>158.0059967041</ele>
        <time>2010-07-24T17:02:08Z</time>
      </trkpt>
      <trkpt lat="45.1809" lon="4.81479">
        <ele>158.18899536133</ele>
        <time>2010-07-24T17:02:10Z</time>
      </trkpt>
      <trkpt lat="45.18063" lon="4.81485">
        <ele>158.60600280762</ele>
        <time>2010-07-24T17:02:15Z</time>
      </trkpt>
      <trkpt lat="45.18052" lon="4.8148">
        <ele>158.47700500488</ele>
        <time>2010-07-24T17:02:17Z</time>
      </trkpt>
      <trkpt lat="45.18024" lon="4.81451">
        <ele>157.39300537109</ele>
        <time>2010-07-24T17:02:23Z</time>
      </trkpt>
      <trkpt lat="45.17992" lon="4.81422">
        <ele>157.06900024414</ele>
        <time>2010-07-24T17:02:29Z</time>
      </trkpt>
      <trkpt lat="45.17968" lon="4.8141">
        <ele>156.87600708008</ele>
        <time>2010-07-24T17:02:33Z</time>
      </trkpt>
      <trkpt lat="45.17932" lon="4.814">
        <ele>156.17300415039</ele>
        <time>2010-07-24T17:02:38Z</time>
      </trkpt>
      <trkpt lat="45.17892" lon="4.8139">
        <ele>154.17500305176</ele>
        <time>2010-07-24T17:02:43Z</time>
      </trkpt>
      <trkpt lat="45.17852" lon="4.81382">
        <ele>152.80900573731</ele>
        <time>2010-07-24T17:02:48Z</time>
      </trkpt>
      <trkpt lat="45.17836" lon="4.81383">
        <ele>152.37600708008</ele>
        <time>2010-07-24T17:02:50Z</time>
      </trkpt>
      <trkpt lat="45.17797" lon="4.81393">
        <ele>152.25900268555</ele>
        <time>2010-07-24T17:02:55Z</time>
      </trkpt>
      <trkpt lat="45.17783" lon="4.81399">
        <ele>152.34599304199</ele>
        <time>2010-07-24T17:02:57Z</time>
      </trkpt>
      <trkpt lat="45.17756" lon="4.81425">
        <ele>153.00399780273</ele>
        <time>2010-07-24T17:03:02Z</time>
      </trkpt>
      <trkpt lat="45.17736" lon="4.81442">
        <ele>152.78900146484</ele>
        <time>2010-07-24T17:03:06Z</time>
      </trkpt>
      <trkpt lat="45.1773" lon="4.81462">
        <ele>152.18499755859</ele>
        <time>2010-07-24T17:03:09Z</time>
      </trkpt>
      <trkpt lat="45.17728" lon="4.81489">
        <ele>151.76800537109</ele>
        <time>2010-07-24T17:03:12Z</time>
      </trkpt>
      <trkpt lat="45.17714" lon="4.81533">
        <ele>151.85299682617</ele>
        <time>2010-07-24T17:03:17Z</time>
      </trkpt>
      <trkpt lat="45.1771" lon="4.81575">
        <ele>150.05000305176</ele>
        <time>2010-07-24T17:03:21Z</time>
      </trkpt>
      <trkpt lat="45.1771" lon="4.81596">
        <ele>149.68899536133</ele>
        <time>2010-07-24T17:03:23Z</time>
      </trkpt>
      <trkpt lat="45.17714" lon="4.81678">
        <ele>150.71899414062</ele>
        <time>2010-07-24T17:03:31Z</time>
      </trkpt>
      <trkpt lat="45.17714" lon="4.81743">
        <ele>151.82099914551</ele>
        <time>2010-07-24T17:03:38Z</time>
      </trkpt>
      <trkpt lat="45.17697" lon="4.81798">
        <ele>150.19000244141</ele>
        <time>2010-07-24T17:03:44Z</time>
      </trkpt>
      <trkpt lat="45.17686" lon="4.81835">
        <ele>152.20500183106</ele>
        <time>2010-07-24T17:03:48Z</time>
      </trkpt>
      <trkpt lat="45.17676" lon="4.81873">
        <ele>152.35699462891</ele>
        <time>2010-07-24T17:03:53Z</time>
      </trkpt>
      <trkpt lat="45.17672" lon="4.81887">
        <ele>152.61799621582</ele>
        <time>2010-07-24T17:03:55Z</time>
      </trkpt>
      <trkpt lat="45.17664" lon="4.8191">
        <ele>152.45199584961</ele>
        <time>2010-07-24T17:03:58Z</time>
      </trkpt>
      <trkpt lat="45.1764" lon="4.81943">
        <ele>152.78399658203</ele>
        <time>2010-07-24T17:04:03Z</time>
      </trkpt>
      <trkpt lat="45.17614" lon="4.81982">
        <ele>152.71699523926</ele>
        <time>2010-07-24T17:04:09Z</time>
      </trkpt>
      <trkpt lat="45.17593" lon="4.82026">
        <ele>152.09700012207</ele>
        <time>2010-07-24T17:04:15Z</time>
      </trkpt>
      <trkpt lat="45.17576" lon="4.82063">
        <ele>153.34899902344</ele>
        <time>2010-07-24T17:04:20Z</time>
      </trkpt>
      <trkpt lat="45.17545" lon="4.82102">
        <ele>153</ele>
        <time>2010-07-24T17:04:27Z</time>
      </trkpt>
      <trkpt lat="45.17533" lon="4.82114">
        <ele>153.08500671387</ele>
        <time>2010-07-24T17:04:30Z</time>
      </trkpt>
      <trkpt lat="45.17516" lon="4.82118">
        <ele>153.97200012207</ele>
        <time>2010-07-24T17:04:33Z</time>
      </trkpt>
      <trkpt lat="45.175" lon="4.82138">
        <ele>153.96699523926</ele>
        <time>2010-07-24T17:04:37Z</time>
      </trkpt>
      <trkpt lat="45.17496" lon="4.82145">
        <ele>154.25199890137</ele>
        <time>2010-07-24T17:04:38Z</time>
      </trkpt>
      <trkpt lat="45.17472" lon="4.82168">
        <ele>155.09300231934</ele>
        <time>2010-07-24T17:04:43Z</time>
      </trkpt>
      <trkpt lat="45.17432" lon="4.82193">
        <ele>155.76899719238</ele>
        <time>2010-07-24T17:04:50Z</time>
      </trkpt>
      <trkpt lat="45.1739" lon="4.82223">
        <ele>156.63200378418</ele>
        <time>2010-07-24T17:04:58Z</time>
      </trkpt>
      <trkpt lat="45.17358" lon="4.82245">
        <ele>157.69700622559</ele>
        <time>2010-07-24T17:05:04Z</time>
      </trkpt>
      <trkpt lat="45.17329" lon="4.8227">
        <ele>159.01699829102</ele>
        <time>2010-07-24T17:05:10Z</time>
      </trkpt>
      <trkpt lat="45.17316" lon="4.82288">
        <ele>158.65899658203</ele>
        <time>2010-07-24T17:05:13Z</time>
      </trkpt>
      <trkpt lat="45.17299" lon="4.82325">
        <ele>158.33099365234</ele>
        <time>2010-07-24T17:05:18Z</time>
      </trkpt>
      <trkpt lat="45.17285" lon="4.82347">
        <ele>157.20700073242</ele>
        <time>2010-07-24T17:05:21Z</time>
      </trkpt>
      <trkpt lat="45.17278" lon="4.82374">
        <ele>156.13999938965</ele>
        <time>2010-07-24T17:05:24Z</time>
      </trkpt>
      <trkpt lat="45.17286" lon="4.82389">
        <ele>155.97399902344</ele>
        <time>2010-07-24T17:05:26Z</time>
      </trkpt>
      <trkpt lat="45.17292" lon="4.82394">
        <ele>156.04400634766</ele>
        <time>2010-07-24T17:05:27Z</time>
      </trkpt>
      <trkpt lat="45.17317" lon="4.82423">
        <ele>156.68099975586</ele>
        <time>2010-07-24T17:05:32Z</time>
      </trkpt>
      <trkpt lat="45.17357" lon="4.82508">
        <ele>155.30099487305</ele>
        <time>2010-07-24T17:05:42Z</time>
      </trkpt>
      <trkpt lat="45.1739" lon="4.82557">
        <ele>156.22799682617</ele>
        <time>2010-07-24T17:05:49Z</time>
      </trkpt>
      <trkpt lat="45.17413" lon="4.82603">
        <ele>156.39399719238</ele>
        <time>2010-07-24T17:05:55Z</time>
      </trkpt>
      <trkpt lat="45.17416" lon="4.82612">
        <ele>156.54899597168</ele>
        <time>2010-07-24T17:05:56Z</time>
      </trkpt>
      <trkpt lat="45.17418" lon="4.82659">
        <ele>157.57200622559</ele>
        <time>2010-07-24T17:06:01Z</time>
      </trkpt>
      <trkpt lat="45.17411" lon="4.82687">
        <ele>158.0119934082</ele>
        <time>2010-07-24T17:06:04Z</time>
      </trkpt>
      <trkpt lat="45.17388" lon="4.82753">
        <ele>158.29499816894</ele>
        <time>2010-07-24T17:06:12Z</time>
      </trkpt>
      <trkpt lat="45.17368" lon="4.82825">
        <ele>160.43899536133</ele>
        <time>2010-07-24T17:06:21Z</time>
      </trkpt>
      <trkpt lat="45.17358" lon="4.82882">
        <ele>162.22500610352</ele>
        <time>2010-07-24T17:06:28Z</time>
      </trkpt>
      <trkpt lat="45.1736" lon="4.82898">
        <ele>162.44599914551</ele>
        <time>2010-07-24T17:06:30Z</time>
      </trkpt>
      <trkpt lat="45.1737" lon="4.82934">
        <ele>162.91900634766</ele>
        <time>2010-07-24T17:06:35Z</time>
      </trkpt>
      <trkpt lat="45.17384" lon="4.82958">
        <ele>163.26800537109</ele>
        <time>2010-07-24T17:06:39Z</time>
      </trkpt>
      <trkpt lat="45.17392" lon="4.82969">
        <ele>163.63000488281</ele>
        <time>2010-07-24T17:06:41Z</time>
      </trkpt>
      <trkpt lat="45.17431" lon="4.82999">
        <ele>164.13600158691</ele>
        <time>2010-07-24T17:06:48Z</time>
      </trkpt>
      <trkpt lat="45.17471" lon="4.83017">
        <ele>164.53100585938</ele>
        <time>2010-07-24T17:06:54Z</time>
      </trkpt>
      <trkpt lat="45.17484" lon="4.8302">
        <ele>164.78900146484</ele>
        <time>2010-07-24T17:06:56Z</time>
      </trkpt>
      <trkpt lat="45.17512" lon="4.83015">
        <ele>163.90199279785</ele>
        <time>2010-07-24T17:07:00Z</time>
      </trkpt>
      <trkpt lat="45.17532" lon="4.83006">
        <ele>163.4700012207</ele>
        <time>2010-07-24T17:07:03Z</time>
      </trkpt>
      <trkpt lat="45.17577" lon="4.82993">
        <ele>162.30099487305</ele>
        <time>2010-07-24T17:07:09Z</time>
      </trkpt>
      <trkpt lat="45.1762" lon="4.82971">
        <ele>162.27200317383</ele>
        <time>2010-07-24T17:07:15Z</time>
      </trkpt>
      <trkpt lat="45.17633" lon="4.82966">
        <ele>162.10400390625</ele>
        <time>2010-07-24T17:07:17Z</time>
      </trkpt>
      <trkpt lat="45.17668" lon="4.82968">
        <ele>161.69000244141</ele>
        <time>2010-07-24T17:07:22Z</time>
      </trkpt>
      <trkpt lat="45.17682" lon="4.82974">
        <ele>161.20599365234</ele>
        <time>2010-07-24T17:07:24Z</time>
      </trkpt>
      <trkpt lat="45.17702" lon="4.83">
        <ele>161.06199645996</ele>
        <time>2010-07-24T17:07:28Z</time>
      </trkpt>
      <trkpt lat="45.17707" lon="4.83028">
        <ele>161.2200012207</ele>
        <time>2010-07-24T17:07:31Z</time>
      </trkpt>
      <trkpt lat="45.17713" lon="4.83107">
        <ele>161.15299987793</ele>
        <time>2010-07-24T17:07:40Z</time>
      </trkpt>
      <trkpt lat="45.17726" lon="4.83155">
        <ele>161.61199951172</ele>
        <time>2010-07-24T17:07:46Z</time>
      </trkpt>
      <trkpt lat="45.17746" lon="4.83214">
        <ele>160.15600585938</ele>
        <time>2010-07-24T17:07:54Z</time>
      </trkpt>
      <trkpt lat="45.17761" lon="4.83249">
        <ele>161.27299499512</ele>
        <time>2010-07-24T17:08:00Z</time>
      </trkpt>
      <trkpt lat="45.17773" lon="4.83275">
        <ele>161.77699279785</ele>
        <time>2010-07-24T17:08:05Z</time>
      </trkpt>
      <trkpt lat="45.17795" lon="4.83309">
        <ele>162.69599914551</ele>
        <time>2010-07-24T17:08:12Z</time>
      </trkpt>
      <trkpt lat="45.17798" lon="4.83314">
        <ele>162.73199462891</ele>
        <time>2010-07-24T17:08:13Z</time>
      </trkpt>
      <trkpt lat="45.17809" lon="4.83333">
        <ele>162.92999267578</ele>
        <time>2010-07-24T17:08:17Z</time>
      </trkpt>
      <trkpt lat="45.17822" lon="4.83339">
        <ele>164.41999816894</ele>
        <time>2010-07-24T17:08:20Z</time>
      </trkpt>
      <trkpt lat="45.17858" lon="4.83343">
        <ele>164.50100708008</ele>
        <time>2010-07-24T17:08:27Z</time>
      </trkpt>
      <trkpt lat="45.17863" lon="4.83343">
        <ele>164.50199890137</ele>
        <time>2010-07-24T17:08:28Z</time>
      </trkpt>
      <trkpt lat="45.17892" lon="4.83338">
        <ele>165.18600463867</ele>
        <time>2010-07-24T17:08:34Z</time>
      </trkpt>
      <trkpt lat="45.17917" lon="4.83328">
        <ele>166.05799865723</ele>
        <time>2010-07-24T17:08:40Z</time>
      </trkpt>
      <trkpt lat="45.17946" lon="4.8331">
        <ele>167.40899658203</ele>
        <time>2010-07-24T17:08:48Z</time>
      </trkpt>
      <trkpt lat="45.17961" lon="4.83303">
        <ele>168.23100280762</ele>
        <time>2010-07-24T17:08:52Z</time>
      </trkpt>
      <trkpt lat="45.17978" lon="4.83305">
        <ele>168.7559967041</ele>
        <time>2010-07-24T17:08:56Z</time>
      </trkpt>
      <trkpt lat="45.17996" lon="4.83316">
        <ele>169.28100585938</ele>
        <time>2010-07-24T17:09:00Z</time>
      </trkpt>
      <trkpt lat="45.18008" lon="4.83326">
        <ele>169.46499633789</ele>
        <time>2010-07-24T17:09:03Z</time>
      </trkpt>
      <trkpt lat="45.18026" lon="4.83353">
        <ele>169.04899597168</ele>
        <time>2010-07-24T17:09:09Z</time>
      </trkpt>
      <trkpt lat="45.18034" lon="4.83364">
        <ele>168.34899902344</ele>
        <time>2010-07-24T17:09:12Z</time>
      </trkpt>
      <trkpt lat="45.18055" lon="4.83387">
        <ele>167.58000183106</ele>
        <time>2010-07-24T17:09:17Z</time>
      </trkpt>
      <trkpt lat="45.18062" lon="4.83398">
        <ele>167.40800476074</ele>
        <time>2010-07-24T17:09:19Z</time>
      </trkpt>
      <trkpt lat="45.18098" lon="4.83449">
        <ele>165.44400024414</ele>
        <time>2010-07-24T17:09:26Z</time>
      </trkpt>
      <trkpt lat="45.18101" lon="4.83482">
        <ele>164.92700195312</ele>
        <time>2010-07-24T17:09:29Z</time>
      </trkpt>
      <trkpt lat="45.18089" lon="4.83514">
        <ele>164.05299377441</ele>
        <time>2010-07-24T17:09:32Z</time>
      </trkpt>
      <trkpt lat="45.18077" lon="4.83529">
        <ele>163.90299987793</ele>
        <time>2010-07-24T17:09:34Z</time>
      </trkpt>
      <trkpt lat="45.18036" lon="4.83573">
        <ele>164.34399414062</ele>
        <time>2010-07-24T17:09:42Z</time>
      </trkpt>
      <trkpt lat="45.18" lon="4.83614">
        <ele>164.45599365234</ele>
        <time>2010-07-24T17:09:50Z</time>
      </trkpt>
      <trkpt lat="45.17993" lon="4.83625">
        <ele>164.72099304199</ele>
        <time>2010-07-24T17:09:52Z</time>
      </trkpt>
      <trkpt lat="45.1797" lon="4.83678">
        <ele>164.98300170898</ele>
        <time>2010-07-24T17:10:01Z</time>
      </trkpt>
      <trkpt lat="45.17965" lon="4.83692">
        <ele>165.04200744629</ele>
        <time>2010-07-24T17:10:03Z</time>
      </trkpt>
      <trkpt lat="45.17952" lon="4.83726">
        <ele>165.22099304199</ele>
        <time>2010-07-24T17:10:08Z</time>
      </trkpt>
      <trkpt lat="45.17939" lon="4.83772">
        <ele>165.47200012207</ele>
        <time>2010-07-24T17:10:14Z</time>
      </trkpt>
      <trkpt lat="45.17929" lon="4.83809">
        <ele>166.06799316406</ele>
        <time>2010-07-24T17:10:19Z</time>
      </trkpt>
      <trkpt lat="45.17926" lon="4.83823">
        <ele>166.27200317383</ele>
        <time>2010-07-24T17:10:21Z</time>
      </trkpt>
      <trkpt lat="45.17921" lon="4.83836">
        <ele>166.68099975586</ele>
        <time>2010-07-24T17:10:23Z</time>
      </trkpt>
      <trkpt lat="45.17909" lon="4.83883">
        <ele>167.78399658203</ele>
        <time>2010-07-24T17:10:30Z</time>
      </trkpt>
      <trkpt lat="45.179" lon="4.83932">
        <ele>168.90899658203</ele>
        <time>2010-07-24T17:10:37Z</time>
      </trkpt>
      <trkpt lat="45.17898" lon="4.83968">
        <ele>169.73300170898</ele>
        <time>2010-07-24T17:10:42Z</time>
      </trkpt>
      <trkpt lat="45.17896" lon="4.83992">
        <ele>170.42300415039</ele>
        <time>2010-07-24T17:10:46Z</time>
      </trkpt>
      <trkpt lat="45.17901" lon="4.84033">
        <ele>172.17799377441</ele>
        <time>2010-07-24T17:10:53Z</time>
      </trkpt>
      <trkpt lat="45.17912" lon="4.84051">
        <ele>173.03399658203</ele>
        <time>2010-07-24T17:10:58Z</time>
      </trkpt>
      <trkpt lat="45.17924" lon="4.84067">
        <ele>173.46000671387</ele>
        <time>2010-07-24T17:11:03Z</time>
      </trkpt>
      <trkpt lat="45.17939" lon="4.84082">
        <ele>174.91700744629</ele>
        <time>2010-07-24T17:11:09Z</time>
      </trkpt>
      <trkpt lat="45.17899" lon="4.84231">
        <ele>178.23500061035</ele>
        <time>2010-07-24T17:11:28Z</time>
      </trkpt>
      <trkpt lat="45.17888" lon="4.84243">
        <ele>179.63900756836</ele>
        <time>2010-07-24T17:11:35Z</time>
      </trkpt>
      <trkpt lat="45.17877" lon="4.8426">
        <ele>180.26899719238</ele>
        <time>2010-07-24T17:11:40Z</time>
      </trkpt>
      <trkpt lat="45.17859" lon="4.84295">
        <ele>180.92199707031</ele>
        <time>2010-07-24T17:11:49Z</time>
      </trkpt>
      <trkpt lat="45.17855" lon="4.84314">
        <ele>180.88600158691</ele>
        <time>2010-07-24T17:11:52Z</time>
      </trkpt>
      <trkpt lat="45.17856" lon="4.84338">
        <ele>180.16200256348</ele>
        <time>2010-07-24T17:11:55Z</time>
      </trkpt>
      <trkpt lat="45.17865" lon="4.84392">
        <ele>179.66900634766</ele>
        <time>2010-07-24T17:12:01Z</time>
      </trkpt>
      <trkpt lat="45.17883" lon="4.8447">
        <ele>179.61999511719</ele>
        <time>2010-07-24T17:12:09Z</time>
      </trkpt>
      <trkpt lat="45.17915" lon="4.84562">
        <ele>178.51600646973</ele>
        <time>2010-07-24T17:12:19Z</time>
      </trkpt>
      <trkpt lat="45.17934" lon="4.84613">
        <ele>177.94099426269</ele>
        <time>2010-07-24T17:12:25Z</time>
      </trkpt>
      <trkpt lat="45.17952" lon="4.84659">
        <ele>178.41900634766</ele>
        <time>2010-07-24T17:12:31Z</time>
      </trkpt>
      <trkpt lat="45.17958" lon="4.84675">
        <ele>178.61799621582</ele>
        <time>2010-07-24T17:12:33Z</time>
      </trkpt>
      <trkpt lat="45.17962" lon="4.84689">
        <ele>178.68699645996</ele>
        <time>2010-07-24T17:12:35Z</time>
      </trkpt>
      <trkpt lat="45.17979" lon="4.84742">
        <ele>178.85400390625</ele>
        <time>2010-07-24T17:12:43Z</time>
      </trkpt>
      <trkpt lat="45.17981" lon="4.84756">
        <ele>179.1190032959</ele>
        <time>2010-07-24T17:12:45Z</time>
      </trkpt>
      <trkpt lat="45.17984" lon="4.84795">
        <ele>180.27799987793</ele>
        <time>2010-07-24T17:12:51Z</time>
      </trkpt>
      <trkpt lat="45.17986" lon="4.84839">
        <ele>180.84899902344</ele>
        <time>2010-07-24T17:12:57Z</time>
      </trkpt>
      <trkpt lat="45.17985" lon="4.84846">
        <ele>180.9049987793</ele>
        <time>2010-07-24T17:12:58Z</time>
      </trkpt>
      <trkpt lat="45.1798" lon="4.84909">
        <ele>182.10699462891</ele>
        <time>2010-07-24T17:13:07Z</time>
      </trkpt>
      <trkpt lat="45.17983" lon="4.8493">
        <ele>182.99800109863</ele>
        <time>2010-07-24T17:13:10Z</time>
      </trkpt>
      <trkpt lat="45.1798" lon="4.85006">
        <ele>183.64500427246</ele>
        <time>2010-07-24T17:13:20Z</time>
      </trkpt>
      <trkpt lat="45.17975" lon="4.85051">
        <ele>183.98300170898</ele>
        <time>2010-07-24T17:13:26Z</time>
      </trkpt>
      <trkpt lat="45.17963" lon="4.85087">
        <ele>185.49000549316</ele>
        <time>2010-07-24T17:13:32Z</time>
      </trkpt>
      <trkpt lat="45.17958" lon="4.85098">
        <ele>186.34700012207</ele>
        <time>2010-07-24T17:13:34Z</time>
      </trkpt>
      <trkpt lat="45.17932" lon="4.85135">
        <ele>188.09300231934</ele>
        <time>2010-07-24T17:13:42Z</time>
      </trkpt>
      <trkpt lat="45.17922" lon="4.85149">
        <ele>188.83500671387</ele>
        <time>2010-07-24T17:13:45Z</time>
      </trkpt>
      <trkpt lat="45.17894" lon="4.85185">
        <ele>189.875</ele>
        <time>2010-07-24T17:13:53Z</time>
      </trkpt>
      <trkpt lat="45.17871" lon="4.85227">
        <ele>190.50999450684</ele>
        <time>2010-07-24T17:14:01Z</time>
      </trkpt>
      <trkpt lat="45.17867" lon="4.85246">
        <ele>191.00900268555</ele>
        <time>2010-07-24T17:14:04Z</time>
      </trkpt>
      <trkpt lat="45.1786" lon="4.85296">
        <ele>192.05900573731</ele>
        <time>2010-07-24T17:14:12Z</time>
      </trkpt>
      <trkpt lat="45.17859" lon="4.85314">
        <ele>192.36399841309</ele>
        <time>2010-07-24T17:14:15Z</time>
      </trkpt>
      <trkpt lat="45.1786" lon="4.85337">
        <ele>193.57099914551</ele>
        <time>2010-07-24T17:14:19Z</time>
      </trkpt>
      <trkpt lat="45.17863" lon="4.8536">
        <ele>194.11000061035</ele>
        <time>2010-07-24T17:14:23Z</time>
      </trkpt>
      <trkpt lat="45.17871" lon="4.85401">
        <ele>194.22099304199</ele>
        <time>2010-07-24T17:14:30Z</time>
      </trkpt>
      <trkpt lat="45.17877" lon="4.85431">
        <ele>195.09300231934</ele>
        <time>2010-07-24T17:14:35Z</time>
      </trkpt>
      <trkpt lat="45.17878" lon="4.85454">
        <ele>195.4049987793</ele>
        <time>2010-07-24T17:14:38Z</time>
      </trkpt>
      <trkpt lat="45.1787" lon="4.855">
        <ele>194.15699768066</ele>
        <time>2010-07-24T17:14:43Z</time>
      </trkpt>
      <trkpt lat="45.17866" lon="4.85509">
        <ele>193.96200561523</ele>
        <time>2010-07-24T17:14:44Z</time>
      </trkpt>
      <trkpt lat="45.17847" lon="4.85545">
        <ele>192.37199401856</ele>
        <time>2010-07-24T17:14:48Z</time>
      </trkpt>
      <trkpt lat="45.17814" lon="4.85604">
        <ele>189.4640045166</ele>
        <time>2010-07-24T17:14:54Z</time>
      </trkpt>
      <trkpt lat="45.17777" lon="4.85641">
        <ele>188.81100463867</ele>
        <time>2010-07-24T17:14:59Z</time>
      </trkpt>
      <trkpt lat="45.17734" lon="4.85681">
        <ele>189.18299865723</ele>
        <time>2010-07-24T17:15:05Z</time>
      </trkpt>
      <trkpt lat="45.17688" lon="4.85716">
        <ele>187.97999572754</ele>
        <time>2010-07-24T17:15:11Z</time>
      </trkpt>
      <trkpt lat="45.17622" lon="4.85755">
        <ele>185.48399353027</ele>
        <time>2010-07-24T17:15:19Z</time>
      </trkpt>
      <trkpt lat="45.17596" lon="4.85791">
        <ele>184.19900512695</ele>
        <time>2010-07-24T17:15:23Z</time>
      </trkpt>
      <trkpt lat="45.17588" lon="4.85815">
        <ele>183.92199707031</ele>
        <time>2010-07-24T17:15:25Z</time>
      </trkpt>
      <trkpt lat="45.1758" lon="4.85852">
        <ele>182.93200683594</ele>
        <time>2010-07-24T17:15:28Z</time>
      </trkpt>
      <trkpt lat="45.17557" lon="4.85934">
        <ele>182.34100341797</ele>
        <time>2010-07-24T17:15:35Z</time>
      </trkpt>
      <trkpt lat="45.17534" lon="4.8598">
        <ele>183.23899841309</ele>
        <time>2010-07-24T17:15:40Z</time>
      </trkpt>
      <trkpt lat="45.17513" lon="4.86021">
        <ele>184.72599792481</ele>
        <time>2010-07-24T17:15:45Z</time>
      </trkpt>
      <trkpt lat="45.17486" lon="4.86071">
        <ele>185.76300048828</ele>
        <time>2010-07-24T17:15:52Z</time>
      </trkpt>
      <trkpt lat="45.17459" lon="4.86123">
        <ele>187.64300537109</ele>
        <time>2010-07-24T17:16:00Z</time>
      </trkpt>
      <trkpt lat="45.17436" lon="4.86162">
        <ele>187.95399475098</ele>
        <time>2010-07-24T17:16:06Z</time>
      </trkpt>
      <trkpt lat="45.17406" lon="4.86209">
        <ele>187.35699462891</ele>
        <time>2010-07-24T17:16:13Z</time>
      </trkpt>
      <trkpt lat="45.17369" lon="4.86294">
        <ele>187.77600097656</ele>
        <time>2010-07-24T17:16:24Z</time>
      </trkpt>
      <trkpt lat="45.17336" lon="4.86381">
        <ele>187.95300292969</ele>
        <time>2010-07-24T17:16:35Z</time>
      </trkpt>
      <trkpt lat="45.1731" lon="4.8645">
        <ele>188.49800109863</ele>
        <time>2010-07-24T17:16:44Z</time>
      </trkpt>
      <trkpt lat="45.17277" lon="4.86529">
        <ele>189.47500610352</ele>
        <time>2010-07-24T17:16:54Z</time>
      </trkpt>
      <trkpt lat="45.17248" lon="4.86598">
        <ele>189.98699951172</ele>
        <time>2010-07-24T17:17:03Z</time>
      </trkpt>
      <trkpt lat="45.17227" lon="4.86649">
        <ele>190.2799987793</ele>
        <time>2010-07-24T17:17:10Z</time>
      </trkpt>
      <trkpt lat="45.17212" lon="4.86685">
        <ele>190.75100708008</ele>
        <time>2010-07-24T17:17:16Z</time>
      </trkpt>
      <trkpt lat="45.17189" lon="4.86737">
        <ele>191.66799926758</ele>
        <time>2010-07-24T17:17:25Z</time>
      </trkpt>
      <trkpt lat="45.17177" lon="4.86766">
        <ele>191.30599975586</ele>
        <time>2010-07-24T17:17:30Z</time>
      </trkpt>
      <trkpt lat="45.17159" lon="4.86808">
        <ele>190.76800537109</ele>
        <time>2010-07-24T17:17:37Z</time>
      </trkpt>
      <trkpt lat="45.17149" lon="4.86833">
        <ele>189.90699768066</ele>
        <time>2010-07-24T17:17:41Z</time>
      </trkpt>
      <trkpt lat="45.17128" lon="4.86883">
        <ele>189.7619934082</ele>
        <time>2010-07-24T17:17:49Z</time>
      </trkpt>
      <trkpt lat="45.17109" lon="4.86928">
        <ele>189.24800109863</ele>
        <time>2010-07-24T17:17:56Z</time>
      </trkpt>
      <trkpt lat="45.171" lon="4.86947">
        <ele>189.20399475098</ele>
        <time>2010-07-24T17:17:59Z</time>
      </trkpt>
      <trkpt lat="45.17077" lon="4.87003">
        <ele>188.52200317383</ele>
        <time>2010-07-24T17:18:07Z</time>
      </trkpt>
      <trkpt lat="45.1705" lon="4.87067">
        <ele>188.64799499512</ele>
        <time>2010-07-24T17:18:16Z</time>
      </trkpt>
      <trkpt lat="45.17028" lon="4.8712">
        <ele>188.53100585938</ele>
        <time>2010-07-24T17:18:23Z</time>
      </trkpt>
      <trkpt lat="45.17011" lon="4.87161">
        <ele>189.10000610352</ele>
        <time>2010-07-24T17:18:29Z</time>
      </trkpt>
      <trkpt lat="45.17" lon="4.87188">
        <ele>189.88000488281</ele>
        <time>2010-07-24T17:18:33Z</time>
      </trkpt>
      <trkpt lat="45.16996" lon="4.87219">
        <ele>190.18499755859</ele>
        <time>2010-07-24T17:18:37Z</time>
      </trkpt>
      <trkpt lat="45.17" lon="4.87269">
        <ele>189.30000305176</ele>
        <time>2010-07-24T17:18:43Z</time>
      </trkpt>
      <trkpt lat="45.17009" lon="4.87325">
        <ele>189.63200378418</ele>
        <time>2010-07-24T17:18:50Z</time>
      </trkpt>
      <trkpt lat="45.17014" lon="4.87388">
        <ele>188.71899414062</ele>
        <time>2010-07-24T17:18:58Z</time>
      </trkpt>
      <trkpt lat="45.17016" lon="4.87415">
        <ele>188.19299316406</ele>
        <time>2010-07-24T17:19:01Z</time>
      </trkpt>
      <trkpt lat="45.17015" lon="4.87433">
        <ele>188.17599487305</ele>
        <time>2010-07-24T17:19:03Z</time>
      </trkpt>
      <trkpt lat="45.17019" lon="4.87486">
        <ele>187.63999938965</ele>
        <time>2010-07-24T17:19:09Z</time>
      </trkpt>
      <trkpt lat="45.17025" lon="4.87571">
        <ele>187.06700134277</ele>
        <time>2010-07-24T17:19:18Z</time>
      </trkpt>
      <trkpt lat="45.1702" lon="4.87639">
        <ele>186.88400268555</ele>
        <time>2010-07-24T17:19:25Z</time>
      </trkpt>
      <trkpt lat="45.17008" lon="4.87701">
        <ele>187.28999328613</ele>
        <time>2010-07-24T17:19:32Z</time>
      </trkpt>
      <trkpt lat="45.17006" lon="4.8771">
        <ele>187.45500183106</ele>
        <time>2010-07-24T17:19:33Z</time>
      </trkpt>
      <trkpt lat="45.16986" lon="4.87729">
        <ele>187.75799560547</ele>
        <time>2010-07-24T17:19:37Z</time>
      </trkpt>
      <trkpt lat="45.1698" lon="4.87729">
        <ele>187.54400634766</ele>
        <time>2010-07-24T17:19:38Z</time>
      </trkpt>
      <trkpt lat="45.16967" lon="4.87732">
        <ele>187.40899658203</ele>
        <time>2010-07-24T17:19:40Z</time>
      </trkpt>
      <trkpt lat="45.16912" lon="4.87753">
        <ele>187.85600280762</ele>
        <time>2010-07-24T17:19:49Z</time>
      </trkpt>
      <trkpt lat="45.16895" lon="4.87759">
        <ele>189.41600036621</ele>
        <time>2010-07-24T17:19:52Z</time>
      </trkpt>
      <trkpt lat="45.16879" lon="4.87765">
        <ele>188.64500427246</ele>
        <time>2010-07-24T17:19:55Z</time>
      </trkpt>
      <trkpt lat="45.16861" lon="4.87766">
        <ele>188.25199890137</ele>
        <time>2010-07-24T17:19:58Z</time>
      </trkpt>
      <trkpt lat="45.16837" lon="4.87775">
        <ele>188.68099975586</ele>
        <time>2010-07-24T17:20:03Z</time>
      </trkpt>
      <trkpt lat="45.16821" lon="4.87782">
        <ele>189.00100708008</ele>
        <time>2010-07-24T17:20:08Z</time>
      </trkpt>
      <trkpt lat="45.16819" lon="4.87787">
        <ele>190.2380065918</ele>
        <time>2010-07-24T17:20:13Z</time>
      </trkpt>
      <trkpt lat="45.16819" lon="4.87787">
        <ele>190.60699462891</ele>
        <time>2010-07-24T17:20:14Z</time>
      </trkpt>
      <trkpt lat="45.1682" lon="4.87789">
        <ele>190.1130065918</ele>
        <time>2010-07-24T17:20:59Z</time>
      </trkpt>
      <trkpt lat="45.1682" lon="4.87789">
        <ele>190.15199279785</ele>
        <time>2010-07-24T17:21:00Z</time>
      </trkpt>
      <trkpt lat="45.16821" lon="4.87791">
        <ele>190.56199645996</ele>
        <time>2010-07-24T17:21:07Z</time>
      </trkpt>
      <trkpt lat="45.16819" lon="4.87788">
        <ele>185.44799804688</ele>
        <time>2010-07-24T17:34:44Z</time>
      </trkpt>
      <trkpt lat="45.16818" lon="4.87787">
        <ele>185.44400024414</ele>
        <time>2010-07-24T17:34:45Z</time>
      </trkpt>
      <trkpt lat="45.16817" lon="4.87786">
        <ele>185.48399353027</ele>
        <time>2010-07-24T17:34:49Z</time>
      </trkpt>
      <trkpt lat="45.16822" lon="4.87781">
        <ele>185.14500427246</ele>
        <time>2010-07-24T17:34:59Z</time>
      </trkpt>
      <trkpt lat="45.16835" lon="4.87773">
        <ele>184</ele>
        <time>2010-07-24T17:35:05Z</time>
      </trkpt>
      <trkpt lat="45.16851" lon="4.87769">
        <ele>183.57000732422</ele>
        <time>2010-07-24T17:35:10Z</time>
      </trkpt>
      <trkpt lat="45.16858" lon="4.87769">
        <ele>183.71600341797</ele>
        <time>2010-07-24T17:35:12Z</time>
      </trkpt>
      <trkpt lat="45.16861" lon="4.87769">
        <ele>183.7559967041</ele>
        <time>2010-07-24T17:35:13Z</time>
      </trkpt>
      <trkpt lat="45.16884" lon="4.87765">
        <ele>183.48399353027</ele>
        <time>2010-07-24T17:35:20Z</time>
      </trkpt>
      <trkpt lat="45.16902" lon="4.87758">
        <ele>183.30400085449</ele>
        <time>2010-07-24T17:35:25Z</time>
      </trkpt>
      <trkpt lat="45.1693" lon="4.87747">
        <ele>183.14199829102</ele>
        <time>2010-07-24T17:35:32Z</time>
      </trkpt>
      <trkpt lat="45.1697" lon="4.87733">
        <ele>182.4880065918</ele>
        <time>2010-07-24T17:35:41Z</time>
      </trkpt>
      <trkpt lat="45.16986" lon="4.8774">
        <ele>182.75399780273</ele>
        <time>2010-07-24T17:35:45Z</time>
      </trkpt>
      <trkpt lat="45.16991" lon="4.87766">
        <ele>182.75199890137</ele>
        <time>2010-07-24T17:35:49Z</time>
      </trkpt>
      <trkpt lat="45.16991" lon="4.87782">
        <ele>182.34899902344</ele>
        <time>2010-07-24T17:35:51Z</time>
      </trkpt>
      <trkpt lat="45.16986" lon="4.87815">
        <ele>182.51499938965</ele>
        <time>2010-07-24T17:35:55Z</time>
      </trkpt>
      <trkpt lat="45.16982" lon="4.8784">
        <ele>182.47599792481</ele>
        <time>2010-07-24T17:35:58Z</time>
      </trkpt>
      <trkpt lat="45.1698" lon="4.87849">
        <ele>182.64599609375</ele>
        <time>2010-07-24T17:35:59Z</time>
      </trkpt>
      <trkpt lat="45.1697" lon="4.87904">
        <ele>183.63600158691</ele>
        <time>2010-07-24T17:36:05Z</time>
      </trkpt>
      <trkpt lat="45.16965" lon="4.87959">
        <ele>183.42900085449</ele>
        <time>2010-07-24T17:36:10Z</time>
      </trkpt>
      <trkpt lat="45.16967" lon="4.88029">
        <ele>184.27900695801</ele>
        <time>2010-07-24T17:36:16Z</time>
      </trkpt>
      <trkpt lat="45.16973" lon="4.88096">
        <ele>184.78500366211</ele>
        <time>2010-07-24T17:36:22Z</time>
      </trkpt>
      <trkpt lat="45.1698" lon="4.88175">
        <ele>185.72399902344</ele>
        <time>2010-07-24T17:36:30Z</time>
      </trkpt>
      <trkpt lat="45.16983" lon="4.88257">
        <ele>187.35800170898</ele>
        <time>2010-07-24T17:36:39Z</time>
      </trkpt>
      <trkpt lat="45.16975" lon="4.88324">
        <ele>188.48699951172</ele>
        <time>2010-07-24T17:36:47Z</time>
      </trkpt>
      <trkpt lat="45.16961" lon="4.88399">
        <ele>187.90199279785</ele>
        <time>2010-07-24T17:36:55Z</time>
      </trkpt>
      <trkpt lat="45.16944" lon="4.88492">
        <ele>188.72200012207</ele>
        <time>2010-07-24T17:37:05Z</time>
      </trkpt>
      <trkpt lat="45.16936" lon="4.88541">
        <ele>189.11599731445</ele>
        <time>2010-07-24T17:37:11Z</time>
      </trkpt>
      <trkpt lat="45.16924" lon="4.8861">
        <ele>191.75300598144</ele>
        <time>2010-07-24T17:37:20Z</time>
      </trkpt>
      <trkpt lat="45.16921" lon="4.88625">
        <ele>192.4049987793</ele>
        <time>2010-07-24T17:37:22Z</time>
      </trkpt>
      <trkpt lat="45.16909" lon="4.88687">
        <ele>194.66700744629</ele>
        <time>2010-07-24T17:37:31Z</time>
      </trkpt>
      <trkpt lat="45.16901" lon="4.88732">
        <ele>196.76300048828</ele>
        <time>2010-07-24T17:37:38Z</time>
      </trkpt>
      <trkpt lat="45.16892" lon="4.88782">
        <ele>199.44700622559</ele>
        <time>2010-07-24T17:37:46Z</time>
      </trkpt>
      <trkpt lat="45.16882" lon="4.88834">
        <ele>200.92500305176</ele>
        <time>2010-07-24T17:37:54Z</time>
      </trkpt>
      <trkpt lat="45.16872" lon="4.88891">
        <ele>202.52900695801</ele>
        <time>2010-07-24T17:38:02Z</time>
      </trkpt>
      <trkpt lat="45.16861" lon="4.88958">
        <ele>203.28500366211</ele>
        <time>2010-07-24T17:38:11Z</time>
      </trkpt>
      <trkpt lat="45.16847" lon="4.89028">
        <ele>203.94500732422</ele>
        <time>2010-07-24T17:38:20Z</time>
      </trkpt>
      <trkpt lat="45.16833" lon="4.89074">
        <ele>203.75199890137</ele>
        <time>2010-07-24T17:38:26Z</time>
      </trkpt>
      <trkpt lat="45.16813" lon="4.89112">
        <ele>203.64199829102</ele>
        <time>2010-07-24T17:38:32Z</time>
      </trkpt>
      <trkpt lat="45.16786" lon="4.89141">
        <ele>204.09800720215</ele>
        <time>2010-07-24T17:38:38Z</time>
      </trkpt>
      <trkpt lat="45.16782" lon="4.89145">
        <ele>204.28100585938</ele>
        <time>2010-07-24T17:38:39Z</time>
      </trkpt>
      <trkpt lat="45.16756" lon="4.89159">
        <ele>204.51899719238</ele>
        <time>2010-07-24T17:38:44Z</time>
      </trkpt>
      <trkpt lat="45.16719" lon="4.89171">
        <ele>204.6369934082</ele>
        <time>2010-07-24T17:38:51Z</time>
      </trkpt>
      <trkpt lat="45.16685" lon="4.8918">
        <ele>204.71099853516</ele>
        <time>2010-07-24T17:38:57Z</time>
      </trkpt>
      <trkpt lat="45.16643" lon="4.89194">
        <ele>204.15100097656</ele>
        <time>2010-07-24T17:39:04Z</time>
      </trkpt>
      <trkpt lat="45.16605" lon="4.89218">
        <ele>203.89999389648</ele>
        <time>2010-07-24T17:39:10Z</time>
      </trkpt>
      <trkpt lat="45.16576" lon="4.89255">
        <ele>203.39199829102</ele>
        <time>2010-07-24T17:39:15Z</time>
      </trkpt>
      <trkpt lat="45.16555" lon="4.89304">
        <ele>203.41700744629</ele>
        <time>2010-07-24T17:39:20Z</time>
      </trkpt>
      <trkpt lat="45.16533" lon="4.89389">
        <ele>203.18499755859</ele>
        <time>2010-07-24T17:39:28Z</time>
      </trkpt>
      <trkpt lat="45.16519" lon="4.89451">
        <ele>204.67199707031</ele>
        <time>2010-07-24T17:39:35Z</time>
      </trkpt>
      <trkpt lat="45.16504" lon="4.89515">
        <ele>205.46699523926</ele>
        <time>2010-07-24T17:39:43Z</time>
      </trkpt>
      <trkpt lat="45.16492" lon="4.89567">
        <ele>210.42100524902</ele>
        <time>2010-07-24T17:39:50Z</time>
      </trkpt>
      <trkpt lat="45.16478" lon="4.8963">
        <ele>212.1309967041</ele>
        <time>2010-07-24T17:39:59Z</time>
      </trkpt>
      <trkpt lat="45.16459" lon="4.89708">
        <ele>214.12699890137</ele>
        <time>2010-07-24T17:40:10Z</time>
      </trkpt>
      <trkpt lat="45.16442" lon="4.89778">
        <ele>216.16400146484</ele>
        <time>2010-07-24T17:40:20Z</time>
      </trkpt>
      <trkpt lat="45.16426" lon="4.89834">
        <ele>218.41900634766</ele>
        <time>2010-07-24T17:40:28Z</time>
      </trkpt>
      <trkpt lat="45.16402" lon="4.89895">
        <ele>220.7140045166</ele>
        <time>2010-07-24T17:40:37Z</time>
      </trkpt>
      <trkpt lat="45.16382" lon="4.89945">
        <ele>220.85000610352</ele>
        <time>2010-07-24T17:40:44Z</time>
      </trkpt>
      <trkpt lat="45.1636" lon="4.89999">
        <ele>220.88400268555</ele>
        <time>2010-07-24T17:40:50Z</time>
      </trkpt>
      <trkpt lat="45.16331" lon="4.90055">
        <ele>220.26800537109</ele>
        <time>2010-07-24T17:40:56Z</time>
      </trkpt>
      <trkpt lat="45.16287" lon="4.90123">
        <ele>221.65400695801</ele>
        <time>2010-07-24T17:41:04Z</time>
      </trkpt>
      <trkpt lat="45.16243" lon="4.90195">
        <ele>221.86199951172</ele>
        <time>2010-07-24T17:41:13Z</time>
      </trkpt>
      <trkpt lat="45.16205" lon="4.90267">
        <ele>224.12800598144</ele>
        <time>2010-07-24T17:41:22Z</time>
      </trkpt>
      <trkpt lat="45.1618" lon="4.9032">
        <ele>224.80900573731</ele>
        <time>2010-07-24T17:41:28Z</time>
      </trkpt>
      <trkpt lat="45.16146" lon="4.9039">
        <ele>226.31700134277</ele>
        <time>2010-07-24T17:41:37Z</time>
      </trkpt>
      <trkpt lat="45.16111" lon="4.90464">
        <ele>228.65100097656</ele>
        <time>2010-07-24T17:41:47Z</time>
      </trkpt>
      <trkpt lat="45.16078" lon="4.90542">
        <ele>231.17500305176</ele>
        <time>2010-07-24T17:41:57Z</time>
      </trkpt>
      <trkpt lat="45.16066" lon="4.90584">
        <ele>233.35699462891</ele>
        <time>2010-07-24T17:42:02Z</time>
      </trkpt>
      <trkpt lat="45.16043" lon="4.90659">
        <ele>234.16700744629</ele>
        <time>2010-07-24T17:42:11Z</time>
      </trkpt>
      <trkpt lat="45.16004" lon="4.90767">
        <ele>235.17100524902</ele>
        <time>2010-07-24T17:42:24Z</time>
      </trkpt>
      <trkpt lat="45.15979" lon="4.90835">
        <ele>237.40800476074</ele>
        <time>2010-07-24T17:42:33Z</time>
      </trkpt>
      <trkpt lat="45.15955" lon="4.90898">
        <ele>240.24099731445</ele>
        <time>2010-07-24T17:42:42Z</time>
      </trkpt>
      <trkpt lat="45.15929" lon="4.90941">
        <ele>240.22999572754</ele>
        <time>2010-07-24T17:42:49Z</time>
      </trkpt>
      <trkpt lat="45.1589" lon="4.90988">
        <ele>242.08399963379</ele>
        <time>2010-07-24T17:42:58Z</time>
      </trkpt>
      <trkpt lat="45.15846" lon="4.91023">
        <ele>244.11000061035</ele>
        <time>2010-07-24T17:43:07Z</time>
      </trkpt>
      <trkpt lat="45.158" lon="4.91051">
        <ele>245.4640045166</ele>
        <time>2010-07-24T17:43:16Z</time>
      </trkpt>
      <trkpt lat="45.15743" lon="4.9109">
        <ele>247.86099243164</ele>
        <time>2010-07-24T17:43:27Z</time>
      </trkpt>
      <trkpt lat="45.15693" lon="4.91125">
        <ele>249.5119934082</ele>
        <time>2010-07-24T17:43:36Z</time>
      </trkpt>
      <trkpt lat="45.15638" lon="4.91165">
        <ele>252.21000671387</ele>
        <time>2010-07-24T17:43:46Z</time>
      </trkpt>
      <trkpt lat="45.15596" lon="4.912">
        <ele>254.67900085449</ele>
        <time>2010-07-24T17:43:54Z</time>
      </trkpt>
      <trkpt lat="45.15549" lon="4.91253">
        <ele>256.02099609375</ele>
        <time>2010-07-24T17:44:04Z</time>
      </trkpt>
      <trkpt lat="45.1551" lon="4.91297">
        <ele>253.66499328613</ele>
        <time>2010-07-24T17:44:11Z</time>
      </trkpt>
      <trkpt lat="45.15468" lon="4.91352">
        <ele>251.21200561523</ele>
        <time>2010-07-24T17:44:18Z</time>
      </trkpt>
      <trkpt lat="45.15455" lon="4.9137">
        <ele>250.30000305176</ele>
        <time>2010-07-24T17:44:20Z</time>
      </trkpt>
      <trkpt lat="45.15428" lon="4.91387">
        <ele>248.49000549316</ele>
        <time>2010-07-24T17:44:23Z</time>
      </trkpt>
      <trkpt lat="45.15411" lon="4.91398">
        <ele>247.33700561523</ele>
        <time>2010-07-24T17:44:25Z</time>
      </trkpt>
      <trkpt lat="45.15406" lon="4.91421">
        <ele>246.60299682617</ele>
        <time>2010-07-24T17:44:27Z</time>
      </trkpt>
      <trkpt lat="45.15398" lon="4.91453">
        <ele>244.72900390625</ele>
        <time>2010-07-24T17:44:30Z</time>
      </trkpt>
      <trkpt lat="45.15392" lon="4.91462">
        <ele>244.59700012207</ele>
        <time>2010-07-24T17:44:31Z</time>
      </trkpt>
      <trkpt lat="45.15352" lon="4.91519">
        <ele>243.00399780273</ele>
        <time>2010-07-24T17:44:37Z</time>
      </trkpt>
      <trkpt lat="45.15272" lon="4.91632">
        <ele>241.02099609375</ele>
        <time>2010-07-24T17:44:48Z</time>
      </trkpt>
      <trkpt lat="45.15215" lon="4.91713">
        <ele>239.97099304199</ele>
        <time>2010-07-24T17:44:56Z</time>
      </trkpt>
      <trkpt lat="45.15154" lon="4.91801">
        <ele>239.55299377441</ele>
        <time>2010-07-24T17:45:05Z</time>
      </trkpt>
      <trkpt lat="45.15101" lon="4.91893">
        <ele>240.28999328613</ele>
        <time>2010-07-24T17:45:14Z</time>
      </trkpt>
      <trkpt lat="45.15066" lon="4.91962">
        <ele>239.26699829102</ele>
        <time>2010-07-24T17:45:21Z</time>
      </trkpt>
      <trkpt lat="45.15035" lon="4.92033">
        <ele>237.70899963379</ele>
        <time>2010-07-24T17:45:28Z</time>
      </trkpt>
      <trkpt lat="45.15009" lon="4.9209">
        <ele>237.88200378418</ele>
        <time>2010-07-24T17:45:34Z</time>
      </trkpt>
      <trkpt lat="45.14982" lon="4.92151">
        <ele>238.25399780273</ele>
        <time>2010-07-24T17:45:41Z</time>
      </trkpt>
      <trkpt lat="45.14953" lon="4.92217">
        <ele>240.31500244141</ele>
        <time>2010-07-24T17:45:50Z</time>
      </trkpt>
      <trkpt lat="45.14923" lon="4.92282">
        <ele>242.05299377441</ele>
        <time>2010-07-24T17:45:59Z</time>
      </trkpt>
      <trkpt lat="45.14895" lon="4.92346">
        <ele>243.57099914551</ele>
        <time>2010-07-24T17:46:08Z</time>
      </trkpt>
      <trkpt lat="45.14866" lon="4.92409">
        <ele>245.2380065918</ele>
        <time>2010-07-24T17:46:17Z</time>
      </trkpt>
      <trkpt lat="45.14863" lon="4.92415">
        <ele>245.52499389648</ele>
        <time>2010-07-24T17:46:18Z</time>
      </trkpt>
      <trkpt lat="45.14849" lon="4.92452">
        <ele>246.54200744629</ele>
        <time>2010-07-24T17:46:24Z</time>
      </trkpt>
      <trkpt lat="45.14828" lon="4.92497">
        <ele>247.91799926758</ele>
        <time>2010-07-24T17:46:32Z</time>
      </trkpt>
      <trkpt lat="45.14816" lon="4.92526">
        <ele>249.02099609375</ele>
        <time>2010-07-24T17:46:38Z</time>
      </trkpt>
      <trkpt lat="45.14803" lon="4.92557">
        <ele>249.18099975586</ele>
        <time>2010-07-24T17:46:44Z</time>
      </trkpt>
      <trkpt lat="45.14788" lon="4.92598">
        <ele>248.7559967041</ele>
        <time>2010-07-24T17:46:51Z</time>
      </trkpt>
      <trkpt lat="45.14768" lon="4.92651">
        <ele>249.44200134277</ele>
        <time>2010-07-24T17:46:59Z</time>
      </trkpt>
      <trkpt lat="45.14745" lon="4.92713">
        <ele>248.94799804688</ele>
        <time>2010-07-24T17:47:08Z</time>
      </trkpt>
      <trkpt lat="45.14722" lon="4.92779">
        <ele>249.78100585938</ele>
        <time>2010-07-24T17:47:17Z</time>
      </trkpt>
      <trkpt lat="45.14697" lon="4.92847">
        <ele>249.6309967041</ele>
        <time>2010-07-24T17:47:26Z</time>
      </trkpt>
      <trkpt lat="45.14671" lon="4.9291">
        <ele>250.54499816894</ele>
        <time>2010-07-24T17:47:35Z</time>
      </trkpt>
      <trkpt lat="45.14642" lon="4.92959">
        <ele>251.39199829102</ele>
        <time>2010-07-24T17:47:43Z</time>
      </trkpt>
      <trkpt lat="45.14594" lon="4.93031">
        <ele>252.59899902344</ele>
        <time>2010-07-24T17:47:55Z</time>
      </trkpt>
      <trkpt lat="45.14541" lon="4.93111">
        <ele>254.47599792481</ele>
        <time>2010-07-24T17:48:08Z</time>
      </trkpt>
      <trkpt lat="45.14485" lon="4.93194">
        <ele>255.59800720215</ele>
        <time>2010-07-24T17:48:21Z</time>
      </trkpt>
      <trkpt lat="45.14436" lon="4.93266">
        <ele>257.15600585938</ele>
        <time>2010-07-24T17:48:32Z</time>
      </trkpt>
      <trkpt lat="45.14388" lon="4.93339">
        <ele>258.97100830078</ele>
        <time>2010-07-24T17:48:44Z</time>
      </trkpt>
      <trkpt lat="45.14354" lon="4.9339">
        <ele>260.03500366211</ele>
        <time>2010-07-24T17:48:53Z</time>
      </trkpt>
      <trkpt lat="45.14319" lon="4.93448">
        <ele>261.51998901367</ele>
        <time>2010-07-24T17:49:03Z</time>
      </trkpt>
      <trkpt lat="45.14286" lon="4.93506">
        <ele>264.07598876953</ele>
        <time>2010-07-24T17:49:13Z</time>
      </trkpt>
      <trkpt lat="45.14255" lon="4.93562">
        <ele>265.51400756836</ele>
        <time>2010-07-24T17:49:23Z</time>
      </trkpt>
      <trkpt lat="45.14219" lon="4.93626">
        <ele>267.20199584961</ele>
        <time>2010-07-24T17:49:35Z</time>
      </trkpt>
      <trkpt lat="45.14186" lon="4.93683">
        <ele>269.47100830078</ele>
        <time>2010-07-24T17:49:47Z</time>
      </trkpt>
      <trkpt lat="45.14164" lon="4.93725">
        <ele>271.3330078125</ele>
        <time>2010-07-24T17:49:57Z</time>
      </trkpt>
      <trkpt lat="45.14149" lon="4.93756">
        <ele>272.39999389648</ele>
        <time>2010-07-24T17:50:06Z</time>
      </trkpt>
      <trkpt lat="45.14136" lon="4.93785">
        <ele>273.84600830078</ele>
        <time>2010-07-24T17:50:15Z</time>
      </trkpt>
      <trkpt lat="45.14128" lon="4.93804">
        <ele>274.22799682617</ele>
        <time>2010-07-24T17:50:22Z</time>
      </trkpt>
      <trkpt lat="45.14118" lon="4.93828">
        <ele>275.35598754883</ele>
        <time>2010-07-24T17:50:29Z</time>
      </trkpt>
      <trkpt lat="45.14107" lon="4.93856">
        <ele>276.75799560547</ele>
        <time>2010-07-24T17:50:36Z</time>
      </trkpt>
      <trkpt lat="45.14096" lon="4.93884">
        <ele>277.51400756836</ele>
        <time>2010-07-24T17:50:45Z</time>
      </trkpt>
      <trkpt lat="45.14083" lon="4.9391">
        <ele>279.48599243164</ele>
        <time>2010-07-24T17:50:54Z</time>
      </trkpt>
      <trkpt lat="45.14073" lon="4.93935">
        <ele>280.69799804688</ele>
        <time>2010-07-24T17:51:03Z</time>
      </trkpt>
      <trkpt lat="45.14061" lon="4.93963">
        <ele>281.40301513672</ele>
        <time>2010-07-24T17:51:13Z</time>
      </trkpt>
      <trkpt lat="45.14052" lon="4.93987">
        <ele>282.35299682617</ele>
        <time>2010-07-24T17:51:21Z</time>
      </trkpt>
      <trkpt lat="45.1404" lon="4.94015">
        <ele>283.50799560547</ele>
        <time>2010-07-24T17:51:31Z</time>
      </trkpt>
      <trkpt lat="45.14025" lon="4.94047">
        <ele>284.85299682617</ele>
        <time>2010-07-24T17:51:42Z</time>
      </trkpt>
      <trkpt lat="45.14012" lon="4.94082">
        <ele>286.43499755859</ele>
        <time>2010-07-24T17:51:53Z</time>
      </trkpt>
      <trkpt lat="45.14001" lon="4.94109">
        <ele>287.72601318359</ele>
        <time>2010-07-24T17:52:02Z</time>
      </trkpt>
      <trkpt lat="45.13992" lon="4.94132">
        <ele>288.35400390625</ele>
        <time>2010-07-24T17:52:09Z</time>
      </trkpt>
      <trkpt lat="45.13984" lon="4.94151">
        <ele>288.82299804688</ele>
        <time>2010-07-24T17:52:15Z</time>
      </trkpt>
      <trkpt lat="45.13968" lon="4.94182">
        <ele>289.43899536133</ele>
        <time>2010-07-24T17:52:25Z</time>
      </trkpt>
      <trkpt lat="45.13948" lon="4.94209">
        <ele>290.18200683594</ele>
        <time>2010-07-24T17:52:34Z</time>
      </trkpt>
      <trkpt lat="45.13924" lon="4.94236">
        <ele>290.17001342773</ele>
        <time>2010-07-24T17:52:43Z</time>
      </trkpt>
      <trkpt lat="45.13896" lon="4.94268">
        <ele>290.04901123047</ele>
        <time>2010-07-24T17:52:52Z</time>
      </trkpt>
      <trkpt lat="45.13892" lon="4.94271">
        <ele>290.07998657227</ele>
        <time>2010-07-24T17:52:53Z</time>
      </trkpt>
      <trkpt lat="45.13858" lon="4.94311">
        <ele>289.57501220703</ele>
        <time>2010-07-24T17:53:03Z</time>
      </trkpt>
      <trkpt lat="45.13842" lon="4.94334">
        <ele>289.41500854492</ele>
        <time>2010-07-24T17:53:08Z</time>
      </trkpt>
      <trkpt lat="45.13822" lon="4.94377">
        <ele>288.6130065918</ele>
        <time>2010-07-24T17:53:16Z</time>
      </trkpt>
      <trkpt lat="45.13804" lon="4.94426">
        <ele>288.01501464844</ele>
        <time>2010-07-24T17:53:25Z</time>
      </trkpt>
      <trkpt lat="45.13785" lon="4.94483">
        <ele>287.64599609375</ele>
        <time>2010-07-24T17:53:35Z</time>
      </trkpt>
      <trkpt lat="45.13759" lon="4.94557">
        <ele>286.24899291992</ele>
        <time>2010-07-24T17:53:47Z</time>
      </trkpt>
      <trkpt lat="45.13744" lon="4.94592">
        <ele>286.82000732422</ele>
        <time>2010-07-24T17:53:54Z</time>
      </trkpt>
      <trkpt lat="45.13729" lon="4.94619">
        <ele>287.45901489258</ele>
        <time>2010-07-24T17:54:01Z</time>
      </trkpt>
      <trkpt lat="45.13718" lon="4.94637">
        <ele>287.70300292969</ele>
        <time>2010-07-24T17:54:06Z</time>
      </trkpt>
      <trkpt lat="45.13692" lon="4.94675">
        <ele>288.8219909668</ele>
        <time>2010-07-24T17:54:17Z</time>
      </trkpt>
      <trkpt lat="45.13666" lon="4.94707">
        <ele>289.5</ele>
        <time>2010-07-24T17:54:27Z</time>
      </trkpt>
      <trkpt lat="45.13646" lon="4.94734">
        <ele>290.17999267578</ele>
        <time>2010-07-24T17:54:35Z</time>
      </trkpt>
      <trkpt lat="45.13628" lon="4.94748">
        <ele>290.86499023438</ele>
        <time>2010-07-24T17:54:41Z</time>
      </trkpt>
      <trkpt lat="45.13601" lon="4.9477">
        <ele>292.01901245117</ele>
        <time>2010-07-24T17:54:51Z</time>
      </trkpt>
      <trkpt lat="45.13578" lon="4.94783">
        <ele>293.30801391602</ele>
        <time>2010-07-24T17:54:59Z</time>
      </trkpt>
      <trkpt lat="45.13547" lon="4.94797">
        <ele>292.19500732422</ele>
        <time>2010-07-24T17:55:08Z</time>
      </trkpt>
      <trkpt lat="45.13543" lon="4.948">
        <ele>292.13900756836</ele>
        <time>2010-07-24T17:55:09Z</time>
      </trkpt>
      <trkpt lat="45.13523" lon="4.9481">
        <ele>291.19299316406</ele>
        <time>2010-07-24T17:55:13Z</time>
      </trkpt>
      <trkpt lat="45.13498" lon="4.94808">
        <ele>289.86401367188</ele>
        <time>2010-07-24T17:55:17Z</time>
      </trkpt>
      <trkpt lat="45.13446" lon="4.94812">
        <ele>288.07598876953</ele>
        <time>2010-07-24T17:55:24Z</time>
      </trkpt>
      <trkpt lat="45.13404" lon="4.94814">
        <ele>287.29400634766</ele>
        <time>2010-07-24T17:55:29Z</time>
      </trkpt>
      <trkpt lat="45.13371" lon="4.94826">
        <ele>285.58099365234</ele>
        <time>2010-07-24T17:55:33Z</time>
      </trkpt>
      <trkpt lat="45.1333" lon="4.94849">
        <ele>284.59399414062</ele>
        <time>2010-07-24T17:55:38Z</time>
      </trkpt>
      <trkpt lat="45.13304" lon="4.94889">
        <ele>282.89898681641</ele>
        <time>2010-07-24T17:55:42Z</time>
      </trkpt>
      <trkpt lat="45.13298" lon="4.94934">
        <ele>279.71600341797</ele>
        <time>2010-07-24T17:55:45Z</time>
      </trkpt>
      <trkpt lat="45.13283" lon="4.95012">
        <ele>276.48001098633</ele>
        <time>2010-07-24T17:55:50Z</time>
      </trkpt>
      <trkpt lat="45.13261" lon="4.95047">
        <ele>274.67199707031</ele>
        <time>2010-07-24T17:55:53Z</time>
      </trkpt>
      <trkpt lat="45.13251" lon="4.95056">
        <ele>274.38000488281</ele>
        <time>2010-07-24T17:55:54Z</time>
      </trkpt>
      <trkpt lat="45.1319" lon="4.95101">
        <ele>272.28900146484</ele>
        <time>2010-07-24T17:56:00Z</time>
      </trkpt>
      <trkpt lat="45.13159" lon="4.9515">
        <ele>267.79800415039</ele>
        <time>2010-07-24T17:56:04Z</time>
      </trkpt>
      <trkpt lat="45.13155" lon="4.95183">
        <ele>266.10900878906</ele>
        <time>2010-07-24T17:56:06Z</time>
      </trkpt>
      <trkpt lat="45.13144" lon="4.95265">
        <ele>264.93200683594</ele>
        <time>2010-07-24T17:56:11Z</time>
      </trkpt>
      <trkpt lat="45.13128" lon="4.95334">
        <ele>261.46099853516</ele>
        <time>2010-07-24T17:56:15Z</time>
      </trkpt>
      <trkpt lat="45.13102" lon="4.95387">
        <ele>261.05700683594</ele>
        <time>2010-07-24T17:56:19Z</time>
      </trkpt>
      <trkpt lat="45.13079" lon="4.9541">
        <ele>263.39300537109</ele>
        <time>2010-07-24T17:56:22Z</time>
      </trkpt>
      <trkpt lat="45.1304" lon="4.95434">
        <ele>266.0950012207</ele>
        <time>2010-07-24T17:56:28Z</time>
      </trkpt>
      <trkpt lat="45.13018" lon="4.95445">
        <ele>267.23498535156</ele>
        <time>2010-07-24T17:56:33Z</time>
      </trkpt>
      <trkpt lat="45.12993" lon="4.95455">
        <ele>268.74200439453</ele>
        <time>2010-07-24T17:56:40Z</time>
      </trkpt>
      <trkpt lat="45.12978" lon="4.95461">
        <ele>269.27899169922</ele>
        <time>2010-07-24T17:56:45Z</time>
      </trkpt>
      <trkpt lat="45.12951" lon="4.95472">
        <ele>270.60900878906</ele>
        <time>2010-07-24T17:56:54Z</time>
      </trkpt>
      <trkpt lat="45.12925" lon="4.95483">
        <ele>271.86599731445</ele>
        <time>2010-07-24T17:57:04Z</time>
      </trkpt>
      <trkpt lat="45.12893" lon="4.95497">
        <ele>273.45401000977</ele>
        <time>2010-07-24T17:57:16Z</time>
      </trkpt>
      <trkpt lat="45.12866" lon="4.9551">
        <ele>275.03201293945</ele>
        <time>2010-07-24T17:57:27Z</time>
      </trkpt>
      <trkpt lat="45.1284" lon="4.95527">
        <ele>275.74301147461</ele>
        <time>2010-07-24T17:57:36Z</time>
      </trkpt>
      <trkpt lat="45.12816" lon="4.95547">
        <ele>276.70098876953</ele>
        <time>2010-07-24T17:57:45Z</time>
      </trkpt>
      <trkpt lat="45.12793" lon="4.95571">
        <ele>276.58801269531</ele>
        <time>2010-07-24T17:57:54Z</time>
      </trkpt>
      <trkpt lat="45.12765" lon="4.95604">
        <ele>275.77899169922</ele>
        <time>2010-07-24T17:58:04Z</time>
      </trkpt>
      <trkpt lat="45.12743" lon="4.9563">
        <ele>274.57299804688</ele>
        <time>2010-07-24T17:58:10Z</time>
      </trkpt>
      <trkpt lat="45.12717" lon="4.9566">
        <ele>272.5950012207</ele>
        <time>2010-07-24T17:58:15Z</time>
      </trkpt>
      <trkpt lat="45.12705" lon="4.95672">
        <ele>271.78201293945</ele>
        <time>2010-07-24T17:58:17Z</time>
      </trkpt>
      <trkpt lat="45.12674" lon="4.9569">
        <ele>269.47299194336</ele>
        <time>2010-07-24T17:58:21Z</time>
      </trkpt>
      <trkpt lat="45.12638" lon="4.95703">
        <ele>267.3030090332</ele>
        <time>2010-07-24T17:58:25Z</time>
      </trkpt>
      <trkpt lat="45.12605" lon="4.95733">
        <ele>265.1369934082</ele>
        <time>2010-07-24T17:58:29Z</time>
      </trkpt>
      <trkpt lat="45.12599" lon="4.95745">
        <ele>264.12399291992</ele>
        <time>2010-07-24T17:58:30Z</time>
      </trkpt>
      <trkpt lat="45.12553" lon="4.95847">
        <ele>259.09201049805</ele>
        <time>2010-07-24T17:58:38Z</time>
      </trkpt>
      <trkpt lat="45.12506" lon="4.95953">
        <ele>254.44700622559</ele>
        <time>2010-07-24T17:58:46Z</time>
      </trkpt>
      <trkpt lat="45.12481" lon="4.96007">
        <ele>252.41799926758</ele>
        <time>2010-07-24T17:58:50Z</time>
      </trkpt>
      <trkpt lat="45.12445" lon="4.96088">
        <ele>249.65899658203</ele>
        <time>2010-07-24T17:58:56Z</time>
      </trkpt>
      <trkpt lat="45.124" lon="4.96191">
        <ele>248.19700622559</ele>
        <time>2010-07-24T17:59:04Z</time>
      </trkpt>
      <trkpt lat="45.1237" lon="4.96243">
        <ele>245.88600158691</ele>
        <time>2010-07-24T17:59:08Z</time>
      </trkpt>
      <trkpt lat="45.12327" lon="4.96288">
        <ele>241.76899719238</ele>
        <time>2010-07-24T17:59:12Z</time>
      </trkpt>
      <trkpt lat="45.12261" lon="4.9633">
        <ele>236.01899719238</ele>
        <time>2010-07-24T17:59:17Z</time>
      </trkpt>
      <trkpt lat="45.12175" lon="4.96372">
        <ele>228.06799316406</ele>
        <time>2010-07-24T17:59:23Z</time>
      </trkpt>
      <trkpt lat="45.121" lon="4.964">
        <ele>223.98300170898</ele>
        <time>2010-07-24T17:59:28Z</time>
      </trkpt>
      <trkpt lat="45.12045" lon="4.96443">
        <ele>219.54100036621</ele>
        <time>2010-07-24T17:59:32Z</time>
      </trkpt>
      <trkpt lat="45.11991" lon="4.96494">
        <ele>213.56199645996</ele>
        <time>2010-07-24T17:59:36Z</time>
      </trkpt>
      <trkpt lat="45.11976" lon="4.96498">
        <ele>212.92599487305</ele>
        <time>2010-07-24T17:59:37Z</time>
      </trkpt>
      <trkpt lat="45.11945" lon="4.96506">
        <ele>210.13400268555</ele>
        <time>2010-07-24T17:59:39Z</time>
      </trkpt>
      <trkpt lat="45.11904" lon="4.96536">
        <ele>207.32699584961</ele>
        <time>2010-07-24T17:59:42Z</time>
      </trkpt>
      <trkpt lat="45.11877" lon="4.96587">
        <ele>205.9880065918</ele>
        <time>2010-07-24T17:59:45Z</time>
      </trkpt>
      <trkpt lat="45.11871" lon="4.96605">
        <ele>206.02099609375</ele>
        <time>2010-07-24T17:59:46Z</time>
      </trkpt>
      <trkpt lat="45.11845" lon="4.96694">
        <ele>205.83000183106</ele>
        <time>2010-07-24T17:59:51Z</time>
      </trkpt>
      <trkpt lat="45.1182" lon="4.96751">
        <ele>204.69099426269</ele>
        <time>2010-07-24T17:59:55Z</time>
      </trkpt>
      <trkpt lat="45.11786" lon="4.96802">
        <ele>203.96600341797</ele>
        <time>2010-07-24T18:00:00Z</time>
      </trkpt>
      <trkpt lat="45.11771" lon="4.96819">
        <ele>204.18899536133</ele>
        <time>2010-07-24T18:00:02Z</time>
      </trkpt>
      <trkpt lat="45.11749" lon="4.96823">
        <ele>204.31500244141</ele>
        <time>2010-07-24T18:00:05Z</time>
      </trkpt>
      <trkpt lat="45.11741" lon="4.96819">
        <ele>205.01699829102</ele>
        <time>2010-07-24T18:00:07Z</time>
      </trkpt>
      <trkpt lat="45.11739" lon="4.96818">
        <ele>205.45300292969</ele>
        <time>2010-07-24T18:00:10Z</time>
      </trkpt>
      <trkpt lat="45.11734" lon="4.96816">
        <ele>205.19599914551</ele>
        <time>2010-07-24T18:00:39Z</time>
      </trkpt>
      <trkpt lat="45.11721" lon="4.96801">
        <ele>204.85800170898</ele>
        <time>2010-07-24T18:00:46Z</time>
      </trkpt>
      <trkpt lat="45.11707" lon="4.96782">
        <ele>204.76800537109</ele>
        <time>2010-07-24T18:00:52Z</time>
      </trkpt>
      <trkpt lat="45.11687" lon="4.9675">
        <ele>204.1609954834</ele>
        <time>2010-07-24T18:00:59Z</time>
      </trkpt>
      <trkpt lat="45.11665" lon="4.96708">
        <ele>203.36099243164</ele>
        <time>2010-07-24T18:01:06Z</time>
      </trkpt>
      <trkpt lat="45.11636" lon="4.96637">
        <ele>202.62300109863</ele>
        <time>2010-07-24T18:01:16Z</time>
      </trkpt>
      <trkpt lat="45.11605" lon="4.96558">
        <ele>202.73399353027</ele>
        <time>2010-07-24T18:01:27Z</time>
      </trkpt>
      <trkpt lat="45.11584" lon="4.96506">
        <ele>203.0950012207</ele>
        <time>2010-07-24T18:01:35Z</time>
      </trkpt>
      <trkpt lat="45.11582" lon="4.965">
        <ele>203.06900024414</ele>
        <time>2010-07-24T18:01:36Z</time>
      </trkpt>
      <trkpt lat="45.1158" lon="4.9647">
        <ele>203.40100097656</ele>
        <time>2010-07-24T18:01:41Z</time>
      </trkpt>
      <trkpt lat="45.11581" lon="4.96454">
        <ele>204.12199401856</ele>
        <time>2010-07-24T18:01:45Z</time>
      </trkpt>
      <trkpt lat="45.11576" lon="4.96444">
        <ele>203.65600585938</ele>
        <time>2010-07-24T18:01:50Z</time>
      </trkpt>
      <trkpt lat="45.11575" lon="4.96444">
        <ele>203.5059967041</ele>
        <time>2010-07-24T18:01:53Z</time>
      </trkpt>
      <trkpt lat="45.11564" lon="4.96446">
        <ele>203.58200073242</ele>
        <time>2010-07-24T18:02:17Z</time>
      </trkpt>
      <trkpt lat="45.11559" lon="4.96431">
        <ele>203.92199707031</ele>
        <time>2010-07-24T18:02:21Z</time>
      </trkpt>
      <trkpt lat="45.11562" lon="4.96424">
        <ele>204.75700378418</ele>
        <time>2010-07-24T18:02:24Z</time>
      </trkpt>
      <trkpt lat="45.11565" lon="4.96426">
        <ele>204.75100708008</ele>
        <time>2010-07-24T18:02:29Z</time>
      </trkpt>
    </trkseg>
  </trk>
</gpx>